<?xml version="1.0" encoding="UTF-8" standalone="no" ?>
<gpx xmlns="http://www.topografix.com/GPX/1/1" xmlns:xsi="http://www.w3.org/2001/XMLSchema-instance" xsi:schemaLocation="http://www.topografix.com/GPX/1/1 http://www.topografix.com/GPX/1/1/gpx.xsd" version="1.1" creator="VisuGPX - https://www.visugpx.com">
  <metadata>
    <name>Cime de roccasiera</name>
    <desc><![CDATA[Avec Vincent et Léonie. Belle balade avec de beaux points de vues.]]></desc>
  </metadata>
  <trk>
    <name><![CDATA[Cime de Roccassiera]]></name>
    <cmt><![CDATA[Avec Vincent et Léonie.
Points de vue très beaux sur la mer et la montagne.
Randoxygène n°42 (moyen pays)]]></cmt>
    <trkseg>
      <trkpt lat="43.90308" lon="7.26161">
        <ele>400.98400878906</ele>
        <time>2014-12-21T08:16:33Z</time>
      </trkpt>
      <trkpt lat="43.90305" lon="7.26171">
        <ele>401.91796875</ele>
        <time>2014-12-21T08:16:39Z</time>
      </trkpt>
      <trkpt lat="43.90298" lon="7.26184">
        <ele>408.88073730469</ele>
        <time>2014-12-21T08:16:47Z</time>
      </trkpt>
      <trkpt lat="43.90294" lon="7.2619">
        <ele>411.99533081055</ele>
        <time>2014-12-21T08:16:53Z</time>
      </trkpt>
      <trkpt lat="43.90291" lon="7.26194">
        <ele>413.43936157227</ele>
        <time>2014-12-21T08:16:56Z</time>
      </trkpt>
      <trkpt lat="43.90288" lon="7.26201">
        <ele>415.42645263672</ele>
        <time>2014-12-21T08:17:04Z</time>
      </trkpt>
      <trkpt lat="43.90287" lon="7.26202">
        <ele>415.73767089844</ele>
        <time>2014-12-21T08:17:07Z</time>
      </trkpt>
      <trkpt lat="43.9028" lon="7.26203">
        <ele>415.88034057617</ele>
        <time>2014-12-21T08:17:15Z</time>
      </trkpt>
      <trkpt lat="43.90276" lon="7.26204">
        <ele>416.14346313477</ele>
        <time>2014-12-21T08:17:21Z</time>
      </trkpt>
      <trkpt lat="43.90269" lon="7.26204">
        <ele>416.93511962891</ele>
        <time>2014-12-21T08:17:28Z</time>
      </trkpt>
      <trkpt lat="43.90266" lon="7.26208">
        <ele>417.52053833008</ele>
        <time>2014-12-21T08:17:33Z</time>
      </trkpt>
      <trkpt lat="43.90265" lon="7.26217">
        <ele>418.15502929688</ele>
        <time>2014-12-21T08:17:40Z</time>
      </trkpt>
      <trkpt lat="43.90266" lon="7.26218">
        <ele>418.1584777832</ele>
        <time>2014-12-21T08:17:41Z</time>
      </trkpt>
      <trkpt lat="43.90276" lon="7.26225">
        <ele>418.79510498047</ele>
        <time>2014-12-21T08:17:49Z</time>
      </trkpt>
      <trkpt lat="43.90281" lon="7.26227">
        <ele>420.30267333984</ele>
        <time>2014-12-21T08:17:54Z</time>
      </trkpt>
      <trkpt lat="43.90285" lon="7.26231">
        <ele>422.56982421875</ele>
        <time>2014-12-21T08:17:59Z</time>
      </trkpt>
      <trkpt lat="43.9029" lon="7.26239">
        <ele>426.66137695312</ele>
        <time>2014-12-21T08:18:07Z</time>
      </trkpt>
      <trkpt lat="43.90294" lon="7.26244">
        <ele>429.22595214844</ele>
        <time>2014-12-21T08:18:13Z</time>
      </trkpt>
      <trkpt lat="43.90292" lon="7.26243">
        <ele>428.5705871582</ele>
        <time>2014-12-21T08:18:17Z</time>
      </trkpt>
      <trkpt lat="43.90292" lon="7.26246">
        <ele>429.39416503906</ele>
        <time>2014-12-21T08:18:22Z</time>
      </trkpt>
      <trkpt lat="43.90296" lon="7.26251">
        <ele>432.76992797852</ele>
        <time>2014-12-21T08:18:30Z</time>
      </trkpt>
      <trkpt lat="43.90295" lon="7.26252">
        <ele>433.32952880859</ele>
        <time>2014-12-21T08:18:34Z</time>
      </trkpt>
      <trkpt lat="43.90294" lon="7.26251">
        <ele>431.95623779297</ele>
        <time>2014-12-21T08:18:39Z</time>
      </trkpt>
      <trkpt lat="43.90296" lon="7.26253">
        <ele>433.85137939453</ele>
        <time>2014-12-21T08:18:45Z</time>
      </trkpt>
      <trkpt lat="43.90295" lon="7.26255">
        <ele>434.71313476562</ele>
        <time>2014-12-21T08:18:50Z</time>
      </trkpt>
      <trkpt lat="43.9029" lon="7.26259">
        <ele>435.23498535156</ele>
        <time>2014-12-21T08:18:58Z</time>
      </trkpt>
      <trkpt lat="43.9029" lon="7.26263">
        <ele>437.50778198242</ele>
        <time>2014-12-21T08:19:05Z</time>
      </trkpt>
      <trkpt lat="43.90294" lon="7.26265">
        <ele>439.89385986328</ele>
        <time>2014-12-21T08:19:12Z</time>
      </trkpt>
      <trkpt lat="43.90294" lon="7.2627">
        <ele>442.43615722656</ele>
        <time>2014-12-21T08:19:18Z</time>
      </trkpt>
      <trkpt lat="43.90297" lon="7.26273">
        <ele>444.87377929688</ele>
        <time>2014-12-21T08:19:25Z</time>
      </trkpt>
      <trkpt lat="43.90299" lon="7.26273">
        <ele>445.69946289062</ele>
        <time>2014-12-21T08:19:35Z</time>
      </trkpt>
      <trkpt lat="43.90303" lon="7.26275">
        <ele>447.73193359375</ele>
        <time>2014-12-21T08:21:05Z</time>
      </trkpt>
      <trkpt lat="43.90301" lon="7.26281">
        <ele>450.12554931641</ele>
        <time>2014-12-21T08:21:13Z</time>
      </trkpt>
      <trkpt lat="43.90299" lon="7.26283">
        <ele>450.32495117188</ele>
        <time>2014-12-21T08:21:16Z</time>
      </trkpt>
      <trkpt lat="43.90292" lon="7.26288">
        <ele>450.806640625</ele>
        <time>2014-12-21T08:21:26Z</time>
      </trkpt>
      <trkpt lat="43.90284" lon="7.26294">
        <ele>451.77606201172</ele>
        <time>2014-12-21T08:21:34Z</time>
      </trkpt>
      <trkpt lat="43.90276" lon="7.26298">
        <ele>452.36370849609</ele>
        <time>2014-12-21T08:21:41Z</time>
      </trkpt>
      <trkpt lat="43.9027" lon="7.26304">
        <ele>453.71243286133</ele>
        <time>2014-12-21T08:21:48Z</time>
      </trkpt>
      <trkpt lat="43.90268" lon="7.26305">
        <ele>453.52523803711</ele>
        <time>2014-12-21T08:21:50Z</time>
      </trkpt>
      <trkpt lat="43.90265" lon="7.26309">
        <ele>454.5285949707</ele>
        <time>2014-12-21T08:21:54Z</time>
      </trkpt>
      <trkpt lat="43.9026" lon="7.26319">
        <ele>457.36187744141</ele>
        <time>2014-12-21T08:22:03Z</time>
      </trkpt>
      <trkpt lat="43.90255" lon="7.26325">
        <ele>459.19131469727</ele>
        <time>2014-12-21T08:22:10Z</time>
      </trkpt>
      <trkpt lat="43.90251" lon="7.26334">
        <ele>462.66201782227</ele>
        <time>2014-12-21T08:22:18Z</time>
      </trkpt>
      <trkpt lat="43.90247" lon="7.2634">
        <ele>463.69247436523</ele>
        <time>2014-12-21T08:22:24Z</time>
      </trkpt>
      <trkpt lat="43.90244" lon="7.26348">
        <ele>465.51065063477</ele>
        <time>2014-12-21T08:22:31Z</time>
      </trkpt>
      <trkpt lat="43.90242" lon="7.26362">
        <ele>470.52954101562</ele>
        <time>2014-12-21T08:22:40Z</time>
      </trkpt>
      <trkpt lat="43.90241" lon="7.26367">
        <ele>472.63754272461</ele>
        <time>2014-12-21T08:22:43Z</time>
      </trkpt>
      <trkpt lat="43.90239" lon="7.26373">
        <ele>475.16003417969</ele>
        <time>2014-12-21T08:22:47Z</time>
      </trkpt>
      <trkpt lat="43.90239" lon="7.26376">
        <ele>476.66223144531</ele>
        <time>2014-12-21T08:22:49Z</time>
      </trkpt>
      <trkpt lat="43.90239" lon="7.2638">
        <ele>478.46884155273</ele>
        <time>2014-12-21T08:22:51Z</time>
      </trkpt>
      <trkpt lat="43.90235" lon="7.26389">
        <ele>482.36480712891</ele>
        <time>2014-12-21T08:22:59Z</time>
      </trkpt>
      <trkpt lat="43.90235" lon="7.26391">
        <ele>483.17953491211</ele>
        <time>2014-12-21T08:23:01Z</time>
      </trkpt>
      <trkpt lat="43.90233" lon="7.26399">
        <ele>486.04141235352</ele>
        <time>2014-12-21T08:23:08Z</time>
      </trkpt>
      <trkpt lat="43.90226" lon="7.26406">
        <ele>487.32574462891</ele>
        <time>2014-12-21T08:23:17Z</time>
      </trkpt>
      <trkpt lat="43.9022" lon="7.2641">
        <ele>486.92056274414</ele>
        <time>2014-12-21T08:23:24Z</time>
      </trkpt>
      <trkpt lat="43.90216" lon="7.26414">
        <ele>487.60968017578</ele>
        <time>2014-12-21T08:23:29Z</time>
      </trkpt>
      <trkpt lat="43.90208" lon="7.26415">
        <ele>486.1950378418</ele>
        <time>2014-12-21T08:23:38Z</time>
      </trkpt>
      <trkpt lat="43.902" lon="7.26418">
        <ele>485.72384643555</ele>
        <time>2014-12-21T08:23:46Z</time>
      </trkpt>
      <trkpt lat="43.90194" lon="7.26421">
        <ele>485.2961730957</ele>
        <time>2014-12-21T08:23:54Z</time>
      </trkpt>
      <trkpt lat="43.90185" lon="7.26428">
        <ele>485.23861694336</ele>
        <time>2014-12-21T08:24:04Z</time>
      </trkpt>
      <trkpt lat="43.90178" lon="7.26435">
        <ele>484.80804443359</ele>
        <time>2014-12-21T08:24:12Z</time>
      </trkpt>
      <trkpt lat="43.90174" lon="7.26444">
        <ele>486.80364990234</ele>
        <time>2014-12-21T08:24:19Z</time>
      </trkpt>
      <trkpt lat="43.90171" lon="7.26457">
        <ele>488.70999145508</ele>
        <time>2014-12-21T08:24:27Z</time>
      </trkpt>
      <trkpt lat="43.90173" lon="7.26474">
        <ele>494.07305908203</ele>
        <time>2014-12-21T08:24:36Z</time>
      </trkpt>
      <trkpt lat="43.90175" lon="7.26489">
        <ele>498.96371459961</ele>
        <time>2014-12-21T08:24:45Z</time>
      </trkpt>
      <trkpt lat="43.90178" lon="7.26502">
        <ele>503.57470703125</ele>
        <time>2014-12-21T08:24:53Z</time>
      </trkpt>
      <trkpt lat="43.90178" lon="7.26505">
        <ele>504.50100708008</ele>
        <time>2014-12-21T08:24:55Z</time>
      </trkpt>
      <trkpt lat="43.9018" lon="7.26519">
        <ele>510.24667358398</ele>
        <time>2014-12-21T08:25:03Z</time>
      </trkpt>
      <trkpt lat="43.9018" lon="7.26529">
        <ele>513.82904052734</ele>
        <time>2014-12-21T08:25:11Z</time>
      </trkpt>
      <trkpt lat="43.90179" lon="7.2653">
        <ele>513.66198730469</ele>
        <time>2014-12-21T08:25:13Z</time>
      </trkpt>
      <trkpt lat="43.90178" lon="7.26525">
        <ele>512.05010986328</ele>
        <time>2014-12-21T08:25:18Z</time>
      </trkpt>
      <trkpt lat="43.90177" lon="7.26517">
        <ele>508.77499389648</ele>
        <time>2014-12-21T08:25:25Z</time>
      </trkpt>
      <trkpt lat="43.90168" lon="7.26514">
        <ele>504.70706176758</ele>
        <time>2014-12-21T08:25:33Z</time>
      </trkpt>
      <trkpt lat="43.90162" lon="7.26518">
        <ele>505.45907592773</ele>
        <time>2014-12-21T08:25:41Z</time>
      </trkpt>
      <trkpt lat="43.90163" lon="7.2652">
        <ele>506.55038452148</ele>
        <time>2014-12-21T08:25:45Z</time>
      </trkpt>
      <trkpt lat="43.90158" lon="7.26521">
        <ele>506.82580566406</ele>
        <time>2014-12-21T08:25:52Z</time>
      </trkpt>
      <trkpt lat="43.90153" lon="7.26523">
        <ele>507.57553100586</ele>
        <time>2014-12-21T08:25:59Z</time>
      </trkpt>
      <trkpt lat="43.90149" lon="7.26523">
        <ele>507.50085449219</ele>
        <time>2014-12-21T08:26:06Z</time>
      </trkpt>
      <trkpt lat="43.90149" lon="7.26522">
        <ele>506.93936157227</ele>
        <time>2014-12-21T08:26:13Z</time>
      </trkpt>
      <trkpt lat="43.90144" lon="7.26525">
        <ele>508.46514892578</ele>
        <time>2014-12-21T08:26:18Z</time>
      </trkpt>
      <trkpt lat="43.90144" lon="7.2653">
        <ele>511.18911743164</ele>
        <time>2014-12-21T08:26:23Z</time>
      </trkpt>
      <trkpt lat="43.90145" lon="7.26537">
        <ele>514.50744628906</ele>
        <time>2014-12-21T08:26:31Z</time>
      </trkpt>
      <trkpt lat="43.90148" lon="7.26542">
        <ele>516.90454101562</ele>
        <time>2014-12-21T08:26:37Z</time>
      </trkpt>
      <trkpt lat="43.90155" lon="7.26548">
        <ele>518.84826660156</ele>
        <time>2014-12-21T08:26:45Z</time>
      </trkpt>
      <trkpt lat="43.9016" lon="7.2655">
        <ele>519.01940917969</ele>
        <time>2014-12-21T08:26:52Z</time>
      </trkpt>
      <trkpt lat="43.90158" lon="7.26551">
        <ele>519.47698974609</ele>
        <time>2014-12-21T08:26:57Z</time>
      </trkpt>
      <trkpt lat="43.90149" lon="7.26547">
        <ele>519.08581542969</ele>
        <time>2014-12-21T08:27:06Z</time>
      </trkpt>
      <trkpt lat="43.90147" lon="7.26546">
        <ele>519.11267089844</ele>
        <time>2014-12-21T08:27:11Z</time>
      </trkpt>
      <trkpt lat="43.90134" lon="7.26539">
        <ele>515.86120605469</ele>
        <time>2014-12-21T08:27:22Z</time>
      </trkpt>
      <trkpt lat="43.90127" lon="7.26537">
        <ele>514.50775146484</ele>
        <time>2014-12-21T08:27:30Z</time>
      </trkpt>
      <trkpt lat="43.90123" lon="7.26536">
        <ele>513.93798828125</ele>
        <time>2014-12-21T08:27:35Z</time>
      </trkpt>
      <trkpt lat="43.90117" lon="7.26535">
        <ele>513.28662109375</ele>
        <time>2014-12-21T08:27:43Z</time>
      </trkpt>
      <trkpt lat="43.90111" lon="7.26536">
        <ele>513.52935791016</ele>
        <time>2014-12-21T08:27:50Z</time>
      </trkpt>
      <trkpt lat="43.90108" lon="7.2654">
        <ele>514.42938232422</ele>
        <time>2014-12-21T08:27:54Z</time>
      </trkpt>
      <trkpt lat="43.901" lon="7.26545">
        <ele>514.93103027344</ele>
        <time>2014-12-21T08:28:04Z</time>
      </trkpt>
      <trkpt lat="43.90094" lon="7.26552">
        <ele>516.58648681641</ele>
        <time>2014-12-21T08:28:13Z</time>
      </trkpt>
      <trkpt lat="43.90089" lon="7.2656">
        <ele>518.21606445312</ele>
        <time>2014-12-21T08:28:23Z</time>
      </trkpt>
      <trkpt lat="43.90094" lon="7.26565">
        <ele>521.53131103516</ele>
        <time>2014-12-21T08:28:29Z</time>
      </trkpt>
      <trkpt lat="43.90101" lon="7.26569">
        <ele>525.07781982422</ele>
        <time>2014-12-21T08:28:37Z</time>
      </trkpt>
      <trkpt lat="43.90107" lon="7.26571">
        <ele>527.92840576172</ele>
        <time>2014-12-21T08:28:45Z</time>
      </trkpt>
      <trkpt lat="43.90103" lon="7.26575">
        <ele>528.48840332031</ele>
        <time>2014-12-21T08:28:52Z</time>
      </trkpt>
      <trkpt lat="43.90096" lon="7.2658">
        <ele>528.13745117188</ele>
        <time>2014-12-21T08:29:02Z</time>
      </trkpt>
      <trkpt lat="43.90094" lon="7.26585">
        <ele>529.61151123047</ele>
        <time>2014-12-21T08:29:09Z</time>
      </trkpt>
      <trkpt lat="43.90101" lon="7.26589">
        <ele>533.90612792969</ele>
        <time>2014-12-21T08:29:16Z</time>
      </trkpt>
      <trkpt lat="43.90107" lon="7.26591">
        <ele>537.18463134766</ele>
        <time>2014-12-21T08:29:23Z</time>
      </trkpt>
      <trkpt lat="43.90108" lon="7.26592">
        <ele>538.13372802734</ele>
        <time>2014-12-21T08:29:28Z</time>
      </trkpt>
      <trkpt lat="43.90104" lon="7.26596">
        <ele>538.84704589844</ele>
        <time>2014-12-21T08:29:35Z</time>
      </trkpt>
      <trkpt lat="43.90097" lon="7.26601">
        <ele>538.47796630859</ele>
        <time>2014-12-21T08:29:46Z</time>
      </trkpt>
      <trkpt lat="43.90092" lon="7.26608">
        <ele>541.00518798828</ele>
        <time>2014-12-21T08:29:55Z</time>
      </trkpt>
      <trkpt lat="43.90089" lon="7.26613">
        <ele>543.16479492188</ele>
        <time>2014-12-21T08:30:02Z</time>
      </trkpt>
      <trkpt lat="43.90085" lon="7.26623">
        <ele>548.69226074219</ele>
        <time>2014-12-21T08:30:10Z</time>
      </trkpt>
      <trkpt lat="43.90081" lon="7.26631">
        <ele>553.07312011719</ele>
        <time>2014-12-21T08:30:19Z</time>
      </trkpt>
      <trkpt lat="43.9008" lon="7.26636">
        <ele>554.88891601562</ele>
        <time>2014-12-21T08:30:25Z</time>
      </trkpt>
      <trkpt lat="43.90077" lon="7.26642">
        <ele>555.46441650391</ele>
        <time>2014-12-21T08:30:33Z</time>
      </trkpt>
      <trkpt lat="43.90075" lon="7.26646">
        <ele>555.73352050781</ele>
        <time>2014-12-21T08:30:37Z</time>
      </trkpt>
      <trkpt lat="43.90073" lon="7.2665">
        <ele>555.82183837891</ele>
        <time>2014-12-21T08:30:43Z</time>
      </trkpt>
      <trkpt lat="43.90073" lon="7.26653">
        <ele>556.75964355469</ele>
        <time>2014-12-21T08:30:45Z</time>
      </trkpt>
      <trkpt lat="43.90074" lon="7.26657">
        <ele>558.98297119141</ele>
        <time>2014-12-21T08:30:49Z</time>
      </trkpt>
      <trkpt lat="43.90073" lon="7.26663">
        <ele>560.87194824219</ele>
        <time>2014-12-21T08:30:54Z</time>
      </trkpt>
      <trkpt lat="43.90073" lon="7.26664">
        <ele>561.15411376953</ele>
        <time>2014-12-21T08:30:55Z</time>
      </trkpt>
      <trkpt lat="43.90072" lon="7.2667">
        <ele>563.04467773438</ele>
        <time>2014-12-21T08:31:01Z</time>
      </trkpt>
      <trkpt lat="43.90072" lon="7.26674">
        <ele>564.74798583984</ele>
        <time>2014-12-21T08:31:04Z</time>
      </trkpt>
      <trkpt lat="43.90073" lon="7.26676">
        <ele>566.46490478516</ele>
        <time>2014-12-21T08:31:06Z</time>
      </trkpt>
      <trkpt lat="43.90076" lon="7.26675">
        <ele>568.17840576172</ele>
        <time>2014-12-21T08:31:09Z</time>
      </trkpt>
      <trkpt lat="43.90079" lon="7.26672">
        <ele>569.99401855469</ele>
        <time>2014-12-21T08:31:15Z</time>
      </trkpt>
      <trkpt lat="43.90085" lon="7.26669">
        <ele>572.69537353516</ele>
        <time>2014-12-21T08:31:22Z</time>
      </trkpt>
      <trkpt lat="43.90088" lon="7.26668">
        <ele>573.68640136719</ele>
        <time>2014-12-21T08:31:27Z</time>
      </trkpt>
      <trkpt lat="43.9009" lon="7.26669">
        <ele>575.44763183594</ele>
        <time>2014-12-21T08:31:30Z</time>
      </trkpt>
      <trkpt lat="43.90093" lon="7.26666">
        <ele>575.61566162109</ele>
        <time>2014-12-21T08:31:36Z</time>
      </trkpt>
      <trkpt lat="43.90094" lon="7.26668">
        <ele>577.02923583984</ele>
        <time>2014-12-21T08:31:39Z</time>
      </trkpt>
      <trkpt lat="43.90098" lon="7.26666">
        <ele>578.30413818359</ele>
        <time>2014-12-21T08:31:44Z</time>
      </trkpt>
      <trkpt lat="43.90102" lon="7.26665">
        <ele>579.33868408203</ele>
        <time>2014-12-21T08:31:51Z</time>
      </trkpt>
      <trkpt lat="43.90104" lon="7.26664">
        <ele>579.84399414062</ele>
        <time>2014-12-21T08:31:55Z</time>
      </trkpt>
      <trkpt lat="43.90108" lon="7.26661">
        <ele>580.21569824219</ele>
        <time>2014-12-21T08:32:00Z</time>
      </trkpt>
      <trkpt lat="43.90112" lon="7.26659">
        <ele>580.65802001953</ele>
        <time>2014-12-21T08:32:05Z</time>
      </trkpt>
      <trkpt lat="43.90115" lon="7.26656">
        <ele>579.46411132812</ele>
        <time>2014-12-21T08:32:12Z</time>
      </trkpt>
      <trkpt lat="43.90117" lon="7.26656">
        <ele>580.17730712891</ele>
        <time>2014-12-21T08:32:16Z</time>
      </trkpt>
      <trkpt lat="43.90116" lon="7.26659">
        <ele>581.39556884766</ele>
        <time>2014-12-21T08:32:19Z</time>
      </trkpt>
      <trkpt lat="43.90115" lon="7.2666">
        <ele>581.88989257812</ele>
        <time>2014-12-21T08:32:21Z</time>
      </trkpt>
      <trkpt lat="43.90115" lon="7.26664">
        <ele>584.77313232422</ele>
        <time>2014-12-21T08:32:26Z</time>
      </trkpt>
      <trkpt lat="43.90113" lon="7.2667">
        <ele>587.18237304688</ele>
        <time>2014-12-21T08:32:33Z</time>
      </trkpt>
      <trkpt lat="43.90113" lon="7.26673">
        <ele>589.12091064453</ele>
        <time>2014-12-21T08:32:39Z</time>
      </trkpt>
      <trkpt lat="43.90111" lon="7.26679">
        <ele>591.89959716797</ele>
        <time>2014-12-21T08:32:45Z</time>
      </trkpt>
      <trkpt lat="43.90108" lon="7.26682">
        <ele>591.84857177734</ele>
        <time>2014-12-21T08:32:50Z</time>
      </trkpt>
      <trkpt lat="43.90108" lon="7.26683">
        <ele>592.05078125</ele>
        <time>2014-12-21T08:32:51Z</time>
      </trkpt>
      <trkpt lat="43.90106" lon="7.26686">
        <ele>592.38989257812</ele>
        <time>2014-12-21T08:32:56Z</time>
      </trkpt>
      <trkpt lat="43.90102" lon="7.26691">
        <ele>592.39923095703</ele>
        <time>2014-12-21T08:33:04Z</time>
      </trkpt>
      <trkpt lat="43.90099" lon="7.26699">
        <ele>593.62329101562</ele>
        <time>2014-12-21T08:33:12Z</time>
      </trkpt>
      <trkpt lat="43.90099" lon="7.267">
        <ele>593.75201416016</ele>
        <time>2014-12-21T08:33:13Z</time>
      </trkpt>
      <trkpt lat="43.90098" lon="7.26704">
        <ele>594.55389404297</ele>
        <time>2014-12-21T08:33:17Z</time>
      </trkpt>
      <trkpt lat="43.90095" lon="7.26713">
        <ele>596.29278564453</ele>
        <time>2014-12-21T08:33:26Z</time>
      </trkpt>
      <trkpt lat="43.90098" lon="7.26715">
        <ele>598.64190673828</ele>
        <time>2014-12-21T08:33:31Z</time>
      </trkpt>
      <trkpt lat="43.90103" lon="7.26715">
        <ele>601.31555175781</ele>
        <time>2014-12-21T08:33:39Z</time>
      </trkpt>
      <trkpt lat="43.901" lon="7.26722">
        <ele>602.32122802734</ele>
        <time>2014-12-21T08:33:47Z</time>
      </trkpt>
      <trkpt lat="43.90098" lon="7.26725">
        <ele>602.26831054688</ele>
        <time>2014-12-21T08:33:51Z</time>
      </trkpt>
      <trkpt lat="43.90097" lon="7.26733">
        <ele>604.87347412109</ele>
        <time>2014-12-21T08:34:00Z</time>
      </trkpt>
      <trkpt lat="43.90102" lon="7.26733">
        <ele>607.02825927734</ele>
        <time>2014-12-21T08:34:06Z</time>
      </trkpt>
      <trkpt lat="43.90106" lon="7.26731">
        <ele>608.59008789062</ele>
        <time>2014-12-21T08:34:12Z</time>
      </trkpt>
      <trkpt lat="43.90109" lon="7.26729">
        <ele>609.31689453125</ele>
        <time>2014-12-21T08:34:18Z</time>
      </trkpt>
      <trkpt lat="43.90115" lon="7.26726">
        <ele>610.57507324219</ele>
        <time>2014-12-21T08:34:26Z</time>
      </trkpt>
      <trkpt lat="43.9012" lon="7.26724">
        <ele>611.08880615234</ele>
        <time>2014-12-21T08:34:33Z</time>
      </trkpt>
      <trkpt lat="43.90119" lon="7.26726">
        <ele>612.07934570312</ele>
        <time>2014-12-21T08:34:39Z</time>
      </trkpt>
      <trkpt lat="43.90118" lon="7.26728">
        <ele>612.498046875</ele>
        <time>2014-12-21T08:34:42Z</time>
      </trkpt>
      <trkpt lat="43.90117" lon="7.26731">
        <ele>613.68011474609</ele>
        <time>2014-12-21T08:34:45Z</time>
      </trkpt>
      <trkpt lat="43.90115" lon="7.26737">
        <ele>615.22650146484</ele>
        <time>2014-12-21T08:34:50Z</time>
      </trkpt>
      <trkpt lat="43.90111" lon="7.2675">
        <ele>618.14221191406</ele>
        <time>2014-12-21T08:35:01Z</time>
      </trkpt>
      <trkpt lat="43.90108" lon="7.2676">
        <ele>620.25390625</ele>
        <time>2014-12-21T08:35:10Z</time>
      </trkpt>
      <trkpt lat="43.90106" lon="7.26765">
        <ele>621.49267578125</ele>
        <time>2014-12-21T08:35:15Z</time>
      </trkpt>
      <trkpt lat="43.90103" lon="7.26775">
        <ele>623.30395507812</ele>
        <time>2014-12-21T08:35:24Z</time>
      </trkpt>
      <trkpt lat="43.90102" lon="7.26776">
        <ele>623.43939208984</ele>
        <time>2014-12-21T08:35:25Z</time>
      </trkpt>
      <trkpt lat="43.90101" lon="7.2678">
        <ele>624.26806640625</ele>
        <time>2014-12-21T08:35:29Z</time>
      </trkpt>
      <trkpt lat="43.90104" lon="7.26781">
        <ele>626.63305664062</ele>
        <time>2014-12-21T08:35:34Z</time>
      </trkpt>
      <trkpt lat="43.90106" lon="7.26784">
        <ele>628.91571044922</ele>
        <time>2014-12-21T08:35:40Z</time>
      </trkpt>
      <trkpt lat="43.90105" lon="7.26784">
        <ele>628.97698974609</ele>
        <time>2014-12-21T08:35:41Z</time>
      </trkpt>
      <trkpt lat="43.90101" lon="7.26789">
        <ele>628.93939208984</ele>
        <time>2014-12-21T08:35:48Z</time>
      </trkpt>
      <trkpt lat="43.90101" lon="7.2679">
        <ele>629.31420898438</ele>
        <time>2014-12-21T08:35:49Z</time>
      </trkpt>
      <trkpt lat="43.90105" lon="7.26791">
        <ele>632.40112304688</ele>
        <time>2014-12-21T08:35:55Z</time>
      </trkpt>
      <trkpt lat="43.90105" lon="7.26794">
        <ele>633.61907958984</ele>
        <time>2014-12-21T08:36:00Z</time>
      </trkpt>
      <trkpt lat="43.90105" lon="7.26795">
        <ele>633.80181884766</ele>
        <time>2014-12-21T08:36:01Z</time>
      </trkpt>
      <trkpt lat="43.90103" lon="7.26801">
        <ele>635.67681884766</ele>
        <time>2014-12-21T08:36:08Z</time>
      </trkpt>
      <trkpt lat="43.901" lon="7.2681">
        <ele>638.10614013672</ele>
        <time>2014-12-21T08:36:17Z</time>
      </trkpt>
      <trkpt lat="43.90099" lon="7.26813">
        <ele>638.93237304688</ele>
        <time>2014-12-21T08:36:20Z</time>
      </trkpt>
      <trkpt lat="43.90097" lon="7.2682">
        <ele>641.32531738281</ele>
        <time>2014-12-21T08:36:27Z</time>
      </trkpt>
      <trkpt lat="43.90096" lon="7.26828">
        <ele>644.71398925781</ele>
        <time>2014-12-21T08:36:34Z</time>
      </trkpt>
      <trkpt lat="43.90094" lon="7.2683">
        <ele>645.02435302734</ele>
        <time>2014-12-21T08:36:48Z</time>
      </trkpt>
      <trkpt lat="43.90092" lon="7.2684">
        <ele>649.94549560547</ele>
        <time>2014-12-21T08:36:57Z</time>
      </trkpt>
      <trkpt lat="43.90089" lon="7.26847">
        <ele>652.54248046875</ele>
        <time>2014-12-21T08:37:03Z</time>
      </trkpt>
      <trkpt lat="43.90084" lon="7.26855">
        <ele>655.90270996094</ele>
        <time>2014-12-21T08:37:12Z</time>
      </trkpt>
      <trkpt lat="43.90079" lon="7.26863">
        <ele>656.58062744141</ele>
        <time>2014-12-21T08:37:21Z</time>
      </trkpt>
      <trkpt lat="43.90076" lon="7.26871">
        <ele>655.5947265625</ele>
        <time>2014-12-21T08:37:28Z</time>
      </trkpt>
      <trkpt lat="43.90071" lon="7.26881">
        <ele>654.88555908203</ele>
        <time>2014-12-21T08:37:37Z</time>
      </trkpt>
      <trkpt lat="43.90067" lon="7.26893">
        <ele>655.86700439453</ele>
        <time>2014-12-21T08:37:47Z</time>
      </trkpt>
      <trkpt lat="43.90065" lon="7.26902">
        <ele>658.11010742188</ele>
        <time>2014-12-21T08:37:54Z</time>
      </trkpt>
      <trkpt lat="43.90063" lon="7.26911">
        <ele>661.07440185547</ele>
        <time>2014-12-21T08:38:02Z</time>
      </trkpt>
      <trkpt lat="43.90062" lon="7.26917">
        <ele>663.56658935547</ele>
        <time>2014-12-21T08:38:08Z</time>
      </trkpt>
      <trkpt lat="43.9006" lon="7.26918">
        <ele>663.19458007812</ele>
        <time>2014-12-21T08:38:10Z</time>
      </trkpt>
      <trkpt lat="43.90055" lon="7.26923">
        <ele>661.44897460938</ele>
        <time>2014-12-21T08:38:19Z</time>
      </trkpt>
      <trkpt lat="43.9005" lon="7.26926">
        <ele>658.89111328125</ele>
        <time>2014-12-21T08:38:27Z</time>
      </trkpt>
      <trkpt lat="43.90047" lon="7.26931">
        <ele>658.99987792969</ele>
        <time>2014-12-21T08:38:33Z</time>
      </trkpt>
      <trkpt lat="43.90047" lon="7.26937">
        <ele>660.81036376953</ele>
        <time>2014-12-21T08:38:37Z</time>
      </trkpt>
      <trkpt lat="43.90045" lon="7.2695">
        <ele>665.56231689453</ele>
        <time>2014-12-21T08:38:46Z</time>
      </trkpt>
      <trkpt lat="43.90044" lon="7.26958">
        <ele>669.73022460938</ele>
        <time>2014-12-21T08:38:53Z</time>
      </trkpt>
      <trkpt lat="43.90042" lon="7.26964">
        <ele>672.07135009766</ele>
        <time>2014-12-21T08:38:58Z</time>
      </trkpt>
      <trkpt lat="43.9004" lon="7.26978">
        <ele>678.23266601562</ele>
        <time>2014-12-21T08:39:07Z</time>
      </trkpt>
      <trkpt lat="43.90041" lon="7.26988">
        <ele>683.44763183594</ele>
        <time>2014-12-21T08:39:16Z</time>
      </trkpt>
      <trkpt lat="43.90044" lon="7.26992">
        <ele>687.12652587891</ele>
        <time>2014-12-21T08:39:21Z</time>
      </trkpt>
      <trkpt lat="43.90048" lon="7.26996">
        <ele>691.03564453125</ele>
        <time>2014-12-21T08:39:34Z</time>
      </trkpt>
      <trkpt lat="43.90044" lon="7.27">
        <ele>691.14477539062</ele>
        <time>2014-12-21T08:39:42Z</time>
      </trkpt>
      <trkpt lat="43.90038" lon="7.27003">
        <ele>689.53570556641</ele>
        <time>2014-12-21T08:39:51Z</time>
      </trkpt>
      <trkpt lat="43.90033" lon="7.27003">
        <ele>687.25628662109</ele>
        <time>2014-12-21T08:39:59Z</time>
      </trkpt>
      <trkpt lat="43.9003" lon="7.27004">
        <ele>686.03204345703</ele>
        <time>2014-12-21T08:40:06Z</time>
      </trkpt>
      <trkpt lat="43.90029" lon="7.27005">
        <ele>686.50836181641</ele>
        <time>2014-12-21T08:40:14Z</time>
      </trkpt>
      <trkpt lat="43.9003" lon="7.27007">
        <ele>688.31585693359</ele>
        <time>2014-12-21T08:40:21Z</time>
      </trkpt>
      <trkpt lat="43.9003" lon="7.27006">
        <ele>687.89672851562</ele>
        <time>2014-12-21T08:40:31Z</time>
      </trkpt>
      <trkpt lat="43.90031" lon="7.27006">
        <ele>687.89794921875</ele>
        <time>2014-12-21T08:40:39Z</time>
      </trkpt>
      <trkpt lat="43.90026" lon="7.27008">
        <ele>687.19702148438</ele>
        <time>2014-12-21T08:40:45Z</time>
      </trkpt>
      <trkpt lat="43.90023" lon="7.2701">
        <ele>687.08563232422</ele>
        <time>2014-12-21T08:40:48Z</time>
      </trkpt>
      <trkpt lat="43.90019" lon="7.27015">
        <ele>688.76617431641</ele>
        <time>2014-12-21T08:40:55Z</time>
      </trkpt>
      <trkpt lat="43.90018" lon="7.27018">
        <ele>689.70642089844</ele>
        <time>2014-12-21T08:40:57Z</time>
      </trkpt>
      <trkpt lat="43.90017" lon="7.2702">
        <ele>690.75659179688</ele>
        <time>2014-12-21T08:40:59Z</time>
      </trkpt>
      <trkpt lat="43.90011" lon="7.27027">
        <ele>691.93225097656</ele>
        <time>2014-12-21T08:41:07Z</time>
      </trkpt>
      <trkpt lat="43.90006" lon="7.27031">
        <ele>692.25616455078</ele>
        <time>2014-12-21T08:41:13Z</time>
      </trkpt>
      <trkpt lat="43.90004" lon="7.27032">
        <ele>692.13220214844</ele>
        <time>2014-12-21T08:41:16Z</time>
      </trkpt>
      <trkpt lat="43.89997" lon="7.27035">
        <ele>690.94696044922</ele>
        <time>2014-12-21T08:41:25Z</time>
      </trkpt>
      <trkpt lat="43.8999" lon="7.27035">
        <ele>689.60083007812</ele>
        <time>2014-12-21T08:41:32Z</time>
      </trkpt>
      <trkpt lat="43.89984" lon="7.27035">
        <ele>688.13232421875</ele>
        <time>2014-12-21T08:41:38Z</time>
      </trkpt>
      <trkpt lat="43.89977" lon="7.27035">
        <ele>686.25695800781</ele>
        <time>2014-12-21T08:41:47Z</time>
      </trkpt>
      <trkpt lat="43.8997" lon="7.27037">
        <ele>686.11181640625</ele>
        <time>2014-12-21T08:41:55Z</time>
      </trkpt>
      <trkpt lat="43.89967" lon="7.2704">
        <ele>688.27734375</ele>
        <time>2014-12-21T08:42:01Z</time>
      </trkpt>
      <trkpt lat="43.8997" lon="7.27045">
        <ele>692.54663085938</ele>
        <time>2014-12-21T08:42:07Z</time>
      </trkpt>
      <trkpt lat="43.89967" lon="7.27047">
        <ele>693.84759521484</ele>
        <time>2014-12-21T08:42:14Z</time>
      </trkpt>
      <trkpt lat="43.89969" lon="7.27053">
        <ele>697.82153320312</ele>
        <time>2014-12-21T08:42:20Z</time>
      </trkpt>
      <trkpt lat="43.89974" lon="7.27058">
        <ele>701.25671386719</ele>
        <time>2014-12-21T08:42:28Z</time>
      </trkpt>
      <trkpt lat="43.89974" lon="7.27061">
        <ele>702.69006347656</ele>
        <time>2014-12-21T08:42:35Z</time>
      </trkpt>
      <trkpt lat="43.89972" lon="7.27062">
        <ele>702.56188964844</ele>
        <time>2014-12-21T08:42:40Z</time>
      </trkpt>
      <trkpt lat="43.89968" lon="7.27063">
        <ele>702.97796630859</ele>
        <time>2014-12-21T08:42:47Z</time>
      </trkpt>
      <trkpt lat="43.89967" lon="7.27064">
        <ele>703.48870849609</ele>
        <time>2014-12-21T08:42:52Z</time>
      </trkpt>
      <trkpt lat="43.89964" lon="7.27065">
        <ele>703.79461669922</ele>
        <time>2014-12-21T08:42:58Z</time>
      </trkpt>
      <trkpt lat="43.8996" lon="7.27065">
        <ele>703.96124267578</ele>
        <time>2014-12-21T08:43:04Z</time>
      </trkpt>
      <trkpt lat="43.89958" lon="7.27068">
        <ele>704.79626464844</ele>
        <time>2014-12-21T08:43:11Z</time>
      </trkpt>
      <trkpt lat="43.89958" lon="7.27069">
        <ele>705.22906494141</ele>
        <time>2014-12-21T08:43:13Z</time>
      </trkpt>
      <trkpt lat="43.89959" lon="7.27072">
        <ele>706.42486572266</ele>
        <time>2014-12-21T08:43:16Z</time>
      </trkpt>
      <trkpt lat="43.89966" lon="7.27075">
        <ele>708.11883544922</ele>
        <time>2014-12-21T08:43:25Z</time>
      </trkpt>
      <trkpt lat="43.89967" lon="7.27075">
        <ele>708.31671142578</ele>
        <time>2014-12-21T08:43:26Z</time>
      </trkpt>
      <trkpt lat="43.89972" lon="7.27083">
        <ele>711.81427001953</ele>
        <time>2014-12-21T08:43:35Z</time>
      </trkpt>
      <trkpt lat="43.89972" lon="7.27085">
        <ele>712.42254638672</ele>
        <time>2014-12-21T08:43:37Z</time>
      </trkpt>
      <trkpt lat="43.89974" lon="7.27086">
        <ele>712.84826660156</ele>
        <time>2014-12-21T08:43:39Z</time>
      </trkpt>
      <trkpt lat="43.8998" lon="7.27086">
        <ele>713.28771972656</ele>
        <time>2014-12-21T08:43:45Z</time>
      </trkpt>
      <trkpt lat="43.89985" lon="7.27086">
        <ele>713.61730957031</ele>
        <time>2014-12-21T08:43:49Z</time>
      </trkpt>
      <trkpt lat="43.89986" lon="7.27086">
        <ele>713.87823486328</ele>
        <time>2014-12-21T08:43:51Z</time>
      </trkpt>
      <trkpt lat="43.89996" lon="7.27085">
        <ele>714.35888671875</ele>
        <time>2014-12-21T08:44:00Z</time>
      </trkpt>
      <trkpt lat="43.90002" lon="7.27087">
        <ele>715.40338134766</ele>
        <time>2014-12-21T08:44:06Z</time>
      </trkpt>
      <trkpt lat="43.9001" lon="7.27088">
        <ele>716.78875732422</ele>
        <time>2014-12-21T08:44:15Z</time>
      </trkpt>
      <trkpt lat="43.90011" lon="7.27087">
        <ele>716.72564697266</ele>
        <time>2014-12-21T08:44:17Z</time>
      </trkpt>
      <trkpt lat="43.90015" lon="7.27085">
        <ele>716.54974365234</ele>
        <time>2014-12-21T08:44:22Z</time>
      </trkpt>
      <trkpt lat="43.9002" lon="7.27082">
        <ele>716.58673095703</ele>
        <time>2014-12-21T08:44:29Z</time>
      </trkpt>
      <trkpt lat="43.90027" lon="7.27082">
        <ele>717.58386230469</ele>
        <time>2014-12-21T08:44:38Z</time>
      </trkpt>
      <trkpt lat="43.90034" lon="7.27082">
        <ele>719.30090332031</ele>
        <time>2014-12-21T08:44:45Z</time>
      </trkpt>
      <trkpt lat="43.9004" lon="7.2708">
        <ele>720.20465087891</ele>
        <time>2014-12-21T08:44:53Z</time>
      </trkpt>
      <trkpt lat="43.90049" lon="7.27078">
        <ele>722.04321289062</ele>
        <time>2014-12-21T08:45:02Z</time>
      </trkpt>
      <trkpt lat="43.90055" lon="7.27077">
        <ele>723.47613525391</ele>
        <time>2014-12-21T08:45:10Z</time>
      </trkpt>
      <trkpt lat="43.90061" lon="7.27074">
        <ele>724.80090332031</ele>
        <time>2014-12-21T08:45:18Z</time>
      </trkpt>
      <trkpt lat="43.90062" lon="7.27073">
        <ele>724.81805419922</ele>
        <time>2014-12-21T08:45:19Z</time>
      </trkpt>
      <trkpt lat="43.90071" lon="7.27069">
        <ele>727.63885498047</ele>
        <time>2014-12-21T08:45:28Z</time>
      </trkpt>
      <trkpt lat="43.90078" lon="7.27067">
        <ele>729.77947998047</ele>
        <time>2014-12-21T08:45:36Z</time>
      </trkpt>
      <trkpt lat="43.90084" lon="7.27064">
        <ele>730.77203369141</ele>
        <time>2014-12-21T08:45:43Z</time>
      </trkpt>
      <trkpt lat="43.90089" lon="7.2706">
        <ele>731.03796386719</ele>
        <time>2014-12-21T08:45:50Z</time>
      </trkpt>
      <trkpt lat="43.90097" lon="7.27055">
        <ele>731.74682617188</ele>
        <time>2014-12-21T08:45:58Z</time>
      </trkpt>
      <trkpt lat="43.90101" lon="7.27049">
        <ele>731.54083251953</ele>
        <time>2014-12-21T08:46:05Z</time>
      </trkpt>
      <trkpt lat="43.90106" lon="7.27044">
        <ele>732.20001220703</ele>
        <time>2014-12-21T08:46:13Z</time>
      </trkpt>
      <trkpt lat="43.9011" lon="7.27043">
        <ele>733.39990234375</ele>
        <time>2014-12-21T08:46:18Z</time>
      </trkpt>
      <trkpt lat="43.90116" lon="7.27038">
        <ele>735.24627685547</ele>
        <time>2014-12-21T08:46:25Z</time>
      </trkpt>
      <trkpt lat="43.90122" lon="7.27035">
        <ele>737.48034667969</ele>
        <time>2014-12-21T08:46:34Z</time>
      </trkpt>
      <trkpt lat="43.90127" lon="7.27028">
        <ele>737.47955322266</ele>
        <time>2014-12-21T08:46:42Z</time>
      </trkpt>
      <trkpt lat="43.90131" lon="7.27021">
        <ele>737.27410888672</ele>
        <time>2014-12-21T08:46:49Z</time>
      </trkpt>
      <trkpt lat="43.90135" lon="7.27015">
        <ele>737.43804931641</ele>
        <time>2014-12-21T08:46:57Z</time>
      </trkpt>
      <trkpt lat="43.90139" lon="7.2701">
        <ele>737.46832275391</ele>
        <time>2014-12-21T08:47:05Z</time>
      </trkpt>
      <trkpt lat="43.90142" lon="7.27005">
        <ele>737.61639404297</ele>
        <time>2014-12-21T08:47:12Z</time>
      </trkpt>
      <trkpt lat="43.90148" lon="7.26997">
        <ele>737.22802734375</ele>
        <time>2014-12-21T08:47:22Z</time>
      </trkpt>
      <trkpt lat="43.90152" lon="7.26988">
        <ele>736.32507324219</ele>
        <time>2014-12-21T08:47:32Z</time>
      </trkpt>
      <trkpt lat="43.90157" lon="7.26984">
        <ele>737.5712890625</ele>
        <time>2014-12-21T08:47:40Z</time>
      </trkpt>
      <trkpt lat="43.90161" lon="7.26982">
        <ele>738.65277099609</ele>
        <time>2014-12-21T08:47:48Z</time>
      </trkpt>
      <trkpt lat="43.9016" lon="7.26984">
        <ele>738.86566162109</ele>
        <time>2014-12-21T08:47:54Z</time>
      </trkpt>
      <trkpt lat="43.90158" lon="7.26991">
        <ele>740.427734375</ele>
        <time>2014-12-21T08:48:03Z</time>
      </trkpt>
      <trkpt lat="43.90157" lon="7.26996">
        <ele>741.77703857422</ele>
        <time>2014-12-21T08:48:11Z</time>
      </trkpt>
      <trkpt lat="43.90157" lon="7.26997">
        <ele>741.84228515625</ele>
        <time>2014-12-21T08:48:12Z</time>
      </trkpt>
      <trkpt lat="43.90156" lon="7.27003">
        <ele>743.92681884766</ele>
        <time>2014-12-21T08:48:20Z</time>
      </trkpt>
      <trkpt lat="43.90156" lon="7.27009">
        <ele>746.22381591797</ele>
        <time>2014-12-21T08:48:28Z</time>
      </trkpt>
      <trkpt lat="43.90157" lon="7.27013">
        <ele>748.42938232422</ele>
        <time>2014-12-21T08:48:35Z</time>
      </trkpt>
      <trkpt lat="43.90157" lon="7.27016">
        <ele>749.80657958984</ele>
        <time>2014-12-21T08:48:41Z</time>
      </trkpt>
      <trkpt lat="43.9016" lon="7.27015">
        <ele>750.94128417969</ele>
        <time>2014-12-21T08:48:46Z</time>
      </trkpt>
      <trkpt lat="43.90165" lon="7.27012">
        <ele>752.12750244141</ele>
        <time>2014-12-21T08:48:55Z</time>
      </trkpt>
      <trkpt lat="43.90168" lon="7.27009">
        <ele>752.58233642578</ele>
        <time>2014-12-21T08:49:01Z</time>
      </trkpt>
      <trkpt lat="43.90169" lon="7.27009">
        <ele>752.97857666016</ele>
        <time>2014-12-21T08:49:10Z</time>
      </trkpt>
      <trkpt lat="43.9017" lon="7.27005">
        <ele>751.64581298828</ele>
        <time>2014-12-21T08:49:18Z</time>
      </trkpt>
      <trkpt lat="43.90171" lon="7.27004">
        <ele>752.04968261719</ele>
        <time>2014-12-21T08:49:30Z</time>
      </trkpt>
      <trkpt lat="43.90171" lon="7.27003">
        <ele>751.22607421875</ele>
        <time>2014-12-21T08:49:35Z</time>
      </trkpt>
      <trkpt lat="43.9017" lon="7.27003">
        <ele>750.84777832031</ele>
        <time>2014-12-21T08:49:46Z</time>
      </trkpt>
      <trkpt lat="43.9017" lon="7.27006">
        <ele>752.341796875</ele>
        <time>2014-12-21T08:50:26Z</time>
      </trkpt>
      <trkpt lat="43.90168" lon="7.27007">
        <ele>751.50256347656</ele>
        <time>2014-12-21T08:52:28Z</time>
      </trkpt>
      <trkpt lat="43.90166" lon="7.27017">
        <ele>755.32952880859</ele>
        <time>2014-12-21T08:52:36Z</time>
      </trkpt>
      <trkpt lat="43.90166" lon="7.27024">
        <ele>758.29235839844</ele>
        <time>2014-12-21T08:52:42Z</time>
      </trkpt>
      <trkpt lat="43.90168" lon="7.27031">
        <ele>761.99603271484</ele>
        <time>2014-12-21T08:52:49Z</time>
      </trkpt>
      <trkpt lat="43.9017" lon="7.27033">
        <ele>764.18688964844</ele>
        <time>2014-12-21T08:52:55Z</time>
      </trkpt>
      <trkpt lat="43.90171" lon="7.27033">
        <ele>764.57678222656</ele>
        <time>2014-12-21T08:52:56Z</time>
      </trkpt>
      <trkpt lat="43.90177" lon="7.2703">
        <ele>765.99389648438</ele>
        <time>2014-12-21T08:53:04Z</time>
      </trkpt>
      <trkpt lat="43.90181" lon="7.27029">
        <ele>767.58270263672</ele>
        <time>2014-12-21T08:53:11Z</time>
      </trkpt>
      <trkpt lat="43.90179" lon="7.27033">
        <ele>768.73699951172</ele>
        <time>2014-12-21T08:53:17Z</time>
      </trkpt>
      <trkpt lat="43.90176" lon="7.2704">
        <ele>770.46472167969</ele>
        <time>2014-12-21T08:53:24Z</time>
      </trkpt>
      <trkpt lat="43.90175" lon="7.2705">
        <ele>773.87103271484</ele>
        <time>2014-12-21T08:53:31Z</time>
      </trkpt>
      <trkpt lat="43.90178" lon="7.27051">
        <ele>776.0498046875</ele>
        <time>2014-12-21T08:53:37Z</time>
      </trkpt>
      <trkpt lat="43.90184" lon="7.27051">
        <ele>779.36169433594</ele>
        <time>2014-12-21T08:53:45Z</time>
      </trkpt>
      <trkpt lat="43.90189" lon="7.27051">
        <ele>781.84869384766</ele>
        <time>2014-12-21T08:53:51Z</time>
      </trkpt>
      <trkpt lat="43.90194" lon="7.27057">
        <ele>786.99993896484</ele>
        <time>2014-12-21T08:53:59Z</time>
      </trkpt>
      <trkpt lat="43.90193" lon="7.27059">
        <ele>787.74731445312</ele>
        <time>2014-12-21T08:54:05Z</time>
      </trkpt>
      <trkpt lat="43.90192" lon="7.27059">
        <ele>787.43530273438</ele>
        <time>2014-12-21T08:54:06Z</time>
      </trkpt>
      <trkpt lat="43.90189" lon="7.27063">
        <ele>788.09899902344</ele>
        <time>2014-12-21T08:54:14Z</time>
      </trkpt>
      <trkpt lat="43.90189" lon="7.27066">
        <ele>788.93853759766</ele>
        <time>2014-12-21T08:54:18Z</time>
      </trkpt>
      <trkpt lat="43.90189" lon="7.27072">
        <ele>792.35369873047</ele>
        <time>2014-12-21T08:54:26Z</time>
      </trkpt>
      <trkpt lat="43.90187" lon="7.27078">
        <ele>794.13464355469</ele>
        <time>2014-12-21T08:54:33Z</time>
      </trkpt>
      <trkpt lat="43.90188" lon="7.27082">
        <ele>797.13708496094</ele>
        <time>2014-12-21T08:54:39Z</time>
      </trkpt>
      <trkpt lat="43.90193" lon="7.27082">
        <ele>799.88665771484</ele>
        <time>2014-12-21T08:54:46Z</time>
      </trkpt>
      <trkpt lat="43.90192" lon="7.27086">
        <ele>800.82708740234</ele>
        <time>2014-12-21T08:54:51Z</time>
      </trkpt>
      <trkpt lat="43.90191" lon="7.27088">
        <ele>800.87823486328</ele>
        <time>2014-12-21T08:54:56Z</time>
      </trkpt>
      <trkpt lat="43.9019" lon="7.27091">
        <ele>801.22747802734</ele>
        <time>2014-12-21T08:55:01Z</time>
      </trkpt>
      <trkpt lat="43.90189" lon="7.27094">
        <ele>801.79302978516</ele>
        <time>2014-12-21T08:55:06Z</time>
      </trkpt>
      <trkpt lat="43.90185" lon="7.271">
        <ele>802.45068359375</ele>
        <time>2014-12-21T08:55:14Z</time>
      </trkpt>
      <trkpt lat="43.90186" lon="7.27105">
        <ele>804.72821044922</ele>
        <time>2014-12-21T08:55:19Z</time>
      </trkpt>
      <trkpt lat="43.90192" lon="7.27107">
        <ele>807.90863037109</ele>
        <time>2014-12-21T08:55:26Z</time>
      </trkpt>
      <trkpt lat="43.90197" lon="7.27107">
        <ele>809.33282470703</ele>
        <time>2014-12-21T08:55:35Z</time>
      </trkpt>
      <trkpt lat="43.90198" lon="7.27109">
        <ele>810.12005615234</ele>
        <time>2014-12-21T08:55:40Z</time>
      </trkpt>
      <trkpt lat="43.90199" lon="7.27112">
        <ele>811.20172119141</ele>
        <time>2014-12-21T08:55:50Z</time>
      </trkpt>
      <trkpt lat="43.90199" lon="7.27115">
        <ele>812.46801757812</ele>
        <time>2014-12-21T08:55:59Z</time>
      </trkpt>
      <trkpt lat="43.90199" lon="7.27115">
        <ele>812.84039306641</ele>
        <time>2014-12-21T08:56:00Z</time>
      </trkpt>
      <trkpt lat="43.90201" lon="7.27115">
        <ele>813.24224853516</ele>
        <time>2014-12-21T08:56:05Z</time>
      </trkpt>
      <trkpt lat="43.90207" lon="7.27116">
        <ele>815.19500732422</ele>
        <time>2014-12-21T08:56:13Z</time>
      </trkpt>
      <trkpt lat="43.90206" lon="7.2712">
        <ele>816.38653564453</ele>
        <time>2014-12-21T08:56:19Z</time>
      </trkpt>
      <trkpt lat="43.90203" lon="7.27126">
        <ele>818.04479980469</ele>
        <time>2014-12-21T08:56:28Z</time>
      </trkpt>
      <trkpt lat="43.90203" lon="7.27133">
        <ele>820.83093261719</ele>
        <time>2014-12-21T08:56:36Z</time>
      </trkpt>
      <trkpt lat="43.90206" lon="7.27135">
        <ele>822.42333984375</ele>
        <time>2014-12-21T08:56:41Z</time>
      </trkpt>
      <trkpt lat="43.90212" lon="7.27135">
        <ele>824.69573974609</ele>
        <time>2014-12-21T08:56:49Z</time>
      </trkpt>
      <trkpt lat="43.90221" lon="7.27136">
        <ele>828.49230957031</ele>
        <time>2014-12-21T08:56:58Z</time>
      </trkpt>
      <trkpt lat="43.90229" lon="7.27138">
        <ele>830.46368408203</ele>
        <time>2014-12-21T08:57:06Z</time>
      </trkpt>
      <trkpt lat="43.90238" lon="7.27142">
        <ele>833.75921630859</ele>
        <time>2014-12-21T08:57:17Z</time>
      </trkpt>
      <trkpt lat="43.90244" lon="7.27145">
        <ele>835.92266845703</ele>
        <time>2014-12-21T08:57:26Z</time>
      </trkpt>
      <trkpt lat="43.90248" lon="7.27147">
        <ele>837.62756347656</ele>
        <time>2014-12-21T08:57:34Z</time>
      </trkpt>
      <trkpt lat="43.90251" lon="7.27149">
        <ele>839.1728515625</ele>
        <time>2014-12-21T08:57:39Z</time>
      </trkpt>
      <trkpt lat="43.90253" lon="7.27151">
        <ele>841.04736328125</ele>
        <time>2014-12-21T08:57:45Z</time>
      </trkpt>
      <trkpt lat="43.90253" lon="7.27155">
        <ele>842.82580566406</ele>
        <time>2014-12-21T08:57:51Z</time>
      </trkpt>
      <trkpt lat="43.90255" lon="7.27157">
        <ele>844.21282958984</ele>
        <time>2014-12-21T08:57:56Z</time>
      </trkpt>
      <trkpt lat="43.90257" lon="7.27161">
        <ele>846.44097900391</ele>
        <time>2014-12-21T08:58:03Z</time>
      </trkpt>
      <trkpt lat="43.90259" lon="7.27164">
        <ele>848.48376464844</ele>
        <time>2014-12-21T08:58:08Z</time>
      </trkpt>
      <trkpt lat="43.90258" lon="7.27168">
        <ele>850.35583496094</ele>
        <time>2014-12-21T08:58:14Z</time>
      </trkpt>
      <trkpt lat="43.90257" lon="7.27173">
        <ele>852.94073486328</ele>
        <time>2014-12-21T08:58:21Z</time>
      </trkpt>
      <trkpt lat="43.90257" lon="7.27175">
        <ele>854.30303955078</ele>
        <time>2014-12-21T08:58:25Z</time>
      </trkpt>
      <trkpt lat="43.90253" lon="7.27182">
        <ele>856.99328613281</ele>
        <time>2014-12-21T08:58:34Z</time>
      </trkpt>
      <trkpt lat="43.90253" lon="7.27184">
        <ele>857.95379638672</ele>
        <time>2014-12-21T08:58:37Z</time>
      </trkpt>
      <trkpt lat="43.90252" lon="7.27189">
        <ele>860.50378417969</ele>
        <time>2014-12-21T08:58:42Z</time>
      </trkpt>
      <trkpt lat="43.90253" lon="7.2719">
        <ele>861.71844482422</ele>
        <time>2014-12-21T08:58:44Z</time>
      </trkpt>
      <trkpt lat="43.90258" lon="7.27198">
        <ele>866.05126953125</ele>
        <time>2014-12-21T08:58:53Z</time>
      </trkpt>
      <trkpt lat="43.90264" lon="7.272">
        <ele>868.25518798828</ele>
        <time>2014-12-21T08:59:02Z</time>
      </trkpt>
      <trkpt lat="43.90271" lon="7.27201">
        <ele>870.4736328125</ele>
        <time>2014-12-21T08:59:12Z</time>
      </trkpt>
      <trkpt lat="43.90274" lon="7.27202">
        <ele>871.61108398438</ele>
        <time>2014-12-21T08:59:17Z</time>
      </trkpt>
      <trkpt lat="43.90278" lon="7.27203">
        <ele>873.47546386719</ele>
        <time>2014-12-21T08:59:25Z</time>
      </trkpt>
      <trkpt lat="43.90281" lon="7.27203">
        <ele>874.78179931641</ele>
        <time>2014-12-21T08:59:31Z</time>
      </trkpt>
      <trkpt lat="43.90285" lon="7.27204">
        <ele>876.35760498047</ele>
        <time>2014-12-21T08:59:38Z</time>
      </trkpt>
      <trkpt lat="43.90287" lon="7.27209">
        <ele>878.97546386719</ele>
        <time>2014-12-21T08:59:46Z</time>
      </trkpt>
      <trkpt lat="43.90289" lon="7.2721">
        <ele>880.46032714844</ele>
        <time>2014-12-21T08:59:51Z</time>
      </trkpt>
      <trkpt lat="43.90295" lon="7.27212">
        <ele>883.08673095703</ele>
        <time>2014-12-21T09:00:01Z</time>
      </trkpt>
      <trkpt lat="43.90299" lon="7.27215">
        <ele>885.86254882812</ele>
        <time>2014-12-21T09:00:09Z</time>
      </trkpt>
      <trkpt lat="43.90303" lon="7.27216">
        <ele>887.46240234375</ele>
        <time>2014-12-21T09:00:16Z</time>
      </trkpt>
      <trkpt lat="43.90305" lon="7.27216">
        <ele>888.45629882812</ele>
        <time>2014-12-21T09:00:21Z</time>
      </trkpt>
      <trkpt lat="43.90308" lon="7.27217">
        <ele>889.70440673828</ele>
        <time>2014-12-21T09:00:26Z</time>
      </trkpt>
      <trkpt lat="43.90309" lon="7.27224">
        <ele>892.71466064453</ele>
        <time>2014-12-21T09:00:34Z</time>
      </trkpt>
      <trkpt lat="43.90314" lon="7.27227">
        <ele>895.34710693359</ele>
        <time>2014-12-21T09:00:41Z</time>
      </trkpt>
      <trkpt lat="43.90318" lon="7.27225">
        <ele>896.40692138672</ele>
        <time>2014-12-21T09:00:48Z</time>
      </trkpt>
      <trkpt lat="43.90321" lon="7.27226">
        <ele>897.33099365234</ele>
        <time>2014-12-21T09:00:53Z</time>
      </trkpt>
      <trkpt lat="43.90326" lon="7.27226">
        <ele>899.07299804688</ele>
        <time>2014-12-21T09:01:01Z</time>
      </trkpt>
      <trkpt lat="43.90331" lon="7.27227">
        <ele>901.03857421875</ele>
        <time>2014-12-21T09:01:09Z</time>
      </trkpt>
      <trkpt lat="43.90337" lon="7.27228">
        <ele>902.88543701172</ele>
        <time>2014-12-21T09:01:20Z</time>
      </trkpt>
      <trkpt lat="43.90339" lon="7.27229">
        <ele>903.50799560547</ele>
        <time>2014-12-21T09:01:26Z</time>
      </trkpt>
      <trkpt lat="43.90342" lon="7.27231">
        <ele>904.46380615234</ele>
        <time>2014-12-21T09:01:33Z</time>
      </trkpt>
      <trkpt lat="43.90346" lon="7.27232">
        <ele>905.24310302734</ele>
        <time>2014-12-21T09:01:40Z</time>
      </trkpt>
      <trkpt lat="43.90348" lon="7.27233">
        <ele>906.16937255859</ele>
        <time>2014-12-21T09:01:47Z</time>
      </trkpt>
      <trkpt lat="43.90348" lon="7.27234">
        <ele>906.25457763672</ele>
        <time>2014-12-21T09:01:48Z</time>
      </trkpt>
      <trkpt lat="43.90346" lon="7.27239">
        <ele>907.24719238281</ele>
        <time>2014-12-21T09:01:56Z</time>
      </trkpt>
      <trkpt lat="43.90348" lon="7.27241">
        <ele>908.28186035156</ele>
        <time>2014-12-21T09:02:03Z</time>
      </trkpt>
      <trkpt lat="43.9035" lon="7.27241">
        <ele>908.66180419922</ele>
        <time>2014-12-21T09:02:08Z</time>
      </trkpt>
      <trkpt lat="43.90353" lon="7.27241">
        <ele>909.40765380859</ele>
        <time>2014-12-21T09:02:15Z</time>
      </trkpt>
      <trkpt lat="43.90357" lon="7.2724">
        <ele>910.01354980469</ele>
        <time>2014-12-21T09:02:22Z</time>
      </trkpt>
      <trkpt lat="43.90362" lon="7.27242">
        <ele>911.71295166016</ele>
        <time>2014-12-21T09:02:31Z</time>
      </trkpt>
      <trkpt lat="43.90366" lon="7.27243">
        <ele>913.36853027344</ele>
        <time>2014-12-21T09:02:38Z</time>
      </trkpt>
      <trkpt lat="43.90368" lon="7.27246">
        <ele>915.14025878906</ele>
        <time>2014-12-21T09:02:45Z</time>
      </trkpt>
      <trkpt lat="43.90366" lon="7.27253">
        <ele>917.17932128906</ele>
        <time>2014-12-21T09:02:54Z</time>
      </trkpt>
      <trkpt lat="43.90365" lon="7.27259">
        <ele>918.96325683594</ele>
        <time>2014-12-21T09:03:01Z</time>
      </trkpt>
      <trkpt lat="43.90367" lon="7.27261">
        <ele>920.69189453125</ele>
        <time>2014-12-21T09:03:07Z</time>
      </trkpt>
      <trkpt lat="43.90371" lon="7.27262">
        <ele>922.71228027344</ele>
        <time>2014-12-21T09:03:15Z</time>
      </trkpt>
      <trkpt lat="43.90374" lon="7.27264">
        <ele>924.14276123047</ele>
        <time>2014-12-21T09:03:22Z</time>
      </trkpt>
      <trkpt lat="43.90375" lon="7.27267">
        <ele>925.81774902344</ele>
        <time>2014-12-21T09:03:28Z</time>
      </trkpt>
      <trkpt lat="43.90377" lon="7.27267">
        <ele>926.9892578125</ele>
        <time>2014-12-21T09:03:42Z</time>
      </trkpt>
      <trkpt lat="43.90379" lon="7.27267">
        <ele>927.86486816406</ele>
        <time>2014-12-21T09:03:48Z</time>
      </trkpt>
      <trkpt lat="43.90381" lon="7.27268">
        <ele>928.75018310547</ele>
        <time>2014-12-21T09:04:04Z</time>
      </trkpt>
      <trkpt lat="43.90382" lon="7.2727">
        <ele>929.70770263672</ele>
        <time>2014-12-21T09:04:18Z</time>
      </trkpt>
      <trkpt lat="43.90385" lon="7.27272">
        <ele>931.81982421875</ele>
        <time>2014-12-21T09:04:24Z</time>
      </trkpt>
      <trkpt lat="43.90385" lon="7.27273">
        <ele>932.23272705078</ele>
        <time>2014-12-21T09:04:25Z</time>
      </trkpt>
      <trkpt lat="43.9039" lon="7.27272">
        <ele>933.72515869141</ele>
        <time>2014-12-21T09:04:33Z</time>
      </trkpt>
      <trkpt lat="43.90393" lon="7.27275">
        <ele>935.96990966797</ele>
        <time>2014-12-21T09:04:40Z</time>
      </trkpt>
      <trkpt lat="43.90395" lon="7.27276">
        <ele>936.75415039062</ele>
        <time>2014-12-21T09:04:48Z</time>
      </trkpt>
      <trkpt lat="43.90396" lon="7.27277">
        <ele>937.6494140625</ele>
        <time>2014-12-21T09:04:54Z</time>
      </trkpt>
      <trkpt lat="43.90399" lon="7.2728">
        <ele>939.49102783203</ele>
        <time>2014-12-21T09:05:00Z</time>
      </trkpt>
      <trkpt lat="43.90405" lon="7.27274">
        <ele>939.24304199219</ele>
        <time>2014-12-21T09:05:10Z</time>
      </trkpt>
      <trkpt lat="43.90408" lon="7.27275">
        <ele>940.44458007812</ele>
        <time>2014-12-21T09:05:15Z</time>
      </trkpt>
      <trkpt lat="43.90412" lon="7.27276">
        <ele>942.00628662109</ele>
        <time>2014-12-21T09:05:22Z</time>
      </trkpt>
      <trkpt lat="43.90414" lon="7.27277">
        <ele>943.09429931641</ele>
        <time>2014-12-21T09:05:28Z</time>
      </trkpt>
      <trkpt lat="43.90418" lon="7.27277">
        <ele>944.50909423828</ele>
        <time>2014-12-21T09:05:35Z</time>
      </trkpt>
      <trkpt lat="43.90424" lon="7.27278">
        <ele>946.87493896484</ele>
        <time>2014-12-21T09:05:44Z</time>
      </trkpt>
      <trkpt lat="43.90426" lon="7.27278">
        <ele>947.65240478516</ele>
        <time>2014-12-21T09:05:49Z</time>
      </trkpt>
      <trkpt lat="43.90429" lon="7.27278">
        <ele>948.76971435547</ele>
        <time>2014-12-21T09:05:55Z</time>
      </trkpt>
      <trkpt lat="43.90432" lon="7.27279">
        <ele>950.31024169922</ele>
        <time>2014-12-21T09:06:01Z</time>
      </trkpt>
      <trkpt lat="43.90435" lon="7.2728">
        <ele>951.75872802734</ele>
        <time>2014-12-21T09:06:08Z</time>
      </trkpt>
      <trkpt lat="43.9044" lon="7.27278">
        <ele>953.08972167969</ele>
        <time>2014-12-21T09:06:13Z</time>
      </trkpt>
      <trkpt lat="43.90443" lon="7.27278">
        <ele>954.26977539062</ele>
        <time>2014-12-21T09:06:19Z</time>
      </trkpt>
      <trkpt lat="43.90447" lon="7.27277">
        <ele>956.09539794922</ele>
        <time>2014-12-21T09:06:27Z</time>
      </trkpt>
      <trkpt lat="43.90447" lon="7.27277">
        <ele>956.02160644531</ele>
        <time>2014-12-21T09:06:45Z</time>
      </trkpt>
      <trkpt lat="43.90448" lon="7.27276">
        <ele>955.76232910156</ele>
        <time>2014-12-21T09:07:19Z</time>
      </trkpt>
      <trkpt lat="43.90455" lon="7.27275">
        <ele>958.8935546875</ele>
        <time>2014-12-21T09:07:28Z</time>
      </trkpt>
      <trkpt lat="43.90461" lon="7.27274">
        <ele>961.16595458984</ele>
        <time>2014-12-21T09:07:35Z</time>
      </trkpt>
      <trkpt lat="43.90465" lon="7.27275">
        <ele>963.34716796875</ele>
        <time>2014-12-21T09:07:42Z</time>
      </trkpt>
      <trkpt lat="43.90469" lon="7.27275">
        <ele>965.27624511719</ele>
        <time>2014-12-21T09:07:49Z</time>
      </trkpt>
      <trkpt lat="43.90472" lon="7.27276">
        <ele>966.71197509766</ele>
        <time>2014-12-21T09:07:54Z</time>
      </trkpt>
      <trkpt lat="43.90477" lon="7.27277">
        <ele>968.60565185547</ele>
        <time>2014-12-21T09:08:01Z</time>
      </trkpt>
      <trkpt lat="43.90482" lon="7.27282">
        <ele>971.12280273438</ele>
        <time>2014-12-21T09:08:10Z</time>
      </trkpt>
      <trkpt lat="43.90482" lon="7.27283">
        <ele>971.50024414062</ele>
        <time>2014-12-21T09:08:18Z</time>
      </trkpt>
      <trkpt lat="43.90482" lon="7.27285">
        <ele>971.67962646484</ele>
        <time>2014-12-21T09:09:07Z</time>
      </trkpt>
      <trkpt lat="43.90481" lon="7.27286">
        <ele>971.75183105469</ele>
        <time>2014-12-21T09:09:13Z</time>
      </trkpt>
      <trkpt lat="43.9048" lon="7.27288">
        <ele>971.75677490234</ele>
        <time>2014-12-21T09:13:55Z</time>
      </trkpt>
      <trkpt lat="43.90482" lon="7.27294">
        <ele>973.54187011719</ele>
        <time>2014-12-21T09:14:02Z</time>
      </trkpt>
      <trkpt lat="43.90485" lon="7.27293">
        <ele>974.11846923828</ele>
        <time>2014-12-21T09:14:07Z</time>
      </trkpt>
      <trkpt lat="43.90486" lon="7.2729">
        <ele>973.99230957031</ele>
        <time>2014-12-21T09:14:10Z</time>
      </trkpt>
      <trkpt lat="43.90488" lon="7.27287">
        <ele>974.10949707031</ele>
        <time>2014-12-21T09:14:17Z</time>
      </trkpt>
      <trkpt lat="43.90496" lon="7.27289">
        <ele>976.79345703125</ele>
        <time>2014-12-21T09:14:23Z</time>
      </trkpt>
      <trkpt lat="43.90497" lon="7.27289">
        <ele>977.18603515625</ele>
        <time>2014-12-21T09:14:24Z</time>
      </trkpt>
      <trkpt lat="43.90498" lon="7.27291">
        <ele>977.66302490234</ele>
        <time>2014-12-21T09:14:27Z</time>
      </trkpt>
      <trkpt lat="43.90499" lon="7.273">
        <ele>979.13397216797</ele>
        <time>2014-12-21T09:14:33Z</time>
      </trkpt>
      <trkpt lat="43.90502" lon="7.27309">
        <ele>979.77117919922</ele>
        <time>2014-12-21T09:14:38Z</time>
      </trkpt>
      <trkpt lat="43.90506" lon="7.27318">
        <ele>979.52752685547</ele>
        <time>2014-12-21T09:14:44Z</time>
      </trkpt>
      <trkpt lat="43.9051" lon="7.27332">
        <ele>979.95263671875</ele>
        <time>2014-12-21T09:14:53Z</time>
      </trkpt>
      <trkpt lat="43.90515" lon="7.27337">
        <ele>980</ele>
        <time>2014-12-21T09:14:59Z</time>
      </trkpt>
      <trkpt lat="43.90516" lon="7.27342">
        <ele>980</ele>
        <time>2014-12-21T09:15:03Z</time>
      </trkpt>
      <trkpt lat="43.90522" lon="7.27352">
        <ele>980</ele>
        <time>2014-12-21T09:15:13Z</time>
      </trkpt>
      <trkpt lat="43.90524" lon="7.27355">
        <ele>980</ele>
        <time>2014-12-21T09:15:19Z</time>
      </trkpt>
      <trkpt lat="43.90526" lon="7.27362">
        <ele>980</ele>
        <time>2014-12-21T09:15:30Z</time>
      </trkpt>
      <trkpt lat="43.90531" lon="7.27369">
        <ele>978.68347167969</ele>
        <time>2014-12-21T09:15:36Z</time>
      </trkpt>
      <trkpt lat="43.90533" lon="7.2737">
        <ele>977.89300537109</ele>
        <time>2014-12-21T09:15:42Z</time>
      </trkpt>
      <trkpt lat="43.90535" lon="7.27374">
        <ele>977.70013427734</ele>
        <time>2014-12-21T09:16:00Z</time>
      </trkpt>
      <trkpt lat="43.90534" lon="7.27375">
        <ele>977.9306640625</ele>
        <time>2014-12-21T09:17:06Z</time>
      </trkpt>
      <trkpt lat="43.90536" lon="7.27378">
        <ele>977.66796875</ele>
        <time>2014-12-21T09:17:11Z</time>
      </trkpt>
      <trkpt lat="43.90538" lon="7.27392">
        <ele>978.30151367188</ele>
        <time>2014-12-21T09:17:21Z</time>
      </trkpt>
      <trkpt lat="43.9054" lon="7.27407">
        <ele>979.27911376953</ele>
        <time>2014-12-21T09:17:30Z</time>
      </trkpt>
      <trkpt lat="43.90542" lon="7.27419">
        <ele>980</ele>
        <time>2014-12-21T09:17:37Z</time>
      </trkpt>
      <trkpt lat="43.90544" lon="7.27431">
        <ele>980</ele>
        <time>2014-12-21T09:17:45Z</time>
      </trkpt>
      <trkpt lat="43.90545" lon="7.27442">
        <ele>980</ele>
        <time>2014-12-21T09:17:52Z</time>
      </trkpt>
      <trkpt lat="43.90547" lon="7.2745">
        <ele>980</ele>
        <time>2014-12-21T09:17:58Z</time>
      </trkpt>
      <trkpt lat="43.9055" lon="7.27464">
        <ele>980</ele>
        <time>2014-12-21T09:18:07Z</time>
      </trkpt>
      <trkpt lat="43.90553" lon="7.27477">
        <ele>980.24890136719</ele>
        <time>2014-12-21T09:18:16Z</time>
      </trkpt>
      <trkpt lat="43.90556" lon="7.27487">
        <ele>981.02905273438</ele>
        <time>2014-12-21T09:18:23Z</time>
      </trkpt>
      <trkpt lat="43.90559" lon="7.27499">
        <ele>981.92175292969</ele>
        <time>2014-12-21T09:18:33Z</time>
      </trkpt>
      <trkpt lat="43.90562" lon="7.27507">
        <ele>981.931640625</ele>
        <time>2014-12-21T09:18:40Z</time>
      </trkpt>
      <trkpt lat="43.90564" lon="7.27512">
        <ele>981.9599609375</ele>
        <time>2014-12-21T09:18:47Z</time>
      </trkpt>
      <trkpt lat="43.90564" lon="7.27513">
        <ele>981.97650146484</ele>
        <time>2014-12-21T09:18:49Z</time>
      </trkpt>
      <trkpt lat="43.90563" lon="7.2752">
        <ele>981.84423828125</ele>
        <time>2014-12-21T09:18:54Z</time>
      </trkpt>
      <trkpt lat="43.90564" lon="7.27532">
        <ele>981.89184570312</ele>
        <time>2014-12-21T09:19:02Z</time>
      </trkpt>
      <trkpt lat="43.90565" lon="7.27543">
        <ele>982.2392578125</ele>
        <time>2014-12-21T09:19:09Z</time>
      </trkpt>
      <trkpt lat="43.90567" lon="7.27555">
        <ele>982.78912353516</ele>
        <time>2014-12-21T09:19:17Z</time>
      </trkpt>
      <trkpt lat="43.9057" lon="7.27565">
        <ele>983.52270507812</ele>
        <time>2014-12-21T09:19:24Z</time>
      </trkpt>
      <trkpt lat="43.90573" lon="7.27575">
        <ele>984.5400390625</ele>
        <time>2014-12-21T09:19:32Z</time>
      </trkpt>
      <trkpt lat="43.90575" lon="7.27581">
        <ele>985.52600097656</ele>
        <time>2014-12-21T09:19:36Z</time>
      </trkpt>
      <trkpt lat="43.90582" lon="7.27595">
        <ele>989.68115234375</ele>
        <time>2014-12-21T09:19:45Z</time>
      </trkpt>
      <trkpt lat="43.9059" lon="7.27607">
        <ele>992.58538818359</ele>
        <time>2014-12-21T09:19:54Z</time>
      </trkpt>
      <trkpt lat="43.90595" lon="7.27619">
        <ele>993.51202392578</ele>
        <time>2014-12-21T09:20:03Z</time>
      </trkpt>
      <trkpt lat="43.90599" lon="7.2763">
        <ele>994.20965576172</ele>
        <time>2014-12-21T09:20:11Z</time>
      </trkpt>
      <trkpt lat="43.90606" lon="7.27645">
        <ele>997.32409667969</ele>
        <time>2014-12-21T09:20:20Z</time>
      </trkpt>
      <trkpt lat="43.90612" lon="7.27655">
        <ele>1000.7554931641</ele>
        <time>2014-12-21T09:20:28Z</time>
      </trkpt>
      <trkpt lat="43.90617" lon="7.27662">
        <ele>1002.0465698242</ele>
        <time>2014-12-21T09:20:35Z</time>
      </trkpt>
      <trkpt lat="43.90622" lon="7.27675">
        <ele>1004.1229858398</ele>
        <time>2014-12-21T09:20:43Z</time>
      </trkpt>
      <trkpt lat="43.90625" lon="7.27682">
        <ele>1005.5812988281</ele>
        <time>2014-12-21T09:20:49Z</time>
      </trkpt>
      <trkpt lat="43.90624" lon="7.27684">
        <ele>1005.3767700195</ele>
        <time>2014-12-21T09:21:11Z</time>
      </trkpt>
      <trkpt lat="43.90627" lon="7.27694">
        <ele>1007.3918457031</ele>
        <time>2014-12-21T09:21:20Z</time>
      </trkpt>
      <trkpt lat="43.90627" lon="7.277">
        <ele>1007.0952758789</ele>
        <time>2014-12-21T09:21:24Z</time>
      </trkpt>
      <trkpt lat="43.90628" lon="7.27713">
        <ele>1006.2091674805</ele>
        <time>2014-12-21T09:21:34Z</time>
      </trkpt>
      <trkpt lat="43.90627" lon="7.27727">
        <ele>1004.1638793945</ele>
        <time>2014-12-21T09:21:43Z</time>
      </trkpt>
      <trkpt lat="43.90627" lon="7.27733">
        <ele>1003.953918457</ele>
        <time>2014-12-21T09:21:47Z</time>
      </trkpt>
      <trkpt lat="43.90629" lon="7.27742">
        <ele>1004.7623291016</ele>
        <time>2014-12-21T09:21:52Z</time>
      </trkpt>
      <trkpt lat="43.90629" lon="7.27757">
        <ele>1003.6389770508</ele>
        <time>2014-12-21T09:22:02Z</time>
      </trkpt>
      <trkpt lat="43.9063" lon="7.2776">
        <ele>1003.959777832</ele>
        <time>2014-12-21T09:22:09Z</time>
      </trkpt>
      <trkpt lat="43.9063" lon="7.27767">
        <ele>1003.713684082</ele>
        <time>2014-12-21T09:22:39Z</time>
      </trkpt>
      <trkpt lat="43.90627" lon="7.27774">
        <ele>1002.3184204102</ele>
        <time>2014-12-21T09:22:47Z</time>
      </trkpt>
      <trkpt lat="43.90623" lon="7.27782">
        <ele>1000.9448242188</ele>
        <time>2014-12-21T09:22:56Z</time>
      </trkpt>
      <trkpt lat="43.90622" lon="7.27789">
        <ele>1000.6671142578</ele>
        <time>2014-12-21T09:23:03Z</time>
      </trkpt>
      <trkpt lat="43.9062" lon="7.278">
        <ele>1000.2955932617</ele>
        <time>2014-12-21T09:23:14Z</time>
      </trkpt>
      <trkpt lat="43.90622" lon="7.27802">
        <ele>1000.7766723633</ele>
        <time>2014-12-21T09:23:20Z</time>
      </trkpt>
      <trkpt lat="43.9062" lon="7.27806">
        <ele>1000.5403442383</ele>
        <time>2014-12-21T09:23:30Z</time>
      </trkpt>
      <trkpt lat="43.90617" lon="7.27813">
        <ele>1000.4138183594</ele>
        <time>2014-12-21T09:23:38Z</time>
      </trkpt>
      <trkpt lat="43.90614" lon="7.27818">
        <ele>1000.2230834961</ele>
        <time>2014-12-21T09:23:46Z</time>
      </trkpt>
      <trkpt lat="43.90612" lon="7.27828">
        <ele>1000.6890258789</ele>
        <time>2014-12-21T09:23:55Z</time>
      </trkpt>
      <trkpt lat="43.90612" lon="7.27832">
        <ele>1000.9424438477</ele>
        <time>2014-12-21T09:23:58Z</time>
      </trkpt>
      <trkpt lat="43.90609" lon="7.27843">
        <ele>999.71276855469</ele>
        <time>2014-12-21T09:24:07Z</time>
      </trkpt>
      <trkpt lat="43.90606" lon="7.27855">
        <ele>998.33538818359</ele>
        <time>2014-12-21T09:24:16Z</time>
      </trkpt>
      <trkpt lat="43.90601" lon="7.2787">
        <ele>997.40606689453</ele>
        <time>2014-12-21T09:24:26Z</time>
      </trkpt>
      <trkpt lat="43.90598" lon="7.27881">
        <ele>997.76568603516</ele>
        <time>2014-12-21T09:24:33Z</time>
      </trkpt>
      <trkpt lat="43.90597" lon="7.2789">
        <ele>998.57043457031</ele>
        <time>2014-12-21T09:24:39Z</time>
      </trkpt>
      <trkpt lat="43.90593" lon="7.27898">
        <ele>998.82562255859</ele>
        <time>2014-12-21T09:24:46Z</time>
      </trkpt>
      <trkpt lat="43.90587" lon="7.27911">
        <ele>1000.1104125977</ele>
        <time>2014-12-21T09:24:56Z</time>
      </trkpt>
      <trkpt lat="43.90583" lon="7.27917">
        <ele>1000.9904785156</ele>
        <time>2014-12-21T09:25:02Z</time>
      </trkpt>
      <trkpt lat="43.90581" lon="7.27925">
        <ele>1001.8915405273</ele>
        <time>2014-12-21T09:25:10Z</time>
      </trkpt>
      <trkpt lat="43.90577" lon="7.27934">
        <ele>1002.5877685547</ele>
        <time>2014-12-21T09:25:19Z</time>
      </trkpt>
      <trkpt lat="43.90577" lon="7.27941">
        <ele>1003.7823486328</ele>
        <time>2014-12-21T09:25:26Z</time>
      </trkpt>
      <trkpt lat="43.90575" lon="7.27945">
        <ele>1004.1869506836</ele>
        <time>2014-12-21T09:25:32Z</time>
      </trkpt>
      <trkpt lat="43.90575" lon="7.27949">
        <ele>1005.0727539062</ele>
        <time>2014-12-21T09:25:39Z</time>
      </trkpt>
      <trkpt lat="43.90573" lon="7.27959">
        <ele>1006.9251098633</ele>
        <time>2014-12-21T09:25:47Z</time>
      </trkpt>
      <trkpt lat="43.90569" lon="7.27965">
        <ele>1007.146484375</ele>
        <time>2014-12-21T09:25:54Z</time>
      </trkpt>
      <trkpt lat="43.90569" lon="7.27967">
        <ele>1007.3817138672</ele>
        <time>2014-12-21T09:25:55Z</time>
      </trkpt>
      <trkpt lat="43.90565" lon="7.27972">
        <ele>1007.7512207031</ele>
        <time>2014-12-21T09:26:00Z</time>
      </trkpt>
      <trkpt lat="43.90561" lon="7.27977">
        <ele>1007.9163208008</ele>
        <time>2014-12-21T09:26:06Z</time>
      </trkpt>
      <trkpt lat="43.90552" lon="7.27984">
        <ele>1007.2987060547</ele>
        <time>2014-12-21T09:26:16Z</time>
      </trkpt>
      <trkpt lat="43.90545" lon="7.2799">
        <ele>1006.2275390625</ele>
        <time>2014-12-21T09:26:24Z</time>
      </trkpt>
      <trkpt lat="43.90539" lon="7.27998">
        <ele>1006.1760864258</ele>
        <time>2014-12-21T09:26:33Z</time>
      </trkpt>
      <trkpt lat="43.90539" lon="7.28004">
        <ele>1008.3939208984</ele>
        <time>2014-12-21T09:26:42Z</time>
      </trkpt>
      <trkpt lat="43.90536" lon="7.28007">
        <ele>1008.5178833008</ele>
        <time>2014-12-21T09:26:49Z</time>
      </trkpt>
      <trkpt lat="43.90533" lon="7.2801">
        <ele>1009.0461425781</ele>
        <time>2014-12-21T09:26:53Z</time>
      </trkpt>
      <trkpt lat="43.90527" lon="7.28018">
        <ele>1011.3580322266</ele>
        <time>2014-12-21T09:27:02Z</time>
      </trkpt>
      <trkpt lat="43.90522" lon="7.28025">
        <ele>1013.5748291016</ele>
        <time>2014-12-21T09:27:09Z</time>
      </trkpt>
      <trkpt lat="43.9052" lon="7.28027">
        <ele>1013.7608642578</ele>
        <time>2014-12-21T09:27:12Z</time>
      </trkpt>
      <trkpt lat="43.90514" lon="7.28034">
        <ele>1013.2286376953</ele>
        <time>2014-12-21T09:27:20Z</time>
      </trkpt>
      <trkpt lat="43.90509" lon="7.28041">
        <ele>1013.9074707031</ele>
        <time>2014-12-21T09:27:28Z</time>
      </trkpt>
      <trkpt lat="43.90505" lon="7.28045">
        <ele>1014.0829467773</ele>
        <time>2014-12-21T09:27:35Z</time>
      </trkpt>
      <trkpt lat="43.90501" lon="7.2805">
        <ele>1014.7913208008</ele>
        <time>2014-12-21T09:27:42Z</time>
      </trkpt>
      <trkpt lat="43.905" lon="7.28051">
        <ele>1015.2053833008</ele>
        <time>2014-12-21T09:27:44Z</time>
      </trkpt>
      <trkpt lat="43.90498" lon="7.28056">
        <ele>1016.9871826172</ele>
        <time>2014-12-21T09:27:49Z</time>
      </trkpt>
      <trkpt lat="43.90489" lon="7.28062">
        <ele>1018.1812744141</ele>
        <time>2014-12-21T09:27:58Z</time>
      </trkpt>
      <trkpt lat="43.90482" lon="7.28071">
        <ele>1021.4838867188</ele>
        <time>2014-12-21T09:28:07Z</time>
      </trkpt>
      <trkpt lat="43.90479" lon="7.28084">
        <ele>1027.4208984375</ele>
        <time>2014-12-21T09:28:15Z</time>
      </trkpt>
      <trkpt lat="43.90479" lon="7.28089">
        <ele>1029.9741210938</ele>
        <time>2014-12-21T09:28:21Z</time>
      </trkpt>
      <trkpt lat="43.90477" lon="7.28092">
        <ele>1031.1829833984</ele>
        <time>2014-12-21T09:28:29Z</time>
      </trkpt>
      <trkpt lat="43.9048" lon="7.281">
        <ele>1036.4265136719</ele>
        <time>2014-12-21T09:28:44Z</time>
      </trkpt>
      <trkpt lat="43.90481" lon="7.28104">
        <ele>1038.9106445312</ele>
        <time>2014-12-21T09:28:49Z</time>
      </trkpt>
      <trkpt lat="43.90482" lon="7.28107">
        <ele>1041.126953125</ele>
        <time>2014-12-21T09:28:54Z</time>
      </trkpt>
      <trkpt lat="43.90484" lon="7.28113">
        <ele>1044.1114501953</ele>
        <time>2014-12-21T09:29:04Z</time>
      </trkpt>
      <trkpt lat="43.90486" lon="7.2812">
        <ele>1047.2869873047</ele>
        <time>2014-12-21T09:29:12Z</time>
      </trkpt>
      <trkpt lat="43.90486" lon="7.28121">
        <ele>1047.7106933594</ele>
        <time>2014-12-21T09:29:13Z</time>
      </trkpt>
      <trkpt lat="43.90488" lon="7.2813">
        <ele>1051.1857910156</ele>
        <time>2014-12-21T09:29:19Z</time>
      </trkpt>
      <trkpt lat="43.90486" lon="7.28135">
        <ele>1053.4313964844</ele>
        <time>2014-12-21T09:29:29Z</time>
      </trkpt>
      <trkpt lat="43.90488" lon="7.2814">
        <ele>1055.1041259766</ele>
        <time>2014-12-21T09:29:35Z</time>
      </trkpt>
      <trkpt lat="43.90487" lon="7.28146">
        <ele>1056.7598876953</ele>
        <time>2014-12-21T09:29:42Z</time>
      </trkpt>
      <trkpt lat="43.90485" lon="7.28152">
        <ele>1058.7448730469</ele>
        <time>2014-12-21T09:29:50Z</time>
      </trkpt>
      <trkpt lat="43.90484" lon="7.28157">
        <ele>1060.2404785156</ele>
        <time>2014-12-21T09:29:57Z</time>
      </trkpt>
      <trkpt lat="43.90483" lon="7.28158">
        <ele>1060.6685791016</ele>
        <time>2014-12-21T09:29:58Z</time>
      </trkpt>
      <trkpt lat="43.90481" lon="7.28164">
        <ele>1062.7447509766</ele>
        <time>2014-12-21T09:30:05Z</time>
      </trkpt>
      <trkpt lat="43.9048" lon="7.28169">
        <ele>1063.8563232422</ele>
        <time>2014-12-21T09:30:08Z</time>
      </trkpt>
      <trkpt lat="43.90476" lon="7.28181">
        <ele>1067.0955810547</ele>
        <time>2014-12-21T09:30:18Z</time>
      </trkpt>
      <trkpt lat="43.90474" lon="7.28189">
        <ele>1069.3278808594</ele>
        <time>2014-12-21T09:30:26Z</time>
      </trkpt>
      <trkpt lat="43.90471" lon="7.28195">
        <ele>1071.5792236328</ele>
        <time>2014-12-21T09:30:34Z</time>
      </trkpt>
      <trkpt lat="43.90468" lon="7.28199">
        <ele>1073.5479736328</ele>
        <time>2014-12-21T09:30:42Z</time>
      </trkpt>
      <trkpt lat="43.90466" lon="7.28204">
        <ele>1075.3946533203</ele>
        <time>2014-12-21T09:30:49Z</time>
      </trkpt>
      <trkpt lat="43.90467" lon="7.28211">
        <ele>1076.7520751953</ele>
        <time>2014-12-21T09:30:54Z</time>
      </trkpt>
      <trkpt lat="43.90465" lon="7.28223">
        <ele>1079.7274169922</ele>
        <time>2014-12-21T09:31:02Z</time>
      </trkpt>
      <trkpt lat="43.90464" lon="7.28231">
        <ele>1081.1369628906</ele>
        <time>2014-12-21T09:31:10Z</time>
      </trkpt>
      <trkpt lat="43.90462" lon="7.28234">
        <ele>1082.2592773438</ele>
        <time>2014-12-21T09:31:15Z</time>
      </trkpt>
      <trkpt lat="43.90459" lon="7.28239">
        <ele>1083.9096679688</ele>
        <time>2014-12-21T09:31:21Z</time>
      </trkpt>
      <trkpt lat="43.90457" lon="7.28245">
        <ele>1085.8737792969</ele>
        <time>2014-12-21T09:31:28Z</time>
      </trkpt>
      <trkpt lat="43.90457" lon="7.28256">
        <ele>1087.8123779297</ele>
        <time>2014-12-21T09:31:35Z</time>
      </trkpt>
      <trkpt lat="43.90456" lon="7.28264">
        <ele>1089.3074951172</ele>
        <time>2014-12-21T09:31:41Z</time>
      </trkpt>
      <trkpt lat="43.90457" lon="7.28272">
        <ele>1090.5057373047</ele>
        <time>2014-12-21T09:31:49Z</time>
      </trkpt>
      <trkpt lat="43.90455" lon="7.28278">
        <ele>1092.4643554688</ele>
        <time>2014-12-21T09:31:55Z</time>
      </trkpt>
      <trkpt lat="43.90455" lon="7.28279">
        <ele>1092.6634521484</ele>
        <time>2014-12-21T09:31:56Z</time>
      </trkpt>
      <trkpt lat="43.90457" lon="7.28295">
        <ele>1094.1534423828</ele>
        <time>2014-12-21T09:32:04Z</time>
      </trkpt>
      <trkpt lat="43.90456" lon="7.28304">
        <ele>1095.6435546875</ele>
        <time>2014-12-21T09:32:13Z</time>
      </trkpt>
      <trkpt lat="43.90458" lon="7.28314">
        <ele>1097.3461914062</ele>
        <time>2014-12-21T09:32:21Z</time>
      </trkpt>
      <trkpt lat="43.90459" lon="7.28324">
        <ele>1098.9112548828</ele>
        <time>2014-12-21T09:32:30Z</time>
      </trkpt>
      <trkpt lat="43.90461" lon="7.28331">
        <ele>1099.6286621094</ele>
        <time>2014-12-21T09:32:38Z</time>
      </trkpt>
      <trkpt lat="43.90461" lon="7.28337">
        <ele>1101.0092773438</ele>
        <time>2014-12-21T09:32:44Z</time>
      </trkpt>
      <trkpt lat="43.90462" lon="7.28343">
        <ele>1101.8912353516</ele>
        <time>2014-12-21T09:32:52Z</time>
      </trkpt>
      <trkpt lat="43.90463" lon="7.28349">
        <ele>1102.5164794922</ele>
        <time>2014-12-21T09:33:00Z</time>
      </trkpt>
      <trkpt lat="43.90464" lon="7.28354">
        <ele>1103.0277099609</ele>
        <time>2014-12-21T09:33:06Z</time>
      </trkpt>
      <trkpt lat="43.90462" lon="7.28356">
        <ele>1104.5620117188</ele>
        <time>2014-12-21T09:33:12Z</time>
      </trkpt>
      <trkpt lat="43.90464" lon="7.28359">
        <ele>1104.3533935547</ele>
        <time>2014-12-21T09:33:18Z</time>
      </trkpt>
      <trkpt lat="43.90466" lon="7.28368">
        <ele>1105.2093505859</ele>
        <time>2014-12-21T09:33:31Z</time>
      </trkpt>
      <trkpt lat="43.90467" lon="7.28374">
        <ele>1106.5565185547</ele>
        <time>2014-12-21T09:33:42Z</time>
      </trkpt>
      <trkpt lat="43.90469" lon="7.28379">
        <ele>1106.333984375</ele>
        <time>2014-12-21T09:33:49Z</time>
      </trkpt>
      <trkpt lat="43.90471" lon="7.28382">
        <ele>1105.9293212891</ele>
        <time>2014-12-21T09:33:54Z</time>
      </trkpt>
      <trkpt lat="43.90474" lon="7.28386">
        <ele>1105.5131835938</ele>
        <time>2014-12-21T09:34:02Z</time>
      </trkpt>
      <trkpt lat="43.90476" lon="7.28388">
        <ele>1104.5806884766</ele>
        <time>2014-12-21T09:34:07Z</time>
      </trkpt>
      <trkpt lat="43.9048" lon="7.28392">
        <ele>1104.3193359375</ele>
        <time>2014-12-21T09:34:15Z</time>
      </trkpt>
      <trkpt lat="43.90484" lon="7.28397">
        <ele>1104.5369873047</ele>
        <time>2014-12-21T09:34:21Z</time>
      </trkpt>
      <trkpt lat="43.90487" lon="7.28402">
        <ele>1104.5766601562</ele>
        <time>2014-12-21T09:34:28Z</time>
      </trkpt>
      <trkpt lat="43.90491" lon="7.28405">
        <ele>1103.8779296875</ele>
        <time>2014-12-21T09:34:35Z</time>
      </trkpt>
      <trkpt lat="43.9049" lon="7.28408">
        <ele>1105.9080810547</ele>
        <time>2014-12-21T09:34:41Z</time>
      </trkpt>
      <trkpt lat="43.90488" lon="7.2841">
        <ele>1107.5657958984</ele>
        <time>2014-12-21T09:34:46Z</time>
      </trkpt>
      <trkpt lat="43.90486" lon="7.28412">
        <ele>1109.8570556641</ele>
        <time>2014-12-21T09:34:51Z</time>
      </trkpt>
      <trkpt lat="43.90487" lon="7.28411">
        <ele>1109.0690917969</ele>
        <time>2014-12-21T09:34:56Z</time>
      </trkpt>
      <trkpt lat="43.9049" lon="7.28411">
        <ele>1106.4904785156</ele>
        <time>2014-12-21T09:35:01Z</time>
      </trkpt>
      <trkpt lat="43.90491" lon="7.2841">
        <ele>1105.6297607422</ele>
        <time>2014-12-21T09:35:02Z</time>
      </trkpt>
      <trkpt lat="43.90495" lon="7.2841">
        <ele>1103.9854736328</ele>
        <time>2014-12-21T09:35:05Z</time>
      </trkpt>
      <trkpt lat="43.90497" lon="7.28412">
        <ele>1103.158203125</ele>
        <time>2014-12-21T09:35:10Z</time>
      </trkpt>
      <trkpt lat="43.90498" lon="7.28413">
        <ele>1102.7034912109</ele>
        <time>2014-12-21T09:35:14Z</time>
      </trkpt>
      <trkpt lat="43.90499" lon="7.2841">
        <ele>1101.03515625</ele>
        <time>2014-12-21T09:35:19Z</time>
      </trkpt>
      <trkpt lat="43.90499" lon="7.28411">
        <ele>1101.1042480469</ele>
        <time>2014-12-21T09:35:53Z</time>
      </trkpt>
      <trkpt lat="43.90497" lon="7.28415">
        <ele>1104.3264160156</ele>
        <time>2014-12-21T09:36:00Z</time>
      </trkpt>
      <trkpt lat="43.90496" lon="7.28419">
        <ele>1106.1746826172</ele>
        <time>2014-12-21T09:36:06Z</time>
      </trkpt>
      <trkpt lat="43.90495" lon="7.28421">
        <ele>1107.7639160156</ele>
        <time>2014-12-21T09:36:13Z</time>
      </trkpt>
      <trkpt lat="43.90493" lon="7.28423">
        <ele>1109.66796875</ele>
        <time>2014-12-21T09:36:19Z</time>
      </trkpt>
      <trkpt lat="43.90489" lon="7.28425">
        <ele>1112.4791259766</ele>
        <time>2014-12-21T09:36:25Z</time>
      </trkpt>
      <trkpt lat="43.90484" lon="7.2843">
        <ele>1117.9942626953</ele>
        <time>2014-12-21T09:36:33Z</time>
      </trkpt>
      <trkpt lat="43.90482" lon="7.28431">
        <ele>1120.0786132812</ele>
        <time>2014-12-21T09:36:39Z</time>
      </trkpt>
      <trkpt lat="43.90477" lon="7.28433">
        <ele>1123.4554443359</ele>
        <time>2014-12-21T09:38:01Z</time>
      </trkpt>
      <trkpt lat="43.90481" lon="7.2843">
        <ele>1119.8666992188</ele>
        <time>2014-12-21T09:40:18Z</time>
      </trkpt>
      <trkpt lat="43.9048" lon="7.2843">
        <ele>1120.9125976562</ele>
        <time>2014-12-21T09:40:33Z</time>
      </trkpt>
      <trkpt lat="43.90479" lon="7.28431">
        <ele>1121.6484375</ele>
        <time>2014-12-21T09:40:35Z</time>
      </trkpt>
      <trkpt lat="43.90478" lon="7.28437">
        <ele>1124.8718261719</ele>
        <time>2014-12-21T09:40:42Z</time>
      </trkpt>
      <trkpt lat="43.90477" lon="7.28442">
        <ele>1127.5572509766</ele>
        <time>2014-12-21T09:40:49Z</time>
      </trkpt>
      <trkpt lat="43.90477" lon="7.28448">
        <ele>1130.5563964844</ele>
        <time>2014-12-21T09:40:55Z</time>
      </trkpt>
      <trkpt lat="43.90477" lon="7.28457">
        <ele>1134.6900634766</ele>
        <time>2014-12-21T09:41:02Z</time>
      </trkpt>
      <trkpt lat="43.90479" lon="7.2846">
        <ele>1135.4659423828</ele>
        <time>2014-12-21T09:41:07Z</time>
      </trkpt>
      <trkpt lat="43.90481" lon="7.2847">
        <ele>1138.4699707031</ele>
        <time>2014-12-21T09:41:14Z</time>
      </trkpt>
      <trkpt lat="43.9048" lon="7.28473">
        <ele>1140.7858886719</ele>
        <time>2014-12-21T09:41:21Z</time>
      </trkpt>
      <trkpt lat="43.90479" lon="7.28477">
        <ele>1142.7429199219</ele>
        <time>2014-12-21T09:41:28Z</time>
      </trkpt>
      <trkpt lat="43.90476" lon="7.28484">
        <ele>1147.5150146484</ele>
        <time>2014-12-21T09:41:43Z</time>
      </trkpt>
      <trkpt lat="43.90474" lon="7.28486">
        <ele>1149.3002929688</ele>
        <time>2014-12-21T09:41:49Z</time>
      </trkpt>
      <trkpt lat="43.90472" lon="7.28489">
        <ele>1151.7551269531</ele>
        <time>2014-12-21T09:41:57Z</time>
      </trkpt>
      <trkpt lat="43.90469" lon="7.28492">
        <ele>1154.7958984375</ele>
        <time>2014-12-21T09:42:03Z</time>
      </trkpt>
      <trkpt lat="43.90465" lon="7.28498">
        <ele>1158.9663085938</ele>
        <time>2014-12-21T09:42:08Z</time>
      </trkpt>
      <trkpt lat="43.90461" lon="7.28508">
        <ele>1164.4270019531</ele>
        <time>2014-12-21T09:42:16Z</time>
      </trkpt>
      <trkpt lat="43.90461" lon="7.28516">
        <ele>1167.4001464844</ele>
        <time>2014-12-21T09:42:22Z</time>
      </trkpt>
      <trkpt lat="43.90461" lon="7.28518">
        <ele>1168.0009765625</ele>
        <time>2014-12-21T09:42:24Z</time>
      </trkpt>
      <trkpt lat="43.90464" lon="7.28526">
        <ele>1169.7622070312</ele>
        <time>2014-12-21T09:42:31Z</time>
      </trkpt>
      <trkpt lat="43.90464" lon="7.2853">
        <ele>1171.1751708984</ele>
        <time>2014-12-21T09:42:35Z</time>
      </trkpt>
      <trkpt lat="43.90466" lon="7.28541">
        <ele>1174.2136230469</ele>
        <time>2014-12-21T09:42:45Z</time>
      </trkpt>
      <trkpt lat="43.90468" lon="7.28546">
        <ele>1175.0838623047</ele>
        <time>2014-12-21T09:42:52Z</time>
      </trkpt>
      <trkpt lat="43.90471" lon="7.28548">
        <ele>1174.7989501953</ele>
        <time>2014-12-21T09:42:57Z</time>
      </trkpt>
      <trkpt lat="43.90473" lon="7.28552">
        <ele>1175.0228271484</ele>
        <time>2014-12-21T09:43:06Z</time>
      </trkpt>
      <trkpt lat="43.90475" lon="7.28558">
        <ele>1176.958984375</ele>
        <time>2014-12-21T09:43:21Z</time>
      </trkpt>
      <trkpt lat="43.90479" lon="7.28559">
        <ele>1175.7974853516</ele>
        <time>2014-12-21T09:43:31Z</time>
      </trkpt>
      <trkpt lat="43.90485" lon="7.28566">
        <ele>1176.0736083984</ele>
        <time>2014-12-21T09:43:39Z</time>
      </trkpt>
      <trkpt lat="43.9049" lon="7.2857">
        <ele>1176.6497802734</ele>
        <time>2014-12-21T09:43:44Z</time>
      </trkpt>
      <trkpt lat="43.90493" lon="7.28575">
        <ele>1177.6070556641</ele>
        <time>2014-12-21T09:43:50Z</time>
      </trkpt>
      <trkpt lat="43.90493" lon="7.28576">
        <ele>1177.8010253906</ele>
        <time>2014-12-21T09:43:51Z</time>
      </trkpt>
      <trkpt lat="43.90498" lon="7.28579">
        <ele>1177.4951171875</ele>
        <time>2014-12-21T09:43:58Z</time>
      </trkpt>
      <trkpt lat="43.90501" lon="7.28582">
        <ele>1177.0804443359</ele>
        <time>2014-12-21T09:44:04Z</time>
      </trkpt>
      <trkpt lat="43.90504" lon="7.28586">
        <ele>1176.3381347656</ele>
        <time>2014-12-21T09:44:10Z</time>
      </trkpt>
      <trkpt lat="43.90508" lon="7.2859">
        <ele>1175.2353515625</ele>
        <time>2014-12-21T09:44:15Z</time>
      </trkpt>
      <trkpt lat="43.90508" lon="7.28594">
        <ele>1176.5599365234</ele>
        <time>2014-12-21T09:44:18Z</time>
      </trkpt>
      <trkpt lat="43.9051" lon="7.28602">
        <ele>1178.8594970703</ele>
        <time>2014-12-21T09:44:24Z</time>
      </trkpt>
      <trkpt lat="43.90508" lon="7.2861">
        <ele>1184.0628662109</ele>
        <time>2014-12-21T09:44:29Z</time>
      </trkpt>
      <trkpt lat="43.90509" lon="7.28614">
        <ele>1185.5112304688</ele>
        <time>2014-12-21T09:44:32Z</time>
      </trkpt>
      <trkpt lat="43.90516" lon="7.2862">
        <ele>1182.6010742188</ele>
        <time>2014-12-21T09:44:39Z</time>
      </trkpt>
      <trkpt lat="43.90519" lon="7.28625">
        <ele>1182.5109863281</ele>
        <time>2014-12-21T09:44:43Z</time>
      </trkpt>
      <trkpt lat="43.90524" lon="7.28632">
        <ele>1181.9254150391</ele>
        <time>2014-12-21T09:44:49Z</time>
      </trkpt>
      <trkpt lat="43.90527" lon="7.28638">
        <ele>1182.3040771484</ele>
        <time>2014-12-21T09:44:54Z</time>
      </trkpt>
      <trkpt lat="43.90529" lon="7.28642">
        <ele>1182.7755126953</ele>
        <time>2014-12-21T09:44:57Z</time>
      </trkpt>
      <trkpt lat="43.9053" lon="7.28648">
        <ele>1184.8690185547</ele>
        <time>2014-12-21T09:45:01Z</time>
      </trkpt>
      <trkpt lat="43.90533" lon="7.28655">
        <ele>1186.9144287109</ele>
        <time>2014-12-21T09:45:07Z</time>
      </trkpt>
      <trkpt lat="43.9053" lon="7.28663">
        <ele>1193.2783203125</ele>
        <time>2014-12-21T09:45:14Z</time>
      </trkpt>
      <trkpt lat="43.90529" lon="7.28669">
        <ele>1197.1058349609</ele>
        <time>2014-12-21T09:45:21Z</time>
      </trkpt>
      <trkpt lat="43.90527" lon="7.2867">
        <ele>1199.1563720703</ele>
        <time>2014-12-21T09:45:26Z</time>
      </trkpt>
      <trkpt lat="43.90528" lon="7.2868">
        <ele>1203.8830566406</ele>
        <time>2014-12-21T09:45:44Z</time>
      </trkpt>
      <trkpt lat="43.90528" lon="7.28681">
        <ele>1205.0159912109</ele>
        <time>2014-12-21T09:45:50Z</time>
      </trkpt>
      <trkpt lat="43.90528" lon="7.28689">
        <ele>1209.2673339844</ele>
        <time>2014-12-21T09:45:58Z</time>
      </trkpt>
      <trkpt lat="43.90528" lon="7.28694">
        <ele>1211.5861816406</ele>
        <time>2014-12-21T09:46:05Z</time>
      </trkpt>
      <trkpt lat="43.90529" lon="7.28697">
        <ele>1212.064453125</ele>
        <time>2014-12-21T09:46:12Z</time>
      </trkpt>
      <trkpt lat="43.90529" lon="7.28702">
        <ele>1213.3955078125</ele>
        <time>2014-12-21T09:46:18Z</time>
      </trkpt>
      <trkpt lat="43.90531" lon="7.28706">
        <ele>1213.1099853516</ele>
        <time>2014-12-21T09:46:26Z</time>
      </trkpt>
      <trkpt lat="43.90533" lon="7.28711">
        <ele>1213.3160400391</ele>
        <time>2014-12-21T09:46:33Z</time>
      </trkpt>
      <trkpt lat="43.90535" lon="7.28716">
        <ele>1213.8702392578</ele>
        <time>2014-12-21T09:46:41Z</time>
      </trkpt>
      <trkpt lat="43.90536" lon="7.2872">
        <ele>1214.3673095703</ele>
        <time>2014-12-21T09:46:46Z</time>
      </trkpt>
      <trkpt lat="43.90538" lon="7.28728">
        <ele>1213.7407226562</ele>
        <time>2014-12-21T09:46:53Z</time>
      </trkpt>
      <trkpt lat="43.90538" lon="7.28734">
        <ele>1214.8928222656</ele>
        <time>2014-12-21T09:46:58Z</time>
      </trkpt>
      <trkpt lat="43.90536" lon="7.28732">
        <ele>1216.1682128906</ele>
        <time>2014-12-21T09:47:07Z</time>
      </trkpt>
      <trkpt lat="43.90532" lon="7.28734">
        <ele>1219.4790039062</ele>
        <time>2014-12-21T09:47:15Z</time>
      </trkpt>
      <trkpt lat="43.90533" lon="7.2874">
        <ele>1219.4731445312</ele>
        <time>2014-12-21T09:47:25Z</time>
      </trkpt>
      <trkpt lat="43.90532" lon="7.28743">
        <ele>1221.22265625</ele>
        <time>2014-12-21T09:47:31Z</time>
      </trkpt>
      <trkpt lat="43.90532" lon="7.28744">
        <ele>1221.7227783203</ele>
        <time>2014-12-21T09:47:33Z</time>
      </trkpt>
      <trkpt lat="43.90527" lon="7.28751">
        <ele>1227.4918212891</ele>
        <time>2014-12-21T09:47:41Z</time>
      </trkpt>
      <trkpt lat="43.90523" lon="7.28759">
        <ele>1232.5474853516</ele>
        <time>2014-12-21T09:47:47Z</time>
      </trkpt>
      <trkpt lat="43.90523" lon="7.2876">
        <ele>1233.1340332031</ele>
        <time>2014-12-21T09:47:48Z</time>
      </trkpt>
      <trkpt lat="43.90521" lon="7.28767">
        <ele>1235.6505126953</ele>
        <time>2014-12-21T09:47:54Z</time>
      </trkpt>
      <trkpt lat="43.90523" lon="7.28777">
        <ele>1235.2580566406</ele>
        <time>2014-12-21T09:48:01Z</time>
      </trkpt>
      <trkpt lat="43.90523" lon="7.28781">
        <ele>1235.7348632812</ele>
        <time>2014-12-21T09:48:07Z</time>
      </trkpt>
      <trkpt lat="43.90524" lon="7.28788">
        <ele>1235.8870849609</ele>
        <time>2014-12-21T09:48:13Z</time>
      </trkpt>
      <trkpt lat="43.90524" lon="7.28796">
        <ele>1236.7653808594</ele>
        <time>2014-12-21T09:48:17Z</time>
      </trkpt>
      <trkpt lat="43.90524" lon="7.28798">
        <ele>1237.0445556641</ele>
        <time>2014-12-21T09:48:19Z</time>
      </trkpt>
      <trkpt lat="43.90521" lon="7.2881">
        <ele>1240.8371582031</ele>
        <time>2014-12-21T09:48:27Z</time>
      </trkpt>
      <trkpt lat="43.9052" lon="7.28818">
        <ele>1242.9304199219</ele>
        <time>2014-12-21T09:48:33Z</time>
      </trkpt>
      <trkpt lat="43.90521" lon="7.28823">
        <ele>1243.3957519531</ele>
        <time>2014-12-21T09:48:36Z</time>
      </trkpt>
      <trkpt lat="43.90517" lon="7.28833">
        <ele>1248.3836669922</ele>
        <time>2014-12-21T09:48:44Z</time>
      </trkpt>
      <trkpt lat="43.90516" lon="7.28844">
        <ele>1248.9079589844</ele>
        <time>2014-12-21T09:48:52Z</time>
      </trkpt>
      <trkpt lat="43.90519" lon="7.28853">
        <ele>1247.4444580078</ele>
        <time>2014-12-21T09:48:59Z</time>
      </trkpt>
      <trkpt lat="43.90522" lon="7.28862">
        <ele>1245.0651855469</ele>
        <time>2014-12-21T09:49:07Z</time>
      </trkpt>
      <trkpt lat="43.90525" lon="7.28867">
        <ele>1244.8082275391</ele>
        <time>2014-12-21T09:49:14Z</time>
      </trkpt>
      <trkpt lat="43.90525" lon="7.28871">
        <ele>1245.6231689453</ele>
        <time>2014-12-21T09:49:20Z</time>
      </trkpt>
      <trkpt lat="43.90527" lon="7.28878">
        <ele>1246.9715576172</ele>
        <time>2014-12-21T09:49:28Z</time>
      </trkpt>
      <trkpt lat="43.9053" lon="7.28883">
        <ele>1247.1118164062</ele>
        <time>2014-12-21T09:49:36Z</time>
      </trkpt>
      <trkpt lat="43.90526" lon="7.28886">
        <ele>1249.8686523438</ele>
        <time>2014-12-21T09:49:45Z</time>
      </trkpt>
      <trkpt lat="43.90527" lon="7.28891">
        <ele>1251.3499755859</ele>
        <time>2014-12-21T09:49:51Z</time>
      </trkpt>
      <trkpt lat="43.90532" lon="7.28894">
        <ele>1250.0294189453</ele>
        <time>2014-12-21T09:49:59Z</time>
      </trkpt>
      <trkpt lat="43.90534" lon="7.28897">
        <ele>1250.5179443359</ele>
        <time>2014-12-21T09:50:07Z</time>
      </trkpt>
      <trkpt lat="43.90533" lon="7.28901">
        <ele>1252.4689941406</ele>
        <time>2014-12-21T09:50:13Z</time>
      </trkpt>
      <trkpt lat="43.90531" lon="7.28903">
        <ele>1254.1715087891</ele>
        <time>2014-12-21T09:50:19Z</time>
      </trkpt>
      <trkpt lat="43.90528" lon="7.28908">
        <ele>1256.7742919922</ele>
        <time>2014-12-21T09:50:25Z</time>
      </trkpt>
      <trkpt lat="43.90525" lon="7.28911">
        <ele>1258.232421875</ele>
        <time>2014-12-21T09:50:31Z</time>
      </trkpt>
      <trkpt lat="43.90523" lon="7.28915">
        <ele>1259.7935791016</ele>
        <time>2014-12-21T09:50:38Z</time>
      </trkpt>
      <trkpt lat="43.90521" lon="7.28918">
        <ele>1260.5872802734</ele>
        <time>2014-12-21T09:50:43Z</time>
      </trkpt>
      <trkpt lat="43.9052" lon="7.2892">
        <ele>1260.7548828125</ele>
        <time>2014-12-21T09:50:46Z</time>
      </trkpt>
      <trkpt lat="43.90519" lon="7.28924">
        <ele>1261.0045166016</ele>
        <time>2014-12-21T09:50:51Z</time>
      </trkpt>
      <trkpt lat="43.90518" lon="7.28928">
        <ele>1261.2231445312</ele>
        <time>2014-12-21T09:50:56Z</time>
      </trkpt>
      <trkpt lat="43.90517" lon="7.28931">
        <ele>1261.4151611328</ele>
        <time>2014-12-21T09:51:00Z</time>
      </trkpt>
      <trkpt lat="43.90515" lon="7.28933">
        <ele>1261.5659179688</ele>
        <time>2014-12-21T09:51:05Z</time>
      </trkpt>
      <trkpt lat="43.90514" lon="7.28938">
        <ele>1261.7596435547</ele>
        <time>2014-12-21T09:51:18Z</time>
      </trkpt>
      <trkpt lat="43.90514" lon="7.28939">
        <ele>1261.8153076172</ele>
        <time>2014-12-21T09:51:26Z</time>
      </trkpt>
      <trkpt lat="43.90514" lon="7.28933">
        <ele>1261.5736083984</ele>
        <time>2014-12-21T09:51:34Z</time>
      </trkpt>
      <trkpt lat="43.90514" lon="7.28934">
        <ele>1261.6350097656</ele>
        <time>2014-12-21T09:51:45Z</time>
      </trkpt>
      <trkpt lat="43.90512" lon="7.28946">
        <ele>1262.0920410156</ele>
        <time>2014-12-21T09:51:54Z</time>
      </trkpt>
      <trkpt lat="43.90513" lon="7.28955">
        <ele>1262.5828857422</ele>
        <time>2014-12-21T09:52:02Z</time>
      </trkpt>
      <trkpt lat="43.90516" lon="7.28964">
        <ele>1263.0755615234</ele>
        <time>2014-12-21T09:52:09Z</time>
      </trkpt>
      <trkpt lat="43.90517" lon="7.28974">
        <ele>1263.6934814453</ele>
        <time>2014-12-21T09:52:17Z</time>
      </trkpt>
      <trkpt lat="43.90517" lon="7.28976">
        <ele>1263.7725830078</ele>
        <time>2014-12-21T09:52:18Z</time>
      </trkpt>
      <trkpt lat="43.90518" lon="7.28988">
        <ele>1264.4134521484</ele>
        <time>2014-12-21T09:52:28Z</time>
      </trkpt>
      <trkpt lat="43.9052" lon="7.28999">
        <ele>1265.1480712891</ele>
        <time>2014-12-21T09:52:36Z</time>
      </trkpt>
      <trkpt lat="43.90524" lon="7.29007">
        <ele>1265.9625244141</ele>
        <time>2014-12-21T09:52:43Z</time>
      </trkpt>
      <trkpt lat="43.90525" lon="7.29011">
        <ele>1266.4510498047</ele>
        <time>2014-12-21T09:52:49Z</time>
      </trkpt>
      <trkpt lat="43.90524" lon="7.29012">
        <ele>1266.3979492188</ele>
        <time>2014-12-21T09:52:57Z</time>
      </trkpt>
      <trkpt lat="43.90522" lon="7.29014">
        <ele>1266.1313476562</ele>
        <time>2014-12-21T09:53:21Z</time>
      </trkpt>
      <trkpt lat="43.90521" lon="7.29014">
        <ele>1266.0865478516</ele>
        <time>2014-12-21T09:53:23Z</time>
      </trkpt>
      <trkpt lat="43.90519" lon="7.29018">
        <ele>1266.0004882812</ele>
        <time>2014-12-21T09:53:30Z</time>
      </trkpt>
      <trkpt lat="43.90517" lon="7.29023">
        <ele>1265.8023681641</ele>
        <time>2014-12-21T09:53:45Z</time>
      </trkpt>
      <trkpt lat="43.90515" lon="7.29024">
        <ele>1265.5568847656</ele>
        <time>2014-12-21T09:54:18Z</time>
      </trkpt>
      <trkpt lat="43.90512" lon="7.29026">
        <ele>1265.1101074219</ele>
        <time>2014-12-21T09:54:24Z</time>
      </trkpt>
      <trkpt lat="43.90511" lon="7.29028">
        <ele>1265.263671875</ele>
        <time>2014-12-21T09:54:27Z</time>
      </trkpt>
      <trkpt lat="43.90513" lon="7.29039">
        <ele>1270.3221435547</ele>
        <time>2014-12-21T09:54:35Z</time>
      </trkpt>
      <trkpt lat="43.90511" lon="7.29045">
        <ele>1272.7668457031</ele>
        <time>2014-12-21T09:54:39Z</time>
      </trkpt>
      <trkpt lat="43.90509" lon="7.29053">
        <ele>1276.4305419922</ele>
        <time>2014-12-21T09:54:46Z</time>
      </trkpt>
      <trkpt lat="43.90508" lon="7.29057">
        <ele>1277.5905761719</ele>
        <time>2014-12-21T09:54:50Z</time>
      </trkpt>
      <trkpt lat="43.90504" lon="7.29062">
        <ele>1277.7443847656</ele>
        <time>2014-12-21T09:54:55Z</time>
      </trkpt>
      <trkpt lat="43.90497" lon="7.29066">
        <ele>1277.7003173828</ele>
        <time>2014-12-21T09:55:02Z</time>
      </trkpt>
      <trkpt lat="43.90496" lon="7.29066">
        <ele>1277.6076660156</ele>
        <time>2014-12-21T09:55:03Z</time>
      </trkpt>
      <trkpt lat="43.90488" lon="7.29074">
        <ele>1277.9187011719</ele>
        <time>2014-12-21T09:55:12Z</time>
      </trkpt>
      <trkpt lat="43.90484" lon="7.29077">
        <ele>1278.2806396484</ele>
        <time>2014-12-21T09:55:16Z</time>
      </trkpt>
      <trkpt lat="43.90477" lon="7.29087">
        <ele>1279.9112548828</ele>
        <time>2014-12-21T09:55:25Z</time>
      </trkpt>
      <trkpt lat="43.90475" lon="7.29089">
        <ele>1279.9299316406</ele>
        <time>2014-12-21T09:55:31Z</time>
      </trkpt>
      <trkpt lat="43.9047" lon="7.29093">
        <ele>1279.4018554688</ele>
        <time>2014-12-21T09:55:36Z</time>
      </trkpt>
      <trkpt lat="43.90462" lon="7.291">
        <ele>1278.5496826172</ele>
        <time>2014-12-21T09:55:43Z</time>
      </trkpt>
      <trkpt lat="43.90456" lon="7.29108">
        <ele>1279.3225097656</ele>
        <time>2014-12-21T09:55:50Z</time>
      </trkpt>
      <trkpt lat="43.90448" lon="7.29119">
        <ele>1280.2338867188</ele>
        <time>2014-12-21T09:55:59Z</time>
      </trkpt>
      <trkpt lat="43.9044" lon="7.29132">
        <ele>1279.8083496094</ele>
        <time>2014-12-21T09:56:09Z</time>
      </trkpt>
      <trkpt lat="43.9044" lon="7.29135">
        <ele>1279.8994140625</ele>
        <time>2014-12-21T09:56:11Z</time>
      </trkpt>
      <trkpt lat="43.90437" lon="7.29147">
        <ele>1281.3077392578</ele>
        <time>2014-12-21T09:56:19Z</time>
      </trkpt>
      <trkpt lat="43.90435" lon="7.29157">
        <ele>1283.1433105469</ele>
        <time>2014-12-21T09:56:25Z</time>
      </trkpt>
      <trkpt lat="43.90435" lon="7.29166">
        <ele>1284.9846191406</ele>
        <time>2014-12-21T09:56:31Z</time>
      </trkpt>
      <trkpt lat="43.90434" lon="7.29169">
        <ele>1285.5406494141</ele>
        <time>2014-12-21T09:56:33Z</time>
      </trkpt>
      <trkpt lat="43.90434" lon="7.29176">
        <ele>1286.5598144531</ele>
        <time>2014-12-21T09:56:38Z</time>
      </trkpt>
      <trkpt lat="43.90433" lon="7.29187">
        <ele>1288.5815429688</ele>
        <time>2014-12-21T09:56:46Z</time>
      </trkpt>
      <trkpt lat="43.90432" lon="7.29194">
        <ele>1290.4748535156</ele>
        <time>2014-12-21T09:56:51Z</time>
      </trkpt>
      <trkpt lat="43.90429" lon="7.29202">
        <ele>1291.9774169922</ele>
        <time>2014-12-21T09:56:56Z</time>
      </trkpt>
      <trkpt lat="43.90427" lon="7.29214">
        <ele>1292.6400146484</ele>
        <time>2014-12-21T09:57:04Z</time>
      </trkpt>
      <trkpt lat="43.90426" lon="7.29219">
        <ele>1293.6668701172</ele>
        <time>2014-12-21T09:57:07Z</time>
      </trkpt>
      <trkpt lat="43.90425" lon="7.29232">
        <ele>1293.0495605469</ele>
        <time>2014-12-21T09:57:16Z</time>
      </trkpt>
      <trkpt lat="43.90423" lon="7.29244">
        <ele>1293.5841064453</ele>
        <time>2014-12-21T09:57:22Z</time>
      </trkpt>
      <trkpt lat="43.90422" lon="7.29246">
        <ele>1293.6711425781</ele>
        <time>2014-12-21T09:57:23Z</time>
      </trkpt>
      <trkpt lat="43.90416" lon="7.29262">
        <ele>1295.0275878906</ele>
        <time>2014-12-21T09:57:32Z</time>
      </trkpt>
      <trkpt lat="43.90416" lon="7.2927">
        <ele>1293.6218261719</ele>
        <time>2014-12-21T09:57:37Z</time>
      </trkpt>
      <trkpt lat="43.90412" lon="7.29289">
        <ele>1292.6528320312</ele>
        <time>2014-12-21T09:57:47Z</time>
      </trkpt>
      <trkpt lat="43.90412" lon="7.29296">
        <ele>1292.3267822266</ele>
        <time>2014-12-21T09:57:53Z</time>
      </trkpt>
      <trkpt lat="43.90413" lon="7.29307">
        <ele>1291.4515380859</ele>
        <time>2014-12-21T09:58:01Z</time>
      </trkpt>
      <trkpt lat="43.90412" lon="7.29317">
        <ele>1291.2906494141</ele>
        <time>2014-12-21T09:58:06Z</time>
      </trkpt>
      <trkpt lat="43.90409" lon="7.29328">
        <ele>1292.1379394531</ele>
        <time>2014-12-21T09:58:11Z</time>
      </trkpt>
      <trkpt lat="43.9041" lon="7.2934">
        <ele>1291.6989746094</ele>
        <time>2014-12-21T09:58:18Z</time>
      </trkpt>
      <trkpt lat="43.90412" lon="7.2935">
        <ele>1290.9436035156</ele>
        <time>2014-12-21T09:58:23Z</time>
      </trkpt>
      <trkpt lat="43.90412" lon="7.29356">
        <ele>1290.9436035156</ele>
        <time>2014-12-21T09:58:27Z</time>
      </trkpt>
      <trkpt lat="43.90414" lon="7.29372">
        <ele>1290.9178466797</ele>
        <time>2014-12-21T09:58:35Z</time>
      </trkpt>
      <trkpt lat="43.90415" lon="7.29376">
        <ele>1291.205078125</ele>
        <time>2014-12-21T09:58:37Z</time>
      </trkpt>
      <trkpt lat="43.90417" lon="7.2939">
        <ele>1291.8618164062</ele>
        <time>2014-12-21T09:58:45Z</time>
      </trkpt>
      <trkpt lat="43.90417" lon="7.29398">
        <ele>1292.4476318359</ele>
        <time>2014-12-21T09:58:51Z</time>
      </trkpt>
      <trkpt lat="43.90418" lon="7.2941">
        <ele>1292.9027099609</ele>
        <time>2014-12-21T09:58:58Z</time>
      </trkpt>
      <trkpt lat="43.90418" lon="7.29417">
        <ele>1293.4792480469</ele>
        <time>2014-12-21T09:59:04Z</time>
      </trkpt>
      <trkpt lat="43.90417" lon="7.29429">
        <ele>1294.7069091797</ele>
        <time>2014-12-21T09:59:11Z</time>
      </trkpt>
      <trkpt lat="43.90416" lon="7.29432">
        <ele>1295.3106689453</ele>
        <time>2014-12-21T09:59:13Z</time>
      </trkpt>
      <trkpt lat="43.90414" lon="7.2944">
        <ele>1296.0010986328</ele>
        <time>2014-12-21T09:59:18Z</time>
      </trkpt>
      <trkpt lat="43.90416" lon="7.29447">
        <ele>1295.7687988281</ele>
        <time>2014-12-21T09:59:22Z</time>
      </trkpt>
      <trkpt lat="43.90418" lon="7.29461">
        <ele>1292.6654052734</ele>
        <time>2014-12-21T09:59:30Z</time>
      </trkpt>
      <trkpt lat="43.90424" lon="7.2947">
        <ele>1289.474609375</ele>
        <time>2014-12-21T09:59:36Z</time>
      </trkpt>
      <trkpt lat="43.90432" lon="7.29481">
        <ele>1286.4342041016</ele>
        <time>2014-12-21T09:59:44Z</time>
      </trkpt>
      <trkpt lat="43.90439" lon="7.29491">
        <ele>1284.3159179688</ele>
        <time>2014-12-21T09:59:52Z</time>
      </trkpt>
      <trkpt lat="43.90446" lon="7.29498">
        <ele>1282.9271240234</ele>
        <time>2014-12-21T09:59:59Z</time>
      </trkpt>
      <trkpt lat="43.90453" lon="7.29505">
        <ele>1282.2374267578</ele>
        <time>2014-12-21T10:00:06Z</time>
      </trkpt>
      <trkpt lat="43.90454" lon="7.29505">
        <ele>1282.1345214844</ele>
        <time>2014-12-21T10:00:07Z</time>
      </trkpt>
      <trkpt lat="43.90458" lon="7.2951">
        <ele>1281.7019042969</ele>
        <time>2014-12-21T10:00:11Z</time>
      </trkpt>
      <trkpt lat="43.90468" lon="7.29521">
        <ele>1280.5706787109</ele>
        <time>2014-12-21T10:00:20Z</time>
      </trkpt>
      <trkpt lat="43.90477" lon="7.29528">
        <ele>1280</ele>
        <time>2014-12-21T10:00:29Z</time>
      </trkpt>
      <trkpt lat="43.90487" lon="7.29536">
        <ele>1280</ele>
        <time>2014-12-21T10:00:37Z</time>
      </trkpt>
      <trkpt lat="43.90494" lon="7.29542">
        <ele>1280</ele>
        <time>2014-12-21T10:00:45Z</time>
      </trkpt>
      <trkpt lat="43.90502" lon="7.29552">
        <ele>1279.9250488281</ele>
        <time>2014-12-21T10:00:54Z</time>
      </trkpt>
      <trkpt lat="43.90507" lon="7.2956">
        <ele>1280</ele>
        <time>2014-12-21T10:01:00Z</time>
      </trkpt>
      <trkpt lat="43.90514" lon="7.29567">
        <ele>1280</ele>
        <time>2014-12-21T10:01:06Z</time>
      </trkpt>
      <trkpt lat="43.90521" lon="7.29575">
        <ele>1280</ele>
        <time>2014-12-21T10:01:13Z</time>
      </trkpt>
      <trkpt lat="43.90528" lon="7.29584">
        <ele>1280.0352783203</ele>
        <time>2014-12-21T10:01:21Z</time>
      </trkpt>
      <trkpt lat="43.90534" lon="7.29591">
        <ele>1279.6683349609</ele>
        <time>2014-12-21T10:01:28Z</time>
      </trkpt>
      <trkpt lat="43.90542" lon="7.29603">
        <ele>1280.4514160156</ele>
        <time>2014-12-21T10:01:37Z</time>
      </trkpt>
      <trkpt lat="43.90549" lon="7.29612">
        <ele>1281.9152832031</ele>
        <time>2014-12-21T10:01:46Z</time>
      </trkpt>
      <trkpt lat="43.90552" lon="7.29618">
        <ele>1282.9869384766</ele>
        <time>2014-12-21T10:01:52Z</time>
      </trkpt>
      <trkpt lat="43.90553" lon="7.29617">
        <ele>1282.8636474609</ele>
        <time>2014-12-21T10:01:55Z</time>
      </trkpt>
      <trkpt lat="43.90558" lon="7.29612">
        <ele>1281.2034912109</ele>
        <time>2014-12-21T10:02:04Z</time>
      </trkpt>
      <trkpt lat="43.90553" lon="7.29609">
        <ele>1281.5534667969</ele>
        <time>2014-12-21T10:03:15Z</time>
      </trkpt>
      <trkpt lat="43.90551" lon="7.2961">
        <ele>1281.6490478516</ele>
        <time>2014-12-21T10:03:33Z</time>
      </trkpt>
      <trkpt lat="43.90547" lon="7.29614">
        <ele>1282.0184326172</ele>
        <time>2014-12-21T10:03:41Z</time>
      </trkpt>
      <trkpt lat="43.90548" lon="7.29613">
        <ele>1282.0424804688</ele>
        <time>2014-12-21T10:04:51Z</time>
      </trkpt>
      <trkpt lat="43.90549" lon="7.29613">
        <ele>1282.0115966797</ele>
        <time>2014-12-21T10:04:58Z</time>
      </trkpt>
      <trkpt lat="43.90548" lon="7.29615">
        <ele>1282.296875</ele>
        <time>2014-12-21T10:05:39Z</time>
      </trkpt>
      <trkpt lat="43.90545" lon="7.29615">
        <ele>1282.1070556641</ele>
        <time>2014-12-21T10:06:33Z</time>
      </trkpt>
      <trkpt lat="43.90549" lon="7.29623">
        <ele>1283.5291748047</ele>
        <time>2014-12-21T10:06:41Z</time>
      </trkpt>
      <trkpt lat="43.90551" lon="7.29627">
        <ele>1284.3035888672</ele>
        <time>2014-12-21T10:07:17Z</time>
      </trkpt>
      <trkpt lat="43.90553" lon="7.29627">
        <ele>1284.4206542969</ele>
        <time>2014-12-21T10:07:46Z</time>
      </trkpt>
      <trkpt lat="43.90553" lon="7.29634">
        <ele>1285.7253417969</ele>
        <time>2014-12-21T10:07:52Z</time>
      </trkpt>
      <trkpt lat="43.90558" lon="7.29644">
        <ele>1287.3311767578</ele>
        <time>2014-12-21T10:07:58Z</time>
      </trkpt>
      <trkpt lat="43.90565" lon="7.29652">
        <ele>1288.4443359375</ele>
        <time>2014-12-21T10:08:06Z</time>
      </trkpt>
      <trkpt lat="43.90566" lon="7.29653">
        <ele>1288.6748046875</ele>
        <time>2014-12-21T10:08:07Z</time>
      </trkpt>
      <trkpt lat="43.9057" lon="7.29655">
        <ele>1289.3845214844</ele>
        <time>2014-12-21T10:08:11Z</time>
      </trkpt>
      <trkpt lat="43.90577" lon="7.29668">
        <ele>1293.2979736328</ele>
        <time>2014-12-21T10:08:22Z</time>
      </trkpt>
      <trkpt lat="43.90581" lon="7.29673">
        <ele>1294.9527587891</ele>
        <time>2014-12-21T10:08:27Z</time>
      </trkpt>
      <trkpt lat="43.90586" lon="7.29681">
        <ele>1296.25390625</ele>
        <time>2014-12-21T10:08:34Z</time>
      </trkpt>
      <trkpt lat="43.90594" lon="7.2969">
        <ele>1296.0367431641</ele>
        <time>2014-12-21T10:08:41Z</time>
      </trkpt>
      <trkpt lat="43.90594" lon="7.29691">
        <ele>1296.1921386719</ele>
        <time>2014-12-21T10:08:42Z</time>
      </trkpt>
      <trkpt lat="43.90595" lon="7.29693">
        <ele>1296.7666015625</ele>
        <time>2014-12-21T10:08:44Z</time>
      </trkpt>
      <trkpt lat="43.90602" lon="7.297">
        <ele>1296.2520751953</ele>
        <time>2014-12-21T10:08:52Z</time>
      </trkpt>
      <trkpt lat="43.90614" lon="7.29709">
        <ele>1295.2186279297</ele>
        <time>2014-12-21T10:09:00Z</time>
      </trkpt>
      <trkpt lat="43.90619" lon="7.2971">
        <ele>1293.7327880859</ele>
        <time>2014-12-21T10:09:06Z</time>
      </trkpt>
      <trkpt lat="43.90622" lon="7.29713">
        <ele>1293.3620605469</ele>
        <time>2014-12-21T10:09:11Z</time>
      </trkpt>
      <trkpt lat="43.9063" lon="7.29722">
        <ele>1293.6678466797</ele>
        <time>2014-12-21T10:09:19Z</time>
      </trkpt>
      <trkpt lat="43.90637" lon="7.2973">
        <ele>1293.9113769531</ele>
        <time>2014-12-21T10:09:27Z</time>
      </trkpt>
      <trkpt lat="43.90643" lon="7.29735">
        <ele>1293.0369873047</ele>
        <time>2014-12-21T10:09:34Z</time>
      </trkpt>
      <trkpt lat="43.90649" lon="7.29739">
        <ele>1291.9678955078</ele>
        <time>2014-12-21T10:09:41Z</time>
      </trkpt>
      <trkpt lat="43.90651" lon="7.29741">
        <ele>1292.0522460938</ele>
        <time>2014-12-21T10:09:45Z</time>
      </trkpt>
      <trkpt lat="43.90657" lon="7.29747">
        <ele>1293.2095947266</ele>
        <time>2014-12-21T10:09:52Z</time>
      </trkpt>
      <trkpt lat="43.90658" lon="7.29748">
        <ele>1293.0500488281</ele>
        <time>2014-12-21T10:09:53Z</time>
      </trkpt>
      <trkpt lat="43.90662" lon="7.29759">
        <ele>1295.3275146484</ele>
        <time>2014-12-21T10:10:00Z</time>
      </trkpt>
      <trkpt lat="43.90665" lon="7.29773">
        <ele>1298.6771240234</ele>
        <time>2014-12-21T10:10:08Z</time>
      </trkpt>
      <trkpt lat="43.90666" lon="7.29783">
        <ele>1300.3735351562</ele>
        <time>2014-12-21T10:10:16Z</time>
      </trkpt>
      <trkpt lat="43.90671" lon="7.29795">
        <ele>1300.3500976562</ele>
        <time>2014-12-21T10:10:23Z</time>
      </trkpt>
      <trkpt lat="43.90676" lon="7.29806">
        <ele>1302.1055908203</ele>
        <time>2014-12-21T10:10:31Z</time>
      </trkpt>
      <trkpt lat="43.90682" lon="7.29813">
        <ele>1303.3359375</ele>
        <time>2014-12-21T10:10:38Z</time>
      </trkpt>
      <trkpt lat="43.9069" lon="7.29821">
        <ele>1305.7608642578</ele>
        <time>2014-12-21T10:10:47Z</time>
      </trkpt>
      <trkpt lat="43.90696" lon="7.29827">
        <ele>1307.6977539062</ele>
        <time>2014-12-21T10:10:56Z</time>
      </trkpt>
      <trkpt lat="43.90702" lon="7.2983">
        <ele>1307.4494628906</ele>
        <time>2014-12-21T10:11:04Z</time>
      </trkpt>
      <trkpt lat="43.90705" lon="7.29833">
        <ele>1307.6669921875</ele>
        <time>2014-12-21T10:11:10Z</time>
      </trkpt>
      <trkpt lat="43.90712" lon="7.29837">
        <ele>1308.5637207031</ele>
        <time>2014-12-21T10:11:20Z</time>
      </trkpt>
      <trkpt lat="43.90717" lon="7.2984">
        <ele>1309.2752685547</ele>
        <time>2014-12-21T10:11:28Z</time>
      </trkpt>
      <trkpt lat="43.90723" lon="7.29845">
        <ele>1310.8781738281</ele>
        <time>2014-12-21T10:11:37Z</time>
      </trkpt>
      <trkpt lat="43.9073" lon="7.29847">
        <ele>1311.333984375</ele>
        <time>2014-12-21T10:11:45Z</time>
      </trkpt>
      <trkpt lat="43.90736" lon="7.29852">
        <ele>1313.1088867188</ele>
        <time>2014-12-21T10:11:53Z</time>
      </trkpt>
      <trkpt lat="43.90741" lon="7.29856">
        <ele>1314.3555908203</ele>
        <time>2014-12-21T10:12:00Z</time>
      </trkpt>
      <trkpt lat="43.90745" lon="7.29861">
        <ele>1315.8273925781</ele>
        <time>2014-12-21T10:12:07Z</time>
      </trkpt>
      <trkpt lat="43.9075" lon="7.29865">
        <ele>1315.736328125</ele>
        <time>2014-12-21T10:12:15Z</time>
      </trkpt>
      <trkpt lat="43.90756" lon="7.29871">
        <ele>1316.4826660156</ele>
        <time>2014-12-21T10:12:22Z</time>
      </trkpt>
      <trkpt lat="43.90765" lon="7.29875">
        <ele>1317.1300048828</ele>
        <time>2014-12-21T10:12:31Z</time>
      </trkpt>
      <trkpt lat="43.90772" lon="7.29874">
        <ele>1316.8739013672</ele>
        <time>2014-12-21T10:12:36Z</time>
      </trkpt>
      <trkpt lat="43.90783" lon="7.29878">
        <ele>1317.9194335938</ele>
        <time>2014-12-21T10:12:45Z</time>
      </trkpt>
      <trkpt lat="43.90791" lon="7.29881">
        <ele>1318.515625</ele>
        <time>2014-12-21T10:12:52Z</time>
      </trkpt>
      <trkpt lat="43.90799" lon="7.29885">
        <ele>1320.3103027344</ele>
        <time>2014-12-21T10:13:00Z</time>
      </trkpt>
      <trkpt lat="43.90806" lon="7.29889">
        <ele>1322.1088867188</ele>
        <time>2014-12-21T10:13:06Z</time>
      </trkpt>
      <trkpt lat="43.90809" lon="7.29895">
        <ele>1324.5869140625</ele>
        <time>2014-12-21T10:13:13Z</time>
      </trkpt>
      <trkpt lat="43.90816" lon="7.29905">
        <ele>1327.8157958984</ele>
        <time>2014-12-21T10:13:20Z</time>
      </trkpt>
      <trkpt lat="43.9082" lon="7.29916">
        <ele>1332.1812744141</ele>
        <time>2014-12-21T10:13:26Z</time>
      </trkpt>
      <trkpt lat="43.90823" lon="7.29929">
        <ele>1335.5469970703</ele>
        <time>2014-12-21T10:13:34Z</time>
      </trkpt>
      <trkpt lat="43.90826" lon="7.29937">
        <ele>1337.5876464844</ele>
        <time>2014-12-21T10:13:37Z</time>
      </trkpt>
      <trkpt lat="43.90828" lon="7.29944">
        <ele>1339.7905273438</ele>
        <time>2014-12-21T10:13:41Z</time>
      </trkpt>
      <trkpt lat="43.90831" lon="7.29962">
        <ele>1339.1921386719</ele>
        <time>2014-12-21T10:13:50Z</time>
      </trkpt>
      <trkpt lat="43.90834" lon="7.29971">
        <ele>1339.9978027344</ele>
        <time>2014-12-21T10:13:56Z</time>
      </trkpt>
      <trkpt lat="43.90837" lon="7.29976">
        <ele>1339.7648925781</ele>
        <time>2014-12-21T10:14:03Z</time>
      </trkpt>
      <trkpt lat="43.90839" lon="7.29979">
        <ele>1339.65234375</ele>
        <time>2014-12-21T10:14:14Z</time>
      </trkpt>
      <trkpt lat="43.90841" lon="7.29984">
        <ele>1339.4991455078</ele>
        <time>2014-12-21T10:14:24Z</time>
      </trkpt>
      <trkpt lat="43.90849" lon="7.29993">
        <ele>1339.7644042969</ele>
        <time>2014-12-21T10:14:32Z</time>
      </trkpt>
      <trkpt lat="43.90854" lon="7.29999">
        <ele>1340.2106933594</ele>
        <time>2014-12-21T10:14:40Z</time>
      </trkpt>
      <trkpt lat="43.90858" lon="7.30007">
        <ele>1340.5997314453</ele>
        <time>2014-12-21T10:14:50Z</time>
      </trkpt>
      <trkpt lat="43.90859" lon="7.30011">
        <ele>1340.8657226562</ele>
        <time>2014-12-21T10:14:56Z</time>
      </trkpt>
      <trkpt lat="43.90859" lon="7.30015">
        <ele>1340.7653808594</ele>
        <time>2014-12-21T10:15:04Z</time>
      </trkpt>
      <trkpt lat="43.9086" lon="7.30022">
        <ele>1341.1099853516</ele>
        <time>2014-12-21T10:15:13Z</time>
      </trkpt>
      <trkpt lat="43.90859" lon="7.30023">
        <ele>1340.9516601562</ele>
        <time>2014-12-21T10:15:18Z</time>
      </trkpt>
      <trkpt lat="43.90861" lon="7.3003">
        <ele>1341.7978515625</ele>
        <time>2014-12-21T10:15:25Z</time>
      </trkpt>
      <trkpt lat="43.90866" lon="7.3004">
        <ele>1342.8450927734</ele>
        <time>2014-12-21T10:15:34Z</time>
      </trkpt>
      <trkpt lat="43.9087" lon="7.30046">
        <ele>1343.8521728516</ele>
        <time>2014-12-21T10:15:41Z</time>
      </trkpt>
      <trkpt lat="43.90877" lon="7.30053">
        <ele>1345.7614746094</ele>
        <time>2014-12-21T10:15:49Z</time>
      </trkpt>
      <trkpt lat="43.90882" lon="7.30062">
        <ele>1348.3765869141</ele>
        <time>2014-12-21T10:15:57Z</time>
      </trkpt>
      <trkpt lat="43.90888" lon="7.30067">
        <ele>1351.1743164062</ele>
        <time>2014-12-21T10:16:04Z</time>
      </trkpt>
      <trkpt lat="43.90895" lon="7.30077">
        <ele>1355.7230224609</ele>
        <time>2014-12-21T10:16:13Z</time>
      </trkpt>
      <trkpt lat="43.90895" lon="7.30078">
        <ele>1356.0093994141</ele>
        <time>2014-12-21T10:16:14Z</time>
      </trkpt>
      <trkpt lat="43.90899" lon="7.30087">
        <ele>1359.1560058594</ele>
        <time>2014-12-21T10:16:22Z</time>
      </trkpt>
      <trkpt lat="43.909" lon="7.30095">
        <ele>1360.9326171875</ele>
        <time>2014-12-21T10:16:30Z</time>
      </trkpt>
      <trkpt lat="43.909" lon="7.30099">
        <ele>1361.6048583984</ele>
        <time>2014-12-21T10:16:36Z</time>
      </trkpt>
      <trkpt lat="43.90899" lon="7.30102">
        <ele>1361.9163818359</ele>
        <time>2014-12-21T10:16:43Z</time>
      </trkpt>
      <trkpt lat="43.90898" lon="7.30104">
        <ele>1361.67578125</ele>
        <time>2014-12-21T10:16:49Z</time>
      </trkpt>
      <trkpt lat="43.909" lon="7.30107">
        <ele>1363.0148925781</ele>
        <time>2014-12-21T10:16:56Z</time>
      </trkpt>
      <trkpt lat="43.909" lon="7.30111">
        <ele>1363.6296386719</ele>
        <time>2014-12-21T10:17:02Z</time>
      </trkpt>
      <trkpt lat="43.90901" lon="7.30116">
        <ele>1365.119140625</ele>
        <time>2014-12-21T10:17:09Z</time>
      </trkpt>
      <trkpt lat="43.909" lon="7.30119">
        <ele>1365.5140380859</ele>
        <time>2014-12-21T10:17:15Z</time>
      </trkpt>
      <trkpt lat="43.90901" lon="7.30123">
        <ele>1366.6901855469</ele>
        <time>2014-12-21T10:17:22Z</time>
      </trkpt>
      <trkpt lat="43.90899" lon="7.30124">
        <ele>1366.2573242188</ele>
        <time>2014-12-21T10:17:27Z</time>
      </trkpt>
      <trkpt lat="43.909" lon="7.30127">
        <ele>1367.3620605469</ele>
        <time>2014-12-21T10:17:32Z</time>
      </trkpt>
      <trkpt lat="43.90902" lon="7.30131">
        <ele>1369.033203125</ele>
        <time>2014-12-21T10:17:38Z</time>
      </trkpt>
      <trkpt lat="43.90902" lon="7.30133">
        <ele>1369.2541503906</ele>
        <time>2014-12-21T10:17:43Z</time>
      </trkpt>
      <trkpt lat="43.909" lon="7.30135">
        <ele>1369.1280517578</ele>
        <time>2014-12-21T10:17:50Z</time>
      </trkpt>
      <trkpt lat="43.90902" lon="7.3014">
        <ele>1371.3605957031</ele>
        <time>2014-12-21T10:18:00Z</time>
      </trkpt>
      <trkpt lat="43.90903" lon="7.30143">
        <ele>1372.4393310547</ele>
        <time>2014-12-21T10:18:07Z</time>
      </trkpt>
      <trkpt lat="43.90903" lon="7.30148">
        <ele>1373.9899902344</ele>
        <time>2014-12-21T10:18:14Z</time>
      </trkpt>
      <trkpt lat="43.90904" lon="7.30151">
        <ele>1375.4110107422</ele>
        <time>2014-12-21T10:18:20Z</time>
      </trkpt>
      <trkpt lat="43.90902" lon="7.30153">
        <ele>1375.2995605469</ele>
        <time>2014-12-21T10:18:31Z</time>
      </trkpt>
      <trkpt lat="43.909" lon="7.30155">
        <ele>1375.4088134766</ele>
        <time>2014-12-21T10:18:36Z</time>
      </trkpt>
      <trkpt lat="43.90899" lon="7.30159">
        <ele>1376.3833007812</ele>
        <time>2014-12-21T10:18:41Z</time>
      </trkpt>
      <trkpt lat="43.90897" lon="7.30162">
        <ele>1376.7039794922</ele>
        <time>2014-12-21T10:18:47Z</time>
      </trkpt>
      <trkpt lat="43.90896" lon="7.30164">
        <ele>1377.3022460938</ele>
        <time>2014-12-21T10:18:52Z</time>
      </trkpt>
      <trkpt lat="43.90897" lon="7.30169">
        <ele>1379.5085449219</ele>
        <time>2014-12-21T10:18:58Z</time>
      </trkpt>
      <trkpt lat="43.90897" lon="7.30172">
        <ele>1381.42578125</ele>
        <time>2014-12-21T10:19:04Z</time>
      </trkpt>
      <trkpt lat="43.90895" lon="7.30174">
        <ele>1382.005859375</ele>
        <time>2014-12-21T10:19:15Z</time>
      </trkpt>
      <trkpt lat="43.90891" lon="7.30176">
        <ele>1382.2075195312</ele>
        <time>2014-12-21T10:19:23Z</time>
      </trkpt>
      <trkpt lat="43.90892" lon="7.3018">
        <ele>1385.0068359375</ele>
        <time>2014-12-21T10:19:29Z</time>
      </trkpt>
      <trkpt lat="43.90892" lon="7.30183">
        <ele>1386.8425292969</ele>
        <time>2014-12-21T10:19:34Z</time>
      </trkpt>
      <trkpt lat="43.90894" lon="7.30186">
        <ele>1388.8117675781</ele>
        <time>2014-12-21T10:19:40Z</time>
      </trkpt>
      <trkpt lat="43.90892" lon="7.30189">
        <ele>1390.0321044922</ele>
        <time>2014-12-21T10:19:45Z</time>
      </trkpt>
      <trkpt lat="43.90892" lon="7.30191">
        <ele>1391.5092773438</ele>
        <time>2014-12-21T10:19:50Z</time>
      </trkpt>
      <trkpt lat="43.90892" lon="7.30195">
        <ele>1393.5428466797</ele>
        <time>2014-12-21T10:19:56Z</time>
      </trkpt>
      <trkpt lat="43.90893" lon="7.30197">
        <ele>1394.9916992188</ele>
        <time>2014-12-21T10:20:02Z</time>
      </trkpt>
      <trkpt lat="43.90892" lon="7.302">
        <ele>1396.1984863281</ele>
        <time>2014-12-21T10:20:07Z</time>
      </trkpt>
      <trkpt lat="43.90892" lon="7.30204">
        <ele>1398.1519775391</ele>
        <time>2014-12-21T10:20:17Z</time>
      </trkpt>
      <trkpt lat="43.90893" lon="7.30208">
        <ele>1399.7673339844</ele>
        <time>2014-12-21T10:20:23Z</time>
      </trkpt>
      <trkpt lat="43.90893" lon="7.3021">
        <ele>1400.7388916016</ele>
        <time>2014-12-21T10:20:28Z</time>
      </trkpt>
      <trkpt lat="43.90892" lon="7.30213">
        <ele>1402.2701416016</ele>
        <time>2014-12-21T10:20:35Z</time>
      </trkpt>
      <trkpt lat="43.9089" lon="7.30215">
        <ele>1402.6976318359</ele>
        <time>2014-12-21T10:20:40Z</time>
      </trkpt>
      <trkpt lat="43.9089" lon="7.30218">
        <ele>1404.1824951172</ele>
        <time>2014-12-21T10:20:45Z</time>
      </trkpt>
      <trkpt lat="43.90889" lon="7.30221">
        <ele>1405.1370849609</ele>
        <time>2014-12-21T10:20:50Z</time>
      </trkpt>
      <trkpt lat="43.90891" lon="7.30226">
        <ele>1407.6945800781</ele>
        <time>2014-12-21T10:20:57Z</time>
      </trkpt>
      <trkpt lat="43.90893" lon="7.30232">
        <ele>1410.5051269531</ele>
        <time>2014-12-21T10:21:07Z</time>
      </trkpt>
      <trkpt lat="43.90892" lon="7.30237">
        <ele>1412.4052734375</ele>
        <time>2014-12-21T10:21:15Z</time>
      </trkpt>
      <trkpt lat="43.90891" lon="7.30239">
        <ele>1413.0546875</ele>
        <time>2014-12-21T10:21:21Z</time>
      </trkpt>
      <trkpt lat="43.90887" lon="7.30239">
        <ele>1411.8079833984</ele>
        <time>2014-12-21T10:21:30Z</time>
      </trkpt>
      <trkpt lat="43.90887" lon="7.30244">
        <ele>1414.1069335938</ele>
        <time>2014-12-21T10:21:36Z</time>
      </trkpt>
      <trkpt lat="43.90887" lon="7.30248">
        <ele>1415.5498046875</ele>
        <time>2014-12-21T10:21:43Z</time>
      </trkpt>
      <trkpt lat="43.90884" lon="7.30247">
        <ele>1414.0717773438</ele>
        <time>2014-12-21T10:21:51Z</time>
      </trkpt>
      <trkpt lat="43.90881" lon="7.30247">
        <ele>1412.5977783203</ele>
        <time>2014-12-21T10:21:58Z</time>
      </trkpt>
      <trkpt lat="43.9088" lon="7.3025">
        <ele>1413.5567626953</ele>
        <time>2014-12-21T10:22:04Z</time>
      </trkpt>
      <trkpt lat="43.90878" lon="7.30251">
        <ele>1413.8591308594</ele>
        <time>2014-12-21T10:22:09Z</time>
      </trkpt>
      <trkpt lat="43.90878" lon="7.30254">
        <ele>1414.9938964844</ele>
        <time>2014-12-21T10:22:15Z</time>
      </trkpt>
      <trkpt lat="43.90876" lon="7.30258">
        <ele>1416.2641601562</ele>
        <time>2014-12-21T10:22:22Z</time>
      </trkpt>
      <trkpt lat="43.90875" lon="7.30262">
        <ele>1417.9476318359</ele>
        <time>2014-12-21T10:22:27Z</time>
      </trkpt>
      <trkpt lat="43.90877" lon="7.30265">
        <ele>1420.4587402344</ele>
        <time>2014-12-21T10:22:33Z</time>
      </trkpt>
      <trkpt lat="43.90876" lon="7.3027">
        <ele>1422.1951904297</ele>
        <time>2014-12-21T10:22:39Z</time>
      </trkpt>
      <trkpt lat="43.90874" lon="7.30273">
        <ele>1423.2183837891</ele>
        <time>2014-12-21T10:22:44Z</time>
      </trkpt>
      <trkpt lat="43.90876" lon="7.30277">
        <ele>1426.1251220703</ele>
        <time>2014-12-21T10:22:51Z</time>
      </trkpt>
      <trkpt lat="43.90876" lon="7.30281">
        <ele>1428.7619628906</ele>
        <time>2014-12-21T10:22:57Z</time>
      </trkpt>
      <trkpt lat="43.90877" lon="7.30285">
        <ele>1432.2845458984</ele>
        <time>2014-12-21T10:23:03Z</time>
      </trkpt>
      <trkpt lat="43.90879" lon="7.30291">
        <ele>1437.3588867188</ele>
        <time>2014-12-21T10:23:12Z</time>
      </trkpt>
      <trkpt lat="43.90881" lon="7.30297">
        <ele>1442.3713378906</ele>
        <time>2014-12-21T10:23:21Z</time>
      </trkpt>
      <trkpt lat="43.90883" lon="7.30299">
        <ele>1444.8845214844</ele>
        <time>2014-12-21T10:23:26Z</time>
      </trkpt>
      <trkpt lat="43.90885" lon="7.30303">
        <ele>1448.5922851562</ele>
        <time>2014-12-21T10:23:32Z</time>
      </trkpt>
      <trkpt lat="43.90887" lon="7.30308">
        <ele>1453.3383789062</ele>
        <time>2014-12-21T10:23:39Z</time>
      </trkpt>
      <trkpt lat="43.90886" lon="7.30308">
        <ele>1452.8585205078</ele>
        <time>2014-12-21T10:23:45Z</time>
      </trkpt>
      <trkpt lat="43.9088" lon="7.30305">
        <ele>1447.8508300781</ele>
        <time>2014-12-21T10:23:53Z</time>
      </trkpt>
      <trkpt lat="43.90878" lon="7.30305">
        <ele>1447.0679931641</ele>
        <time>2014-12-21T10:24:00Z</time>
      </trkpt>
      <trkpt lat="43.90876" lon="7.30308">
        <ele>1448.4094238281</ele>
        <time>2014-12-21T10:24:09Z</time>
      </trkpt>
      <trkpt lat="43.90873" lon="7.30309">
        <ele>1448.1234130859</ele>
        <time>2014-12-21T10:24:15Z</time>
      </trkpt>
      <trkpt lat="43.90871" lon="7.30307">
        <ele>1445.4497070312</ele>
        <time>2014-12-21T10:24:20Z</time>
      </trkpt>
      <trkpt lat="43.90869" lon="7.30308">
        <ele>1445.9406738281</ele>
        <time>2014-12-21T10:24:25Z</time>
      </trkpt>
      <trkpt lat="43.90868" lon="7.30314">
        <ele>1450.8852539062</ele>
        <time>2014-12-21T10:24:31Z</time>
      </trkpt>
      <trkpt lat="43.9087" lon="7.30321">
        <ele>1457.5584716797</ele>
        <time>2014-12-21T10:24:38Z</time>
      </trkpt>
      <trkpt lat="43.90873" lon="7.30328">
        <ele>1465.0628662109</ele>
        <time>2014-12-21T10:24:47Z</time>
      </trkpt>
      <trkpt lat="43.90875" lon="7.30332">
        <ele>1468.8703613281</ele>
        <time>2014-12-21T10:24:53Z</time>
      </trkpt>
      <trkpt lat="43.90878" lon="7.30336">
        <ele>1471.7926025391</ele>
        <time>2014-12-21T10:24:59Z</time>
      </trkpt>
      <trkpt lat="43.90883" lon="7.30342">
        <ele>1474.4332275391</ele>
        <time>2014-12-21T10:25:06Z</time>
      </trkpt>
      <trkpt lat="43.90887" lon="7.30346">
        <ele>1476.1291503906</ele>
        <time>2014-12-21T10:25:15Z</time>
      </trkpt>
      <trkpt lat="43.90889" lon="7.3035">
        <ele>1477.0892333984</ele>
        <time>2014-12-21T10:25:22Z</time>
      </trkpt>
      <trkpt lat="43.9089" lon="7.30355">
        <ele>1478.4443359375</ele>
        <time>2014-12-21T10:25:30Z</time>
      </trkpt>
      <trkpt lat="43.90889" lon="7.30355">
        <ele>1478.3780517578</ele>
        <time>2014-12-21T10:25:34Z</time>
      </trkpt>
      <trkpt lat="43.90886" lon="7.30351">
        <ele>1477.3664550781</ele>
        <time>2014-12-21T10:25:39Z</time>
      </trkpt>
      <trkpt lat="43.90882" lon="7.3035">
        <ele>1476.83203125</ele>
        <time>2014-12-21T10:25:45Z</time>
      </trkpt>
      <trkpt lat="43.90874" lon="7.30349">
        <ele>1475.9545898438</ele>
        <time>2014-12-21T10:25:54Z</time>
      </trkpt>
      <trkpt lat="43.9087" lon="7.30349">
        <ele>1475.4051513672</ele>
        <time>2014-12-21T10:26:00Z</time>
      </trkpt>
      <trkpt lat="43.90868" lon="7.3035">
        <ele>1475.5648193359</ele>
        <time>2014-12-21T10:26:05Z</time>
      </trkpt>
      <trkpt lat="43.90866" lon="7.30351">
        <ele>1476.1422119141</ele>
        <time>2014-12-21T10:26:12Z</time>
      </trkpt>
      <trkpt lat="43.90866" lon="7.30351">
        <ele>1475.9407958984</ele>
        <time>2014-12-21T10:26:18Z</time>
      </trkpt>
      <trkpt lat="43.90866" lon="7.3035">
        <ele>1475.5549316406</ele>
        <time>2014-12-21T10:26:25Z</time>
      </trkpt>
      <trkpt lat="43.90867" lon="7.3035">
        <ele>1475.6202392578</ele>
        <time>2014-12-21T10:26:32Z</time>
      </trkpt>
      <trkpt lat="43.90866" lon="7.30351">
        <ele>1476.0942382812</ele>
        <time>2014-12-21T10:26:56Z</time>
      </trkpt>
      <trkpt lat="43.90865" lon="7.30355">
        <ele>1477.4090576172</ele>
        <time>2014-12-21T10:27:02Z</time>
      </trkpt>
      <trkpt lat="43.90863" lon="7.30355">
        <ele>1477.3308105469</ele>
        <time>2014-12-21T10:27:28Z</time>
      </trkpt>
      <trkpt lat="43.90864" lon="7.3036">
        <ele>1479.4173583984</ele>
        <time>2014-12-21T10:33:40Z</time>
      </trkpt>
      <trkpt lat="43.90858" lon="7.30354">
        <ele>1476.5799560547</ele>
        <time>2014-12-21T10:42:03Z</time>
      </trkpt>
      <trkpt lat="43.90863" lon="7.30354">
        <ele>1477.06640625</ele>
        <time>2014-12-21T10:52:52Z</time>
      </trkpt>
      <trkpt lat="43.90864" lon="7.30359">
        <ele>1479.1568603516</ele>
        <time>2014-12-21T11:00:37Z</time>
      </trkpt>
      <trkpt lat="43.90864" lon="7.30358">
        <ele>1478.6706542969</ele>
        <time>2014-12-21T11:01:08Z</time>
      </trkpt>
      <trkpt lat="43.90865" lon="7.30354">
        <ele>1477.2692871094</ele>
        <time>2014-12-21T11:01:31Z</time>
      </trkpt>
      <trkpt lat="43.90866" lon="7.30354">
        <ele>1477.0330810547</ele>
        <time>2014-12-21T11:01:42Z</time>
      </trkpt>
      <trkpt lat="43.90866" lon="7.30354">
        <ele>1477.2641601562</ele>
        <time>2014-12-21T11:02:33Z</time>
      </trkpt>
      <trkpt lat="43.90865" lon="7.30354">
        <ele>1477.2917480469</ele>
        <time>2014-12-21T11:02:40Z</time>
      </trkpt>
      <trkpt lat="43.90865" lon="7.30355">
        <ele>1477.6525878906</ele>
        <time>2014-12-21T11:03:08Z</time>
      </trkpt>
      <trkpt lat="43.90865" lon="7.30356">
        <ele>1477.8068847656</ele>
        <time>2014-12-21T11:03:17Z</time>
      </trkpt>
      <trkpt lat="43.90865" lon="7.30354">
        <ele>1477.1701660156</ele>
        <time>2014-12-21T11:03:29Z</time>
      </trkpt>
      <trkpt lat="43.90865" lon="7.30355">
        <ele>1477.4635009766</ele>
        <time>2014-12-21T11:03:45Z</time>
      </trkpt>
      <trkpt lat="43.90867" lon="7.30355">
        <ele>1477.7098388672</ele>
        <time>2014-12-21T11:04:08Z</time>
      </trkpt>
      <trkpt lat="43.90871" lon="7.30354">
        <ele>1477.2180175781</ele>
        <time>2014-12-21T11:04:15Z</time>
      </trkpt>
      <trkpt lat="43.90871" lon="7.30354">
        <ele>1477.3248291016</ele>
        <time>2014-12-21T11:04:16Z</time>
      </trkpt>
      <trkpt lat="43.90877" lon="7.30355">
        <ele>1477.9093017578</ele>
        <time>2014-12-21T11:04:25Z</time>
      </trkpt>
      <trkpt lat="43.90882" lon="7.30357">
        <ele>1478.8666992188</ele>
        <time>2014-12-21T11:04:32Z</time>
      </trkpt>
      <trkpt lat="43.90886" lon="7.30358">
        <ele>1479.0389404297</ele>
        <time>2014-12-21T11:04:39Z</time>
      </trkpt>
      <trkpt lat="43.90888" lon="7.30358">
        <ele>1479.2268066406</ele>
        <time>2014-12-21T11:04:44Z</time>
      </trkpt>
      <trkpt lat="43.90889" lon="7.30359">
        <ele>1479.3898925781</ele>
        <time>2014-12-21T11:04:49Z</time>
      </trkpt>
      <trkpt lat="43.90891" lon="7.30358">
        <ele>1479.2395019531</ele>
        <time>2014-12-21T11:04:52Z</time>
      </trkpt>
      <trkpt lat="43.90895" lon="7.30357">
        <ele>1478.8287353516</ele>
        <time>2014-12-21T11:04:59Z</time>
      </trkpt>
      <trkpt lat="43.90897" lon="7.30354">
        <ele>1478.1429443359</ele>
        <time>2014-12-21T11:05:06Z</time>
      </trkpt>
      <trkpt lat="43.90899" lon="7.30353">
        <ele>1477.8778076172</ele>
        <time>2014-12-21T11:05:19Z</time>
      </trkpt>
      <trkpt lat="43.90905" lon="7.30353">
        <ele>1477.7315673828</ele>
        <time>2014-12-21T11:05:26Z</time>
      </trkpt>
      <trkpt lat="43.90908" lon="7.30353">
        <ele>1477.7869873047</ele>
        <time>2014-12-21T11:05:31Z</time>
      </trkpt>
      <trkpt lat="43.90915" lon="7.30354">
        <ele>1477.9781494141</ele>
        <time>2014-12-21T11:05:38Z</time>
      </trkpt>
      <trkpt lat="43.9092" lon="7.30359">
        <ele>1479.4609375</ele>
        <time>2014-12-21T11:05:47Z</time>
      </trkpt>
      <trkpt lat="43.90924" lon="7.30363">
        <ele>1479.5947265625</ele>
        <time>2014-12-21T11:05:55Z</time>
      </trkpt>
      <trkpt lat="43.90926" lon="7.30366">
        <ele>1478.9046630859</ele>
        <time>2014-12-21T11:05:59Z</time>
      </trkpt>
      <trkpt lat="43.90929" lon="7.30372">
        <ele>1477.7098388672</ele>
        <time>2014-12-21T11:06:08Z</time>
      </trkpt>
      <trkpt lat="43.9093" lon="7.30374">
        <ele>1477.2772216797</ele>
        <time>2014-12-21T11:06:20Z</time>
      </trkpt>
      <trkpt lat="43.90932" lon="7.30374">
        <ele>1477.1124267578</ele>
        <time>2014-12-21T11:06:27Z</time>
      </trkpt>
      <trkpt lat="43.90933" lon="7.30376">
        <ele>1476.8034667969</ele>
        <time>2014-12-21T11:06:30Z</time>
      </trkpt>
      <trkpt lat="43.90937" lon="7.30376">
        <ele>1476.7004394531</ele>
        <time>2014-12-21T11:06:38Z</time>
      </trkpt>
      <trkpt lat="43.9094" lon="7.30374">
        <ele>1477.2978515625</ele>
        <time>2014-12-21T11:06:45Z</time>
      </trkpt>
      <trkpt lat="43.90945" lon="7.30374">
        <ele>1477.1361083984</ele>
        <time>2014-12-21T11:06:51Z</time>
      </trkpt>
      <trkpt lat="43.90947" lon="7.30375">
        <ele>1477.1773681641</ele>
        <time>2014-12-21T11:06:57Z</time>
      </trkpt>
      <trkpt lat="43.90948" lon="7.30377">
        <ele>1476.9957275391</ele>
        <time>2014-12-21T11:07:22Z</time>
      </trkpt>
      <trkpt lat="43.9095" lon="7.30376">
        <ele>1477.3909912109</ele>
        <time>2014-12-21T11:07:29Z</time>
      </trkpt>
      <trkpt lat="43.90953" lon="7.30375">
        <ele>1477.9471435547</ele>
        <time>2014-12-21T11:07:40Z</time>
      </trkpt>
      <trkpt lat="43.90954" lon="7.30372">
        <ele>1478.4697265625</ele>
        <time>2014-12-21T11:07:47Z</time>
      </trkpt>
      <trkpt lat="43.90955" lon="7.3037">
        <ele>1478.8079833984</ele>
        <time>2014-12-21T11:08:01Z</time>
      </trkpt>
      <trkpt lat="43.90956" lon="7.30369">
        <ele>1479.0242919922</ele>
        <time>2014-12-21T11:08:06Z</time>
      </trkpt>
      <trkpt lat="43.90957" lon="7.30368">
        <ele>1479.2435302734</ele>
        <time>2014-12-21T11:08:13Z</time>
      </trkpt>
      <trkpt lat="43.90958" lon="7.30365">
        <ele>1479.5832519531</ele>
        <time>2014-12-21T11:08:35Z</time>
      </trkpt>
      <trkpt lat="43.90957" lon="7.30366">
        <ele>1479.3664550781</ele>
        <time>2014-12-21T11:08:41Z</time>
      </trkpt>
      <trkpt lat="43.90956" lon="7.30365">
        <ele>1479.4731445312</ele>
        <time>2014-12-21T11:09:01Z</time>
      </trkpt>
      <trkpt lat="43.90962" lon="7.30367">
        <ele>1479.5559082031</ele>
        <time>2014-12-21T11:09:05Z</time>
      </trkpt>
      <trkpt lat="43.90966" lon="7.30369">
        <ele>1479.6396484375</ele>
        <time>2014-12-21T11:09:12Z</time>
      </trkpt>
      <trkpt lat="43.90967" lon="7.30369">
        <ele>1479.6907958984</ele>
        <time>2014-12-21T11:09:14Z</time>
      </trkpt>
      <trkpt lat="43.90969" lon="7.30372">
        <ele>1479.7274169922</ele>
        <time>2014-12-21T11:09:18Z</time>
      </trkpt>
      <trkpt lat="43.90973" lon="7.30377">
        <ele>1480</ele>
        <time>2014-12-21T11:09:25Z</time>
      </trkpt>
      <trkpt lat="43.90976" lon="7.30381">
        <ele>1480</ele>
        <time>2014-12-21T11:09:33Z</time>
      </trkpt>
      <trkpt lat="43.90977" lon="7.30384">
        <ele>1480</ele>
        <time>2014-12-21T11:09:38Z</time>
      </trkpt>
      <trkpt lat="43.90976" lon="7.30387">
        <ele>1480</ele>
        <time>2014-12-21T11:09:44Z</time>
      </trkpt>
      <trkpt lat="43.90977" lon="7.3039">
        <ele>1479.2882080078</ele>
        <time>2014-12-21T11:09:50Z</time>
      </trkpt>
      <trkpt lat="43.90979" lon="7.30391">
        <ele>1477.8942871094</ele>
        <time>2014-12-21T11:09:58Z</time>
      </trkpt>
      <trkpt lat="43.90982" lon="7.30394">
        <ele>1475.0584716797</ele>
        <time>2014-12-21T11:10:03Z</time>
      </trkpt>
      <trkpt lat="43.90988" lon="7.30394">
        <ele>1474.6258544922</ele>
        <time>2014-12-21T11:10:12Z</time>
      </trkpt>
      <trkpt lat="43.9099" lon="7.30396">
        <ele>1472.8474121094</ele>
        <time>2014-12-21T11:10:21Z</time>
      </trkpt>
      <trkpt lat="43.90992" lon="7.30396">
        <ele>1473.1358642578</ele>
        <time>2014-12-21T11:10:28Z</time>
      </trkpt>
      <trkpt lat="43.90995" lon="7.30396">
        <ele>1472.9436035156</ele>
        <time>2014-12-21T11:10:53Z</time>
      </trkpt>
      <trkpt lat="43.90996" lon="7.30396">
        <ele>1472.8474121094</ele>
        <time>2014-12-21T11:10:55Z</time>
      </trkpt>
      <trkpt lat="43.90997" lon="7.30396">
        <ele>1472.4149169922</ele>
        <time>2014-12-21T11:10:57Z</time>
      </trkpt>
      <trkpt lat="43.91001" lon="7.30396">
        <ele>1473.2370605469</ele>
        <time>2014-12-21T11:11:04Z</time>
      </trkpt>
      <trkpt lat="43.91005" lon="7.30395">
        <ele>1474.5423583984</ele>
        <time>2014-12-21T11:11:19Z</time>
      </trkpt>
      <trkpt lat="43.9101" lon="7.30393">
        <ele>1476.5847167969</ele>
        <time>2014-12-21T11:11:27Z</time>
      </trkpt>
      <trkpt lat="43.91013" lon="7.30392">
        <ele>1478.3560791016</ele>
        <time>2014-12-21T11:11:33Z</time>
      </trkpt>
      <trkpt lat="43.91015" lon="7.3039">
        <ele>1479.7845458984</ele>
        <time>2014-12-21T11:11:42Z</time>
      </trkpt>
      <trkpt lat="43.91016" lon="7.30388">
        <ele>1481.08984375</ele>
        <time>2014-12-21T11:11:50Z</time>
      </trkpt>
      <trkpt lat="43.91017" lon="7.30387">
        <ele>1481.1326904297</ele>
        <time>2014-12-21T11:11:57Z</time>
      </trkpt>
      <trkpt lat="43.91019" lon="7.30384">
        <ele>1481.1088867188</ele>
        <time>2014-12-21T11:12:05Z</time>
      </trkpt>
      <trkpt lat="43.91019" lon="7.30382">
        <ele>1481.0723876953</ele>
        <time>2014-12-21T11:12:11Z</time>
      </trkpt>
      <trkpt lat="43.91021" lon="7.3038">
        <ele>1481.0272216797</ele>
        <time>2014-12-21T11:12:17Z</time>
      </trkpt>
      <trkpt lat="43.91022" lon="7.30378">
        <ele>1480.9906005859</ele>
        <time>2014-12-21T11:12:22Z</time>
      </trkpt>
      <trkpt lat="43.91025" lon="7.30377">
        <ele>1481.0455322266</ele>
        <time>2014-12-21T11:12:40Z</time>
      </trkpt>
      <trkpt lat="43.91026" lon="7.30376">
        <ele>1480.9752197266</ele>
        <time>2014-12-21T11:12:45Z</time>
      </trkpt>
      <trkpt lat="43.91028" lon="7.30373">
        <ele>1480.8386230469</ele>
        <time>2014-12-21T11:12:49Z</time>
      </trkpt>
      <trkpt lat="43.91032" lon="7.30373">
        <ele>1480.5970458984</ele>
        <time>2014-12-21T11:12:55Z</time>
      </trkpt>
      <trkpt lat="43.91033" lon="7.30372">
        <ele>1480.3367919922</ele>
        <time>2014-12-21T11:13:05Z</time>
      </trkpt>
      <trkpt lat="43.91036" lon="7.3037">
        <ele>1479.9339599609</ele>
        <time>2014-12-21T11:13:16Z</time>
      </trkpt>
      <trkpt lat="43.9104" lon="7.30369">
        <ele>1479.3563232422</ele>
        <time>2014-12-21T11:13:22Z</time>
      </trkpt>
      <trkpt lat="43.91047" lon="7.30367">
        <ele>1478.3463134766</ele>
        <time>2014-12-21T11:13:31Z</time>
      </trkpt>
      <trkpt lat="43.91049" lon="7.30367">
        <ele>1478.1166992188</ele>
        <time>2014-12-21T11:13:34Z</time>
      </trkpt>
      <trkpt lat="43.91054" lon="7.30366">
        <ele>1477.3642578125</ele>
        <time>2014-12-21T11:13:40Z</time>
      </trkpt>
      <trkpt lat="43.91063" lon="7.30368">
        <ele>1478.5126953125</ele>
        <time>2014-12-21T11:13:49Z</time>
      </trkpt>
      <trkpt lat="43.91071" lon="7.30368">
        <ele>1479.3594970703</ele>
        <time>2014-12-21T11:13:56Z</time>
      </trkpt>
      <trkpt lat="43.91077" lon="7.30365">
        <ele>1479.6534423828</ele>
        <time>2014-12-21T11:14:02Z</time>
      </trkpt>
      <trkpt lat="43.91083" lon="7.30361">
        <ele>1479.9572753906</ele>
        <time>2014-12-21T11:14:09Z</time>
      </trkpt>
      <trkpt lat="43.91084" lon="7.30361">
        <ele>1479.9299316406</ele>
        <time>2014-12-21T11:14:10Z</time>
      </trkpt>
      <trkpt lat="43.91089" lon="7.30359">
        <ele>1479.5485839844</ele>
        <time>2014-12-21T11:14:16Z</time>
      </trkpt>
      <trkpt lat="43.91093" lon="7.3036">
        <ele>1480.1149902344</ele>
        <time>2014-12-21T11:14:20Z</time>
      </trkpt>
      <trkpt lat="43.91095" lon="7.30359">
        <ele>1479.6782226562</ele>
        <time>2014-12-21T11:14:22Z</time>
      </trkpt>
      <trkpt lat="43.911" lon="7.30358">
        <ele>1479.8482666016</ele>
        <time>2014-12-21T11:14:28Z</time>
      </trkpt>
      <trkpt lat="43.91103" lon="7.30361">
        <ele>1481.2432861328</ele>
        <time>2014-12-21T11:14:33Z</time>
      </trkpt>
      <trkpt lat="43.91107" lon="7.30363">
        <ele>1482.2286376953</ele>
        <time>2014-12-21T11:14:39Z</time>
      </trkpt>
      <trkpt lat="43.91109" lon="7.30364">
        <ele>1482.4930419922</ele>
        <time>2014-12-21T11:14:41Z</time>
      </trkpt>
      <trkpt lat="43.91113" lon="7.30365">
        <ele>1483.2468261719</ele>
        <time>2014-12-21T11:14:46Z</time>
      </trkpt>
      <trkpt lat="43.91115" lon="7.30366">
        <ele>1483.7883300781</ele>
        <time>2014-12-21T11:14:48Z</time>
      </trkpt>
      <trkpt lat="43.91117" lon="7.30365">
        <ele>1484.0120849609</ele>
        <time>2014-12-21T11:14:54Z</time>
      </trkpt>
      <trkpt lat="43.9112" lon="7.30367">
        <ele>1484.9448242188</ele>
        <time>2014-12-21T11:15:00Z</time>
      </trkpt>
      <trkpt lat="43.91122" lon="7.30367">
        <ele>1485.4361572266</ele>
        <time>2014-12-21T11:15:05Z</time>
      </trkpt>
      <trkpt lat="43.91124" lon="7.30367">
        <ele>1485.8192138672</ele>
        <time>2014-12-21T11:15:09Z</time>
      </trkpt>
      <trkpt lat="43.91125" lon="7.30368">
        <ele>1486.2368164062</ele>
        <time>2014-12-21T11:15:11Z</time>
      </trkpt>
      <trkpt lat="43.9113" lon="7.30371">
        <ele>1488.5710449219</ele>
        <time>2014-12-21T11:15:15Z</time>
      </trkpt>
      <trkpt lat="43.91135" lon="7.30377">
        <ele>1492.47265625</ele>
        <time>2014-12-21T11:15:23Z</time>
      </trkpt>
      <trkpt lat="43.91138" lon="7.30382">
        <ele>1496.2495117188</ele>
        <time>2014-12-21T11:15:30Z</time>
      </trkpt>
      <trkpt lat="43.91139" lon="7.30382">
        <ele>1496.1683349609</ele>
        <time>2014-12-21T11:15:40Z</time>
      </trkpt>
      <trkpt lat="43.9114" lon="7.30382">
        <ele>1496.0993652344</ele>
        <time>2014-12-21T11:15:48Z</time>
      </trkpt>
      <trkpt lat="43.91144" lon="7.30381">
        <ele>1495.0334472656</ele>
        <time>2014-12-21T11:16:24Z</time>
      </trkpt>
      <trkpt lat="43.91145" lon="7.30383">
        <ele>1495.8253173828</ele>
        <time>2014-12-21T11:16:29Z</time>
      </trkpt>
      <trkpt lat="43.91146" lon="7.30386">
        <ele>1497.2172851562</ele>
        <time>2014-12-21T11:16:37Z</time>
      </trkpt>
      <trkpt lat="43.91146" lon="7.30385">
        <ele>1496.7025146484</ele>
        <time>2014-12-21T11:17:15Z</time>
      </trkpt>
      <trkpt lat="43.91142" lon="7.30379">
        <ele>1494.3663330078</ele>
        <time>2014-12-21T11:21:44Z</time>
      </trkpt>
      <trkpt lat="43.91143" lon="7.30376">
        <ele>1492.3453369141</ele>
        <time>2014-12-21T11:22:23Z</time>
      </trkpt>
      <trkpt lat="43.91143" lon="7.30375">
        <ele>1492.1258544922</ele>
        <time>2014-12-21T11:22:29Z</time>
      </trkpt>
      <trkpt lat="43.91145" lon="7.30377">
        <ele>1492.7839355469</ele>
        <time>2014-12-21T11:22:50Z</time>
      </trkpt>
      <trkpt lat="43.91147" lon="7.30377">
        <ele>1492.7097167969</ele>
        <time>2014-12-21T11:22:55Z</time>
      </trkpt>
      <trkpt lat="43.91148" lon="7.30376">
        <ele>1491.7902832031</ele>
        <time>2014-12-21T11:23:01Z</time>
      </trkpt>
      <trkpt lat="43.91151" lon="7.30377">
        <ele>1491.9908447266</ele>
        <time>2014-12-21T11:23:04Z</time>
      </trkpt>
      <trkpt lat="43.91156" lon="7.3038">
        <ele>1492.4096679688</ele>
        <time>2014-12-21T11:23:11Z</time>
      </trkpt>
      <trkpt lat="43.91159" lon="7.30379">
        <ele>1491.4642333984</ele>
        <time>2014-12-21T11:23:17Z</time>
      </trkpt>
      <trkpt lat="43.91164" lon="7.30379">
        <ele>1490.8820800781</ele>
        <time>2014-12-21T11:23:22Z</time>
      </trkpt>
      <trkpt lat="43.91171" lon="7.3038">
        <ele>1489.9239501953</ele>
        <time>2014-12-21T11:23:28Z</time>
      </trkpt>
      <trkpt lat="43.91177" lon="7.30382">
        <ele>1489.6020507812</ele>
        <time>2014-12-21T11:23:34Z</time>
      </trkpt>
      <trkpt lat="43.91186" lon="7.30382">
        <ele>1488.0198974609</ele>
        <time>2014-12-21T11:23:41Z</time>
      </trkpt>
      <trkpt lat="43.91189" lon="7.30381">
        <ele>1487.0068359375</ele>
        <time>2014-12-21T11:23:44Z</time>
      </trkpt>
      <trkpt lat="43.91195" lon="7.30379">
        <ele>1485.2652587891</ele>
        <time>2014-12-21T11:23:51Z</time>
      </trkpt>
      <trkpt lat="43.91196" lon="7.30378">
        <ele>1484.8309326172</ele>
        <time>2014-12-21T11:23:52Z</time>
      </trkpt>
      <trkpt lat="43.91202" lon="7.30376">
        <ele>1483.3371582031</ele>
        <time>2014-12-21T11:23:59Z</time>
      </trkpt>
      <trkpt lat="43.91204" lon="7.30372">
        <ele>1481.9035644531</ele>
        <time>2014-12-21T11:24:04Z</time>
      </trkpt>
      <trkpt lat="43.91205" lon="7.30367">
        <ele>1480.4385986328</ele>
        <time>2014-12-21T11:24:09Z</time>
      </trkpt>
      <trkpt lat="43.91208" lon="7.30367">
        <ele>1479.8708496094</ele>
        <time>2014-12-21T11:24:12Z</time>
      </trkpt>
      <trkpt lat="43.91209" lon="7.30366">
        <ele>1479.4854736328</ele>
        <time>2014-12-21T11:24:14Z</time>
      </trkpt>
      <trkpt lat="43.91212" lon="7.30367">
        <ele>1479.2664794922</ele>
        <time>2014-12-21T11:24:17Z</time>
      </trkpt>
      <trkpt lat="43.91215" lon="7.30367">
        <ele>1478.5145263672</ele>
        <time>2014-12-21T11:24:23Z</time>
      </trkpt>
      <trkpt lat="43.91216" lon="7.30366">
        <ele>1478.3289794922</ele>
        <time>2014-12-21T11:24:24Z</time>
      </trkpt>
      <trkpt lat="43.91217" lon="7.30364">
        <ele>1477.5522460938</ele>
        <time>2014-12-21T11:24:29Z</time>
      </trkpt>
      <trkpt lat="43.91218" lon="7.30365">
        <ele>1477.5637207031</ele>
        <time>2014-12-21T11:24:36Z</time>
      </trkpt>
      <trkpt lat="43.9122" lon="7.30365">
        <ele>1477.2188720703</ele>
        <time>2014-12-21T11:24:38Z</time>
      </trkpt>
      <trkpt lat="43.9123" lon="7.30368">
        <ele>1474.2651367188</ele>
        <time>2014-12-21T11:24:46Z</time>
      </trkpt>
      <trkpt lat="43.91232" lon="7.30367">
        <ele>1472.8089599609</ele>
        <time>2014-12-21T11:24:49Z</time>
      </trkpt>
      <trkpt lat="43.91238" lon="7.30365">
        <ele>1469.6025390625</ele>
        <time>2014-12-21T11:24:55Z</time>
      </trkpt>
      <trkpt lat="43.91244" lon="7.30362">
        <ele>1466.0416259766</ele>
        <time>2014-12-21T11:24:59Z</time>
      </trkpt>
      <trkpt lat="43.91249" lon="7.30358">
        <ele>1461.2713623047</ele>
        <time>2014-12-21T11:25:06Z</time>
      </trkpt>
      <trkpt lat="43.91256" lon="7.30355">
        <ele>1456.2824707031</ele>
        <time>2014-12-21T11:25:11Z</time>
      </trkpt>
      <trkpt lat="43.91259" lon="7.30356">
        <ele>1455.2348632812</ele>
        <time>2014-12-21T11:25:17Z</time>
      </trkpt>
      <trkpt lat="43.91258" lon="7.30353">
        <ele>1453.5727539062</ele>
        <time>2014-12-21T11:25:22Z</time>
      </trkpt>
      <trkpt lat="43.91257" lon="7.30346">
        <ele>1449.8841552734</ele>
        <time>2014-12-21T11:25:28Z</time>
      </trkpt>
      <trkpt lat="43.91258" lon="7.30345">
        <ele>1448.4658203125</ele>
        <time>2014-12-21T11:25:34Z</time>
      </trkpt>
      <trkpt lat="43.91262" lon="7.30348">
        <ele>1448.05859375</ele>
        <time>2014-12-21T11:25:41Z</time>
      </trkpt>
      <trkpt lat="43.91266" lon="7.3035">
        <ele>1447.5339355469</ele>
        <time>2014-12-21T11:25:45Z</time>
      </trkpt>
      <trkpt lat="43.9127" lon="7.30351">
        <ele>1445.7239990234</ele>
        <time>2014-12-21T11:25:50Z</time>
      </trkpt>
      <trkpt lat="43.91272" lon="7.30351">
        <ele>1444.765625</ele>
        <time>2014-12-21T11:25:54Z</time>
      </trkpt>
      <trkpt lat="43.91277" lon="7.30356">
        <ele>1445.2287597656</ele>
        <time>2014-12-21T11:26:00Z</time>
      </trkpt>
      <trkpt lat="43.9128" lon="7.30359">
        <ele>1445.7310791016</ele>
        <time>2014-12-21T11:26:05Z</time>
      </trkpt>
      <trkpt lat="43.91282" lon="7.30358">
        <ele>1444.2180175781</ele>
        <time>2014-12-21T11:26:08Z</time>
      </trkpt>
      <trkpt lat="43.9129" lon="7.30363">
        <ele>1443.8404541016</ele>
        <time>2014-12-21T11:26:17Z</time>
      </trkpt>
      <trkpt lat="43.91296" lon="7.30366">
        <ele>1443.2772216797</ele>
        <time>2014-12-21T11:26:24Z</time>
      </trkpt>
      <trkpt lat="43.91304" lon="7.3037">
        <ele>1442.8260498047</ele>
        <time>2014-12-21T11:26:31Z</time>
      </trkpt>
      <trkpt lat="43.91307" lon="7.30372">
        <ele>1443.6027832031</ele>
        <time>2014-12-21T11:26:34Z</time>
      </trkpt>
      <trkpt lat="43.91308" lon="7.30376">
        <ele>1446.1431884766</ele>
        <time>2014-12-21T11:26:38Z</time>
      </trkpt>
      <trkpt lat="43.91314" lon="7.30383">
        <ele>1448.9177246094</ele>
        <time>2014-12-21T11:26:47Z</time>
      </trkpt>
      <trkpt lat="43.91319" lon="7.30385">
        <ele>1448.3863525391</ele>
        <time>2014-12-21T11:26:53Z</time>
      </trkpt>
      <trkpt lat="43.91326" lon="7.30388">
        <ele>1447.5650634766</ele>
        <time>2014-12-21T11:27:01Z</time>
      </trkpt>
      <trkpt lat="43.91331" lon="7.30392">
        <ele>1445.9267578125</ele>
        <time>2014-12-21T11:27:08Z</time>
      </trkpt>
      <trkpt lat="43.91336" lon="7.30395">
        <ele>1444.2891845703</ele>
        <time>2014-12-21T11:27:14Z</time>
      </trkpt>
      <trkpt lat="43.91343" lon="7.30402">
        <ele>1443.2896728516</ele>
        <time>2014-12-21T11:27:21Z</time>
      </trkpt>
      <trkpt lat="43.91349" lon="7.30406">
        <ele>1442.6076660156</ele>
        <time>2014-12-21T11:27:27Z</time>
      </trkpt>
      <trkpt lat="43.91356" lon="7.30413">
        <ele>1442.1533203125</ele>
        <time>2014-12-21T11:27:35Z</time>
      </trkpt>
      <trkpt lat="43.91362" lon="7.30417">
        <ele>1441.884765625</ele>
        <time>2014-12-21T11:27:42Z</time>
      </trkpt>
      <trkpt lat="43.9137" lon="7.30416">
        <ele>1441.3308105469</ele>
        <time>2014-12-21T11:27:50Z</time>
      </trkpt>
      <trkpt lat="43.91376" lon="7.30415">
        <ele>1440.5085449219</ele>
        <time>2014-12-21T11:27:58Z</time>
      </trkpt>
      <trkpt lat="43.91381" lon="7.30417">
        <ele>1440.5031738281</ele>
        <time>2014-12-21T11:28:05Z</time>
      </trkpt>
      <trkpt lat="43.91386" lon="7.30414">
        <ele>1438.8978271484</ele>
        <time>2014-12-21T11:28:12Z</time>
      </trkpt>
      <trkpt lat="43.91388" lon="7.30414">
        <ele>1438.5832519531</ele>
        <time>2014-12-21T11:28:18Z</time>
      </trkpt>
      <trkpt lat="43.91388" lon="7.30413">
        <ele>1438.5115966797</ele>
        <time>2014-12-21T11:28:19Z</time>
      </trkpt>
      <trkpt lat="43.91385" lon="7.30419">
        <ele>1440.2647705078</ele>
        <time>2014-12-21T11:28:25Z</time>
      </trkpt>
      <trkpt lat="43.91385" lon="7.30422">
        <ele>1440.2547607422</ele>
        <time>2014-12-21T11:28:28Z</time>
      </trkpt>
      <trkpt lat="43.91385" lon="7.30429">
        <ele>1440.1428222656</ele>
        <time>2014-12-21T11:28:35Z</time>
      </trkpt>
      <trkpt lat="43.91387" lon="7.30432">
        <ele>1440.0570068359</ele>
        <time>2014-12-21T11:28:41Z</time>
      </trkpt>
      <trkpt lat="43.91388" lon="7.30434">
        <ele>1440.0377197266</ele>
        <time>2014-12-21T11:28:47Z</time>
      </trkpt>
      <trkpt lat="43.91388" lon="7.30441">
        <ele>1440.0131835938</ele>
        <time>2014-12-21T11:28:53Z</time>
      </trkpt>
      <trkpt lat="43.91386" lon="7.30448">
        <ele>1439.2218017578</ele>
        <time>2014-12-21T11:28:59Z</time>
      </trkpt>
      <trkpt lat="43.91386" lon="7.30451">
        <ele>1438.4167480469</ele>
        <time>2014-12-21T11:29:02Z</time>
      </trkpt>
      <trkpt lat="43.91388" lon="7.30454">
        <ele>1437.6044921875</ele>
        <time>2014-12-21T11:29:07Z</time>
      </trkpt>
      <trkpt lat="43.91386" lon="7.3046">
        <ele>1436.1358642578</ele>
        <time>2014-12-21T11:29:14Z</time>
      </trkpt>
      <trkpt lat="43.91385" lon="7.30464">
        <ele>1435.109375</ele>
        <time>2014-12-21T11:29:21Z</time>
      </trkpt>
      <trkpt lat="43.91385" lon="7.30465">
        <ele>1434.8719482422</ele>
        <time>2014-12-21T11:29:22Z</time>
      </trkpt>
      <trkpt lat="43.91384" lon="7.30468">
        <ele>1434.3411865234</ele>
        <time>2014-12-21T11:29:24Z</time>
      </trkpt>
      <trkpt lat="43.91382" lon="7.30472">
        <ele>1433.3328857422</ele>
        <time>2014-12-21T11:29:31Z</time>
      </trkpt>
      <trkpt lat="43.9138" lon="7.30474">
        <ele>1432.7529296875</ele>
        <time>2014-12-21T11:29:40Z</time>
      </trkpt>
      <trkpt lat="43.91376" lon="7.30478">
        <ele>1431.7574462891</ele>
        <time>2014-12-21T11:29:47Z</time>
      </trkpt>
      <trkpt lat="43.91375" lon="7.3048">
        <ele>1430.9793701172</ele>
        <time>2014-12-21T11:29:50Z</time>
      </trkpt>
      <trkpt lat="43.91375" lon="7.30484">
        <ele>1429.5267333984</ele>
        <time>2014-12-21T11:29:56Z</time>
      </trkpt>
      <trkpt lat="43.91376" lon="7.30489">
        <ele>1428.1412353516</ele>
        <time>2014-12-21T11:30:02Z</time>
      </trkpt>
      <trkpt lat="43.91378" lon="7.30492">
        <ele>1427.2374267578</ele>
        <time>2014-12-21T11:30:08Z</time>
      </trkpt>
      <trkpt lat="43.9138" lon="7.30494">
        <ele>1426.4487304688</ele>
        <time>2014-12-21T11:30:17Z</time>
      </trkpt>
      <trkpt lat="43.91381" lon="7.30496">
        <ele>1426.0963134766</ele>
        <time>2014-12-21T11:30:18Z</time>
      </trkpt>
      <trkpt lat="43.91384" lon="7.305">
        <ele>1424.9349365234</ele>
        <time>2014-12-21T11:30:26Z</time>
      </trkpt>
      <trkpt lat="43.91384" lon="7.30504">
        <ele>1423.3426513672</ele>
        <time>2014-12-21T11:30:32Z</time>
      </trkpt>
      <trkpt lat="43.91385" lon="7.30509">
        <ele>1421.8072509766</ele>
        <time>2014-12-21T11:30:39Z</time>
      </trkpt>
      <trkpt lat="43.91385" lon="7.30511">
        <ele>1421.2032470703</ele>
        <time>2014-12-21T11:30:45Z</time>
      </trkpt>
      <trkpt lat="43.91384" lon="7.30517">
        <ele>1419.0444335938</ele>
        <time>2014-12-21T11:30:50Z</time>
      </trkpt>
      <trkpt lat="43.91384" lon="7.30518">
        <ele>1418.6436767578</ele>
        <time>2014-12-21T11:30:51Z</time>
      </trkpt>
      <trkpt lat="43.91385" lon="7.30521">
        <ele>1417.7666015625</ele>
        <time>2014-12-21T11:30:57Z</time>
      </trkpt>
      <trkpt lat="43.91385" lon="7.30522">
        <ele>1417.4674072266</ele>
        <time>2014-12-21T11:30:58Z</time>
      </trkpt>
      <trkpt lat="43.91389" lon="7.30533">
        <ele>1413.8531494141</ele>
        <time>2014-12-21T11:31:06Z</time>
      </trkpt>
      <trkpt lat="43.91392" lon="7.30539">
        <ele>1411.1099853516</ele>
        <time>2014-12-21T11:31:10Z</time>
      </trkpt>
      <trkpt lat="43.91392" lon="7.3054">
        <ele>1410.3834228516</ele>
        <time>2014-12-21T11:31:12Z</time>
      </trkpt>
      <trkpt lat="43.91393" lon="7.30546">
        <ele>1408.0872802734</ele>
        <time>2014-12-21T11:31:19Z</time>
      </trkpt>
      <trkpt lat="43.91395" lon="7.3055">
        <ele>1406.3697509766</ele>
        <time>2014-12-21T11:31:25Z</time>
      </trkpt>
      <trkpt lat="43.91396" lon="7.30552">
        <ele>1405.4484863281</ele>
        <time>2014-12-21T11:31:28Z</time>
      </trkpt>
      <trkpt lat="43.91394" lon="7.30556">
        <ele>1403.8425292969</ele>
        <time>2014-12-21T11:31:35Z</time>
      </trkpt>
      <trkpt lat="43.91394" lon="7.3056">
        <ele>1402.5651855469</ele>
        <time>2014-12-21T11:31:40Z</time>
      </trkpt>
      <trkpt lat="43.91392" lon="7.30561">
        <ele>1402.0794677734</ele>
        <time>2014-12-21T11:31:42Z</time>
      </trkpt>
      <trkpt lat="43.9139" lon="7.30562">
        <ele>1401.740234375</ele>
        <time>2014-12-21T11:31:47Z</time>
      </trkpt>
      <trkpt lat="43.91388" lon="7.30562">
        <ele>1401.5502929688</ele>
        <time>2014-12-21T11:31:49Z</time>
      </trkpt>
      <trkpt lat="43.91385" lon="7.30565">
        <ele>1399.6242675781</ele>
        <time>2014-12-21T11:31:55Z</time>
      </trkpt>
      <trkpt lat="43.91386" lon="7.30569">
        <ele>1398.4776611328</ele>
        <time>2014-12-21T11:31:59Z</time>
      </trkpt>
      <trkpt lat="43.91391" lon="7.30577">
        <ele>1396.5687255859</ele>
        <time>2014-12-21T11:32:08Z</time>
      </trkpt>
      <trkpt lat="43.91394" lon="7.3058">
        <ele>1395.6695556641</ele>
        <time>2014-12-21T11:32:13Z</time>
      </trkpt>
      <trkpt lat="43.91391" lon="7.30586">
        <ele>1392.9836425781</ele>
        <time>2014-12-21T11:32:21Z</time>
      </trkpt>
      <trkpt lat="43.91392" lon="7.3059">
        <ele>1391.8127441406</ele>
        <time>2014-12-21T11:32:26Z</time>
      </trkpt>
      <trkpt lat="43.91393" lon="7.3059">
        <ele>1391.83984375</ele>
        <time>2014-12-21T11:32:28Z</time>
      </trkpt>
      <trkpt lat="43.91399" lon="7.30594">
        <ele>1390.7561035156</ele>
        <time>2014-12-21T11:32:35Z</time>
      </trkpt>
      <trkpt lat="43.914" lon="7.30594">
        <ele>1390.6306152344</ele>
        <time>2014-12-21T11:32:37Z</time>
      </trkpt>
      <trkpt lat="43.91405" lon="7.30598">
        <ele>1389.4425048828</ele>
        <time>2014-12-21T11:32:43Z</time>
      </trkpt>
      <trkpt lat="43.9141" lon="7.30598">
        <ele>1389.7064208984</ele>
        <time>2014-12-21T11:32:51Z</time>
      </trkpt>
      <trkpt lat="43.91409" lon="7.30602">
        <ele>1388.3012695312</ele>
        <time>2014-12-21T11:32:56Z</time>
      </trkpt>
      <trkpt lat="43.91407" lon="7.30606">
        <ele>1386.4542236328</ele>
        <time>2014-12-21T11:33:02Z</time>
      </trkpt>
      <trkpt lat="43.91408" lon="7.30609">
        <ele>1385.5477294922</ele>
        <time>2014-12-21T11:33:07Z</time>
      </trkpt>
      <trkpt lat="43.91412" lon="7.3061">
        <ele>1385.4688720703</ele>
        <time>2014-12-21T11:33:13Z</time>
      </trkpt>
      <trkpt lat="43.91413" lon="7.30614">
        <ele>1383.6939697266</ele>
        <time>2014-12-21T11:33:18Z</time>
      </trkpt>
      <trkpt lat="43.91409" lon="7.30624">
        <ele>1379.7507324219</ele>
        <time>2014-12-21T11:33:26Z</time>
      </trkpt>
      <trkpt lat="43.91404" lon="7.30632">
        <ele>1376.7012939453</ele>
        <time>2014-12-21T11:33:33Z</time>
      </trkpt>
      <trkpt lat="43.91402" lon="7.30637">
        <ele>1374.5938720703</ele>
        <time>2014-12-21T11:33:39Z</time>
      </trkpt>
      <trkpt lat="43.91402" lon="7.30638">
        <ele>1374.2889404297</ele>
        <time>2014-12-21T11:33:40Z</time>
      </trkpt>
      <trkpt lat="43.91408" lon="7.3064">
        <ele>1373.2677001953</ele>
        <time>2014-12-21T11:33:48Z</time>
      </trkpt>
      <trkpt lat="43.91411" lon="7.30643">
        <ele>1371.8337402344</ele>
        <time>2014-12-21T11:33:53Z</time>
      </trkpt>
      <trkpt lat="43.91414" lon="7.30648">
        <ele>1369.4207763672</ele>
        <time>2014-12-21T11:34:00Z</time>
      </trkpt>
      <trkpt lat="43.9142" lon="7.3065">
        <ele>1367.4952392578</ele>
        <time>2014-12-21T11:34:07Z</time>
      </trkpt>
      <trkpt lat="43.91423" lon="7.30652">
        <ele>1365.7789306641</ele>
        <time>2014-12-21T11:34:11Z</time>
      </trkpt>
      <trkpt lat="43.91426" lon="7.30651">
        <ele>1365.1997070312</ele>
        <time>2014-12-21T11:34:17Z</time>
      </trkpt>
      <trkpt lat="43.91429" lon="7.30652">
        <ele>1364.5469970703</ele>
        <time>2014-12-21T11:34:20Z</time>
      </trkpt>
      <trkpt lat="43.91431" lon="7.30651">
        <ele>1364.1097412109</ele>
        <time>2014-12-21T11:34:24Z</time>
      </trkpt>
      <trkpt lat="43.91436" lon="7.30651">
        <ele>1362.8371582031</ele>
        <time>2014-12-21T11:34:29Z</time>
      </trkpt>
      <trkpt lat="43.9144" lon="7.30651">
        <ele>1362.0407714844</ele>
        <time>2014-12-21T11:34:34Z</time>
      </trkpt>
      <trkpt lat="43.91442" lon="7.30652">
        <ele>1361.1944580078</ele>
        <time>2014-12-21T11:34:38Z</time>
      </trkpt>
      <trkpt lat="43.91447" lon="7.30655">
        <ele>1357.7435302734</ele>
        <time>2014-12-21T11:34:45Z</time>
      </trkpt>
      <trkpt lat="43.91448" lon="7.30659">
        <ele>1355.6436767578</ele>
        <time>2014-12-21T11:34:50Z</time>
      </trkpt>
      <trkpt lat="43.91447" lon="7.30662">
        <ele>1354.6983642578</ele>
        <time>2014-12-21T11:34:55Z</time>
      </trkpt>
      <trkpt lat="43.91447" lon="7.30664">
        <ele>1353.7991943359</ele>
        <time>2014-12-21T11:35:00Z</time>
      </trkpt>
      <trkpt lat="43.91446" lon="7.30669">
        <ele>1352.4377441406</ele>
        <time>2014-12-21T11:35:04Z</time>
      </trkpt>
      <trkpt lat="43.91442" lon="7.3067">
        <ele>1352.9798583984</ele>
        <time>2014-12-21T11:35:10Z</time>
      </trkpt>
      <trkpt lat="43.91443" lon="7.30674">
        <ele>1351.4812011719</ele>
        <time>2014-12-21T11:35:15Z</time>
      </trkpt>
      <trkpt lat="43.91444" lon="7.30678">
        <ele>1349.6788330078</ele>
        <time>2014-12-21T11:35:22Z</time>
      </trkpt>
      <trkpt lat="43.91444" lon="7.3068">
        <ele>1348.7294921875</ele>
        <time>2014-12-21T11:35:26Z</time>
      </trkpt>
      <trkpt lat="43.9144" lon="7.30685">
        <ele>1347.7716064453</ele>
        <time>2014-12-21T11:35:32Z</time>
      </trkpt>
      <trkpt lat="43.9144" lon="7.30686">
        <ele>1347.5330810547</ele>
        <time>2014-12-21T11:35:33Z</time>
      </trkpt>
      <trkpt lat="43.91439" lon="7.3069">
        <ele>1346.0808105469</ele>
        <time>2014-12-21T11:35:38Z</time>
      </trkpt>
      <trkpt lat="43.9144" lon="7.3069">
        <ele>1345.6069335938</ele>
        <time>2014-12-21T11:35:40Z</time>
      </trkpt>
      <trkpt lat="43.91443" lon="7.30687">
        <ele>1346.3640136719</ele>
        <time>2014-12-21T11:35:46Z</time>
      </trkpt>
      <trkpt lat="43.91445" lon="7.30688">
        <ele>1345.3509521484</ele>
        <time>2014-12-21T11:35:50Z</time>
      </trkpt>
      <trkpt lat="43.91451" lon="7.30696">
        <ele>1339.7850341797</ele>
        <time>2014-12-21T11:35:57Z</time>
      </trkpt>
      <trkpt lat="43.91453" lon="7.30697">
        <ele>1338.7730712891</ele>
        <time>2014-12-21T11:35:59Z</time>
      </trkpt>
      <trkpt lat="43.91457" lon="7.30702">
        <ele>1335.4443359375</ele>
        <time>2014-12-21T11:36:06Z</time>
      </trkpt>
      <trkpt lat="43.9146" lon="7.30704">
        <ele>1333.8448486328</ele>
        <time>2014-12-21T11:36:11Z</time>
      </trkpt>
      <trkpt lat="43.91461" lon="7.30704">
        <ele>1333.5698242188</ele>
        <time>2014-12-21T11:36:12Z</time>
      </trkpt>
      <trkpt lat="43.91467" lon="7.30705">
        <ele>1331.2446289062</ele>
        <time>2014-12-21T11:36:19Z</time>
      </trkpt>
      <trkpt lat="43.91471" lon="7.30705">
        <ele>1329.7049560547</ele>
        <time>2014-12-21T11:36:25Z</time>
      </trkpt>
      <trkpt lat="43.91478" lon="7.30704">
        <ele>1327.8975830078</ele>
        <time>2014-12-21T11:36:46Z</time>
      </trkpt>
      <trkpt lat="43.91481" lon="7.30707">
        <ele>1325.7911376953</ele>
        <time>2014-12-21T11:36:52Z</time>
      </trkpt>
      <trkpt lat="43.91476" lon="7.3071">
        <ele>1326.5960693359</ele>
        <time>2014-12-21T11:37:10Z</time>
      </trkpt>
      <trkpt lat="43.91473" lon="7.30715">
        <ele>1325.9853515625</ele>
        <time>2014-12-21T11:37:17Z</time>
      </trkpt>
      <trkpt lat="43.91471" lon="7.30717">
        <ele>1326.0604248047</ele>
        <time>2014-12-21T11:37:22Z</time>
      </trkpt>
      <trkpt lat="43.9147" lon="7.3072">
        <ele>1325.150390625</ele>
        <time>2014-12-21T11:37:31Z</time>
      </trkpt>
      <trkpt lat="43.91472" lon="7.30722">
        <ele>1324.1506347656</ele>
        <time>2014-12-21T11:37:46Z</time>
      </trkpt>
      <trkpt lat="43.91471" lon="7.30723">
        <ele>1323.7697753906</ele>
        <time>2014-12-21T11:37:58Z</time>
      </trkpt>
      <trkpt lat="43.91473" lon="7.30725">
        <ele>1322.0932617188</ele>
        <time>2014-12-21T11:38:04Z</time>
      </trkpt>
      <trkpt lat="43.91472" lon="7.30729">
        <ele>1320.8800048828</ele>
        <time>2014-12-21T11:38:12Z</time>
      </trkpt>
      <trkpt lat="43.91473" lon="7.30729">
        <ele>1320.0363769531</ele>
        <time>2014-12-21T11:38:15Z</time>
      </trkpt>
      <trkpt lat="43.91472" lon="7.30732">
        <ele>1319.0095214844</ele>
        <time>2014-12-21T11:38:22Z</time>
      </trkpt>
      <trkpt lat="43.9147" lon="7.30733">
        <ele>1319.2093505859</ele>
        <time>2014-12-21T11:38:47Z</time>
      </trkpt>
      <trkpt lat="43.9147" lon="7.30737">
        <ele>1317.1411132812</ele>
        <time>2014-12-21T11:39:04Z</time>
      </trkpt>
      <trkpt lat="43.9147" lon="7.30742">
        <ele>1314.6798095703</ele>
        <time>2014-12-21T11:39:12Z</time>
      </trkpt>
      <trkpt lat="43.91468" lon="7.30744">
        <ele>1314.1708984375</ele>
        <time>2014-12-21T11:39:16Z</time>
      </trkpt>
      <trkpt lat="43.91468" lon="7.30748">
        <ele>1312.4306640625</ele>
        <time>2014-12-21T11:39:21Z</time>
      </trkpt>
      <trkpt lat="43.91469" lon="7.30752">
        <ele>1309.7635498047</ele>
        <time>2014-12-21T11:39:27Z</time>
      </trkpt>
      <trkpt lat="43.91469" lon="7.30755">
        <ele>1307.7268066406</ele>
        <time>2014-12-21T11:39:31Z</time>
      </trkpt>
      <trkpt lat="43.91465" lon="7.3076">
        <ele>1305.6883544922</ele>
        <time>2014-12-21T11:39:37Z</time>
      </trkpt>
      <trkpt lat="43.91467" lon="7.30763">
        <ele>1303.6593017578</ele>
        <time>2014-12-21T11:39:42Z</time>
      </trkpt>
      <trkpt lat="43.9147" lon="7.30765">
        <ele>1301.1300048828</ele>
        <time>2014-12-21T11:39:49Z</time>
      </trkpt>
      <trkpt lat="43.9147" lon="7.30767">
        <ele>1300.17578125</ele>
        <time>2014-12-21T11:39:51Z</time>
      </trkpt>
      <trkpt lat="43.91469" lon="7.30772">
        <ele>1297.6156005859</ele>
        <time>2014-12-21T11:39:58Z</time>
      </trkpt>
      <trkpt lat="43.91471" lon="7.30774">
        <ele>1295.7336425781</ele>
        <time>2014-12-21T11:40:03Z</time>
      </trkpt>
      <trkpt lat="43.91472" lon="7.30776">
        <ele>1293.8358154297</ele>
        <time>2014-12-21T11:40:08Z</time>
      </trkpt>
      <trkpt lat="43.91473" lon="7.3078">
        <ele>1291.7451171875</ele>
        <time>2014-12-21T11:40:14Z</time>
      </trkpt>
      <trkpt lat="43.91471" lon="7.30784">
        <ele>1290.2301025391</ele>
        <time>2014-12-21T11:40:17Z</time>
      </trkpt>
      <trkpt lat="43.91469" lon="7.30789">
        <ele>1288.3353271484</ele>
        <time>2014-12-21T11:40:23Z</time>
      </trkpt>
      <trkpt lat="43.91472" lon="7.30791">
        <ele>1287.0321044922</ele>
        <time>2014-12-21T11:40:29Z</time>
      </trkpt>
      <trkpt lat="43.91471" lon="7.30793">
        <ele>1285.9143066406</ele>
        <time>2014-12-21T11:40:33Z</time>
      </trkpt>
      <trkpt lat="43.91468" lon="7.30796">
        <ele>1285.330078125</ele>
        <time>2014-12-21T11:40:39Z</time>
      </trkpt>
      <trkpt lat="43.91467" lon="7.30798">
        <ele>1284.5075683594</ele>
        <time>2014-12-21T11:40:41Z</time>
      </trkpt>
      <trkpt lat="43.91469" lon="7.30804">
        <ele>1281.4268798828</ele>
        <time>2014-12-21T11:40:48Z</time>
      </trkpt>
      <trkpt lat="43.91473" lon="7.30808">
        <ele>1279.2987060547</ele>
        <time>2014-12-21T11:40:55Z</time>
      </trkpt>
      <trkpt lat="43.91478" lon="7.30811">
        <ele>1278.1468505859</ele>
        <time>2014-12-21T11:41:03Z</time>
      </trkpt>
      <trkpt lat="43.91481" lon="7.30813">
        <ele>1277.1529541016</ele>
        <time>2014-12-21T11:41:08Z</time>
      </trkpt>
      <trkpt lat="43.91485" lon="7.30816">
        <ele>1276.0285644531</ele>
        <time>2014-12-21T11:41:14Z</time>
      </trkpt>
      <trkpt lat="43.91489" lon="7.30818">
        <ele>1275.4294433594</ele>
        <time>2014-12-21T11:41:20Z</time>
      </trkpt>
      <trkpt lat="43.91489" lon="7.3082">
        <ele>1274.8594970703</ele>
        <time>2014-12-21T11:41:30Z</time>
      </trkpt>
      <trkpt lat="43.91495" lon="7.3082">
        <ele>1274.4509277344</ele>
        <time>2014-12-21T11:41:42Z</time>
      </trkpt>
      <trkpt lat="43.915" lon="7.30823">
        <ele>1273.4844970703</ele>
        <time>2014-12-21T11:41:48Z</time>
      </trkpt>
      <trkpt lat="43.91501" lon="7.30824">
        <ele>1272.4562988281</ele>
        <time>2014-12-21T11:41:53Z</time>
      </trkpt>
      <trkpt lat="43.91502" lon="7.30827">
        <ele>1271.3713378906</ele>
        <time>2014-12-21T11:41:58Z</time>
      </trkpt>
      <trkpt lat="43.91505" lon="7.30827">
        <ele>1270.3704833984</ele>
        <time>2014-12-21T11:42:04Z</time>
      </trkpt>
      <trkpt lat="43.91509" lon="7.30828">
        <ele>1268.4953613281</ele>
        <time>2014-12-21T11:42:11Z</time>
      </trkpt>
      <trkpt lat="43.9151" lon="7.30831">
        <ele>1267.3178710938</ele>
        <time>2014-12-21T11:42:18Z</time>
      </trkpt>
      <trkpt lat="43.91509" lon="7.30832">
        <ele>1266.9573974609</ele>
        <time>2014-12-21T11:42:20Z</time>
      </trkpt>
      <trkpt lat="43.91508" lon="7.30835">
        <ele>1266.5535888672</ele>
        <time>2014-12-21T11:42:26Z</time>
      </trkpt>
      <trkpt lat="43.91507" lon="7.30837">
        <ele>1266.0061035156</ele>
        <time>2014-12-21T11:42:31Z</time>
      </trkpt>
      <trkpt lat="43.91505" lon="7.30844">
        <ele>1264.5345458984</ele>
        <time>2014-12-21T11:42:39Z</time>
      </trkpt>
      <trkpt lat="43.91505" lon="7.30849">
        <ele>1262.7309570312</ele>
        <time>2014-12-21T11:42:45Z</time>
      </trkpt>
      <trkpt lat="43.91507" lon="7.30854">
        <ele>1260.5628662109</ele>
        <time>2014-12-21T11:42:50Z</time>
      </trkpt>
      <trkpt lat="43.91509" lon="7.30856">
        <ele>1258.9938964844</ele>
        <time>2014-12-21T11:42:54Z</time>
      </trkpt>
      <trkpt lat="43.9151" lon="7.3086">
        <ele>1257.6649169922</ele>
        <time>2014-12-21T11:42:57Z</time>
      </trkpt>
      <trkpt lat="43.91509" lon="7.30866">
        <ele>1254.9548339844</ele>
        <time>2014-12-21T11:43:01Z</time>
      </trkpt>
      <trkpt lat="43.9151" lon="7.30868">
        <ele>1253.7474365234</ele>
        <time>2014-12-21T11:43:03Z</time>
      </trkpt>
      <trkpt lat="43.91508" lon="7.30875">
        <ele>1250.0859375</ele>
        <time>2014-12-21T11:43:09Z</time>
      </trkpt>
      <trkpt lat="43.91502" lon="7.30884">
        <ele>1245.5593261719</ele>
        <time>2014-12-21T11:43:17Z</time>
      </trkpt>
      <trkpt lat="43.91502" lon="7.30894">
        <ele>1241.1148681641</ele>
        <time>2014-12-21T11:43:24Z</time>
      </trkpt>
      <trkpt lat="43.91503" lon="7.30901">
        <ele>1238.5828857422</ele>
        <time>2014-12-21T11:43:30Z</time>
      </trkpt>
      <trkpt lat="43.91504" lon="7.30914">
        <ele>1233.8726806641</ele>
        <time>2014-12-21T11:43:38Z</time>
      </trkpt>
      <trkpt lat="43.91503" lon="7.30917">
        <ele>1232.9613037109</ele>
        <time>2014-12-21T11:43:40Z</time>
      </trkpt>
      <trkpt lat="43.91504" lon="7.30926">
        <ele>1231.3563232422</ele>
        <time>2014-12-21T11:43:47Z</time>
      </trkpt>
      <trkpt lat="43.91505" lon="7.30931">
        <ele>1230.4893798828</ele>
        <time>2014-12-21T11:43:51Z</time>
      </trkpt>
      <trkpt lat="43.91504" lon="7.30934">
        <ele>1229.8112792969</ele>
        <time>2014-12-21T11:43:54Z</time>
      </trkpt>
      <trkpt lat="43.91505" lon="7.30941">
        <ele>1228.5495605469</ele>
        <time>2014-12-21T11:43:59Z</time>
      </trkpt>
      <trkpt lat="43.91506" lon="7.30957">
        <ele>1224.9273681641</ele>
        <time>2014-12-21T11:44:08Z</time>
      </trkpt>
      <trkpt lat="43.91508" lon="7.30966">
        <ele>1222.9555664062</ele>
        <time>2014-12-21T11:44:15Z</time>
      </trkpt>
      <trkpt lat="43.91513" lon="7.30973">
        <ele>1221.9259033203</ele>
        <time>2014-12-21T11:44:22Z</time>
      </trkpt>
      <trkpt lat="43.91517" lon="7.30975">
        <ele>1222.0272216797</ele>
        <time>2014-12-21T11:44:30Z</time>
      </trkpt>
      <trkpt lat="43.9152" lon="7.30974">
        <ele>1222.3210449219</ele>
        <time>2014-12-21T11:44:37Z</time>
      </trkpt>
      <trkpt lat="43.91522" lon="7.30967">
        <ele>1223.7081298828</ele>
        <time>2014-12-21T11:45:21Z</time>
      </trkpt>
      <trkpt lat="43.91525" lon="7.3096">
        <ele>1225.1010742188</ele>
        <time>2014-12-21T11:45:28Z</time>
      </trkpt>
      <trkpt lat="43.91529" lon="7.30954">
        <ele>1226.0758056641</ele>
        <time>2014-12-21T11:45:35Z</time>
      </trkpt>
      <trkpt lat="43.91534" lon="7.30949">
        <ele>1226.4895019531</ele>
        <time>2014-12-21T11:45:40Z</time>
      </trkpt>
      <trkpt lat="43.91539" lon="7.30941">
        <ele>1227.2962646484</ele>
        <time>2014-12-21T11:45:47Z</time>
      </trkpt>
      <trkpt lat="43.91542" lon="7.30939">
        <ele>1227.4782714844</ele>
        <time>2014-12-21T11:45:49Z</time>
      </trkpt>
      <trkpt lat="43.91547" lon="7.30932">
        <ele>1228.1287841797</ele>
        <time>2014-12-21T11:45:55Z</time>
      </trkpt>
      <trkpt lat="43.91548" lon="7.3093">
        <ele>1228.3485107422</ele>
        <time>2014-12-21T11:45:57Z</time>
      </trkpt>
      <trkpt lat="43.91552" lon="7.30926">
        <ele>1228.7434082031</ele>
        <time>2014-12-21T11:46:01Z</time>
      </trkpt>
      <trkpt lat="43.91557" lon="7.30918">
        <ele>1229.4974365234</ele>
        <time>2014-12-21T11:46:08Z</time>
      </trkpt>
      <trkpt lat="43.91561" lon="7.30911">
        <ele>1229.3074951172</ele>
        <time>2014-12-21T11:46:14Z</time>
      </trkpt>
      <trkpt lat="43.91567" lon="7.30899">
        <ele>1229.5925292969</ele>
        <time>2014-12-21T11:46:22Z</time>
      </trkpt>
      <trkpt lat="43.9157" lon="7.30891">
        <ele>1230.5194091797</ele>
        <time>2014-12-21T11:46:28Z</time>
      </trkpt>
      <trkpt lat="43.91573" lon="7.30883">
        <ele>1231.1728515625</ele>
        <time>2014-12-21T11:46:33Z</time>
      </trkpt>
      <trkpt lat="43.91576" lon="7.30877">
        <ele>1231.1898193359</ele>
        <time>2014-12-21T11:46:37Z</time>
      </trkpt>
      <trkpt lat="43.9158" lon="7.30873">
        <ele>1230.7288818359</ele>
        <time>2014-12-21T11:46:43Z</time>
      </trkpt>
      <trkpt lat="43.91587" lon="7.30865">
        <ele>1230.1614990234</ele>
        <time>2014-12-21T11:46:50Z</time>
      </trkpt>
      <trkpt lat="43.91591" lon="7.30856">
        <ele>1230.5609130859</ele>
        <time>2014-12-21T11:46:57Z</time>
      </trkpt>
      <trkpt lat="43.91592" lon="7.30855">
        <ele>1230.7944335938</ele>
        <time>2014-12-21T11:46:58Z</time>
      </trkpt>
      <trkpt lat="43.91593" lon="7.30851">
        <ele>1230.9300537109</ele>
        <time>2014-12-21T11:47:00Z</time>
      </trkpt>
      <trkpt lat="43.91603" lon="7.30836">
        <ele>1230.9558105469</ele>
        <time>2014-12-21T11:47:10Z</time>
      </trkpt>
      <trkpt lat="43.91606" lon="7.30834">
        <ele>1230.3686523438</ele>
        <time>2014-12-21T11:47:12Z</time>
      </trkpt>
      <trkpt lat="43.91612" lon="7.3082">
        <ele>1231.1447753906</ele>
        <time>2014-12-21T11:47:21Z</time>
      </trkpt>
      <trkpt lat="43.91615" lon="7.30808">
        <ele>1232.1873779297</ele>
        <time>2014-12-21T11:47:29Z</time>
      </trkpt>
      <trkpt lat="43.91618" lon="7.30795">
        <ele>1233.572265625</ele>
        <time>2014-12-21T11:47:37Z</time>
      </trkpt>
      <trkpt lat="43.91621" lon="7.3078">
        <ele>1235.3215332031</ele>
        <time>2014-12-21T11:47:46Z</time>
      </trkpt>
      <trkpt lat="43.91627" lon="7.3077">
        <ele>1235.7197265625</ele>
        <time>2014-12-21T11:47:52Z</time>
      </trkpt>
      <trkpt lat="43.91629" lon="7.30768">
        <ele>1235.6298828125</ele>
        <time>2014-12-21T11:47:54Z</time>
      </trkpt>
      <trkpt lat="43.91631" lon="7.30759">
        <ele>1237.2463378906</ele>
        <time>2014-12-21T11:47:59Z</time>
      </trkpt>
      <trkpt lat="43.91631" lon="7.30755">
        <ele>1238.1151123047</ele>
        <time>2014-12-21T11:48:02Z</time>
      </trkpt>
      <trkpt lat="43.91634" lon="7.30749">
        <ele>1238.52734375</ele>
        <time>2014-12-21T11:48:06Z</time>
      </trkpt>
      <trkpt lat="43.91636" lon="7.30739">
        <ele>1238.8431396484</ele>
        <time>2014-12-21T11:48:12Z</time>
      </trkpt>
      <trkpt lat="43.91646" lon="7.30724">
        <ele>1237.0970458984</ele>
        <time>2014-12-21T11:48:23Z</time>
      </trkpt>
      <trkpt lat="43.91659" lon="7.30713">
        <ele>1234.4350585938</ele>
        <time>2014-12-21T11:48:33Z</time>
      </trkpt>
      <trkpt lat="43.91662" lon="7.30709">
        <ele>1234.0177001953</ele>
        <time>2014-12-21T11:48:36Z</time>
      </trkpt>
      <trkpt lat="43.91666" lon="7.30703">
        <ele>1233.5972900391</ele>
        <time>2014-12-21T11:48:41Z</time>
      </trkpt>
      <trkpt lat="43.91669" lon="7.30695">
        <ele>1233.4248046875</ele>
        <time>2014-12-21T11:48:46Z</time>
      </trkpt>
      <trkpt lat="43.91673" lon="7.30687">
        <ele>1233.1474609375</ele>
        <time>2014-12-21T11:48:52Z</time>
      </trkpt>
      <trkpt lat="43.91678" lon="7.30678">
        <ele>1231.2060546875</ele>
        <time>2014-12-21T11:48:58Z</time>
      </trkpt>
      <trkpt lat="43.91683" lon="7.30673">
        <ele>1229.2119140625</ele>
        <time>2014-12-21T11:49:02Z</time>
      </trkpt>
      <trkpt lat="43.91689" lon="7.3067">
        <ele>1226.201171875</ele>
        <time>2014-12-21T11:49:06Z</time>
      </trkpt>
      <trkpt lat="43.9169" lon="7.30661">
        <ele>1226.2484130859</ele>
        <time>2014-12-21T11:49:11Z</time>
      </trkpt>
      <trkpt lat="43.9169" lon="7.30652">
        <ele>1227.5461425781</ele>
        <time>2014-12-21T11:49:17Z</time>
      </trkpt>
      <trkpt lat="43.91693" lon="7.30639">
        <ele>1227.9719238281</ele>
        <time>2014-12-21T11:49:24Z</time>
      </trkpt>
      <trkpt lat="43.91693" lon="7.30632">
        <ele>1228.2991943359</ele>
        <time>2014-12-21T11:49:28Z</time>
      </trkpt>
      <trkpt lat="43.91694" lon="7.30626">
        <ele>1228.4760742188</ele>
        <time>2014-12-21T11:49:31Z</time>
      </trkpt>
      <trkpt lat="43.91702" lon="7.30617">
        <ele>1226.80078125</ele>
        <time>2014-12-21T11:49:37Z</time>
      </trkpt>
      <trkpt lat="43.91701" lon="7.30605">
        <ele>1228.3199462891</ele>
        <time>2014-12-21T11:49:44Z</time>
      </trkpt>
      <trkpt lat="43.917" lon="7.30599">
        <ele>1229.0114746094</ele>
        <time>2014-12-21T11:49:47Z</time>
      </trkpt>
      <trkpt lat="43.91703" lon="7.30589">
        <ele>1228.7702636719</ele>
        <time>2014-12-21T11:49:52Z</time>
      </trkpt>
      <trkpt lat="43.91706" lon="7.30576">
        <ele>1228.6357421875</ele>
        <time>2014-12-21T11:50:00Z</time>
      </trkpt>
      <trkpt lat="43.91707" lon="7.30572">
        <ele>1228.6628417969</ele>
        <time>2014-12-21T11:50:02Z</time>
      </trkpt>
      <trkpt lat="43.91707" lon="7.30568">
        <ele>1228.9067382812</ele>
        <time>2014-12-21T11:50:05Z</time>
      </trkpt>
      <trkpt lat="43.91712" lon="7.30555">
        <ele>1227.7772216797</ele>
        <time>2014-12-21T11:50:14Z</time>
      </trkpt>
      <trkpt lat="43.91714" lon="7.30542">
        <ele>1228.2662353516</ele>
        <time>2014-12-21T11:50:21Z</time>
      </trkpt>
      <trkpt lat="43.91712" lon="7.30528">
        <ele>1230.4176025391</ele>
        <time>2014-12-21T11:50:29Z</time>
      </trkpt>
      <trkpt lat="43.91712" lon="7.30515">
        <ele>1231.0942382812</ele>
        <time>2014-12-21T11:50:37Z</time>
      </trkpt>
      <trkpt lat="43.91713" lon="7.30509">
        <ele>1230.6788330078</ele>
        <time>2014-12-21T11:50:41Z</time>
      </trkpt>
      <trkpt lat="43.91713" lon="7.305">
        <ele>1230.8150634766</ele>
        <time>2014-12-21T11:50:47Z</time>
      </trkpt>
      <trkpt lat="43.91712" lon="7.30489">
        <ele>1232.2330322266</ele>
        <time>2014-12-21T11:50:53Z</time>
      </trkpt>
      <trkpt lat="43.91708" lon="7.30472">
        <ele>1235.7133789062</ele>
        <time>2014-12-21T11:51:02Z</time>
      </trkpt>
      <trkpt lat="43.91705" lon="7.30462">
        <ele>1238.1147460938</ele>
        <time>2014-12-21T11:51:08Z</time>
      </trkpt>
      <trkpt lat="43.91706" lon="7.30452">
        <ele>1238.4154052734</ele>
        <time>2014-12-21T11:51:15Z</time>
      </trkpt>
      <trkpt lat="43.91707" lon="7.3045">
        <ele>1238.3262939453</ele>
        <time>2014-12-21T11:51:16Z</time>
      </trkpt>
      <trkpt lat="43.91706" lon="7.30447">
        <ele>1238.8383789062</ele>
        <time>2014-12-21T11:51:18Z</time>
      </trkpt>
      <trkpt lat="43.91706" lon="7.30441">
        <ele>1239.31640625</ele>
        <time>2014-12-21T11:51:22Z</time>
      </trkpt>
      <trkpt lat="43.91705" lon="7.30434">
        <ele>1240.7069091797</ele>
        <time>2014-12-21T11:51:26Z</time>
      </trkpt>
      <trkpt lat="43.91703" lon="7.30422">
        <ele>1242.8973388672</ele>
        <time>2014-12-21T11:51:33Z</time>
      </trkpt>
      <trkpt lat="43.91701" lon="7.30409">
        <ele>1245.0823974609</ele>
        <time>2014-12-21T11:51:40Z</time>
      </trkpt>
      <trkpt lat="43.91698" lon="7.30395">
        <ele>1248.0657958984</ele>
        <time>2014-12-21T11:51:48Z</time>
      </trkpt>
      <trkpt lat="43.91698" lon="7.30381">
        <ele>1248.9013671875</ele>
        <time>2014-12-21T11:51:55Z</time>
      </trkpt>
      <trkpt lat="43.91701" lon="7.3037">
        <ele>1247.8487548828</ele>
        <time>2014-12-21T11:52:01Z</time>
      </trkpt>
      <trkpt lat="43.91704" lon="7.30365">
        <ele>1246.3995361328</ele>
        <time>2014-12-21T11:52:04Z</time>
      </trkpt>
      <trkpt lat="43.91708" lon="7.30352">
        <ele>1243.4721679688</ele>
        <time>2014-12-21T11:52:11Z</time>
      </trkpt>
      <trkpt lat="43.91719" lon="7.3034">
        <ele>1236.4272460938</ele>
        <time>2014-12-21T11:52:18Z</time>
      </trkpt>
      <trkpt lat="43.91723" lon="7.30332">
        <ele>1233.5969238281</ele>
        <time>2014-12-21T11:52:24Z</time>
      </trkpt>
      <trkpt lat="43.91725" lon="7.30325">
        <ele>1232.0078125</ele>
        <time>2014-12-21T11:52:30Z</time>
      </trkpt>
      <trkpt lat="43.91725" lon="7.30313">
        <ele>1232.0241699219</ele>
        <time>2014-12-21T11:52:37Z</time>
      </trkpt>
      <trkpt lat="43.91725" lon="7.30308">
        <ele>1231.6148681641</ele>
        <time>2014-12-21T11:52:41Z</time>
      </trkpt>
      <trkpt lat="43.91726" lon="7.30304">
        <ele>1231.0295410156</ele>
        <time>2014-12-21T11:52:43Z</time>
      </trkpt>
      <trkpt lat="43.91723" lon="7.30294">
        <ele>1230.6600341797</ele>
        <time>2014-12-21T11:52:50Z</time>
      </trkpt>
      <trkpt lat="43.91724" lon="7.30286">
        <ele>1228.2775878906</ele>
        <time>2014-12-21T11:52:56Z</time>
      </trkpt>
      <trkpt lat="43.91724" lon="7.30282">
        <ele>1227.6024169922</ele>
        <time>2014-12-21T11:52:58Z</time>
      </trkpt>
      <trkpt lat="43.91724" lon="7.30268">
        <ele>1224.6192626953</ele>
        <time>2014-12-21T11:53:06Z</time>
      </trkpt>
      <trkpt lat="43.9172" lon="7.30262">
        <ele>1225.4639892578</ele>
        <time>2014-12-21T11:53:10Z</time>
      </trkpt>
      <trkpt lat="43.9172" lon="7.30255">
        <ele>1224.0401611328</ele>
        <time>2014-12-21T11:53:14Z</time>
      </trkpt>
      <trkpt lat="43.91715" lon="7.30248">
        <ele>1224.4401855469</ele>
        <time>2014-12-21T11:53:18Z</time>
      </trkpt>
      <trkpt lat="43.91706" lon="7.30242">
        <ele>1226.4505615234</ele>
        <time>2014-12-21T11:53:25Z</time>
      </trkpt>
      <trkpt lat="43.91696" lon="7.30228">
        <ele>1227.6612548828</ele>
        <time>2014-12-21T11:53:33Z</time>
      </trkpt>
      <trkpt lat="43.9169" lon="7.30224">
        <ele>1229.5992431641</ele>
        <time>2014-12-21T11:53:38Z</time>
      </trkpt>
      <trkpt lat="43.91687" lon="7.3022">
        <ele>1229.7420654297</ele>
        <time>2014-12-21T11:53:42Z</time>
      </trkpt>
      <trkpt lat="43.91682" lon="7.30212">
        <ele>1230.1237792969</ele>
        <time>2014-12-21T11:53:50Z</time>
      </trkpt>
      <trkpt lat="43.9168" lon="7.30208">
        <ele>1229.5853271484</ele>
        <time>2014-12-21T11:53:56Z</time>
      </trkpt>
      <trkpt lat="43.91679" lon="7.30206">
        <ele>1229.2065429688</ele>
        <time>2014-12-21T11:53:58Z</time>
      </trkpt>
      <trkpt lat="43.91676" lon="7.30198">
        <ele>1228.4197998047</ele>
        <time>2014-12-21T11:54:04Z</time>
      </trkpt>
      <trkpt lat="43.91668" lon="7.30188">
        <ele>1227.8459472656</ele>
        <time>2014-12-21T11:54:12Z</time>
      </trkpt>
      <trkpt lat="43.91667" lon="7.30186">
        <ele>1227.6909179688</ele>
        <time>2014-12-21T11:54:14Z</time>
      </trkpt>
      <trkpt lat="43.91665" lon="7.30179">
        <ele>1226.2800292969</ele>
        <time>2014-12-21T11:54:18Z</time>
      </trkpt>
      <trkpt lat="43.91662" lon="7.30173">
        <ele>1225.0858154297</ele>
        <time>2014-12-21T11:54:22Z</time>
      </trkpt>
      <trkpt lat="43.91655" lon="7.30166">
        <ele>1225.4428710938</ele>
        <time>2014-12-21T11:54:29Z</time>
      </trkpt>
      <trkpt lat="43.91647" lon="7.3016">
        <ele>1226.3697509766</ele>
        <time>2014-12-21T11:54:36Z</time>
      </trkpt>
      <trkpt lat="43.91642" lon="7.30153">
        <ele>1225.5561523438</ele>
        <time>2014-12-21T11:54:42Z</time>
      </trkpt>
      <trkpt lat="43.91633" lon="7.30144">
        <ele>1225.732421875</ele>
        <time>2014-12-21T11:54:49Z</time>
      </trkpt>
      <trkpt lat="43.91624" lon="7.30142">
        <ele>1228.4025878906</ele>
        <time>2014-12-21T11:54:55Z</time>
      </trkpt>
      <trkpt lat="43.91613" lon="7.30139">
        <ele>1231.1402587891</ele>
        <time>2014-12-21T11:55:02Z</time>
      </trkpt>
      <trkpt lat="43.91612" lon="7.30138">
        <ele>1231.5865478516</ele>
        <time>2014-12-21T11:55:03Z</time>
      </trkpt>
      <trkpt lat="43.91603" lon="7.30136">
        <ele>1233.3781738281</ele>
        <time>2014-12-21T11:55:10Z</time>
      </trkpt>
      <trkpt lat="43.91593" lon="7.30139">
        <ele>1237.05859375</ele>
        <time>2014-12-21T11:55:17Z</time>
      </trkpt>
      <trkpt lat="43.91584" lon="7.3014">
        <ele>1240.3104248047</ele>
        <time>2014-12-21T11:55:24Z</time>
      </trkpt>
      <trkpt lat="43.91578" lon="7.30137">
        <ele>1241.0780029297</ele>
        <time>2014-12-21T11:55:29Z</time>
      </trkpt>
      <trkpt lat="43.91573" lon="7.30132">
        <ele>1240.7509765625</ele>
        <time>2014-12-21T11:55:36Z</time>
      </trkpt>
      <trkpt lat="43.91567" lon="7.30127">
        <ele>1240.7631835938</ele>
        <time>2014-12-21T11:55:44Z</time>
      </trkpt>
      <trkpt lat="43.91564" lon="7.30114">
        <ele>1237.9202880859</ele>
        <time>2014-12-21T11:55:51Z</time>
      </trkpt>
      <trkpt lat="43.91562" lon="7.30103">
        <ele>1235.4875488281</ele>
        <time>2014-12-21T11:55:57Z</time>
      </trkpt>
      <trkpt lat="43.91553" lon="7.3009">
        <ele>1234.2268066406</ele>
        <time>2014-12-21T11:56:06Z</time>
      </trkpt>
      <trkpt lat="43.91549" lon="7.30081">
        <ele>1232.7717285156</ele>
        <time>2014-12-21T11:56:11Z</time>
      </trkpt>
      <trkpt lat="43.91544" lon="7.30072">
        <ele>1230.9593505859</ele>
        <time>2014-12-21T11:56:17Z</time>
      </trkpt>
      <trkpt lat="43.91541" lon="7.30061">
        <ele>1228.7774658203</ele>
        <time>2014-12-21T11:56:23Z</time>
      </trkpt>
      <trkpt lat="43.91532" lon="7.3005">
        <ele>1228.5085449219</ele>
        <time>2014-12-21T11:56:31Z</time>
      </trkpt>
      <trkpt lat="43.91524" lon="7.30035">
        <ele>1227.6625976562</ele>
        <time>2014-12-21T11:56:41Z</time>
      </trkpt>
      <trkpt lat="43.91518" lon="7.30025">
        <ele>1227.7785644531</ele>
        <time>2014-12-21T11:56:48Z</time>
      </trkpt>
      <trkpt lat="43.91511" lon="7.30014">
        <ele>1229.4822998047</ele>
        <time>2014-12-21T11:56:57Z</time>
      </trkpt>
      <trkpt lat="43.91505" lon="7.30005">
        <ele>1230.7614746094</ele>
        <time>2014-12-21T11:57:05Z</time>
      </trkpt>
      <trkpt lat="43.91501" lon="7.29997">
        <ele>1232.30859375</ele>
        <time>2014-12-21T11:57:11Z</time>
      </trkpt>
      <trkpt lat="43.91497" lon="7.29989">
        <ele>1234.921875</ele>
        <time>2014-12-21T11:57:18Z</time>
      </trkpt>
      <trkpt lat="43.91496" lon="7.29985">
        <ele>1236.2727050781</ele>
        <time>2014-12-21T11:57:22Z</time>
      </trkpt>
      <trkpt lat="43.91495" lon="7.29983">
        <ele>1236.8413085938</ele>
        <time>2014-12-21T11:57:24Z</time>
      </trkpt>
      <trkpt lat="43.91496" lon="7.29976">
        <ele>1237.9484863281</ele>
        <time>2014-12-21T11:57:29Z</time>
      </trkpt>
      <trkpt lat="43.91496" lon="7.2997">
        <ele>1239.0240478516</ele>
        <time>2014-12-21T11:57:36Z</time>
      </trkpt>
      <trkpt lat="43.91498" lon="7.29965">
        <ele>1239.4702148438</ele>
        <time>2014-12-21T11:57:43Z</time>
      </trkpt>
      <trkpt lat="43.91501" lon="7.29957">
        <ele>1240.5428466797</ele>
        <time>2014-12-21T11:57:49Z</time>
      </trkpt>
      <trkpt lat="43.91504" lon="7.29953">
        <ele>1240.9754638672</ele>
        <time>2014-12-21T11:57:53Z</time>
      </trkpt>
      <trkpt lat="43.91506" lon="7.29942">
        <ele>1243.1160888672</ele>
        <time>2014-12-21T11:58:02Z</time>
      </trkpt>
      <trkpt lat="43.91508" lon="7.29931">
        <ele>1245.2145996094</ele>
        <time>2014-12-21T11:58:12Z</time>
      </trkpt>
      <trkpt lat="43.91511" lon="7.29922">
        <ele>1246.7667236328</ele>
        <time>2014-12-21T11:58:20Z</time>
      </trkpt>
      <trkpt lat="43.91513" lon="7.29916">
        <ele>1247.7734375</ele>
        <time>2014-12-21T11:58:28Z</time>
      </trkpt>
      <trkpt lat="43.91514" lon="7.29913">
        <ele>1247.7908935547</ele>
        <time>2014-12-21T11:58:33Z</time>
      </trkpt>
      <trkpt lat="43.91515" lon="7.29906">
        <ele>1248.1276855469</ele>
        <time>2014-12-21T11:58:41Z</time>
      </trkpt>
      <trkpt lat="43.91515" lon="7.29903">
        <ele>1248.568359375</ele>
        <time>2014-12-21T11:58:44Z</time>
      </trkpt>
      <trkpt lat="43.91514" lon="7.29891">
        <ele>1249.6989746094</ele>
        <time>2014-12-21T11:58:55Z</time>
      </trkpt>
      <trkpt lat="43.91515" lon="7.29886">
        <ele>1249.431640625</ele>
        <time>2014-12-21T11:59:01Z</time>
      </trkpt>
      <trkpt lat="43.91515" lon="7.2988">
        <ele>1249.0224609375</ele>
        <time>2014-12-21T11:59:07Z</time>
      </trkpt>
      <trkpt lat="43.91515" lon="7.29877">
        <ele>1248.7947998047</ele>
        <time>2014-12-21T11:59:11Z</time>
      </trkpt>
      <trkpt lat="43.91516" lon="7.29868">
        <ele>1247.7829589844</ele>
        <time>2014-12-21T11:59:20Z</time>
      </trkpt>
      <trkpt lat="43.91518" lon="7.29858">
        <ele>1246.4307861328</ele>
        <time>2014-12-21T11:59:28Z</time>
      </trkpt>
      <trkpt lat="43.91518" lon="7.29854">
        <ele>1245.85546875</ele>
        <time>2014-12-21T11:59:31Z</time>
      </trkpt>
      <trkpt lat="43.91521" lon="7.29842">
        <ele>1243.8082275391</ele>
        <time>2014-12-21T11:59:41Z</time>
      </trkpt>
      <trkpt lat="43.91521" lon="7.29829">
        <ele>1242.4899902344</ele>
        <time>2014-12-21T11:59:50Z</time>
      </trkpt>
      <trkpt lat="43.91522" lon="7.29825">
        <ele>1242.0671386719</ele>
        <time>2014-12-21T11:59:55Z</time>
      </trkpt>
      <trkpt lat="43.91522" lon="7.29821">
        <ele>1241.6652832031</ele>
        <time>2014-12-21T12:00:17Z</time>
      </trkpt>
      <trkpt lat="43.91523" lon="7.29817">
        <ele>1241.2768554688</ele>
        <time>2014-12-21T12:00:23Z</time>
      </trkpt>
      <trkpt lat="43.91524" lon="7.29821">
        <ele>1241.4631347656</ele>
        <time>2014-12-21T12:01:12Z</time>
      </trkpt>
      <trkpt lat="43.91519" lon="7.29824">
        <ele>1242.2978515625</ele>
        <time>2014-12-21T12:01:17Z</time>
      </trkpt>
      <trkpt lat="43.91517" lon="7.29828">
        <ele>1242.9100341797</ele>
        <time>2014-12-21T12:01:21Z</time>
      </trkpt>
      <trkpt lat="43.91513" lon="7.29829">
        <ele>1243.5504150391</ele>
        <time>2014-12-21T12:01:27Z</time>
      </trkpt>
      <trkpt lat="43.91513" lon="7.29829">
        <ele>1243.5798339844</ele>
        <time>2014-12-21T12:02:16Z</time>
      </trkpt>
      <trkpt lat="43.91515" lon="7.29824">
        <ele>1242.6693115234</ele>
        <time>2014-12-21T12:02:20Z</time>
      </trkpt>
      <trkpt lat="43.91518" lon="7.29818">
        <ele>1241.7296142578</ele>
        <time>2014-12-21T12:02:27Z</time>
      </trkpt>
      <trkpt lat="43.91519" lon="7.29818">
        <ele>1241.6662597656</ele>
        <time>2014-12-21T12:02:36Z</time>
      </trkpt>
      <trkpt lat="43.91518" lon="7.29818">
        <ele>1241.708984375</ele>
        <time>2014-12-21T12:21:35Z</time>
      </trkpt>
      <trkpt lat="43.91522" lon="7.29818">
        <ele>1241.3984375</ele>
        <time>2014-12-21T12:46:37Z</time>
      </trkpt>
      <trkpt lat="43.91522" lon="7.29815">
        <ele>1241.0849609375</ele>
        <time>2014-12-21T12:47:33Z</time>
      </trkpt>
      <trkpt lat="43.91522" lon="7.29814">
        <ele>1241.0628662109</ele>
        <time>2014-12-21T12:47:47Z</time>
      </trkpt>
      <trkpt lat="43.91515" lon="7.29809">
        <ele>1240.9110107422</ele>
        <time>2014-12-21T12:47:55Z</time>
      </trkpt>
      <trkpt lat="43.9151" lon="7.29805">
        <ele>1240.4714355469</ele>
        <time>2014-12-21T12:48:02Z</time>
      </trkpt>
      <trkpt lat="43.91509" lon="7.29804">
        <ele>1240.2482910156</ele>
        <time>2014-12-21T12:48:05Z</time>
      </trkpt>
      <trkpt lat="43.91503" lon="7.298">
        <ele>1239.3707275391</ele>
        <time>2014-12-21T12:48:13Z</time>
      </trkpt>
      <trkpt lat="43.91497" lon="7.29795">
        <ele>1237.9893798828</ele>
        <time>2014-12-21T12:48:20Z</time>
      </trkpt>
      <trkpt lat="43.91497" lon="7.29794">
        <ele>1237.7156982422</ele>
        <time>2014-12-21T12:48:24Z</time>
      </trkpt>
      <trkpt lat="43.91489" lon="7.29791">
        <ele>1237.1182861328</ele>
        <time>2014-12-21T12:48:31Z</time>
      </trkpt>
      <trkpt lat="43.91478" lon="7.29786">
        <ele>1235.8337402344</ele>
        <time>2014-12-21T12:48:40Z</time>
      </trkpt>
      <trkpt lat="43.91469" lon="7.29783">
        <ele>1235.5778808594</ele>
        <time>2014-12-21T12:48:47Z</time>
      </trkpt>
      <trkpt lat="43.91465" lon="7.29782">
        <ele>1235.6197509766</ele>
        <time>2014-12-21T12:48:54Z</time>
      </trkpt>
      <trkpt lat="43.91459" lon="7.2977">
        <ele>1232.8503417969</ele>
        <time>2014-12-21T12:49:03Z</time>
      </trkpt>
      <trkpt lat="43.9146" lon="7.29765">
        <ele>1231.6778564453</ele>
        <time>2014-12-21T12:49:06Z</time>
      </trkpt>
      <trkpt lat="43.91461" lon="7.29756">
        <ele>1229.33984375</ele>
        <time>2014-12-21T12:49:12Z</time>
      </trkpt>
      <trkpt lat="43.91459" lon="7.29748">
        <ele>1227.3494873047</ele>
        <time>2014-12-21T12:49:18Z</time>
      </trkpt>
      <trkpt lat="43.91458" lon="7.2974">
        <ele>1224.9565429688</ele>
        <time>2014-12-21T12:49:24Z</time>
      </trkpt>
      <trkpt lat="43.91455" lon="7.29735">
        <ele>1223.3754882812</ele>
        <time>2014-12-21T12:49:27Z</time>
      </trkpt>
      <trkpt lat="43.91449" lon="7.29729">
        <ele>1221.9421386719</ele>
        <time>2014-12-21T12:49:34Z</time>
      </trkpt>
      <trkpt lat="43.91447" lon="7.29723">
        <ele>1220.1053466797</ele>
        <time>2014-12-21T12:49:40Z</time>
      </trkpt>
      <trkpt lat="43.91446" lon="7.2972">
        <ele>1219.2497558594</ele>
        <time>2014-12-21T12:49:42Z</time>
      </trkpt>
      <trkpt lat="43.91441" lon="7.29717">
        <ele>1218.8045654297</ele>
        <time>2014-12-21T12:49:46Z</time>
      </trkpt>
      <trkpt lat="43.91433" lon="7.29714">
        <ele>1218.1544189453</ele>
        <time>2014-12-21T12:49:52Z</time>
      </trkpt>
      <trkpt lat="43.9143" lon="7.29707">
        <ele>1216.7384033203</ele>
        <time>2014-12-21T12:49:56Z</time>
      </trkpt>
      <trkpt lat="43.91423" lon="7.29704">
        <ele>1216.3255615234</ele>
        <time>2014-12-21T12:50:03Z</time>
      </trkpt>
      <trkpt lat="43.91417" lon="7.29697">
        <ele>1215.3890380859</ele>
        <time>2014-12-21T12:50:10Z</time>
      </trkpt>
      <trkpt lat="43.91411" lon="7.29693">
        <ele>1213.8067626953</ele>
        <time>2014-12-21T12:50:16Z</time>
      </trkpt>
      <trkpt lat="43.91406" lon="7.29695">
        <ele>1213.1984863281</ele>
        <time>2014-12-21T12:50:20Z</time>
      </trkpt>
      <trkpt lat="43.91403" lon="7.29697">
        <ele>1212.9351806641</ele>
        <time>2014-12-21T12:50:23Z</time>
      </trkpt>
      <trkpt lat="43.91397" lon="7.29698">
        <ele>1212.0794677734</ele>
        <time>2014-12-21T12:50:29Z</time>
      </trkpt>
      <trkpt lat="43.91391" lon="7.29696">
        <ele>1210.8464355469</ele>
        <time>2014-12-21T12:50:33Z</time>
      </trkpt>
      <trkpt lat="43.91391" lon="7.29696">
        <ele>1210.6192626953</ele>
        <time>2014-12-21T12:50:34Z</time>
      </trkpt>
      <trkpt lat="43.91383" lon="7.29692">
        <ele>1209.7307128906</ele>
        <time>2014-12-21T12:50:39Z</time>
      </trkpt>
      <trkpt lat="43.91378" lon="7.2969">
        <ele>1209.3922119141</ele>
        <time>2014-12-21T12:50:45Z</time>
      </trkpt>
      <trkpt lat="43.9137" lon="7.29686">
        <ele>1208.4482421875</ele>
        <time>2014-12-21T12:50:52Z</time>
      </trkpt>
      <trkpt lat="43.91368" lon="7.29687">
        <ele>1208.796875</ele>
        <time>2014-12-21T12:50:55Z</time>
      </trkpt>
      <trkpt lat="43.91359" lon="7.29679">
        <ele>1207.2041015625</ele>
        <time>2014-12-21T12:51:03Z</time>
      </trkpt>
      <trkpt lat="43.91348" lon="7.29673">
        <ele>1209.6520996094</ele>
        <time>2014-12-21T12:51:12Z</time>
      </trkpt>
      <trkpt lat="43.9134" lon="7.2967">
        <ele>1212.1278076172</ele>
        <time>2014-12-21T12:51:20Z</time>
      </trkpt>
      <trkpt lat="43.91335" lon="7.29667">
        <ele>1213.31640625</ele>
        <time>2014-12-21T12:51:25Z</time>
      </trkpt>
      <trkpt lat="43.91333" lon="7.29662">
        <ele>1212.9650878906</ele>
        <time>2014-12-21T12:51:29Z</time>
      </trkpt>
      <trkpt lat="43.91325" lon="7.29657">
        <ele>1214.5270996094</ele>
        <time>2014-12-21T12:51:36Z</time>
      </trkpt>
      <trkpt lat="43.91323" lon="7.29657">
        <ele>1215.1419677734</ele>
        <time>2014-12-21T12:51:38Z</time>
      </trkpt>
      <trkpt lat="43.91322" lon="7.29655">
        <ele>1215.4619140625</ele>
        <time>2014-12-21T12:51:40Z</time>
      </trkpt>
      <trkpt lat="43.91313" lon="7.29652">
        <ele>1217.4068603516</ele>
        <time>2014-12-21T12:51:48Z</time>
      </trkpt>
      <trkpt lat="43.91305" lon="7.29647">
        <ele>1218.5358886719</ele>
        <time>2014-12-21T12:51:56Z</time>
      </trkpt>
      <trkpt lat="43.91296" lon="7.29645">
        <ele>1219.8131103516</ele>
        <time>2014-12-21T12:52:04Z</time>
      </trkpt>
      <trkpt lat="43.9129" lon="7.2964">
        <ele>1219.8680419922</ele>
        <time>2014-12-21T12:52:11Z</time>
      </trkpt>
      <trkpt lat="43.91283" lon="7.29635">
        <ele>1219.3098144531</ele>
        <time>2014-12-21T12:52:18Z</time>
      </trkpt>
      <trkpt lat="43.91276" lon="7.29632">
        <ele>1219.0971679688</ele>
        <time>2014-12-21T12:52:24Z</time>
      </trkpt>
      <trkpt lat="43.91269" lon="7.2963">
        <ele>1217.5766601562</ele>
        <time>2014-12-21T12:52:31Z</time>
      </trkpt>
      <trkpt lat="43.91264" lon="7.2963">
        <ele>1216.8452148438</ele>
        <time>2014-12-21T12:52:35Z</time>
      </trkpt>
      <trkpt lat="43.91255" lon="7.29631">
        <ele>1216.4764404297</ele>
        <time>2014-12-21T12:52:43Z</time>
      </trkpt>
      <trkpt lat="43.91246" lon="7.29631">
        <ele>1214.7619628906</ele>
        <time>2014-12-21T12:52:51Z</time>
      </trkpt>
      <trkpt lat="43.91237" lon="7.29632">
        <ele>1212.3813476562</ele>
        <time>2014-12-21T12:52:59Z</time>
      </trkpt>
      <trkpt lat="43.9123" lon="7.29641">
        <ele>1215.0555419922</ele>
        <time>2014-12-21T12:53:06Z</time>
      </trkpt>
      <trkpt lat="43.91223" lon="7.29649">
        <ele>1216.0897216797</ele>
        <time>2014-12-21T12:53:14Z</time>
      </trkpt>
      <trkpt lat="43.91217" lon="7.29655">
        <ele>1216.69921875</ele>
        <time>2014-12-21T12:53:20Z</time>
      </trkpt>
      <trkpt lat="43.91214" lon="7.2966">
        <ele>1217.7644042969</ele>
        <time>2014-12-21T12:53:24Z</time>
      </trkpt>
      <trkpt lat="43.91208" lon="7.29667">
        <ele>1218.9161376953</ele>
        <time>2014-12-21T12:53:31Z</time>
      </trkpt>
      <trkpt lat="43.91202" lon="7.2967">
        <ele>1218.2916259766</ele>
        <time>2014-12-21T12:53:37Z</time>
      </trkpt>
      <trkpt lat="43.91197" lon="7.2967">
        <ele>1217.0047607422</ele>
        <time>2014-12-21T12:53:41Z</time>
      </trkpt>
      <trkpt lat="43.91187" lon="7.29672">
        <ele>1213.5270996094</ele>
        <time>2014-12-21T12:53:48Z</time>
      </trkpt>
      <trkpt lat="43.91185" lon="7.29673">
        <ele>1213.6108398438</ele>
        <time>2014-12-21T12:53:49Z</time>
      </trkpt>
      <trkpt lat="43.91177" lon="7.29679">
        <ele>1212.4677734375</ele>
        <time>2014-12-21T12:53:55Z</time>
      </trkpt>
      <trkpt lat="43.91168" lon="7.29683">
        <ele>1211.0227050781</ele>
        <time>2014-12-21T12:54:02Z</time>
      </trkpt>
      <trkpt lat="43.91162" lon="7.29684">
        <ele>1209.1966552734</ele>
        <time>2014-12-21T12:54:06Z</time>
      </trkpt>
      <trkpt lat="43.91151" lon="7.2969">
        <ele>1207.0908203125</ele>
        <time>2014-12-21T12:54:15Z</time>
      </trkpt>
      <trkpt lat="43.91138" lon="7.29698">
        <ele>1205.3208007812</ele>
        <time>2014-12-21T12:54:24Z</time>
      </trkpt>
      <trkpt lat="43.9113" lon="7.29703">
        <ele>1208.7408447266</ele>
        <time>2014-12-21T12:54:30Z</time>
      </trkpt>
      <trkpt lat="43.91118" lon="7.2971">
        <ele>1212.470703125</ele>
        <time>2014-12-21T12:54:40Z</time>
      </trkpt>
      <trkpt lat="43.91113" lon="7.29715">
        <ele>1214.3348388672</ele>
        <time>2014-12-21T12:54:46Z</time>
      </trkpt>
      <trkpt lat="43.91109" lon="7.29715">
        <ele>1214.3491210938</ele>
        <time>2014-12-21T12:54:49Z</time>
      </trkpt>
      <trkpt lat="43.91103" lon="7.29716">
        <ele>1214.8979492188</ele>
        <time>2014-12-21T12:54:54Z</time>
      </trkpt>
      <trkpt lat="43.91095" lon="7.29712">
        <ele>1214.1806640625</ele>
        <time>2014-12-21T12:55:00Z</time>
      </trkpt>
      <trkpt lat="43.91093" lon="7.29711">
        <ele>1213.9337158203</ele>
        <time>2014-12-21T12:55:02Z</time>
      </trkpt>
      <trkpt lat="43.91087" lon="7.29711">
        <ele>1214.5406494141</ele>
        <time>2014-12-21T12:55:07Z</time>
      </trkpt>
      <trkpt lat="43.91077" lon="7.29707">
        <ele>1214.2551269531</ele>
        <time>2014-12-21T12:55:13Z</time>
      </trkpt>
      <trkpt lat="43.91069" lon="7.29707">
        <ele>1214.9194335938</ele>
        <time>2014-12-21T12:55:19Z</time>
      </trkpt>
      <trkpt lat="43.91064" lon="7.29706">
        <ele>1215.3011474609</ele>
        <time>2014-12-21T12:55:24Z</time>
      </trkpt>
      <trkpt lat="43.91058" lon="7.29708">
        <ele>1216.1856689453</ele>
        <time>2014-12-21T12:55:29Z</time>
      </trkpt>
      <trkpt lat="43.91055" lon="7.29706">
        <ele>1216.0665283203</ele>
        <time>2014-12-21T12:55:33Z</time>
      </trkpt>
      <trkpt lat="43.91047" lon="7.297">
        <ele>1216.0213623047</ele>
        <time>2014-12-21T12:55:39Z</time>
      </trkpt>
      <trkpt lat="43.91038" lon="7.29695">
        <ele>1216.5576171875</ele>
        <time>2014-12-21T12:55:45Z</time>
      </trkpt>
      <trkpt lat="43.91026" lon="7.29691">
        <ele>1218.1334228516</ele>
        <time>2014-12-21T12:55:53Z</time>
      </trkpt>
      <trkpt lat="43.91016" lon="7.29693">
        <ele>1218.875</ele>
        <time>2014-12-21T12:55:59Z</time>
      </trkpt>
      <trkpt lat="43.91007" lon="7.29697">
        <ele>1219.8238525391</ele>
        <time>2014-12-21T12:56:05Z</time>
      </trkpt>
      <trkpt lat="43.91005" lon="7.29699">
        <ele>1220.2697753906</ele>
        <time>2014-12-21T12:56:07Z</time>
      </trkpt>
      <trkpt lat="43.90999" lon="7.29704">
        <ele>1221.6810302734</ele>
        <time>2014-12-21T12:56:13Z</time>
      </trkpt>
      <trkpt lat="43.90995" lon="7.29705">
        <ele>1222.7297363281</ele>
        <time>2014-12-21T12:56:17Z</time>
      </trkpt>
      <trkpt lat="43.90986" lon="7.29696">
        <ele>1224.1163330078</ele>
        <time>2014-12-21T12:56:25Z</time>
      </trkpt>
      <trkpt lat="43.90978" lon="7.29686">
        <ele>1226.1224365234</ele>
        <time>2014-12-21T12:56:33Z</time>
      </trkpt>
      <trkpt lat="43.90972" lon="7.29678">
        <ele>1227.5264892578</ele>
        <time>2014-12-21T12:56:39Z</time>
      </trkpt>
      <trkpt lat="43.90966" lon="7.29669">
        <ele>1228.3349609375</ele>
        <time>2014-12-21T12:56:46Z</time>
      </trkpt>
      <trkpt lat="43.90959" lon="7.2966">
        <ele>1229.4613037109</ele>
        <time>2014-12-21T12:56:54Z</time>
      </trkpt>
      <trkpt lat="43.90951" lon="7.29652">
        <ele>1230.6141357422</ele>
        <time>2014-12-21T12:57:02Z</time>
      </trkpt>
      <trkpt lat="43.90944" lon="7.29647">
        <ele>1231.5444335938</ele>
        <time>2014-12-21T12:57:09Z</time>
      </trkpt>
      <trkpt lat="43.90937" lon="7.29652">
        <ele>1229.6176757812</ele>
        <time>2014-12-21T12:57:16Z</time>
      </trkpt>
      <trkpt lat="43.90933" lon="7.29657">
        <ele>1228.96875</ele>
        <time>2014-12-21T12:57:20Z</time>
      </trkpt>
      <trkpt lat="43.90924" lon="7.29663">
        <ele>1227.1794433594</ele>
        <time>2014-12-21T12:57:27Z</time>
      </trkpt>
      <trkpt lat="43.90923" lon="7.29664">
        <ele>1226.9146728516</ele>
        <time>2014-12-21T12:57:28Z</time>
      </trkpt>
      <trkpt lat="43.90916" lon="7.29667">
        <ele>1225.9075927734</ele>
        <time>2014-12-21T12:57:35Z</time>
      </trkpt>
      <trkpt lat="43.90912" lon="7.29669">
        <ele>1225.3820800781</ele>
        <time>2014-12-21T12:57:39Z</time>
      </trkpt>
      <trkpt lat="43.90907" lon="7.2967">
        <ele>1224.5743408203</ele>
        <time>2014-12-21T12:57:42Z</time>
      </trkpt>
      <trkpt lat="43.90899" lon="7.29671">
        <ele>1222.6950683594</ele>
        <time>2014-12-21T12:57:49Z</time>
      </trkpt>
      <trkpt lat="43.90898" lon="7.29672">
        <ele>1222.7506103516</ele>
        <time>2014-12-21T12:57:50Z</time>
      </trkpt>
      <trkpt lat="43.9089" lon="7.29671">
        <ele>1220.6657714844</ele>
        <time>2014-12-21T12:57:56Z</time>
      </trkpt>
      <trkpt lat="43.90887" lon="7.2967">
        <ele>1219.9454345703</ele>
        <time>2014-12-21T12:57:58Z</time>
      </trkpt>
      <trkpt lat="43.90882" lon="7.29673">
        <ele>1220.3388671875</ele>
        <time>2014-12-21T12:58:02Z</time>
      </trkpt>
      <trkpt lat="43.90874" lon="7.29672">
        <ele>1219.2994384766</ele>
        <time>2014-12-21T12:58:09Z</time>
      </trkpt>
      <trkpt lat="43.90868" lon="7.29671">
        <ele>1218.2042236328</ele>
        <time>2014-12-21T12:58:13Z</time>
      </trkpt>
      <trkpt lat="43.90862" lon="7.29662">
        <ele>1214.5988769531</ele>
        <time>2014-12-21T12:58:19Z</time>
      </trkpt>
      <trkpt lat="43.90855" lon="7.29661">
        <ele>1213.5189208984</ele>
        <time>2014-12-21T12:58:24Z</time>
      </trkpt>
      <trkpt lat="43.9085" lon="7.29663">
        <ele>1213.7702636719</ele>
        <time>2014-12-21T12:58:28Z</time>
      </trkpt>
      <trkpt lat="43.90841" lon="7.29664">
        <ele>1213.4129638672</ele>
        <time>2014-12-21T12:58:34Z</time>
      </trkpt>
      <trkpt lat="43.90836" lon="7.29662">
        <ele>1212.6691894531</ele>
        <time>2014-12-21T12:58:37Z</time>
      </trkpt>
      <trkpt lat="43.90826" lon="7.29666">
        <ele>1213.2600097656</ele>
        <time>2014-12-21T12:58:43Z</time>
      </trkpt>
      <trkpt lat="43.90816" lon="7.29662">
        <ele>1211.1966552734</ele>
        <time>2014-12-21T12:58:50Z</time>
      </trkpt>
      <trkpt lat="43.90815" lon="7.29662">
        <ele>1210.8911132812</ele>
        <time>2014-12-21T12:58:51Z</time>
      </trkpt>
      <trkpt lat="43.9081" lon="7.2966">
        <ele>1209.7169189453</ele>
        <time>2014-12-21T12:58:56Z</time>
      </trkpt>
      <trkpt lat="43.90804" lon="7.29664">
        <ele>1211.1143798828</ele>
        <time>2014-12-21T12:59:01Z</time>
      </trkpt>
      <trkpt lat="43.90802" lon="7.29664">
        <ele>1211.3615722656</ele>
        <time>2014-12-21T12:59:02Z</time>
      </trkpt>
      <trkpt lat="43.90795" lon="7.29669">
        <ele>1213.4868164062</ele>
        <time>2014-12-21T12:59:07Z</time>
      </trkpt>
      <trkpt lat="43.9079" lon="7.29671">
        <ele>1214.7296142578</ele>
        <time>2014-12-21T12:59:12Z</time>
      </trkpt>
      <trkpt lat="43.90787" lon="7.29668">
        <ele>1213.6961669922</ele>
        <time>2014-12-21T12:59:15Z</time>
      </trkpt>
      <trkpt lat="43.90778" lon="7.29669">
        <ele>1214.9012451172</ele>
        <time>2014-12-21T12:59:23Z</time>
      </trkpt>
      <trkpt lat="43.9077" lon="7.29671">
        <ele>1216.7568359375</ele>
        <time>2014-12-21T12:59:29Z</time>
      </trkpt>
      <trkpt lat="43.90767" lon="7.29667">
        <ele>1215.5915527344</ele>
        <time>2014-12-21T12:59:33Z</time>
      </trkpt>
      <trkpt lat="43.90759" lon="7.29662">
        <ele>1215.0213623047</ele>
        <time>2014-12-21T12:59:39Z</time>
      </trkpt>
      <trkpt lat="43.90754" lon="7.29661">
        <ele>1215.5432128906</ele>
        <time>2014-12-21T12:59:42Z</time>
      </trkpt>
      <trkpt lat="43.90746" lon="7.29661">
        <ele>1216.876953125</ele>
        <time>2014-12-21T12:59:48Z</time>
      </trkpt>
      <trkpt lat="43.90739" lon="7.29662">
        <ele>1219.1724853516</ele>
        <time>2014-12-21T12:59:54Z</time>
      </trkpt>
      <trkpt lat="43.90737" lon="7.29662">
        <ele>1219.7301025391</ele>
        <time>2014-12-21T12:59:56Z</time>
      </trkpt>
      <trkpt lat="43.9073" lon="7.29657">
        <ele>1219.9096679688</ele>
        <time>2014-12-21T13:00:01Z</time>
      </trkpt>
      <trkpt lat="43.90726" lon="7.29645">
        <ele>1217.0268554688</ele>
        <time>2014-12-21T13:00:08Z</time>
      </trkpt>
      <trkpt lat="43.9072" lon="7.29638">
        <ele>1216.423828125</ele>
        <time>2014-12-21T13:00:13Z</time>
      </trkpt>
      <trkpt lat="43.90715" lon="7.29634">
        <ele>1216.9647216797</ele>
        <time>2014-12-21T13:00:18Z</time>
      </trkpt>
      <trkpt lat="43.90711" lon="7.29632">
        <ele>1217.810546875</ele>
        <time>2014-12-21T13:00:21Z</time>
      </trkpt>
      <trkpt lat="43.90704" lon="7.29624">
        <ele>1217.9635009766</ele>
        <time>2014-12-21T13:00:28Z</time>
      </trkpt>
      <trkpt lat="43.90698" lon="7.29622">
        <ele>1219.4135742188</ele>
        <time>2014-12-21T13:00:32Z</time>
      </trkpt>
      <trkpt lat="43.90693" lon="7.29623">
        <ele>1221.9569091797</ele>
        <time>2014-12-21T13:00:35Z</time>
      </trkpt>
      <trkpt lat="43.90691" lon="7.29623">
        <ele>1222.3977050781</ele>
        <time>2014-12-21T13:00:36Z</time>
      </trkpt>
      <trkpt lat="43.90686" lon="7.29616">
        <ele>1221.3314208984</ele>
        <time>2014-12-21T13:00:40Z</time>
      </trkpt>
      <trkpt lat="43.90681" lon="7.29609">
        <ele>1220.7116699219</ele>
        <time>2014-12-21T13:00:46Z</time>
      </trkpt>
      <trkpt lat="43.90676" lon="7.29608">
        <ele>1222.0258789062</ele>
        <time>2014-12-21T13:00:50Z</time>
      </trkpt>
      <trkpt lat="43.9067" lon="7.29607">
        <ele>1224.0296630859</ele>
        <time>2014-12-21T13:00:56Z</time>
      </trkpt>
      <trkpt lat="43.90662" lon="7.29603">
        <ele>1225.724609375</ele>
        <time>2014-12-21T13:01:01Z</time>
      </trkpt>
      <trkpt lat="43.90661" lon="7.29603">
        <ele>1226.3002929688</ele>
        <time>2014-12-21T13:01:02Z</time>
      </trkpt>
      <trkpt lat="43.90654" lon="7.29595">
        <ele>1226.9683837891</ele>
        <time>2014-12-21T13:01:08Z</time>
      </trkpt>
      <trkpt lat="43.9065" lon="7.29595">
        <ele>1228.1557617188</ele>
        <time>2014-12-21T13:01:11Z</time>
      </trkpt>
      <trkpt lat="43.90645" lon="7.29593">
        <ele>1229.3157958984</ele>
        <time>2014-12-21T13:01:15Z</time>
      </trkpt>
      <trkpt lat="43.9064" lon="7.29589">
        <ele>1229.875</ele>
        <time>2014-12-21T13:01:20Z</time>
      </trkpt>
      <trkpt lat="43.90638" lon="7.29585">
        <ele>1229.5227050781</ele>
        <time>2014-12-21T13:01:24Z</time>
      </trkpt>
      <trkpt lat="43.90638" lon="7.29582">
        <ele>1228.7611083984</ele>
        <time>2014-12-21T13:01:26Z</time>
      </trkpt>
      <trkpt lat="43.90637" lon="7.29576">
        <ele>1227.8120117188</ele>
        <time>2014-12-21T13:01:29Z</time>
      </trkpt>
      <trkpt lat="43.90632" lon="7.29569">
        <ele>1227.6412353516</ele>
        <time>2014-12-21T13:01:36Z</time>
      </trkpt>
      <trkpt lat="43.90627" lon="7.29565">
        <ele>1228.546875</ele>
        <time>2014-12-21T13:01:41Z</time>
      </trkpt>
      <trkpt lat="43.90624" lon="7.2956">
        <ele>1228.4088134766</ele>
        <time>2014-12-21T13:01:45Z</time>
      </trkpt>
      <trkpt lat="43.9062" lon="7.29555">
        <ele>1228.4473876953</ele>
        <time>2014-12-21T13:01:50Z</time>
      </trkpt>
      <trkpt lat="43.90616" lon="7.2955">
        <ele>1228.8276367188</ele>
        <time>2014-12-21T13:01:56Z</time>
      </trkpt>
      <trkpt lat="43.90614" lon="7.29542">
        <ele>1227.4993896484</ele>
        <time>2014-12-21T13:02:01Z</time>
      </trkpt>
      <trkpt lat="43.9061" lon="7.29533">
        <ele>1226.9281005859</ele>
        <time>2014-12-21T13:02:06Z</time>
      </trkpt>
      <trkpt lat="43.90606" lon="7.29528">
        <ele>1227.1955566406</ele>
        <time>2014-12-21T13:02:11Z</time>
      </trkpt>
      <trkpt lat="43.90602" lon="7.29519">
        <ele>1226.0609130859</ele>
        <time>2014-12-21T13:02:17Z</time>
      </trkpt>
      <trkpt lat="43.90599" lon="7.29514">
        <ele>1226.2463378906</ele>
        <time>2014-12-21T13:02:22Z</time>
      </trkpt>
      <trkpt lat="43.90598" lon="7.29514">
        <ele>1226.5810546875</ele>
        <time>2014-12-21T13:02:23Z</time>
      </trkpt>
      <trkpt lat="43.90592" lon="7.29508">
        <ele>1227.5989990234</ele>
        <time>2014-12-21T13:02:29Z</time>
      </trkpt>
      <trkpt lat="43.90585" lon="7.29496">
        <ele>1226.9803466797</ele>
        <time>2014-12-21T13:02:36Z</time>
      </trkpt>
      <trkpt lat="43.90583" lon="7.29493">
        <ele>1226.9986572266</ele>
        <time>2014-12-21T13:02:40Z</time>
      </trkpt>
      <trkpt lat="43.90581" lon="7.29489">
        <ele>1226.9442138672</ele>
        <time>2014-12-21T13:02:43Z</time>
      </trkpt>
      <trkpt lat="43.9058" lon="7.29485">
        <ele>1226.1982421875</ele>
        <time>2014-12-21T13:02:45Z</time>
      </trkpt>
      <trkpt lat="43.90575" lon="7.29478">
        <ele>1226.0218505859</ele>
        <time>2014-12-21T13:02:51Z</time>
      </trkpt>
      <trkpt lat="43.90574" lon="7.29474">
        <ele>1225.5197753906</ele>
        <time>2014-12-21T13:02:53Z</time>
      </trkpt>
      <trkpt lat="43.90569" lon="7.29469">
        <ele>1226.3745117188</ele>
        <time>2014-12-21T13:02:57Z</time>
      </trkpt>
      <trkpt lat="43.90566" lon="7.29464">
        <ele>1226.3304443359</ele>
        <time>2014-12-21T13:03:02Z</time>
      </trkpt>
      <trkpt lat="43.90562" lon="7.29461">
        <ele>1227.3916015625</ele>
        <time>2014-12-21T13:03:07Z</time>
      </trkpt>
      <trkpt lat="43.90557" lon="7.29457">
        <ele>1228.2902832031</ele>
        <time>2014-12-21T13:03:11Z</time>
      </trkpt>
      <trkpt lat="43.90548" lon="7.29458">
        <ele>1231.8940429688</ele>
        <time>2014-12-21T13:03:17Z</time>
      </trkpt>
      <trkpt lat="43.90543" lon="7.2945">
        <ele>1231.6359863281</ele>
        <time>2014-12-21T13:03:22Z</time>
      </trkpt>
      <trkpt lat="43.90536" lon="7.29443">
        <ele>1232.5489501953</ele>
        <time>2014-12-21T13:03:29Z</time>
      </trkpt>
      <trkpt lat="43.90531" lon="7.29439">
        <ele>1233.6614990234</ele>
        <time>2014-12-21T13:03:34Z</time>
      </trkpt>
      <trkpt lat="43.90528" lon="7.29436">
        <ele>1233.7973632812</ele>
        <time>2014-12-21T13:03:36Z</time>
      </trkpt>
      <trkpt lat="43.90524" lon="7.29431">
        <ele>1235.4295654297</ele>
        <time>2014-12-21T13:03:42Z</time>
      </trkpt>
      <trkpt lat="43.90519" lon="7.29425">
        <ele>1237.0697021484</ele>
        <time>2014-12-21T13:03:49Z</time>
      </trkpt>
      <trkpt lat="43.90516" lon="7.29419">
        <ele>1236.5255126953</ele>
        <time>2014-12-21T13:03:53Z</time>
      </trkpt>
      <trkpt lat="43.90515" lon="7.29413">
        <ele>1235.5551757812</ele>
        <time>2014-12-21T13:03:57Z</time>
      </trkpt>
      <trkpt lat="43.90509" lon="7.29408">
        <ele>1237.3370361328</ele>
        <time>2014-12-21T13:04:02Z</time>
      </trkpt>
      <trkpt lat="43.90506" lon="7.29401">
        <ele>1237.7456054688</ele>
        <time>2014-12-21T13:04:07Z</time>
      </trkpt>
      <trkpt lat="43.90499" lon="7.29397">
        <ele>1240.119140625</ele>
        <time>2014-12-21T13:04:12Z</time>
      </trkpt>
      <trkpt lat="43.90496" lon="7.29393">
        <ele>1241.5200195312</ele>
        <time>2014-12-21T13:04:15Z</time>
      </trkpt>
      <trkpt lat="43.90491" lon="7.29384">
        <ele>1244.5712890625</ele>
        <time>2014-12-21T13:04:22Z</time>
      </trkpt>
      <trkpt lat="43.90487" lon="7.29373">
        <ele>1246.1834716797</ele>
        <time>2014-12-21T13:04:27Z</time>
      </trkpt>
      <trkpt lat="43.90485" lon="7.29368">
        <ele>1247.4827880859</ele>
        <time>2014-12-21T13:04:30Z</time>
      </trkpt>
      <trkpt lat="43.90483" lon="7.2936">
        <ele>1248.4405517578</ele>
        <time>2014-12-21T13:04:35Z</time>
      </trkpt>
      <trkpt lat="43.90479" lon="7.29353">
        <ele>1252.3737792969</ele>
        <time>2014-12-21T13:04:41Z</time>
      </trkpt>
      <trkpt lat="43.90478" lon="7.29351">
        <ele>1252.7677001953</ele>
        <time>2014-12-21T13:04:42Z</time>
      </trkpt>
      <trkpt lat="43.90477" lon="7.29347">
        <ele>1253.5367431641</ele>
        <time>2014-12-21T13:04:44Z</time>
      </trkpt>
      <trkpt lat="43.90478" lon="7.29337">
        <ele>1253.6472167969</ele>
        <time>2014-12-21T13:04:50Z</time>
      </trkpt>
      <trkpt lat="43.90477" lon="7.29332">
        <ele>1254.8197021484</ele>
        <time>2014-12-21T13:04:54Z</time>
      </trkpt>
      <trkpt lat="43.90477" lon="7.29323">
        <ele>1255.4493408203</ele>
        <time>2014-12-21T13:04:59Z</time>
      </trkpt>
      <trkpt lat="43.90477" lon="7.29322">
        <ele>1255.5419921875</ele>
        <time>2014-12-21T13:05:00Z</time>
      </trkpt>
      <trkpt lat="43.90477" lon="7.29318">
        <ele>1255.5797119141</ele>
        <time>2014-12-21T13:05:03Z</time>
      </trkpt>
      <trkpt lat="43.90479" lon="7.29311">
        <ele>1255.0179443359</ele>
        <time>2014-12-21T13:05:08Z</time>
      </trkpt>
      <trkpt lat="43.90477" lon="7.29304">
        <ele>1256.2927246094</ele>
        <time>2014-12-21T13:05:14Z</time>
      </trkpt>
      <trkpt lat="43.90478" lon="7.29295">
        <ele>1255.7434082031</ele>
        <time>2014-12-21T13:05:20Z</time>
      </trkpt>
      <trkpt lat="43.90481" lon="7.29285">
        <ele>1253.8208007812</ele>
        <time>2014-12-21T13:05:27Z</time>
      </trkpt>
      <trkpt lat="43.90482" lon="7.29283">
        <ele>1253.271484375</ele>
        <time>2014-12-21T13:05:28Z</time>
      </trkpt>
      <trkpt lat="43.90483" lon="7.29279">
        <ele>1251.8981933594</ele>
        <time>2014-12-21T13:05:31Z</time>
      </trkpt>
      <trkpt lat="43.90483" lon="7.29271">
        <ele>1253.2071533203</ele>
        <time>2014-12-21T13:05:37Z</time>
      </trkpt>
      <trkpt lat="43.90481" lon="7.29265">
        <ele>1256.142578125</ele>
        <time>2014-12-21T13:05:42Z</time>
      </trkpt>
      <trkpt lat="43.90481" lon="7.29263">
        <ele>1256.4600830078</ele>
        <time>2014-12-21T13:05:43Z</time>
      </trkpt>
      <trkpt lat="43.90482" lon="7.29253">
        <ele>1257.5329589844</ele>
        <time>2014-12-21T13:05:49Z</time>
      </trkpt>
      <trkpt lat="43.90481" lon="7.29242">
        <ele>1259.7775878906</ele>
        <time>2014-12-21T13:05:55Z</time>
      </trkpt>
      <trkpt lat="43.9048" lon="7.29236">
        <ele>1261.8129882812</ele>
        <time>2014-12-21T13:06:01Z</time>
      </trkpt>
      <trkpt lat="43.90481" lon="7.29232">
        <ele>1261.4249267578</ele>
        <time>2014-12-21T13:06:05Z</time>
      </trkpt>
      <trkpt lat="43.90486" lon="7.29221">
        <ele>1259.9489746094</ele>
        <time>2014-12-21T13:06:12Z</time>
      </trkpt>
      <trkpt lat="43.90486" lon="7.29219">
        <ele>1260.2878417969</ele>
        <time>2014-12-21T13:06:13Z</time>
      </trkpt>
      <trkpt lat="43.90485" lon="7.29204">
        <ele>1262.8817138672</ele>
        <time>2014-12-21T13:06:19Z</time>
      </trkpt>
      <trkpt lat="43.90487" lon="7.29196">
        <ele>1263.2105712891</ele>
        <time>2014-12-21T13:06:26Z</time>
      </trkpt>
      <trkpt lat="43.90487" lon="7.2919">
        <ele>1264.2211914062</ele>
        <time>2014-12-21T13:06:31Z</time>
      </trkpt>
      <trkpt lat="43.90493" lon="7.29182">
        <ele>1261.4139404297</ele>
        <time>2014-12-21T13:06:37Z</time>
      </trkpt>
      <trkpt lat="43.90495" lon="7.29175">
        <ele>1261.3946533203</ele>
        <time>2014-12-21T13:06:42Z</time>
      </trkpt>
      <trkpt lat="43.90494" lon="7.2917">
        <ele>1263.2880859375</ele>
        <time>2014-12-21T13:06:45Z</time>
      </trkpt>
      <trkpt lat="43.90494" lon="7.29164">
        <ele>1264.2127685547</ele>
        <time>2014-12-21T13:06:50Z</time>
      </trkpt>
      <trkpt lat="43.90494" lon="7.29162">
        <ele>1265.0185546875</ele>
        <time>2014-12-21T13:06:52Z</time>
      </trkpt>
      <trkpt lat="43.90493" lon="7.29155">
        <ele>1266.9586181641</ele>
        <time>2014-12-21T13:06:57Z</time>
      </trkpt>
      <trkpt lat="43.90496" lon="7.29147">
        <ele>1267.4450683594</ele>
        <time>2014-12-21T13:07:04Z</time>
      </trkpt>
      <trkpt lat="43.90496" lon="7.29146">
        <ele>1267.6002197266</ele>
        <time>2014-12-21T13:07:05Z</time>
      </trkpt>
      <trkpt lat="43.905" lon="7.2914">
        <ele>1267.7896728516</ele>
        <time>2014-12-21T13:07:11Z</time>
      </trkpt>
      <trkpt lat="43.90503" lon="7.29135">
        <ele>1268.7585449219</ele>
        <time>2014-12-21T13:07:15Z</time>
      </trkpt>
      <trkpt lat="43.90505" lon="7.29131">
        <ele>1269.1419677734</ele>
        <time>2014-12-21T13:07:22Z</time>
      </trkpt>
      <trkpt lat="43.90505" lon="7.29131">
        <ele>1269.2574462891</ele>
        <time>2014-12-21T13:07:24Z</time>
      </trkpt>
      <trkpt lat="43.90511" lon="7.29125">
        <ele>1269.3874511719</ele>
        <time>2014-12-21T13:07:32Z</time>
      </trkpt>
      <trkpt lat="43.90517" lon="7.29121">
        <ele>1268.9047851562</ele>
        <time>2014-12-21T13:07:38Z</time>
      </trkpt>
      <trkpt lat="43.90525" lon="7.29117">
        <ele>1267.6413574219</ele>
        <time>2014-12-21T13:07:45Z</time>
      </trkpt>
      <trkpt lat="43.90532" lon="7.29113">
        <ele>1267.3021240234</ele>
        <time>2014-12-21T13:07:52Z</time>
      </trkpt>
      <trkpt lat="43.90532" lon="7.29114">
        <ele>1267.1801757812</ele>
        <time>2014-12-21T13:08:02Z</time>
      </trkpt>
      <trkpt lat="43.90531" lon="7.29117">
        <ele>1266.6086425781</ele>
        <time>2014-12-21T13:10:25Z</time>
      </trkpt>
      <trkpt lat="43.90533" lon="7.2911">
        <ele>1267.8526611328</ele>
        <time>2014-12-21T13:10:33Z</time>
      </trkpt>
      <trkpt lat="43.90531" lon="7.2911">
        <ele>1268.0258789062</ele>
        <time>2014-12-21T13:10:45Z</time>
      </trkpt>
      <trkpt lat="43.90529" lon="7.29107">
        <ele>1268.7867431641</ele>
        <time>2014-12-21T13:10:52Z</time>
      </trkpt>
      <trkpt lat="43.9053" lon="7.29106">
        <ele>1268.9465332031</ele>
        <time>2014-12-21T13:10:53Z</time>
      </trkpt>
      <trkpt lat="43.9053" lon="7.29096">
        <ele>1270.9963378906</ele>
        <time>2014-12-21T13:11:02Z</time>
      </trkpt>
      <trkpt lat="43.90532" lon="7.29091">
        <ele>1271.8129882812</ele>
        <time>2014-12-21T13:11:09Z</time>
      </trkpt>
      <trkpt lat="43.90534" lon="7.29087">
        <ele>1272.4056396484</ele>
        <time>2014-12-21T13:11:15Z</time>
      </trkpt>
      <trkpt lat="43.90539" lon="7.2908">
        <ele>1272.9613037109</ele>
        <time>2014-12-21T13:11:23Z</time>
      </trkpt>
      <trkpt lat="43.90544" lon="7.29072">
        <ele>1273.6892089844</ele>
        <time>2014-12-21T13:11:31Z</time>
      </trkpt>
      <trkpt lat="43.90544" lon="7.29066">
        <ele>1274.8049316406</ele>
        <time>2014-12-21T13:11:36Z</time>
      </trkpt>
      <trkpt lat="43.90544" lon="7.29062">
        <ele>1275.5396728516</ele>
        <time>2014-12-21T13:11:40Z</time>
      </trkpt>
      <trkpt lat="43.90542" lon="7.29051">
        <ele>1275.779296875</ele>
        <time>2014-12-21T13:11:49Z</time>
      </trkpt>
      <trkpt lat="43.90542" lon="7.29052">
        <ele>1276.06640625</ele>
        <time>2014-12-21T13:11:55Z</time>
      </trkpt>
      <trkpt lat="43.90539" lon="7.29051">
        <ele>1276.0146484375</ele>
        <time>2014-12-21T13:12:10Z</time>
      </trkpt>
      <trkpt lat="43.90539" lon="7.29048">
        <ele>1275.16796875</ele>
        <time>2014-12-21T13:12:13Z</time>
      </trkpt>
      <trkpt lat="43.90536" lon="7.29036">
        <ele>1271.5732421875</ele>
        <time>2014-12-21T13:12:23Z</time>
      </trkpt>
      <trkpt lat="43.90533" lon="7.29026">
        <ele>1268.6199951172</ele>
        <time>2014-12-21T13:12:30Z</time>
      </trkpt>
      <trkpt lat="43.90531" lon="7.29016">
        <ele>1267.5611572266</ele>
        <time>2014-12-21T13:12:37Z</time>
      </trkpt>
      <trkpt lat="43.90528" lon="7.29006">
        <ele>1266.5354003906</ele>
        <time>2014-12-21T13:12:44Z</time>
      </trkpt>
      <trkpt lat="43.90526" lon="7.28997">
        <ele>1265.6252441406</ele>
        <time>2014-12-21T13:12:50Z</time>
      </trkpt>
      <trkpt lat="43.90525" lon="7.2899">
        <ele>1265.0057373047</ele>
        <time>2014-12-21T13:12:55Z</time>
      </trkpt>
      <trkpt lat="43.90523" lon="7.28987">
        <ele>1264.6734619141</ele>
        <time>2014-12-21T13:12:58Z</time>
      </trkpt>
      <trkpt lat="43.90521" lon="7.28982">
        <ele>1264.2961425781</ele>
        <time>2014-12-21T13:13:02Z</time>
      </trkpt>
      <trkpt lat="43.9052" lon="7.28977">
        <ele>1263.9555664062</ele>
        <time>2014-12-21T13:13:08Z</time>
      </trkpt>
      <trkpt lat="43.9052" lon="7.28972">
        <ele>1263.6967773438</ele>
        <time>2014-12-21T13:13:13Z</time>
      </trkpt>
      <trkpt lat="43.9052" lon="7.28959">
        <ele>1262.9289550781</ele>
        <time>2014-12-21T13:13:21Z</time>
      </trkpt>
      <trkpt lat="43.90519" lon="7.2895">
        <ele>1262.3406982422</ele>
        <time>2014-12-21T13:13:27Z</time>
      </trkpt>
      <trkpt lat="43.90519" lon="7.2894">
        <ele>1261.8049316406</ele>
        <time>2014-12-21T13:13:33Z</time>
      </trkpt>
      <trkpt lat="43.90519" lon="7.28931">
        <ele>1261.3070068359</ele>
        <time>2014-12-21T13:13:40Z</time>
      </trkpt>
      <trkpt lat="43.90522" lon="7.28927">
        <ele>1261.0209960938</ele>
        <time>2014-12-21T13:13:44Z</time>
      </trkpt>
      <trkpt lat="43.90522" lon="7.28925">
        <ele>1260.8905029297</ele>
        <time>2014-12-21T13:13:46Z</time>
      </trkpt>
      <trkpt lat="43.90519" lon="7.28922">
        <ele>1260.8793945312</ele>
        <time>2014-12-21T13:13:53Z</time>
      </trkpt>
      <trkpt lat="43.90519" lon="7.28922">
        <ele>1260.8745117188</ele>
        <time>2014-12-21T13:13:55Z</time>
      </trkpt>
      <trkpt lat="43.90519" lon="7.28916">
        <ele>1260.4093017578</ele>
        <time>2014-12-21T13:14:01Z</time>
      </trkpt>
      <trkpt lat="43.90522" lon="7.28912">
        <ele>1259.2139892578</ele>
        <time>2014-12-21T13:14:05Z</time>
      </trkpt>
      <trkpt lat="43.90527" lon="7.28907">
        <ele>1256.7420654297</ele>
        <time>2014-12-21T13:14:13Z</time>
      </trkpt>
      <trkpt lat="43.90528" lon="7.28906">
        <ele>1256.0789794922</ele>
        <time>2014-12-21T13:14:21Z</time>
      </trkpt>
      <trkpt lat="43.9053" lon="7.28903">
        <ele>1254.2142333984</ele>
        <time>2014-12-21T13:14:25Z</time>
      </trkpt>
      <trkpt lat="43.90533" lon="7.28902">
        <ele>1252.7534179688</ele>
        <time>2014-12-21T13:14:31Z</time>
      </trkpt>
      <trkpt lat="43.90535" lon="7.28897">
        <ele>1250.5850830078</ele>
        <time>2014-12-21T13:14:37Z</time>
      </trkpt>
      <trkpt lat="43.90535" lon="7.28896">
        <ele>1249.5767822266</ele>
        <time>2014-12-21T13:14:41Z</time>
      </trkpt>
      <trkpt lat="43.90533" lon="7.28893">
        <ele>1249.0552978516</ele>
        <time>2014-12-21T13:14:44Z</time>
      </trkpt>
      <trkpt lat="43.90527" lon="7.2889">
        <ele>1250.7088623047</ele>
        <time>2014-12-21T13:14:51Z</time>
      </trkpt>
      <trkpt lat="43.90525" lon="7.28887">
        <ele>1250.5220947266</ele>
        <time>2014-12-21T13:14:55Z</time>
      </trkpt>
      <trkpt lat="43.90525" lon="7.28884">
        <ele>1249.7138671875</ele>
        <time>2014-12-21T13:14:59Z</time>
      </trkpt>
      <trkpt lat="43.90529" lon="7.2888">
        <ele>1246.6730957031</ele>
        <time>2014-12-21T13:15:05Z</time>
      </trkpt>
      <trkpt lat="43.90527" lon="7.2888">
        <ele>1247.2989501953</ele>
        <time>2014-12-21T13:15:08Z</time>
      </trkpt>
      <trkpt lat="43.90525" lon="7.28876">
        <ele>1247.3170166016</ele>
        <time>2014-12-21T13:15:14Z</time>
      </trkpt>
      <trkpt lat="43.90524" lon="7.28869">
        <ele>1246.1743164062</ele>
        <time>2014-12-21T13:15:22Z</time>
      </trkpt>
      <trkpt lat="43.90523" lon="7.28868">
        <ele>1246.2473144531</ele>
        <time>2014-12-21T13:15:23Z</time>
      </trkpt>
      <trkpt lat="43.90521" lon="7.28865">
        <ele>1246.9750976562</ele>
        <time>2014-12-21T13:15:27Z</time>
      </trkpt>
      <trkpt lat="43.90519" lon="7.28857">
        <ele>1247.2514648438</ele>
        <time>2014-12-21T13:15:34Z</time>
      </trkpt>
      <trkpt lat="43.90517" lon="7.28853">
        <ele>1248.5467529297</ele>
        <time>2014-12-21T13:15:41Z</time>
      </trkpt>
      <trkpt lat="43.90515" lon="7.2885">
        <ele>1249.8757324219</ele>
        <time>2014-12-21T13:15:50Z</time>
      </trkpt>
      <trkpt lat="43.90524" lon="7.2885">
        <ele>1243.7270507812</ele>
        <time>2014-12-21T13:16:15Z</time>
      </trkpt>
      <trkpt lat="43.90525" lon="7.28846">
        <ele>1242.7557373047</ele>
        <time>2014-12-21T13:16:19Z</time>
      </trkpt>
      <trkpt lat="43.90529" lon="7.28839">
        <ele>1239.3568115234</ele>
        <time>2014-12-21T13:16:26Z</time>
      </trkpt>
      <trkpt lat="43.90529" lon="7.28834">
        <ele>1239.1138916016</ele>
        <time>2014-12-21T13:16:29Z</time>
      </trkpt>
      <trkpt lat="43.90531" lon="7.28824">
        <ele>1235.2662353516</ele>
        <time>2014-12-21T13:16:36Z</time>
      </trkpt>
      <trkpt lat="43.90532" lon="7.28819">
        <ele>1233.8586425781</ele>
        <time>2014-12-21T13:16:39Z</time>
      </trkpt>
      <trkpt lat="43.90537" lon="7.28812">
        <ele>1227.4727783203</ele>
        <time>2014-12-21T13:16:44Z</time>
      </trkpt>
      <trkpt lat="43.90541" lon="7.28803">
        <ele>1222.2449951172</ele>
        <time>2014-12-21T13:16:51Z</time>
      </trkpt>
      <trkpt lat="43.90539" lon="7.28794">
        <ele>1222.9041748047</ele>
        <time>2014-12-21T13:16:56Z</time>
      </trkpt>
      <trkpt lat="43.90536" lon="7.28788">
        <ele>1224.1950683594</ele>
        <time>2014-12-21T13:17:01Z</time>
      </trkpt>
      <trkpt lat="43.90535" lon="7.2878">
        <ele>1224.3735351562</ele>
        <time>2014-12-21T13:17:07Z</time>
      </trkpt>
      <trkpt lat="43.90532" lon="7.28772">
        <ele>1225.6450195312</ele>
        <time>2014-12-21T13:17:12Z</time>
      </trkpt>
      <trkpt lat="43.90534" lon="7.28761">
        <ele>1222.4140625</ele>
        <time>2014-12-21T13:17:18Z</time>
      </trkpt>
      <trkpt lat="43.90537" lon="7.28752">
        <ele>1218.4903564453</ele>
        <time>2014-12-21T13:17:23Z</time>
      </trkpt>
      <trkpt lat="43.90541" lon="7.2875">
        <ele>1214.7885742188</ele>
        <time>2014-12-21T13:17:29Z</time>
      </trkpt>
      <trkpt lat="43.90536" lon="7.28744">
        <ele>1217.9063720703</ele>
        <time>2014-12-21T13:17:35Z</time>
      </trkpt>
      <trkpt lat="43.90533" lon="7.28738">
        <ele>1219.2094726562</ele>
        <time>2014-12-21T13:17:47Z</time>
      </trkpt>
      <trkpt lat="43.90538" lon="7.28737">
        <ele>1215.6038818359</ele>
        <time>2014-12-21T13:17:53Z</time>
      </trkpt>
      <trkpt lat="43.90541" lon="7.28738">
        <ele>1213.3343505859</ele>
        <time>2014-12-21T13:17:58Z</time>
      </trkpt>
      <trkpt lat="43.90541" lon="7.28735">
        <ele>1212.9197998047</ele>
        <time>2014-12-21T13:18:01Z</time>
      </trkpt>
      <trkpt lat="43.90536" lon="7.28733">
        <ele>1216.6348876953</ele>
        <time>2014-12-21T13:18:09Z</time>
      </trkpt>
      <trkpt lat="43.90537" lon="7.28728">
        <ele>1215.0102539062</ele>
        <time>2014-12-21T13:18:13Z</time>
      </trkpt>
      <trkpt lat="43.90536" lon="7.28726">
        <ele>1215.2253417969</ele>
        <time>2014-12-21T13:18:18Z</time>
      </trkpt>
      <trkpt lat="43.90535" lon="7.28718">
        <ele>1214.5368652344</ele>
        <time>2014-12-21T13:18:24Z</time>
      </trkpt>
      <trkpt lat="43.90535" lon="7.28712">
        <ele>1212.5848388672</ele>
        <time>2014-12-21T13:18:28Z</time>
      </trkpt>
      <trkpt lat="43.90532" lon="7.28708">
        <ele>1212.8499755859</ele>
        <time>2014-12-21T13:18:34Z</time>
      </trkpt>
      <trkpt lat="43.9053" lon="7.28707">
        <ele>1214.6693115234</ele>
        <time>2014-12-21T13:18:39Z</time>
      </trkpt>
      <trkpt lat="43.90527" lon="7.28705">
        <ele>1216.1311035156</ele>
        <time>2014-12-21T13:18:45Z</time>
      </trkpt>
      <trkpt lat="43.90527" lon="7.28697">
        <ele>1213.7133789062</ele>
        <time>2014-12-21T13:18:51Z</time>
      </trkpt>
      <trkpt lat="43.90529" lon="7.28693">
        <ele>1210.3083496094</ele>
        <time>2014-12-21T13:18:56Z</time>
      </trkpt>
      <trkpt lat="43.90529" lon="7.28684">
        <ele>1205.3455810547</ele>
        <time>2014-12-21T13:19:01Z</time>
      </trkpt>
      <trkpt lat="43.90531" lon="7.28678">
        <ele>1200.5322265625</ele>
        <time>2014-12-21T13:19:06Z</time>
      </trkpt>
      <trkpt lat="43.90531" lon="7.28672">
        <ele>1196.9342041016</ele>
        <time>2014-12-21T13:19:13Z</time>
      </trkpt>
      <trkpt lat="43.90533" lon="7.28667">
        <ele>1192.8228759766</ele>
        <time>2014-12-21T13:19:19Z</time>
      </trkpt>
      <trkpt lat="43.90534" lon="7.28664">
        <ele>1191.0181884766</ele>
        <time>2014-12-21T13:19:21Z</time>
      </trkpt>
      <trkpt lat="43.90537" lon="7.28654">
        <ele>1182.8140869141</ele>
        <time>2014-12-21T13:19:27Z</time>
      </trkpt>
      <trkpt lat="43.90538" lon="7.2865">
        <ele>1180.2355957031</ele>
        <time>2014-12-21T13:19:29Z</time>
      </trkpt>
      <trkpt lat="43.90535" lon="7.28639">
        <ele>1176.5935058594</ele>
        <time>2014-12-21T13:19:37Z</time>
      </trkpt>
      <trkpt lat="43.90533" lon="7.28637">
        <ele>1177.4528808594</ele>
        <time>2014-12-21T13:19:40Z</time>
      </trkpt>
      <trkpt lat="43.90531" lon="7.28634">
        <ele>1177.2082519531</ele>
        <time>2014-12-21T13:19:47Z</time>
      </trkpt>
      <trkpt lat="43.90526" lon="7.28629">
        <ele>1178.7313232422</ele>
        <time>2014-12-21T13:19:56Z</time>
      </trkpt>
      <trkpt lat="43.90523" lon="7.28626">
        <ele>1179.595703125</ele>
        <time>2014-12-21T13:20:02Z</time>
      </trkpt>
      <trkpt lat="43.90517" lon="7.28621">
        <ele>1181.7836914062</ele>
        <time>2014-12-21T13:20:08Z</time>
      </trkpt>
      <trkpt lat="43.90513" lon="7.28619">
        <ele>1184.4936523438</ele>
        <time>2014-12-21T13:20:13Z</time>
      </trkpt>
      <trkpt lat="43.9051" lon="7.28612">
        <ele>1183.7612304688</ele>
        <time>2014-12-21T13:20:19Z</time>
      </trkpt>
      <trkpt lat="43.90511" lon="7.28608">
        <ele>1180.5919189453</ele>
        <time>2014-12-21T13:20:22Z</time>
      </trkpt>
      <trkpt lat="43.90514" lon="7.28604">
        <ele>1176.8098144531</ele>
        <time>2014-12-21T13:20:26Z</time>
      </trkpt>
      <trkpt lat="43.90509" lon="7.28594">
        <ele>1176.1437988281</ele>
        <time>2014-12-21T13:20:33Z</time>
      </trkpt>
      <trkpt lat="43.90506" lon="7.28588">
        <ele>1176.0816650391</ele>
        <time>2014-12-21T13:20:38Z</time>
      </trkpt>
      <trkpt lat="43.90504" lon="7.28585">
        <ele>1176.0819091797</ele>
        <time>2014-12-21T13:20:41Z</time>
      </trkpt>
      <trkpt lat="43.90503" lon="7.28582">
        <ele>1175.4880371094</ele>
        <time>2014-12-21T13:20:49Z</time>
      </trkpt>
      <trkpt lat="43.90503" lon="7.28581">
        <ele>1174.9345703125</ele>
        <time>2014-12-21T13:21:03Z</time>
      </trkpt>
      <trkpt lat="43.90501" lon="7.28583">
        <ele>1177.7309570312</ele>
        <time>2014-12-21T13:21:11Z</time>
      </trkpt>
      <trkpt lat="43.90498" lon="7.28581">
        <ele>1178.9932861328</ele>
        <time>2014-12-21T13:21:18Z</time>
      </trkpt>
      <trkpt lat="43.90496" lon="7.28579">
        <ele>1178.4830322266</ele>
        <time>2014-12-21T13:21:34Z</time>
      </trkpt>
      <trkpt lat="43.9049" lon="7.28575">
        <ele>1179.0599365234</ele>
        <time>2014-12-21T13:21:42Z</time>
      </trkpt>
      <trkpt lat="43.90487" lon="7.28573">
        <ele>1178.9753417969</ele>
        <time>2014-12-21T13:21:48Z</time>
      </trkpt>
      <trkpt lat="43.90485" lon="7.28569">
        <ele>1177.8605957031</ele>
        <time>2014-12-21T13:21:53Z</time>
      </trkpt>
      <trkpt lat="43.90481" lon="7.28566">
        <ele>1178.3024902344</ele>
        <time>2014-12-21T13:21:58Z</time>
      </trkpt>
      <trkpt lat="43.90477" lon="7.28569">
        <ele>1181.2525634766</ele>
        <time>2014-12-21T13:22:04Z</time>
      </trkpt>
      <trkpt lat="43.90474" lon="7.28568">
        <ele>1182.1217041016</ele>
        <time>2014-12-21T13:22:10Z</time>
      </trkpt>
      <trkpt lat="43.90472" lon="7.28563">
        <ele>1181.1059570312</ele>
        <time>2014-12-21T13:22:30Z</time>
      </trkpt>
      <trkpt lat="43.9047" lon="7.28559">
        <ele>1180.1993408203</ele>
        <time>2014-12-21T13:22:36Z</time>
      </trkpt>
      <trkpt lat="43.9047" lon="7.28558">
        <ele>1179.6430664062</ele>
        <time>2014-12-21T13:22:37Z</time>
      </trkpt>
      <trkpt lat="43.90466" lon="7.28545">
        <ele>1175.9542236328</ele>
        <time>2014-12-21T13:22:45Z</time>
      </trkpt>
      <trkpt lat="43.90466" lon="7.28533">
        <ele>1171.3125</ele>
        <time>2014-12-21T13:22:51Z</time>
      </trkpt>
      <trkpt lat="43.90465" lon="7.28529">
        <ele>1170.1263427734</ele>
        <time>2014-12-21T13:22:56Z</time>
      </trkpt>
      <trkpt lat="43.90462" lon="7.28529">
        <ele>1171.3399658203</ele>
        <time>2014-12-21T13:22:58Z</time>
      </trkpt>
      <trkpt lat="43.90464" lon="7.28523">
        <ele>1168.107421875</ele>
        <time>2014-12-21T13:23:05Z</time>
      </trkpt>
      <trkpt lat="43.90469" lon="7.2852">
        <ele>1165.2028808594</ele>
        <time>2014-12-21T13:23:13Z</time>
      </trkpt>
      <trkpt lat="43.90468" lon="7.28518">
        <ele>1164.3480224609</ele>
        <time>2014-12-21T13:23:17Z</time>
      </trkpt>
      <trkpt lat="43.90476" lon="7.28508">
        <ele>1155.7644042969</ele>
        <time>2014-12-21T13:23:27Z</time>
      </trkpt>
      <trkpt lat="43.90478" lon="7.28504">
        <ele>1153.30859375</ele>
        <time>2014-12-21T13:23:32Z</time>
      </trkpt>
      <trkpt lat="43.90481" lon="7.28501">
        <ele>1150.0416259766</ele>
        <time>2014-12-21T13:23:35Z</time>
      </trkpt>
      <trkpt lat="43.90488" lon="7.28499">
        <ele>1144.5452880859</ele>
        <time>2014-12-21T13:23:41Z</time>
      </trkpt>
      <trkpt lat="43.90487" lon="7.28498">
        <ele>1144.8542480469</ele>
        <time>2014-12-21T13:23:42Z</time>
      </trkpt>
      <trkpt lat="43.90489" lon="7.28495">
        <ele>1142.0561523438</ele>
        <time>2014-12-21T13:23:49Z</time>
      </trkpt>
      <trkpt lat="43.90492" lon="7.28491">
        <ele>1138.4855957031</ele>
        <time>2014-12-21T13:23:56Z</time>
      </trkpt>
      <trkpt lat="43.90493" lon="7.2849">
        <ele>1137.7131347656</ele>
        <time>2014-12-21T13:23:57Z</time>
      </trkpt>
      <trkpt lat="43.90495" lon="7.28487">
        <ele>1134.5889892578</ele>
        <time>2014-12-21T13:24:00Z</time>
      </trkpt>
      <trkpt lat="43.90498" lon="7.28481">
        <ele>1130.7265625</ele>
        <time>2014-12-21T13:24:06Z</time>
      </trkpt>
      <trkpt lat="43.90498" lon="7.28479">
        <ele>1130.1772460938</ele>
        <time>2014-12-21T13:24:08Z</time>
      </trkpt>
      <trkpt lat="43.90488" lon="7.28471">
        <ele>1133.9827880859</ele>
        <time>2014-12-21T13:24:14Z</time>
      </trkpt>
      <trkpt lat="43.90487" lon="7.2847">
        <ele>1134.79296875</ele>
        <time>2014-12-21T13:24:15Z</time>
      </trkpt>
      <trkpt lat="43.90485" lon="7.28468">
        <ele>1134.5595703125</ele>
        <time>2014-12-21T13:24:17Z</time>
      </trkpt>
      <trkpt lat="43.90482" lon="7.28464">
        <ele>1134.87890625</ele>
        <time>2014-12-21T13:24:22Z</time>
      </trkpt>
      <trkpt lat="43.90483" lon="7.28453">
        <ele>1128.7333984375</ele>
        <time>2014-12-21T13:24:27Z</time>
      </trkpt>
      <trkpt lat="43.90483" lon="7.2845">
        <ele>1127.2193603516</ele>
        <time>2014-12-21T13:24:29Z</time>
      </trkpt>
      <trkpt lat="43.90487" lon="7.2844">
        <ele>1119.8310546875</ele>
        <time>2014-12-21T13:24:36Z</time>
      </trkpt>
      <trkpt lat="43.90488" lon="7.28432">
        <ele>1116.1374511719</ele>
        <time>2014-12-21T13:24:47Z</time>
      </trkpt>
      <trkpt lat="43.90488" lon="7.2843">
        <ele>1114.8518066406</ele>
        <time>2014-12-21T13:24:51Z</time>
      </trkpt>
      <trkpt lat="43.90481" lon="7.28426">
        <ele>1118.212890625</ele>
        <time>2014-12-21T13:24:57Z</time>
      </trkpt>
      <trkpt lat="43.90479" lon="7.28422">
        <ele>1118.5251464844</ele>
        <time>2014-12-21T13:25:03Z</time>
      </trkpt>
      <trkpt lat="43.90479" lon="7.2842">
        <ele>1117.1921386719</ele>
        <time>2014-12-21T13:25:08Z</time>
      </trkpt>
      <trkpt lat="43.90485" lon="7.28418">
        <ele>1112.8395996094</ele>
        <time>2014-12-21T13:25:14Z</time>
      </trkpt>
      <trkpt lat="43.90488" lon="7.28414">
        <ele>1109.3488769531</ele>
        <time>2014-12-21T13:25:20Z</time>
      </trkpt>
      <trkpt lat="43.90493" lon="7.28412">
        <ele>1105.1732177734</ele>
        <time>2014-12-21T13:25:26Z</time>
      </trkpt>
      <trkpt lat="43.90496" lon="7.28409">
        <ele>1102.4619140625</ele>
        <time>2014-12-21T13:25:41Z</time>
      </trkpt>
      <trkpt lat="43.90495" lon="7.28408">
        <ele>1102.4907226562</ele>
        <time>2014-12-21T13:25:43Z</time>
      </trkpt>
      <trkpt lat="43.90488" lon="7.28406">
        <ele>1105.8747558594</ele>
        <time>2014-12-21T13:25:50Z</time>
      </trkpt>
      <trkpt lat="43.90483" lon="7.28404">
        <ele>1108.1270751953</ele>
        <time>2014-12-21T13:25:56Z</time>
      </trkpt>
      <trkpt lat="43.90478" lon="7.28401">
        <ele>1109.5344238281</ele>
        <time>2014-12-21T13:26:01Z</time>
      </trkpt>
      <trkpt lat="43.90474" lon="7.28397">
        <ele>1109.9595947266</ele>
        <time>2014-12-21T13:26:07Z</time>
      </trkpt>
      <trkpt lat="43.90468" lon="7.28393">
        <ele>1112.3070068359</ele>
        <time>2014-12-21T13:26:14Z</time>
      </trkpt>
      <trkpt lat="43.90466" lon="7.28392">
        <ele>1113.1876220703</ele>
        <time>2014-12-21T13:26:16Z</time>
      </trkpt>
      <trkpt lat="43.90466" lon="7.28381">
        <ele>1109.6599121094</ele>
        <time>2014-12-21T13:26:21Z</time>
      </trkpt>
      <trkpt lat="43.90466" lon="7.28373">
        <ele>1106.6909179688</ele>
        <time>2014-12-21T13:26:29Z</time>
      </trkpt>
      <trkpt lat="43.90468" lon="7.28368">
        <ele>1103.4709472656</ele>
        <time>2014-12-21T13:26:41Z</time>
      </trkpt>
      <trkpt lat="43.90466" lon="7.28364">
        <ele>1103.9105224609</ele>
        <time>2014-12-21T13:26:48Z</time>
      </trkpt>
      <trkpt lat="43.90466" lon="7.28361">
        <ele>1103.2175292969</ele>
        <time>2014-12-21T13:26:53Z</time>
      </trkpt>
      <trkpt lat="43.90466" lon="7.28354">
        <ele>1101.4421386719</ele>
        <time>2014-12-21T13:26:58Z</time>
      </trkpt>
      <trkpt lat="43.90464" lon="7.28349">
        <ele>1101.9940185547</ele>
        <time>2014-12-21T13:27:04Z</time>
      </trkpt>
      <trkpt lat="43.90462" lon="7.2834">
        <ele>1100.6912841797</ele>
        <time>2014-12-21T13:27:11Z</time>
      </trkpt>
      <trkpt lat="43.90462" lon="7.28339">
        <ele>1100.4479980469</ele>
        <time>2014-12-21T13:27:12Z</time>
      </trkpt>
      <trkpt lat="43.90464" lon="7.28332">
        <ele>1097.9671630859</ele>
        <time>2014-12-21T13:27:18Z</time>
      </trkpt>
      <trkpt lat="43.90462" lon="7.28325">
        <ele>1097.7420654297</ele>
        <time>2014-12-21T13:27:24Z</time>
      </trkpt>
      <trkpt lat="43.90462" lon="7.28318">
        <ele>1096.2561035156</ele>
        <time>2014-12-21T13:27:30Z</time>
      </trkpt>
      <trkpt lat="43.90462" lon="7.28317">
        <ele>1096.0034179688</ele>
        <time>2014-12-21T13:27:31Z</time>
      </trkpt>
      <trkpt lat="43.90465" lon="7.28306">
        <ele>1092.3006591797</ele>
        <time>2014-12-21T13:27:40Z</time>
      </trkpt>
      <trkpt lat="43.90467" lon="7.28301">
        <ele>1090.390625</ele>
        <time>2014-12-21T13:27:45Z</time>
      </trkpt>
      <trkpt lat="43.90469" lon="7.28292">
        <ele>1088.4611816406</ele>
        <time>2014-12-21T13:27:51Z</time>
      </trkpt>
      <trkpt lat="43.90472" lon="7.28285">
        <ele>1086.1403808594</ele>
        <time>2014-12-21T13:27:55Z</time>
      </trkpt>
      <trkpt lat="43.90473" lon="7.28282">
        <ele>1085.1257324219</ele>
        <time>2014-12-21T13:27:57Z</time>
      </trkpt>
      <trkpt lat="43.90475" lon="7.28271">
        <ele>1082.2698974609</ele>
        <time>2014-12-21T13:28:04Z</time>
      </trkpt>
      <trkpt lat="43.90477" lon="7.28263">
        <ele>1079.8939208984</ele>
        <time>2014-12-21T13:28:09Z</time>
      </trkpt>
      <trkpt lat="43.9048" lon="7.28257">
        <ele>1077.6926269531</ele>
        <time>2014-12-21T13:28:13Z</time>
      </trkpt>
      <trkpt lat="43.90481" lon="7.2825">
        <ele>1076.1468505859</ele>
        <time>2014-12-21T13:28:19Z</time>
      </trkpt>
      <trkpt lat="43.90483" lon="7.28249">
        <ele>1075.3735351562</ele>
        <time>2014-12-21T13:28:20Z</time>
      </trkpt>
      <trkpt lat="43.90483" lon="7.28247">
        <ele>1074.8482666016</ele>
        <time>2014-12-21T13:28:22Z</time>
      </trkpt>
      <trkpt lat="43.90485" lon="7.28241">
        <ele>1073.3238525391</ele>
        <time>2014-12-21T13:28:26Z</time>
      </trkpt>
      <trkpt lat="43.90486" lon="7.28234">
        <ele>1072.2784423828</ele>
        <time>2014-12-21T13:28:30Z</time>
      </trkpt>
      <trkpt lat="43.90487" lon="7.28227">
        <ele>1070.9653320312</ele>
        <time>2014-12-21T13:28:36Z</time>
      </trkpt>
      <trkpt lat="43.90489" lon="7.28222">
        <ele>1069.7819824219</ele>
        <time>2014-12-21T13:28:41Z</time>
      </trkpt>
      <trkpt lat="43.90489" lon="7.28213">
        <ele>1068.4962158203</ele>
        <time>2014-12-21T13:28:47Z</time>
      </trkpt>
      <trkpt lat="43.9049" lon="7.28212">
        <ele>1067.6533203125</ele>
        <time>2014-12-21T13:28:54Z</time>
      </trkpt>
      <trkpt lat="43.90482" lon="7.28212">
        <ele>1070.8815917969</ele>
        <time>2014-12-21T13:29:10Z</time>
      </trkpt>
      <trkpt lat="43.90483" lon="7.28213">
        <ele>1070.6311035156</ele>
        <time>2014-12-21T13:29:17Z</time>
      </trkpt>
      <trkpt lat="43.90487" lon="7.28206">
        <ele>1068.2976074219</ele>
        <time>2014-12-21T13:29:22Z</time>
      </trkpt>
      <trkpt lat="43.90491" lon="7.28196">
        <ele>1065.2713623047</ele>
        <time>2014-12-21T13:29:29Z</time>
      </trkpt>
      <trkpt lat="43.90492" lon="7.2819">
        <ele>1064.1595458984</ele>
        <time>2014-12-21T13:29:33Z</time>
      </trkpt>
      <trkpt lat="43.90496" lon="7.28177">
        <ele>1061.6196289062</ele>
        <time>2014-12-21T13:29:41Z</time>
      </trkpt>
      <trkpt lat="43.90498" lon="7.28171">
        <ele>1060.7161865234</ele>
        <time>2014-12-21T13:29:46Z</time>
      </trkpt>
      <trkpt lat="43.90501" lon="7.28161">
        <ele>1057.9438476562</ele>
        <time>2014-12-21T13:29:52Z</time>
      </trkpt>
      <trkpt lat="43.90502" lon="7.28153">
        <ele>1054.5643310547</ele>
        <time>2014-12-21T13:29:59Z</time>
      </trkpt>
      <trkpt lat="43.90502" lon="7.28146">
        <ele>1052.9914550781</ele>
        <time>2014-12-21T13:30:02Z</time>
      </trkpt>
      <trkpt lat="43.90502" lon="7.28137">
        <ele>1051.0421142578</ele>
        <time>2014-12-21T13:30:07Z</time>
      </trkpt>
      <trkpt lat="43.90501" lon="7.28135">
        <ele>1051.1535644531</ele>
        <time>2014-12-21T13:30:08Z</time>
      </trkpt>
      <trkpt lat="43.90499" lon="7.2813">
        <ele>1050.5018310547</ele>
        <time>2014-12-21T13:30:11Z</time>
      </trkpt>
      <trkpt lat="43.90496" lon="7.28124">
        <ele>1048.8125</ele>
        <time>2014-12-21T13:30:15Z</time>
      </trkpt>
      <trkpt lat="43.90489" lon="7.28116">
        <ele>1045.69140625</ele>
        <time>2014-12-21T13:30:22Z</time>
      </trkpt>
      <trkpt lat="43.90488" lon="7.28113">
        <ele>1044.3409423828</ele>
        <time>2014-12-21T13:30:27Z</time>
      </trkpt>
      <trkpt lat="43.90486" lon="7.28111">
        <ele>1043.3051757812</ele>
        <time>2014-12-21T13:30:32Z</time>
      </trkpt>
      <trkpt lat="43.90481" lon="7.28107">
        <ele>1040.5042724609</ele>
        <time>2014-12-21T13:30:40Z</time>
      </trkpt>
      <trkpt lat="43.9048" lon="7.28102">
        <ele>1037.5947265625</ele>
        <time>2014-12-21T13:30:47Z</time>
      </trkpt>
      <trkpt lat="43.90482" lon="7.28097">
        <ele>1035.6655273438</ele>
        <time>2014-12-21T13:30:50Z</time>
      </trkpt>
      <trkpt lat="43.90483" lon="7.28087">
        <ele>1030.7537841797</ele>
        <time>2014-12-21T13:30:56Z</time>
      </trkpt>
      <trkpt lat="43.90492" lon="7.28077">
        <ele>1028.7514648438</ele>
        <time>2014-12-21T13:31:02Z</time>
      </trkpt>
      <trkpt lat="43.90495" lon="7.28074">
        <ele>1027.9909667969</ele>
        <time>2014-12-21T13:31:07Z</time>
      </trkpt>
      <trkpt lat="43.90499" lon="7.28071">
        <ele>1027.1199951172</ele>
        <time>2014-12-21T13:31:12Z</time>
      </trkpt>
      <trkpt lat="43.90499" lon="7.28071">
        <ele>1027.4097900391</ele>
        <time>2014-12-21T13:31:13Z</time>
      </trkpt>
      <trkpt lat="43.90502" lon="7.28073">
        <ele>1028.5310058594</ele>
        <time>2014-12-21T13:31:16Z</time>
      </trkpt>
      <trkpt lat="43.90509" lon="7.28063">
        <ele>1022.5119018555</ele>
        <time>2014-12-21T13:31:23Z</time>
      </trkpt>
      <trkpt lat="43.90511" lon="7.2806">
        <ele>1020.9708251953</ele>
        <time>2014-12-21T13:31:26Z</time>
      </trkpt>
      <trkpt lat="43.90514" lon="7.28055">
        <ele>1019.4413452148</ele>
        <time>2014-12-21T13:31:30Z</time>
      </trkpt>
      <trkpt lat="43.90523" lon="7.28044">
        <ele>1018.6165771484</ele>
        <time>2014-12-21T13:31:37Z</time>
      </trkpt>
      <trkpt lat="43.90532" lon="7.28034">
        <ele>1018.4722900391</ele>
        <time>2014-12-21T13:31:45Z</time>
      </trkpt>
      <trkpt lat="43.90538" lon="7.28026">
        <ele>1017.2326660156</ele>
        <time>2014-12-21T13:31:52Z</time>
      </trkpt>
      <trkpt lat="43.90542" lon="7.28022">
        <ele>1016.5267944336</ele>
        <time>2014-12-21T13:31:58Z</time>
      </trkpt>
      <trkpt lat="43.90546" lon="7.28016">
        <ele>1015.1196289062</ele>
        <time>2014-12-21T13:32:04Z</time>
      </trkpt>
      <trkpt lat="43.90553" lon="7.28012">
        <ele>1015.9260253906</ele>
        <time>2014-12-21T13:32:12Z</time>
      </trkpt>
      <trkpt lat="43.90556" lon="7.28008">
        <ele>1015.6646118164</ele>
        <time>2014-12-21T13:32:17Z</time>
      </trkpt>
      <trkpt lat="43.9056" lon="7.28003">
        <ele>1015.3148193359</ele>
        <time>2014-12-21T13:32:23Z</time>
      </trkpt>
      <trkpt lat="43.90562" lon="7.27999">
        <ele>1015.2158813477</ele>
        <time>2014-12-21T13:32:28Z</time>
      </trkpt>
      <trkpt lat="43.9057" lon="7.27991">
        <ele>1014.4779052734</ele>
        <time>2014-12-21T13:32:36Z</time>
      </trkpt>
      <trkpt lat="43.90576" lon="7.27984">
        <ele>1014.1239013672</ele>
        <time>2014-12-21T13:32:42Z</time>
      </trkpt>
      <trkpt lat="43.90579" lon="7.2798">
        <ele>1013.8685913086</ele>
        <time>2014-12-21T13:32:47Z</time>
      </trkpt>
      <trkpt lat="43.90585" lon="7.27973">
        <ele>1012.6633300781</ele>
        <time>2014-12-21T13:32:53Z</time>
      </trkpt>
      <trkpt lat="43.90583" lon="7.27966">
        <ele>1011.4967041016</ele>
        <time>2014-12-21T13:32:57Z</time>
      </trkpt>
      <trkpt lat="43.90582" lon="7.27955">
        <ele>1008.9076538086</ele>
        <time>2014-12-21T13:33:04Z</time>
      </trkpt>
      <trkpt lat="43.90583" lon="7.27953">
        <ele>1008.7080688477</ele>
        <time>2014-12-21T13:33:08Z</time>
      </trkpt>
      <trkpt lat="43.90583" lon="7.2795">
        <ele>1008.2567749023</ele>
        <time>2014-12-21T13:33:10Z</time>
      </trkpt>
      <trkpt lat="43.90583" lon="7.27941">
        <ele>1005.9862670898</ele>
        <time>2014-12-21T13:33:17Z</time>
      </trkpt>
      <trkpt lat="43.90585" lon="7.27934">
        <ele>1004.3867797852</ele>
        <time>2014-12-21T13:33:24Z</time>
      </trkpt>
      <trkpt lat="43.90586" lon="7.2793">
        <ele>1003.4712524414</ele>
        <time>2014-12-21T13:33:26Z</time>
      </trkpt>
      <trkpt lat="43.9059" lon="7.27926">
        <ele>1002.3465576172</ele>
        <time>2014-12-21T13:33:29Z</time>
      </trkpt>
      <trkpt lat="43.90596" lon="7.27916">
        <ele>1000.5270385742</ele>
        <time>2014-12-21T13:33:36Z</time>
      </trkpt>
      <trkpt lat="43.906" lon="7.27906">
        <ele>999.80102539062</ele>
        <time>2014-12-21T13:33:42Z</time>
      </trkpt>
      <trkpt lat="43.90602" lon="7.27902">
        <ele>999.65008544922</ele>
        <time>2014-12-21T13:33:45Z</time>
      </trkpt>
      <trkpt lat="43.90603" lon="7.27892">
        <ele>999.24810791016</ele>
        <time>2014-12-21T13:33:51Z</time>
      </trkpt>
      <trkpt lat="43.90603" lon="7.27886">
        <ele>998.91381835938</ele>
        <time>2014-12-21T13:33:54Z</time>
      </trkpt>
      <trkpt lat="43.90607" lon="7.27878">
        <ele>999.13488769531</ele>
        <time>2014-12-21T13:33:59Z</time>
      </trkpt>
      <trkpt lat="43.90614" lon="7.27864">
        <ele>999.93914794922</ele>
        <time>2014-12-21T13:34:07Z</time>
      </trkpt>
      <trkpt lat="43.90617" lon="7.27851">
        <ele>1000.453125</ele>
        <time>2014-12-21T13:34:15Z</time>
      </trkpt>
      <trkpt lat="43.90615" lon="7.27839">
        <ele>1000.9408569336</ele>
        <time>2014-12-21T13:34:22Z</time>
      </trkpt>
      <trkpt lat="43.90615" lon="7.27829">
        <ele>1000.9626464844</ele>
        <time>2014-12-21T13:34:28Z</time>
      </trkpt>
      <trkpt lat="43.90615" lon="7.27826">
        <ele>1000.7835083008</ele>
        <time>2014-12-21T13:34:30Z</time>
      </trkpt>
      <trkpt lat="43.90619" lon="7.27815">
        <ele>1000.69140625</ele>
        <time>2014-12-21T13:34:38Z</time>
      </trkpt>
      <trkpt lat="43.9062" lon="7.27811">
        <ele>1000.7547607422</ele>
        <time>2014-12-21T13:34:40Z</time>
      </trkpt>
      <trkpt lat="43.90624" lon="7.27806">
        <ele>1001.3629150391</ele>
        <time>2014-12-21T13:34:45Z</time>
      </trkpt>
      <trkpt lat="43.90623" lon="7.27803">
        <ele>1001.200012207</ele>
        <time>2014-12-21T13:34:47Z</time>
      </trkpt>
      <trkpt lat="43.90627" lon="7.27792">
        <ele>1002.157043457</ele>
        <time>2014-12-21T13:34:54Z</time>
      </trkpt>
      <trkpt lat="43.90628" lon="7.2778">
        <ele>1002.5200195312</ele>
        <time>2014-12-21T13:35:01Z</time>
      </trkpt>
      <trkpt lat="43.90631" lon="7.27766">
        <ele>1004.2819824219</ele>
        <time>2014-12-21T13:35:08Z</time>
      </trkpt>
      <trkpt lat="43.90632" lon="7.27753">
        <ele>1005.5588989258</ele>
        <time>2014-12-21T13:35:16Z</time>
      </trkpt>
      <trkpt lat="43.9063" lon="7.27741">
        <ele>1005.0400390625</ele>
        <time>2014-12-21T13:35:24Z</time>
      </trkpt>
      <trkpt lat="43.90629" lon="7.2774">
        <ele>1004.9124755859</ele>
        <time>2014-12-21T13:35:26Z</time>
      </trkpt>
      <trkpt lat="43.90628" lon="7.27724">
        <ele>1005.4469604492</ele>
        <time>2014-12-21T13:35:36Z</time>
      </trkpt>
      <trkpt lat="43.90629" lon="7.27716">
        <ele>1006.7414550781</ele>
        <time>2014-12-21T13:35:41Z</time>
      </trkpt>
      <trkpt lat="43.90628" lon="7.27706">
        <ele>1007.4934692383</ele>
        <time>2014-12-21T13:35:48Z</time>
      </trkpt>
      <trkpt lat="43.90626" lon="7.27696">
        <ele>1006.8233032227</ele>
        <time>2014-12-21T13:35:53Z</time>
      </trkpt>
      <trkpt lat="43.90622" lon="7.27681">
        <ele>1004.0347900391</ele>
        <time>2014-12-21T13:36:01Z</time>
      </trkpt>
      <trkpt lat="43.90618" lon="7.27668">
        <ele>1002.6463623047</ele>
        <time>2014-12-21T13:36:09Z</time>
      </trkpt>
      <trkpt lat="43.90614" lon="7.27657">
        <ele>1001.0977783203</ele>
        <time>2014-12-21T13:36:16Z</time>
      </trkpt>
      <trkpt lat="43.90613" lon="7.27655">
        <ele>1000.8988037109</ele>
        <time>2014-12-21T13:36:17Z</time>
      </trkpt>
      <trkpt lat="43.90611" lon="7.27651">
        <ele>1000.3048706055</ele>
        <time>2014-12-21T13:36:20Z</time>
      </trkpt>
      <trkpt lat="43.90607" lon="7.27646">
        <ele>997.74353027344</ele>
        <time>2014-12-21T13:36:25Z</time>
      </trkpt>
      <trkpt lat="43.90601" lon="7.27633">
        <ele>995.1171875</ele>
        <time>2014-12-21T13:36:33Z</time>
      </trkpt>
      <trkpt lat="43.90599" lon="7.27624">
        <ele>994.53210449219</ele>
        <time>2014-12-21T13:36:38Z</time>
      </trkpt>
      <trkpt lat="43.90596" lon="7.27612">
        <ele>994.24890136719</ele>
        <time>2014-12-21T13:36:45Z</time>
      </trkpt>
      <trkpt lat="43.90588" lon="7.27596">
        <ele>990.94512939453</ele>
        <time>2014-12-21T13:36:54Z</time>
      </trkpt>
      <trkpt lat="43.90587" lon="7.27595">
        <ele>990.64929199219</ele>
        <time>2014-12-21T13:36:55Z</time>
      </trkpt>
      <trkpt lat="43.90584" lon="7.27588">
        <ele>989.52593994141</ele>
        <time>2014-12-21T13:37:01Z</time>
      </trkpt>
      <trkpt lat="43.90579" lon="7.27574">
        <ele>986.79748535156</ele>
        <time>2014-12-21T13:37:09Z</time>
      </trkpt>
      <trkpt lat="43.90574" lon="7.27562">
        <ele>984.57659912109</ele>
        <time>2014-12-21T13:37:16Z</time>
      </trkpt>
      <trkpt lat="43.90573" lon="7.27559">
        <ele>984.44738769531</ele>
        <time>2014-12-21T13:37:18Z</time>
      </trkpt>
      <trkpt lat="43.90574" lon="7.27553">
        <ele>984.36499023438</ele>
        <time>2014-12-21T13:37:22Z</time>
      </trkpt>
      <trkpt lat="43.90574" lon="7.27538">
        <ele>983.57775878906</ele>
        <time>2014-12-21T13:37:31Z</time>
      </trkpt>
      <trkpt lat="43.90572" lon="7.27532">
        <ele>982.95397949219</ele>
        <time>2014-12-21T13:37:37Z</time>
      </trkpt>
      <trkpt lat="43.90568" lon="7.27523">
        <ele>982.30285644531</ele>
        <time>2014-12-21T13:37:44Z</time>
      </trkpt>
      <trkpt lat="43.90568" lon="7.27523">
        <ele>982.29663085938</ele>
        <time>2014-12-21T13:37:45Z</time>
      </trkpt>
      <trkpt lat="43.90569" lon="7.27518">
        <ele>982.28430175781</ele>
        <time>2014-12-21T13:37:49Z</time>
      </trkpt>
      <trkpt lat="43.90568" lon="7.27504">
        <ele>982.05596923828</ele>
        <time>2014-12-21T13:37:57Z</time>
      </trkpt>
      <trkpt lat="43.90563" lon="7.27494">
        <ele>981.57495117188</ele>
        <time>2014-12-21T13:38:03Z</time>
      </trkpt>
      <trkpt lat="43.90561" lon="7.27486">
        <ele>981.01190185547</ele>
        <time>2014-12-21T13:38:09Z</time>
      </trkpt>
      <trkpt lat="43.9056" lon="7.27485">
        <ele>980.90551757812</ele>
        <time>2014-12-21T13:38:10Z</time>
      </trkpt>
      <trkpt lat="43.90558" lon="7.27478">
        <ele>980.43859863281</ele>
        <time>2014-12-21T13:38:16Z</time>
      </trkpt>
      <trkpt lat="43.90556" lon="7.27474">
        <ele>980.11242675781</ele>
        <time>2014-12-21T13:38:19Z</time>
      </trkpt>
      <trkpt lat="43.90554" lon="7.27465">
        <ele>980</ele>
        <time>2014-12-21T13:38:25Z</time>
      </trkpt>
      <trkpt lat="43.90554" lon="7.27458">
        <ele>980</ele>
        <time>2014-12-21T13:38:30Z</time>
      </trkpt>
      <trkpt lat="43.90553" lon="7.27445">
        <ele>980</ele>
        <time>2014-12-21T13:38:39Z</time>
      </trkpt>
      <trkpt lat="43.90553" lon="7.27432">
        <ele>980</ele>
        <time>2014-12-21T13:38:47Z</time>
      </trkpt>
      <trkpt lat="43.90551" lon="7.27421">
        <ele>980</ele>
        <time>2014-12-21T13:38:55Z</time>
      </trkpt>
      <trkpt lat="43.9055" lon="7.27411">
        <ele>979.24859619141</ele>
        <time>2014-12-21T13:39:02Z</time>
      </trkpt>
      <trkpt lat="43.90548" lon="7.27402">
        <ele>978.08605957031</ele>
        <time>2014-12-21T13:39:08Z</time>
      </trkpt>
      <trkpt lat="43.90548" lon="7.27391">
        <ele>976.75903320312</ele>
        <time>2014-12-21T13:39:16Z</time>
      </trkpt>
      <trkpt lat="43.9054" lon="7.27378">
        <ele>976.40228271484</ele>
        <time>2014-12-21T13:39:26Z</time>
      </trkpt>
      <trkpt lat="43.90531" lon="7.27368">
        <ele>978.66003417969</ele>
        <time>2014-12-21T13:39:33Z</time>
      </trkpt>
      <trkpt lat="43.90523" lon="7.27359">
        <ele>980</ele>
        <time>2014-12-21T13:39:41Z</time>
      </trkpt>
      <trkpt lat="43.90515" lon="7.27353">
        <ele>980</ele>
        <time>2014-12-21T13:39:48Z</time>
      </trkpt>
      <trkpt lat="43.90509" lon="7.27345">
        <ele>980</ele>
        <time>2014-12-21T13:39:55Z</time>
      </trkpt>
      <trkpt lat="43.90504" lon="7.27339">
        <ele>980</ele>
        <time>2014-12-21T13:40:03Z</time>
      </trkpt>
      <trkpt lat="43.90504" lon="7.27338">
        <ele>980</ele>
        <time>2014-12-21T13:40:23Z</time>
      </trkpt>
      <trkpt lat="43.90503" lon="7.27336">
        <ele>980</ele>
        <time>2014-12-21T13:41:01Z</time>
      </trkpt>
      <trkpt lat="43.90499" lon="7.27329">
        <ele>979.68084716797</ele>
        <time>2014-12-21T13:41:10Z</time>
      </trkpt>
      <trkpt lat="43.90496" lon="7.27321">
        <ele>979.00793457031</ele>
        <time>2014-12-21T13:41:20Z</time>
      </trkpt>
      <trkpt lat="43.9049" lon="7.27317">
        <ele>977.37371826172</ele>
        <time>2014-12-21T13:41:27Z</time>
      </trkpt>
      <trkpt lat="43.90484" lon="7.27309">
        <ele>976.02789306641</ele>
        <time>2014-12-21T13:41:33Z</time>
      </trkpt>
      <trkpt lat="43.90483" lon="7.27308">
        <ele>975.73950195312</ele>
        <time>2014-12-21T13:41:37Z</time>
      </trkpt>
      <trkpt lat="43.9048" lon="7.27304">
        <ele>974.83831787109</ele>
        <time>2014-12-21T13:41:44Z</time>
      </trkpt>
      <trkpt lat="43.90479" lon="7.27299">
        <ele>973.33471679688</ele>
        <time>2014-12-21T13:41:50Z</time>
      </trkpt>
      <trkpt lat="43.90474" lon="7.27292">
        <ele>970.69396972656</ele>
        <time>2014-12-21T13:41:56Z</time>
      </trkpt>
      <trkpt lat="43.90471" lon="7.27283">
        <ele>967.77764892578</ele>
        <time>2014-12-21T13:42:03Z</time>
      </trkpt>
      <trkpt lat="43.90467" lon="7.27275">
        <ele>964.42755126953</ele>
        <time>2014-12-21T13:42:10Z</time>
      </trkpt>
      <trkpt lat="43.90467" lon="7.27274">
        <ele>964.06066894531</ele>
        <time>2014-12-21T13:42:11Z</time>
      </trkpt>
      <trkpt lat="43.90464" lon="7.27274">
        <ele>962.7646484375</ele>
        <time>2014-12-21T13:42:14Z</time>
      </trkpt>
      <trkpt lat="43.90461" lon="7.27274">
        <ele>961.48626708984</ele>
        <time>2014-12-21T13:42:21Z</time>
      </trkpt>
      <trkpt lat="43.90461" lon="7.27275">
        <ele>961.47375488281</ele>
        <time>2014-12-21T13:42:51Z</time>
      </trkpt>
      <trkpt lat="43.90459" lon="7.2727">
        <ele>959.43859863281</ele>
        <time>2014-12-21T13:43:28Z</time>
      </trkpt>
      <trkpt lat="43.90458" lon="7.2727">
        <ele>958.86297607422</ele>
        <time>2014-12-21T13:43:29Z</time>
      </trkpt>
      <trkpt lat="43.90453" lon="7.27273">
        <ele>957.20336914062</ele>
        <time>2014-12-21T13:43:35Z</time>
      </trkpt>
      <trkpt lat="43.90445" lon="7.27275">
        <ele>954.25952148438</ele>
        <time>2014-12-21T13:43:42Z</time>
      </trkpt>
      <trkpt lat="43.90441" lon="7.27275">
        <ele>952.75402832031</ele>
        <time>2014-12-21T13:43:47Z</time>
      </trkpt>
      <trkpt lat="43.9044" lon="7.27273">
        <ele>951.71374511719</ele>
        <time>2014-12-21T13:43:50Z</time>
      </trkpt>
      <trkpt lat="43.90434" lon="7.27276">
        <ele>950.20825195312</ele>
        <time>2014-12-21T13:43:57Z</time>
      </trkpt>
      <trkpt lat="43.90429" lon="7.27276">
        <ele>948.42639160156</ele>
        <time>2014-12-21T13:44:04Z</time>
      </trkpt>
      <trkpt lat="43.90428" lon="7.27274">
        <ele>947.20074462891</ele>
        <time>2014-12-21T13:44:07Z</time>
      </trkpt>
      <trkpt lat="43.90425" lon="7.27273">
        <ele>945.79138183594</ele>
        <time>2014-12-21T13:44:11Z</time>
      </trkpt>
      <trkpt lat="43.9042" lon="7.27274">
        <ele>944.05932617188</ele>
        <time>2014-12-21T13:44:17Z</time>
      </trkpt>
      <trkpt lat="43.90413" lon="7.27273">
        <ele>941.20928955078</ele>
        <time>2014-12-21T13:44:25Z</time>
      </trkpt>
      <trkpt lat="43.9041" lon="7.27273">
        <ele>940.34191894531</ele>
        <time>2014-12-21T13:44:28Z</time>
      </trkpt>
      <trkpt lat="43.90404" lon="7.27273">
        <ele>938.41522216797</ele>
        <time>2014-12-21T13:44:35Z</time>
      </trkpt>
      <trkpt lat="43.90402" lon="7.27273">
        <ele>937.83746337891</ele>
        <time>2014-12-21T13:44:37Z</time>
      </trkpt>
      <trkpt lat="43.90399" lon="7.27276">
        <ele>938.11059570312</ele>
        <time>2014-12-21T13:44:41Z</time>
      </trkpt>
      <trkpt lat="43.90395" lon="7.27277">
        <ele>937.35400390625</ele>
        <time>2014-12-21T13:44:46Z</time>
      </trkpt>
      <trkpt lat="43.90394" lon="7.27276">
        <ele>936.48864746094</ele>
        <time>2014-12-21T13:44:48Z</time>
      </trkpt>
      <trkpt lat="43.90388" lon="7.27271">
        <ele>932.80383300781</ele>
        <time>2014-12-21T13:44:56Z</time>
      </trkpt>
      <trkpt lat="43.90387" lon="7.27272">
        <ele>932.43786621094</ele>
        <time>2014-12-21T13:44:58Z</time>
      </trkpt>
      <trkpt lat="43.90383" lon="7.27269">
        <ele>930.03283691406</ele>
        <time>2014-12-21T13:45:04Z</time>
      </trkpt>
      <trkpt lat="43.90379" lon="7.27266">
        <ele>927.1845703125</ele>
        <time>2014-12-21T13:45:11Z</time>
      </trkpt>
      <trkpt lat="43.90376" lon="7.27268">
        <ele>926.77667236328</ele>
        <time>2014-12-21T13:45:16Z</time>
      </trkpt>
      <trkpt lat="43.90375" lon="7.27267">
        <ele>925.88433837891</ele>
        <time>2014-12-21T13:45:18Z</time>
      </trkpt>
      <trkpt lat="43.90373" lon="7.27264">
        <ele>924.10943603516</ele>
        <time>2014-12-21T13:45:21Z</time>
      </trkpt>
      <trkpt lat="43.90372" lon="7.27262">
        <ele>922.70568847656</ele>
        <time>2014-12-21T13:45:23Z</time>
      </trkpt>
      <trkpt lat="43.90369" lon="7.2726">
        <ele>921.07690429688</ele>
        <time>2014-12-21T13:45:30Z</time>
      </trkpt>
      <trkpt lat="43.90368" lon="7.2726">
        <ele>920.39135742188</ele>
        <time>2014-12-21T13:45:58Z</time>
      </trkpt>
      <trkpt lat="43.90367" lon="7.27259">
        <ele>919.85668945312</ele>
        <time>2014-12-21T13:46:00Z</time>
      </trkpt>
      <trkpt lat="43.90367" lon="7.27251">
        <ele>916.51049804688</ele>
        <time>2014-12-21T13:46:08Z</time>
      </trkpt>
      <trkpt lat="43.90368" lon="7.27249">
        <ele>916.00305175781</ele>
        <time>2014-12-21T13:46:10Z</time>
      </trkpt>
      <trkpt lat="43.90369" lon="7.27244">
        <ele>914.615234375</ele>
        <time>2014-12-21T13:46:17Z</time>
      </trkpt>
      <trkpt lat="43.90365" lon="7.27242">
        <ele>912.87335205078</ele>
        <time>2014-12-21T13:46:23Z</time>
      </trkpt>
      <trkpt lat="43.90362" lon="7.2724">
        <ele>911.08392333984</ele>
        <time>2014-12-21T13:46:28Z</time>
      </trkpt>
      <trkpt lat="43.90356" lon="7.2724">
        <ele>909.85015869141</ele>
        <time>2014-12-21T13:46:34Z</time>
      </trkpt>
      <trkpt lat="43.90351" lon="7.2724">
        <ele>908.82891845703</ele>
        <time>2014-12-21T13:46:40Z</time>
      </trkpt>
      <trkpt lat="43.9035" lon="7.27239">
        <ele>908.30065917969</ele>
        <time>2014-12-21T13:46:42Z</time>
      </trkpt>
      <trkpt lat="43.90347" lon="7.27238">
        <ele>907.22863769531</ele>
        <time>2014-12-21T13:46:49Z</time>
      </trkpt>
      <trkpt lat="43.90348" lon="7.27236">
        <ele>906.89532470703</ele>
        <time>2014-12-21T13:46:51Z</time>
      </trkpt>
      <trkpt lat="43.90348" lon="7.2723">
        <ele>905.42266845703</ele>
        <time>2014-12-21T13:46:57Z</time>
      </trkpt>
      <trkpt lat="43.90345" lon="7.27231">
        <ele>904.93786621094</ele>
        <time>2014-12-21T13:47:03Z</time>
      </trkpt>
      <trkpt lat="43.90342" lon="7.27232">
        <ele>904.62487792969</ele>
        <time>2014-12-21T13:47:07Z</time>
      </trkpt>
      <trkpt lat="43.90337" lon="7.27229">
        <ele>903.05786132812</ele>
        <time>2014-12-21T13:47:14Z</time>
      </trkpt>
      <trkpt lat="43.90333" lon="7.27227">
        <ele>901.91027832031</ele>
        <time>2014-12-21T13:47:20Z</time>
      </trkpt>
      <trkpt lat="43.90331" lon="7.27225">
        <ele>900.77111816406</ele>
        <time>2014-12-21T13:47:23Z</time>
      </trkpt>
      <trkpt lat="43.90327" lon="7.27223">
        <ele>898.98229980469</ele>
        <time>2014-12-21T13:47:30Z</time>
      </trkpt>
      <trkpt lat="43.90324" lon="7.27223">
        <ele>897.91937255859</ele>
        <time>2014-12-21T13:47:37Z</time>
      </trkpt>
      <trkpt lat="43.90316" lon="7.27224">
        <ele>895.19140625</ele>
        <time>2014-12-21T13:47:46Z</time>
      </trkpt>
      <trkpt lat="43.90311" lon="7.27225">
        <ele>893.71990966797</ele>
        <time>2014-12-21T13:47:51Z</time>
      </trkpt>
      <trkpt lat="43.90309" lon="7.27224">
        <ele>892.96600341797</ele>
        <time>2014-12-21T13:47:53Z</time>
      </trkpt>
      <trkpt lat="43.90306" lon="7.27214">
        <ele>887.94848632812</ele>
        <time>2014-12-21T13:48:01Z</time>
      </trkpt>
      <trkpt lat="43.90305" lon="7.27215">
        <ele>887.84692382812</ele>
        <time>2014-12-21T13:48:02Z</time>
      </trkpt>
      <trkpt lat="43.903" lon="7.27214">
        <ele>885.74066162109</ele>
        <time>2014-12-21T13:48:09Z</time>
      </trkpt>
      <trkpt lat="43.90297" lon="7.27212">
        <ele>883.88671875</ele>
        <time>2014-12-21T13:48:13Z</time>
      </trkpt>
      <trkpt lat="43.90294" lon="7.27209">
        <ele>881.31005859375</ele>
        <time>2014-12-21T13:48:18Z</time>
      </trkpt>
      <trkpt lat="43.90288" lon="7.27208">
        <ele>878.99090576172</ele>
        <time>2014-12-21T13:48:26Z</time>
      </trkpt>
      <trkpt lat="43.90286" lon="7.27205">
        <ele>876.97729492188</ele>
        <time>2014-12-21T13:48:30Z</time>
      </trkpt>
      <trkpt lat="43.90282" lon="7.27201">
        <ele>874.0556640625</ele>
        <time>2014-12-21T13:48:38Z</time>
      </trkpt>
      <trkpt lat="43.90281" lon="7.27201">
        <ele>873.46856689453</ele>
        <time>2014-12-21T13:48:40Z</time>
      </trkpt>
      <trkpt lat="43.90277" lon="7.272">
        <ele>872.14782714844</ele>
        <time>2014-12-21T13:48:46Z</time>
      </trkpt>
      <trkpt lat="43.90275" lon="7.27201">
        <ele>871.94201660156</ele>
        <time>2014-12-21T13:48:53Z</time>
      </trkpt>
      <trkpt lat="43.90274" lon="7.27199">
        <ele>870.69744873047</ele>
        <time>2014-12-21T13:49:34Z</time>
      </trkpt>
      <trkpt lat="43.90271" lon="7.27198">
        <ele>869.46398925781</ele>
        <time>2014-12-21T13:49:38Z</time>
      </trkpt>
      <trkpt lat="43.90269" lon="7.27199">
        <ele>869.16467285156</ele>
        <time>2014-12-21T13:49:40Z</time>
      </trkpt>
      <trkpt lat="43.90261" lon="7.27198">
        <ele>866.98919677734</ele>
        <time>2014-12-21T13:49:48Z</time>
      </trkpt>
      <trkpt lat="43.90259" lon="7.27195">
        <ele>865.44421386719</ele>
        <time>2014-12-21T13:49:52Z</time>
      </trkpt>
      <trkpt lat="43.90253" lon="7.27189">
        <ele>860.96551513672</ele>
        <time>2014-12-21T13:49:59Z</time>
      </trkpt>
      <trkpt lat="43.90256" lon="7.27183">
        <ele>858.18518066406</ele>
        <time>2014-12-21T13:50:07Z</time>
      </trkpt>
      <trkpt lat="43.9026" lon="7.27176">
        <ele>855.51599121094</ele>
        <time>2014-12-21T13:50:14Z</time>
      </trkpt>
      <trkpt lat="43.90262" lon="7.27172">
        <ele>853.35681152344</ele>
        <time>2014-12-21T13:50:20Z</time>
      </trkpt>
      <trkpt lat="43.90264" lon="7.27167">
        <ele>851.07080078125</ele>
        <time>2014-12-21T13:50:26Z</time>
      </trkpt>
      <trkpt lat="43.90259" lon="7.2716">
        <ele>846.64697265625</ele>
        <time>2014-12-21T13:51:45Z</time>
      </trkpt>
      <trkpt lat="43.90258" lon="7.27157">
        <ele>845.1123046875</ele>
        <time>2014-12-21T13:51:51Z</time>
      </trkpt>
      <trkpt lat="43.90257" lon="7.27156">
        <ele>844.16821289062</ele>
        <time>2014-12-21T13:51:58Z</time>
      </trkpt>
      <trkpt lat="43.90255" lon="7.27153">
        <ele>842.29022216797</ele>
        <time>2014-12-21T13:52:02Z</time>
      </trkpt>
      <trkpt lat="43.90254" lon="7.2715">
        <ele>840.62512207031</ele>
        <time>2014-12-21T13:52:06Z</time>
      </trkpt>
      <trkpt lat="43.90246" lon="7.27145">
        <ele>836.52191162109</ele>
        <time>2014-12-21T13:52:15Z</time>
      </trkpt>
      <trkpt lat="43.90237" lon="7.27143">
        <ele>833.99334716797</ele>
        <time>2014-12-21T13:52:24Z</time>
      </trkpt>
      <trkpt lat="43.90231" lon="7.27141">
        <ele>832.14147949219</ele>
        <time>2014-12-21T13:52:30Z</time>
      </trkpt>
      <trkpt lat="43.90221" lon="7.27139">
        <ele>829.30450439453</ele>
        <time>2014-12-21T13:52:38Z</time>
      </trkpt>
      <trkpt lat="43.90218" lon="7.2714">
        <ele>828.90307617188</ele>
        <time>2014-12-21T13:52:40Z</time>
      </trkpt>
      <trkpt lat="43.90208" lon="7.27141">
        <ele>825.59625244141</ele>
        <time>2014-12-21T13:52:48Z</time>
      </trkpt>
      <trkpt lat="43.90204" lon="7.27139">
        <ele>823.51177978516</ele>
        <time>2014-12-21T13:52:54Z</time>
      </trkpt>
      <trkpt lat="43.90202" lon="7.27136">
        <ele>821.60797119141</ele>
        <time>2014-12-21T13:53:00Z</time>
      </trkpt>
      <trkpt lat="43.90203" lon="7.27133">
        <ele>820.83093261719</ele>
        <time>2014-12-21T13:53:11Z</time>
      </trkpt>
      <trkpt lat="43.90207" lon="7.27122">
        <ele>817.86596679688</ele>
        <time>2014-12-21T13:53:19Z</time>
      </trkpt>
      <trkpt lat="43.90208" lon="7.2712">
        <ele>817.11779785156</ele>
        <time>2014-12-21T13:53:21Z</time>
      </trkpt>
      <trkpt lat="43.90207" lon="7.27118">
        <ele>815.7578125</ele>
        <time>2014-12-21T13:53:26Z</time>
      </trkpt>
      <trkpt lat="43.90206" lon="7.27118">
        <ele>815.74847412109</ele>
        <time>2014-12-21T13:53:27Z</time>
      </trkpt>
      <trkpt lat="43.90205" lon="7.27118">
        <ele>815.47540283203</ele>
        <time>2014-12-21T13:53:29Z</time>
      </trkpt>
      <trkpt lat="43.90201" lon="7.2712">
        <ele>815.24963378906</ele>
        <time>2014-12-21T13:53:33Z</time>
      </trkpt>
      <trkpt lat="43.90202" lon="7.27114">
        <ele>812.99310302734</ele>
        <time>2014-12-21T13:53:39Z</time>
      </trkpt>
      <trkpt lat="43.90199" lon="7.27109">
        <ele>810.47192382812</ele>
        <time>2014-12-21T13:53:45Z</time>
      </trkpt>
      <trkpt lat="43.90197" lon="7.2711">
        <ele>810.46264648438</ele>
        <time>2014-12-21T13:53:47Z</time>
      </trkpt>
      <trkpt lat="43.90191" lon="7.27112">
        <ele>809.01336669922</ele>
        <time>2014-12-21T13:53:54Z</time>
      </trkpt>
      <trkpt lat="43.90188" lon="7.2711">
        <ele>807.53375244141</ele>
        <time>2014-12-21T13:54:00Z</time>
      </trkpt>
      <trkpt lat="43.9019" lon="7.27103">
        <ele>805.53430175781</ele>
        <time>2014-12-21T13:54:08Z</time>
      </trkpt>
      <trkpt lat="43.90193" lon="7.27098">
        <ele>805.14227294922</ele>
        <time>2014-12-21T13:54:41Z</time>
      </trkpt>
      <trkpt lat="43.90195" lon="7.2709">
        <ele>803.04144287109</ele>
        <time>2014-12-21T13:54:48Z</time>
      </trkpt>
      <trkpt lat="43.90195" lon="7.27088">
        <ele>802.62292480469</ele>
        <time>2014-12-21T13:54:49Z</time>
      </trkpt>
      <trkpt lat="43.90194" lon="7.27086">
        <ele>801.29473876953</ele>
        <time>2014-12-21T13:54:54Z</time>
      </trkpt>
      <trkpt lat="43.90188" lon="7.27087">
        <ele>798.87072753906</ele>
        <time>2014-12-21T13:55:01Z</time>
      </trkpt>
      <trkpt lat="43.90189" lon="7.2708">
        <ele>796.693359375</ele>
        <time>2014-12-21T13:55:06Z</time>
      </trkpt>
      <trkpt lat="43.90191" lon="7.27075">
        <ele>795.16522216797</ele>
        <time>2014-12-21T13:55:10Z</time>
      </trkpt>
      <trkpt lat="43.90191" lon="7.27069">
        <ele>791.47326660156</ele>
        <time>2014-12-21T13:55:16Z</time>
      </trkpt>
      <trkpt lat="43.90194" lon="7.2706">
        <ele>788.87872314453</ele>
        <time>2014-12-21T13:55:23Z</time>
      </trkpt>
      <trkpt lat="43.90194" lon="7.27056">
        <ele>787.05035400391</ele>
        <time>2014-12-21T13:55:27Z</time>
      </trkpt>
      <trkpt lat="43.90193" lon="7.27051">
        <ele>784.37774658203</ele>
        <time>2014-12-21T13:55:30Z</time>
      </trkpt>
      <trkpt lat="43.90187" lon="7.2705">
        <ele>780.68402099609</ele>
        <time>2014-12-21T13:55:34Z</time>
      </trkpt>
      <trkpt lat="43.90177" lon="7.27053">
        <ele>776.42846679688</ele>
        <time>2014-12-21T13:55:41Z</time>
      </trkpt>
      <trkpt lat="43.90176" lon="7.27045">
        <ele>772.52117919922</ele>
        <time>2014-12-21T13:55:46Z</time>
      </trkpt>
      <trkpt lat="43.90179" lon="7.27034">
        <ele>769.05786132812</ele>
        <time>2014-12-21T13:55:54Z</time>
      </trkpt>
      <trkpt lat="43.90181" lon="7.27027">
        <ele>766.83758544922</ele>
        <time>2014-12-21T13:56:01Z</time>
      </trkpt>
      <trkpt lat="43.90174" lon="7.27029">
        <ele>764.23748779297</ele>
        <time>2014-12-21T13:56:07Z</time>
      </trkpt>
      <trkpt lat="43.9017" lon="7.27033">
        <ele>764.14526367188</ele>
        <time>2014-12-21T13:56:11Z</time>
      </trkpt>
      <trkpt lat="43.90168" lon="7.27034">
        <ele>763.29748535156</ele>
        <time>2014-12-21T13:56:16Z</time>
      </trkpt>
      <trkpt lat="43.90168" lon="7.27032">
        <ele>762.50024414062</ele>
        <time>2014-12-21T13:56:18Z</time>
      </trkpt>
      <trkpt lat="43.90168" lon="7.27029">
        <ele>761.43157958984</ele>
        <time>2014-12-21T13:56:21Z</time>
      </trkpt>
      <trkpt lat="43.90168" lon="7.27019">
        <ele>757.02581787109</ele>
        <time>2014-12-21T13:56:28Z</time>
      </trkpt>
      <trkpt lat="43.9017" lon="7.27011">
        <ele>754.41778564453</ele>
        <time>2014-12-21T13:56:35Z</time>
      </trkpt>
      <trkpt lat="43.90167" lon="7.27012">
        <ele>753.26800537109</ele>
        <time>2014-12-21T13:56:40Z</time>
      </trkpt>
      <trkpt lat="43.90165" lon="7.27015">
        <ele>753.16442871094</ele>
        <time>2014-12-21T13:56:44Z</time>
      </trkpt>
      <trkpt lat="43.90163" lon="7.27015">
        <ele>752.72058105469</ele>
        <time>2014-12-21T13:56:46Z</time>
      </trkpt>
      <trkpt lat="43.90159" lon="7.27019">
        <ele>752.00775146484</ele>
        <time>2014-12-21T13:56:53Z</time>
      </trkpt>
      <trkpt lat="43.90158" lon="7.27014">
        <ele>749.81829833984</ele>
        <time>2014-12-21T13:57:00Z</time>
      </trkpt>
      <trkpt lat="43.90158" lon="7.27007">
        <ele>746.58325195312</ele>
        <time>2014-12-21T13:57:06Z</time>
      </trkpt>
      <trkpt lat="43.90157" lon="7.27006">
        <ele>745.50048828125</ele>
        <time>2014-12-21T13:57:17Z</time>
      </trkpt>
      <trkpt lat="43.90157" lon="7.27001">
        <ele>743.58020019531</ele>
        <time>2014-12-21T13:57:23Z</time>
      </trkpt>
      <trkpt lat="43.90157" lon="7.26999">
        <ele>742.47399902344</ele>
        <time>2014-12-21T13:57:28Z</time>
      </trkpt>
      <trkpt lat="43.90157" lon="7.26998">
        <ele>742.27142333984</ele>
        <time>2014-12-21T13:57:33Z</time>
      </trkpt>
      <trkpt lat="43.90159" lon="7.26988">
        <ele>739.88531494141</ele>
        <time>2014-12-21T13:57:40Z</time>
      </trkpt>
      <trkpt lat="43.90161" lon="7.26981">
        <ele>738.41247558594</ele>
        <time>2014-12-21T13:57:45Z</time>
      </trkpt>
      <trkpt lat="43.9016" lon="7.26978">
        <ele>736.87780761719</ele>
        <time>2014-12-21T13:57:50Z</time>
      </trkpt>
      <trkpt lat="43.90154" lon="7.26982">
        <ele>734.927734375</ele>
        <time>2014-12-21T13:57:57Z</time>
      </trkpt>
      <trkpt lat="43.90145" lon="7.2699">
        <ele>733.58532714844</ele>
        <time>2014-12-21T13:58:06Z</time>
      </trkpt>
      <trkpt lat="43.90142" lon="7.26996">
        <ele>734.1552734375</ele>
        <time>2014-12-21T13:58:12Z</time>
      </trkpt>
      <trkpt lat="43.90141" lon="7.26998">
        <ele>734.49169921875</ele>
        <time>2014-12-21T13:58:14Z</time>
      </trkpt>
      <trkpt lat="43.90139" lon="7.27002">
        <ele>734.55285644531</ele>
        <time>2014-12-21T13:58:18Z</time>
      </trkpt>
      <trkpt lat="43.90133" lon="7.27009">
        <ele>734.25823974609</ele>
        <time>2014-12-21T13:58:25Z</time>
      </trkpt>
      <trkpt lat="43.90127" lon="7.27021">
        <ele>735.26806640625</ele>
        <time>2014-12-21T13:58:33Z</time>
      </trkpt>
      <trkpt lat="43.90125" lon="7.27024">
        <ele>735.18591308594</ele>
        <time>2014-12-21T13:58:35Z</time>
      </trkpt>
      <trkpt lat="43.90123" lon="7.27028">
        <ele>735.52789306641</ele>
        <time>2014-12-21T13:58:42Z</time>
      </trkpt>
      <trkpt lat="43.90125" lon="7.27027">
        <ele>736.03149414062</ele>
        <time>2014-12-21T13:59:09Z</time>
      </trkpt>
      <trkpt lat="43.90121" lon="7.27027">
        <ele>734.16070556641</ele>
        <time>2014-12-21T14:01:40Z</time>
      </trkpt>
      <trkpt lat="43.90114" lon="7.27031">
        <ele>731.59588623047</ele>
        <time>2014-12-21T14:01:48Z</time>
      </trkpt>
      <trkpt lat="43.90107" lon="7.27037">
        <ele>730.26879882812</ele>
        <time>2014-12-21T14:01:55Z</time>
      </trkpt>
      <trkpt lat="43.90105" lon="7.27037">
        <ele>729.63024902344</ele>
        <time>2014-12-21T14:01:57Z</time>
      </trkpt>
      <trkpt lat="43.90102" lon="7.2704">
        <ele>728.89379882812</ele>
        <time>2014-12-21T14:02:01Z</time>
      </trkpt>
      <trkpt lat="43.90095" lon="7.27046">
        <ele>728.10070800781</ele>
        <time>2014-12-21T14:02:09Z</time>
      </trkpt>
      <trkpt lat="43.9009" lon="7.2705">
        <ele>727.08618164062</ele>
        <time>2014-12-21T14:02:15Z</time>
      </trkpt>
      <trkpt lat="43.90085" lon="7.27056">
        <ele>726.63299560547</ele>
        <time>2014-12-21T14:02:21Z</time>
      </trkpt>
      <trkpt lat="43.90078" lon="7.27059">
        <ele>725.5966796875</ele>
        <time>2014-12-21T14:02:27Z</time>
      </trkpt>
      <trkpt lat="43.90071" lon="7.27064">
        <ele>724.99664306641</ele>
        <time>2014-12-21T14:02:35Z</time>
      </trkpt>
      <trkpt lat="43.90066" lon="7.27067">
        <ele>724.38226318359</ele>
        <time>2014-12-21T14:02:40Z</time>
      </trkpt>
      <trkpt lat="43.90058" lon="7.27071">
        <ele>722.19561767578</ele>
        <time>2014-12-21T14:02:47Z</time>
      </trkpt>
      <trkpt lat="43.90054" lon="7.27072">
        <ele>721.03302001953</ele>
        <time>2014-12-21T14:02:50Z</time>
      </trkpt>
      <trkpt lat="43.90043" lon="7.27074">
        <ele>718.77099609375</ele>
        <time>2014-12-21T14:02:58Z</time>
      </trkpt>
      <trkpt lat="43.90035" lon="7.27076">
        <ele>717.51239013672</ele>
        <time>2014-12-21T14:03:05Z</time>
      </trkpt>
      <trkpt lat="43.90026" lon="7.2708">
        <ele>716.48999023438</ele>
        <time>2014-12-21T14:03:12Z</time>
      </trkpt>
      <trkpt lat="43.90021" lon="7.27082">
        <ele>716.55694580078</ele>
        <time>2014-12-21T14:03:18Z</time>
      </trkpt>
      <trkpt lat="43.90017" lon="7.27085">
        <ele>716.85571289062</ele>
        <time>2014-12-21T14:03:22Z</time>
      </trkpt>
      <trkpt lat="43.9001" lon="7.27087">
        <ele>716.66931152344</ele>
        <time>2014-12-21T14:03:29Z</time>
      </trkpt>
      <trkpt lat="43.90001" lon="7.27087">
        <ele>715.31335449219</ele>
        <time>2014-12-21T14:03:36Z</time>
      </trkpt>
      <trkpt lat="43.89998" lon="7.27086">
        <ele>714.78460693359</ele>
        <time>2014-12-21T14:03:38Z</time>
      </trkpt>
      <trkpt lat="43.8999" lon="7.27084">
        <ele>713.46624755859</ele>
        <time>2014-12-21T14:03:44Z</time>
      </trkpt>
      <trkpt lat="43.89979" lon="7.27085">
        <ele>713.01306152344</ele>
        <time>2014-12-21T14:03:52Z</time>
      </trkpt>
      <trkpt lat="43.89971" lon="7.27084">
        <ele>711.97033691406</ele>
        <time>2014-12-21T14:03:58Z</time>
      </trkpt>
      <trkpt lat="43.89967" lon="7.27076">
        <ele>708.35650634766</ele>
        <time>2014-12-21T14:04:03Z</time>
      </trkpt>
      <trkpt lat="43.89957" lon="7.2707">
        <ele>705.52117919922</ele>
        <time>2014-12-21T14:04:11Z</time>
      </trkpt>
      <trkpt lat="43.89957" lon="7.27067">
        <ele>704.37902832031</ele>
        <time>2014-12-21T14:04:14Z</time>
      </trkpt>
      <trkpt lat="43.89959" lon="7.27065">
        <ele>703.60888671875</ele>
        <time>2014-12-21T14:04:17Z</time>
      </trkpt>
      <trkpt lat="43.89963" lon="7.27065">
        <ele>703.92260742188</ele>
        <time>2014-12-21T14:04:21Z</time>
      </trkpt>
      <trkpt lat="43.89969" lon="7.27061">
        <ele>702.48028564453</ele>
        <time>2014-12-21T14:04:25Z</time>
      </trkpt>
      <trkpt lat="43.89973" lon="7.27056">
        <ele>700.41735839844</ele>
        <time>2014-12-21T14:04:29Z</time>
      </trkpt>
      <trkpt lat="43.89972" lon="7.27054">
        <ele>699.16772460938</ele>
        <time>2014-12-21T14:04:31Z</time>
      </trkpt>
      <trkpt lat="43.89965" lon="7.27051">
        <ele>696.93475341797</ele>
        <time>2014-12-21T14:04:37Z</time>
      </trkpt>
      <trkpt lat="43.89968" lon="7.27049">
        <ele>695.16571044922</ele>
        <time>2014-12-21T14:04:46Z</time>
      </trkpt>
      <trkpt lat="43.89972" lon="7.27051">
        <ele>696.40765380859</ele>
        <time>2014-12-21T14:04:58Z</time>
      </trkpt>
      <trkpt lat="43.89972" lon="7.27048">
        <ele>694.85870361328</ele>
        <time>2014-12-21T14:05:03Z</time>
      </trkpt>
      <trkpt lat="43.89969" lon="7.27041">
        <ele>689.55297851562</ele>
        <time>2014-12-21T14:05:28Z</time>
      </trkpt>
      <trkpt lat="43.8997" lon="7.27042">
        <ele>690.27349853516</ele>
        <time>2014-12-21T14:05:34Z</time>
      </trkpt>
      <trkpt lat="43.8997" lon="7.27042">
        <ele>690.27349853516</ele>
        <time>2014-12-21T14:05:35Z</time>
      </trkpt>
      <trkpt lat="43.89978" lon="7.27042">
        <ele>691.63385009766</ele>
        <time>2014-12-21T14:05:43Z</time>
      </trkpt>
      <trkpt lat="43.89987" lon="7.27042">
        <ele>693.35272216797</ele>
        <time>2014-12-21T14:05:51Z</time>
      </trkpt>
      <trkpt lat="43.89999" lon="7.27039">
        <ele>693.76623535156</ele>
        <time>2014-12-21T14:06:00Z</time>
      </trkpt>
      <trkpt lat="43.90006" lon="7.27033">
        <ele>693.27001953125</ele>
        <time>2014-12-21T14:06:06Z</time>
      </trkpt>
      <trkpt lat="43.90015" lon="7.27025">
        <ele>692.55261230469</ele>
        <time>2014-12-21T14:06:13Z</time>
      </trkpt>
      <trkpt lat="43.9002" lon="7.27017">
        <ele>689.85791015625</ele>
        <time>2014-12-21T14:06:19Z</time>
      </trkpt>
      <trkpt lat="43.90026" lon="7.2701">
        <ele>688.65216064453</ele>
        <time>2014-12-21T14:06:26Z</time>
      </trkpt>
      <trkpt lat="43.90027" lon="7.27009">
        <ele>688.46868896484</ele>
        <time>2014-12-21T14:06:27Z</time>
      </trkpt>
      <trkpt lat="43.90034" lon="7.27005">
        <ele>688.69787597656</ele>
        <time>2014-12-21T14:06:34Z</time>
      </trkpt>
      <trkpt lat="43.90038" lon="7.27001">
        <ele>688.61730957031</ele>
        <time>2014-12-21T14:06:41Z</time>
      </trkpt>
      <trkpt lat="43.90038" lon="7.27001">
        <ele>689.04541015625</ele>
        <time>2014-12-21T14:06:42Z</time>
      </trkpt>
      <trkpt lat="43.9004" lon="7.27">
        <ele>689.44763183594</ele>
        <time>2014-12-21T14:06:48Z</time>
      </trkpt>
      <trkpt lat="43.90041" lon="7.27">
        <ele>689.31695556641</ele>
        <time>2014-12-21T14:06:49Z</time>
      </trkpt>
      <trkpt lat="43.90042" lon="7.26995">
        <ele>687.78845214844</ele>
        <time>2014-12-21T14:06:53Z</time>
      </trkpt>
      <trkpt lat="43.90042" lon="7.26991">
        <ele>686.00189208984</ele>
        <time>2014-12-21T14:06:57Z</time>
      </trkpt>
      <trkpt lat="43.90043" lon="7.26987">
        <ele>684.56439208984</ele>
        <time>2014-12-21T14:07:03Z</time>
      </trkpt>
      <trkpt lat="43.90043" lon="7.26984">
        <ele>682.70446777344</ele>
        <time>2014-12-21T14:07:05Z</time>
      </trkpt>
      <trkpt lat="43.90044" lon="7.26976">
        <ele>679.36279296875</ele>
        <time>2014-12-21T14:07:10Z</time>
      </trkpt>
      <trkpt lat="43.90046" lon="7.26959">
        <ele>671.05200195312</ele>
        <time>2014-12-21T14:07:20Z</time>
      </trkpt>
      <trkpt lat="43.90047" lon="7.26949">
        <ele>666.49090576172</ele>
        <time>2014-12-21T14:07:26Z</time>
      </trkpt>
      <trkpt lat="43.90048" lon="7.26939">
        <ele>662.59130859375</ele>
        <time>2014-12-21T14:07:32Z</time>
      </trkpt>
      <trkpt lat="43.90052" lon="7.26933">
        <ele>662.49530029297</ele>
        <time>2014-12-21T14:07:37Z</time>
      </trkpt>
      <trkpt lat="43.90054" lon="7.26931">
        <ele>662.82568359375</ele>
        <time>2014-12-21T14:07:39Z</time>
      </trkpt>
      <trkpt lat="43.90056" lon="7.26928">
        <ele>663.34155273438</ele>
        <time>2014-12-21T14:07:42Z</time>
      </trkpt>
      <trkpt lat="43.90063" lon="7.26921">
        <ele>665.53552246094</ele>
        <time>2014-12-21T14:07:49Z</time>
      </trkpt>
      <trkpt lat="43.90065" lon="7.26913">
        <ele>663.92749023438</ele>
        <time>2014-12-21T14:07:54Z</time>
      </trkpt>
      <trkpt lat="43.90067" lon="7.26907">
        <ele>662.00756835938</ele>
        <time>2014-12-21T14:08:01Z</time>
      </trkpt>
      <trkpt lat="43.90069" lon="7.26899">
        <ele>660.10260009766</ele>
        <time>2014-12-21T14:08:08Z</time>
      </trkpt>
      <trkpt lat="43.90071" lon="7.26893">
        <ele>658.98541259766</ele>
        <time>2014-12-21T14:08:13Z</time>
      </trkpt>
      <trkpt lat="43.90077" lon="7.26879">
        <ele>658.95874023438</ele>
        <time>2014-12-21T14:08:22Z</time>
      </trkpt>
      <trkpt lat="43.90082" lon="7.26868">
        <ele>660.66381835938</ele>
        <time>2014-12-21T14:08:29Z</time>
      </trkpt>
      <trkpt lat="43.9009" lon="7.26857">
        <ele>659.79406738281</ele>
        <time>2014-12-21T14:08:37Z</time>
      </trkpt>
      <trkpt lat="43.90096" lon="7.26849">
        <ele>657.1416015625</ele>
        <time>2014-12-21T14:08:43Z</time>
      </trkpt>
      <trkpt lat="43.90097" lon="7.2684">
        <ele>652.02105712891</ele>
        <time>2014-12-21T14:08:49Z</time>
      </trkpt>
      <trkpt lat="43.90097" lon="7.26838">
        <ele>651.68096923828</ele>
        <time>2014-12-21T14:08:50Z</time>
      </trkpt>
      <trkpt lat="43.90099" lon="7.26826">
        <ele>646.08410644531</ele>
        <time>2014-12-21T14:08:58Z</time>
      </trkpt>
      <trkpt lat="43.901" lon="7.2682">
        <ele>643.32794189453</ele>
        <time>2014-12-21T14:09:02Z</time>
      </trkpt>
      <trkpt lat="43.90102" lon="7.26813">
        <ele>641.12445068359</ele>
        <time>2014-12-21T14:09:08Z</time>
      </trkpt>
      <trkpt lat="43.90104" lon="7.26805">
        <ele>638.32635498047</ele>
        <time>2014-12-21T14:09:14Z</time>
      </trkpt>
      <trkpt lat="43.90107" lon="7.26795">
        <ele>634.84143066406</ele>
        <time>2014-12-21T14:09:21Z</time>
      </trkpt>
      <trkpt lat="43.90107" lon="7.26794">
        <ele>634.53765869141</ele>
        <time>2014-12-21T14:09:22Z</time>
      </trkpt>
      <trkpt lat="43.90105" lon="7.26792">
        <ele>632.65631103516</ele>
        <time>2014-12-21T14:09:25Z</time>
      </trkpt>
      <trkpt lat="43.90101" lon="7.26791">
        <ele>629.8232421875</ele>
        <time>2014-12-21T14:09:31Z</time>
      </trkpt>
      <trkpt lat="43.90104" lon="7.26787">
        <ele>629.23522949219</ele>
        <time>2014-12-21T14:09:36Z</time>
      </trkpt>
      <trkpt lat="43.90105" lon="7.26783">
        <ele>627.97528076172</ele>
        <time>2014-12-21T14:09:43Z</time>
      </trkpt>
      <trkpt lat="43.90103" lon="7.26783">
        <ele>627.32397460938</ele>
        <time>2014-12-21T14:09:52Z</time>
      </trkpt>
      <trkpt lat="43.90102" lon="7.26783">
        <ele>626.82824707031</ele>
        <time>2014-12-21T14:09:56Z</time>
      </trkpt>
      <trkpt lat="43.901" lon="7.26784">
        <ele>625.91265869141</ele>
        <time>2014-12-21T14:09:59Z</time>
      </trkpt>
      <trkpt lat="43.90104" lon="7.26774">
        <ele>623.40454101562</ele>
        <time>2014-12-21T14:10:07Z</time>
      </trkpt>
      <trkpt lat="43.90107" lon="7.26764">
        <ele>621.45709228516</ele>
        <time>2014-12-21T14:10:14Z</time>
      </trkpt>
      <trkpt lat="43.90111" lon="7.26754">
        <ele>619.61578369141</ele>
        <time>2014-12-21T14:10:22Z</time>
      </trkpt>
      <trkpt lat="43.90114" lon="7.26746">
        <ele>618.21374511719</ele>
        <time>2014-12-21T14:10:28Z</time>
      </trkpt>
      <trkpt lat="43.90115" lon="7.26745">
        <ele>618.03192138672</ele>
        <time>2014-12-21T14:10:29Z</time>
      </trkpt>
      <trkpt lat="43.90117" lon="7.26734">
        <ele>614.95916748047</ele>
        <time>2014-12-21T14:10:36Z</time>
      </trkpt>
      <trkpt lat="43.9012" lon="7.26725">
        <ele>611.73791503906</ele>
        <time>2014-12-21T14:10:43Z</time>
      </trkpt>
      <trkpt lat="43.90114" lon="7.26725">
        <ele>609.99658203125</ele>
        <time>2014-12-21T14:10:49Z</time>
      </trkpt>
      <trkpt lat="43.90111" lon="7.26727">
        <ele>609.67156982422</ele>
        <time>2014-12-21T14:10:52Z</time>
      </trkpt>
      <trkpt lat="43.90105" lon="7.26729">
        <ele>607.46051025391</ele>
        <time>2014-12-21T14:10:59Z</time>
      </trkpt>
      <trkpt lat="43.90101" lon="7.26733">
        <ele>606.47174072266</ele>
        <time>2014-12-21T14:11:04Z</time>
      </trkpt>
      <trkpt lat="43.90096" lon="7.26736">
        <ele>605.22058105469</ele>
        <time>2014-12-21T14:11:12Z</time>
      </trkpt>
      <trkpt lat="43.90099" lon="7.26736">
        <ele>606.55126953125</ele>
        <time>2014-12-21T14:11:57Z</time>
      </trkpt>
      <trkpt lat="43.901" lon="7.26729">
        <ele>604.61657714844</ele>
        <time>2014-12-21T14:12:02Z</time>
      </trkpt>
      <trkpt lat="43.90105" lon="7.26718">
        <ele>603.32135009766</ele>
        <time>2014-12-21T14:12:08Z</time>
      </trkpt>
      <trkpt lat="43.90101" lon="7.26718">
        <ele>600.98553466797</ele>
        <time>2014-12-21T14:12:14Z</time>
      </trkpt>
      <trkpt lat="43.90098" lon="7.26719">
        <ele>599.59185791016</ele>
        <time>2014-12-21T14:12:17Z</time>
      </trkpt>
      <trkpt lat="43.90099" lon="7.26712">
        <ele>598.22485351562</ele>
        <time>2014-12-21T14:12:22Z</time>
      </trkpt>
      <trkpt lat="43.901" lon="7.26708">
        <ele>597.14666748047</ele>
        <time>2014-12-21T14:12:24Z</time>
      </trkpt>
      <trkpt lat="43.90103" lon="7.26696">
        <ele>595.34155273438</ele>
        <time>2014-12-21T14:12:31Z</time>
      </trkpt>
      <trkpt lat="43.90105" lon="7.26688">
        <ele>592.60681152344</ele>
        <time>2014-12-21T14:12:36Z</time>
      </trkpt>
      <trkpt lat="43.90106" lon="7.26684">
        <ele>591.41223144531</ele>
        <time>2014-12-21T14:12:38Z</time>
      </trkpt>
      <trkpt lat="43.90107" lon="7.2668">
        <ele>589.60083007812</ele>
        <time>2014-12-21T14:12:41Z</time>
      </trkpt>
      <trkpt lat="43.9011" lon="7.26669">
        <ele>585.58093261719</ele>
        <time>2014-12-21T14:12:48Z</time>
      </trkpt>
      <trkpt lat="43.90112" lon="7.26661">
        <ele>581.89544677734</ele>
        <time>2014-12-21T14:12:53Z</time>
      </trkpt>
      <trkpt lat="43.90109" lon="7.26655">
        <ele>576.99493408203</ele>
        <time>2014-12-21T14:12:59Z</time>
      </trkpt>
      <trkpt lat="43.90101" lon="7.26659">
        <ele>575.69897460938</ele>
        <time>2014-12-21T14:13:05Z</time>
      </trkpt>
      <trkpt lat="43.90099" lon="7.2666">
        <ele>575.2568359375</ele>
        <time>2014-12-21T14:13:07Z</time>
      </trkpt>
      <trkpt lat="43.90097" lon="7.26661">
        <ele>574.89471435547</ele>
        <time>2014-12-21T14:13:09Z</time>
      </trkpt>
      <trkpt lat="43.90091" lon="7.26663">
        <ele>573.44268798828</ele>
        <time>2014-12-21T14:13:13Z</time>
      </trkpt>
      <trkpt lat="43.90083" lon="7.26668">
        <ele>570.71997070312</ele>
        <time>2014-12-21T14:13:20Z</time>
      </trkpt>
      <trkpt lat="43.90074" lon="7.26673">
        <ele>565.66632080078</ele>
        <time>2014-12-21T14:13:27Z</time>
      </trkpt>
      <trkpt lat="43.9007" lon="7.26677">
        <ele>563.99743652344</ele>
        <time>2014-12-21T14:13:30Z</time>
      </trkpt>
      <trkpt lat="43.90068" lon="7.26674">
        <ele>561.88214111328</ele>
        <time>2014-12-21T14:13:34Z</time>
      </trkpt>
      <trkpt lat="43.9007" lon="7.26671">
        <ele>561.98553466797</ele>
        <time>2014-12-21T14:13:37Z</time>
      </trkpt>
      <trkpt lat="43.90071" lon="7.26661">
        <ele>558.63739013672</ele>
        <time>2014-12-21T14:13:44Z</time>
      </trkpt>
      <trkpt lat="43.90073" lon="7.26656">
        <ele>557.62255859375</ele>
        <time>2014-12-21T14:13:48Z</time>
      </trkpt>
      <trkpt lat="43.90074" lon="7.2665">
        <ele>556.60620117188</ele>
        <time>2014-12-21T14:13:52Z</time>
      </trkpt>
      <trkpt lat="43.90078" lon="7.2664">
        <ele>555.70306396484</ele>
        <time>2014-12-21T14:13:59Z</time>
      </trkpt>
      <trkpt lat="43.9008" lon="7.26636">
        <ele>555.02416992188</ele>
        <time>2014-12-21T14:14:02Z</time>
      </trkpt>
      <trkpt lat="43.90083" lon="7.26626">
        <ele>550.04913330078</ele>
        <time>2014-12-21T14:14:07Z</time>
      </trkpt>
      <trkpt lat="43.90084" lon="7.26622">
        <ele>548.12921142578</ele>
        <time>2014-12-21T14:14:09Z</time>
      </trkpt>
      <trkpt lat="43.9009" lon="7.26609">
        <ele>540.96435546875</ele>
        <time>2014-12-21T14:14:15Z</time>
      </trkpt>
      <trkpt lat="43.90092" lon="7.26605">
        <ele>539.64074707031</ele>
        <time>2014-12-21T14:14:17Z</time>
      </trkpt>
      <trkpt lat="43.90104" lon="7.26594">
        <ele>537.36566162109</ele>
        <time>2014-12-21T14:14:22Z</time>
      </trkpt>
      <trkpt lat="43.90107" lon="7.2659">
        <ele>536.36859130859</ele>
        <time>2014-12-21T14:14:24Z</time>
      </trkpt>
      <trkpt lat="43.90102" lon="7.26586">
        <ele>533.40533447266</ele>
        <time>2014-12-21T14:14:28Z</time>
      </trkpt>
      <trkpt lat="43.90095" lon="7.26585">
        <ele>530.248046875</ele>
        <time>2014-12-21T14:14:32Z</time>
      </trkpt>
      <trkpt lat="43.901" lon="7.26578">
        <ele>528.47528076172</ele>
        <time>2014-12-21T14:14:35Z</time>
      </trkpt>
      <trkpt lat="43.90102" lon="7.26571">
        <ele>526.42236328125</ele>
        <time>2014-12-21T14:14:39Z</time>
      </trkpt>
      <trkpt lat="43.90092" lon="7.2657">
        <ele>522.77453613281</ele>
        <time>2014-12-21T14:14:43Z</time>
      </trkpt>
      <trkpt lat="43.90091" lon="7.2657">
        <ele>522.66949462891</ele>
        <time>2014-12-21T14:14:44Z</time>
      </trkpt>
      <trkpt lat="43.90096" lon="7.26565">
        <ele>521.96850585938</ele>
        <time>2014-12-21T14:14:48Z</time>
      </trkpt>
      <trkpt lat="43.90104" lon="7.26557">
        <ele>520.77221679688</ele>
        <time>2014-12-21T14:14:53Z</time>
      </trkpt>
      <trkpt lat="43.90113" lon="7.26554">
        <ele>521.30596923828</ele>
        <time>2014-12-21T14:14:59Z</time>
      </trkpt>
      <trkpt lat="43.90127" lon="7.26553">
        <ele>522.39294433594</ele>
        <time>2014-12-21T14:15:05Z</time>
      </trkpt>
      <trkpt lat="43.90133" lon="7.26555">
        <ele>523.93493652344</ele>
        <time>2014-12-21T14:15:08Z</time>
      </trkpt>
      <trkpt lat="43.9015" lon="7.26555">
        <ele>522.84613037109</ele>
        <time>2014-12-21T14:15:15Z</time>
      </trkpt>
      <trkpt lat="43.90155" lon="7.26553">
        <ele>521.06982421875</ele>
        <time>2014-12-21T14:15:17Z</time>
      </trkpt>
      <trkpt lat="43.90153" lon="7.26549">
        <ele>519.72937011719</ele>
        <time>2014-12-21T14:15:21Z</time>
      </trkpt>
      <trkpt lat="43.90148" lon="7.26546">
        <ele>518.74468994141</ele>
        <time>2014-12-21T14:15:26Z</time>
      </trkpt>
      <trkpt lat="43.90148" lon="7.2654">
        <ele>515.90802001953</ele>
        <time>2014-12-21T14:15:29Z</time>
      </trkpt>
      <trkpt lat="43.90148" lon="7.26534">
        <ele>513.13909912109</ele>
        <time>2014-12-21T14:15:31Z</time>
      </trkpt>
      <trkpt lat="43.90145" lon="7.26533">
        <ele>512.35137939453</ele>
        <time>2014-12-21T14:15:33Z</time>
      </trkpt>
      <trkpt lat="43.90151" lon="7.26537">
        <ele>514.26123046875</ele>
        <time>2014-12-21T14:15:38Z</time>
      </trkpt>
      <trkpt lat="43.90152" lon="7.26537">
        <ele>514.06268310547</ele>
        <time>2014-12-21T14:15:39Z</time>
      </trkpt>
      <trkpt lat="43.90154" lon="7.26531">
        <ele>511.36859130859</ele>
        <time>2014-12-21T14:15:42Z</time>
      </trkpt>
      <trkpt lat="43.90163" lon="7.26523">
        <ele>507.86376953125</ele>
        <time>2014-12-21T14:15:48Z</time>
      </trkpt>
      <trkpt lat="43.90169" lon="7.26522">
        <ele>508.197265625</ele>
        <time>2014-12-21T14:15:51Z</time>
      </trkpt>
      <trkpt lat="43.90177" lon="7.2653">
        <ele>513.19482421875</ele>
        <time>2014-12-21T14:15:57Z</time>
      </trkpt>
      <trkpt lat="43.90178" lon="7.26516">
        <ele>508.55261230469</ele>
        <time>2014-12-21T14:16:02Z</time>
      </trkpt>
      <trkpt lat="43.90178" lon="7.2651">
        <ele>506.34579467773</ele>
        <time>2014-12-21T14:16:06Z</time>
      </trkpt>
      <trkpt lat="43.90177" lon="7.26507">
        <ele>504.9387512207</ele>
        <time>2014-12-21T14:16:14Z</time>
      </trkpt>
      <trkpt lat="43.90174" lon="7.26496">
        <ele>500.15161132812</ele>
        <time>2014-12-21T14:16:22Z</time>
      </trkpt>
      <trkpt lat="43.90173" lon="7.26474">
        <ele>494.0009765625</ele>
        <time>2014-12-21T14:16:27Z</time>
      </trkpt>
      <trkpt lat="43.90177" lon="7.26452">
        <ele>489.8957824707</ele>
        <time>2014-12-21T14:16:32Z</time>
      </trkpt>
      <trkpt lat="43.90186" lon="7.26442">
        <ele>491.04220581055</ele>
        <time>2014-12-21T14:16:36Z</time>
      </trkpt>
      <trkpt lat="43.90198" lon="7.26435">
        <ele>491.70697021484</ele>
        <time>2014-12-21T14:16:41Z</time>
      </trkpt>
      <trkpt lat="43.90211" lon="7.26432">
        <ele>493.15371704102</ele>
        <time>2014-12-21T14:16:46Z</time>
      </trkpt>
      <trkpt lat="43.90212" lon="7.26433">
        <ele>493.89813232422</ele>
        <time>2014-12-21T14:16:49Z</time>
      </trkpt>
      <trkpt lat="43.90219" lon="7.26429">
        <ele>493.93499755859</ele>
        <time>2014-12-21T14:18:09Z</time>
      </trkpt>
      <trkpt lat="43.90225" lon="7.26426">
        <ele>494.26080322266</ele>
        <time>2014-12-21T14:18:17Z</time>
      </trkpt>
      <trkpt lat="43.90226" lon="7.26424">
        <ele>493.88311767578</ele>
        <time>2014-12-21T14:18:19Z</time>
      </trkpt>
      <trkpt lat="43.90229" lon="7.26419">
        <ele>493.50549316406</ele>
        <time>2014-12-21T14:18:27Z</time>
      </trkpt>
      <trkpt lat="43.9023" lon="7.26418">
        <ele>493.38531494141</ele>
        <time>2014-12-21T14:18:28Z</time>
      </trkpt>
      <trkpt lat="43.90234" lon="7.2641">
        <ele>491.54043579102</ele>
        <time>2014-12-21T14:18:35Z</time>
      </trkpt>
      <trkpt lat="43.90236" lon="7.26403">
        <ele>488.72348022461</ele>
        <time>2014-12-21T14:18:39Z</time>
      </trkpt>
      <trkpt lat="43.90239" lon="7.26395">
        <ele>485.99661254883</ele>
        <time>2014-12-21T14:18:43Z</time>
      </trkpt>
      <trkpt lat="43.90244" lon="7.26376">
        <ele>477.85760498047</ele>
        <time>2014-12-21T14:18:53Z</time>
      </trkpt>
      <trkpt lat="43.90247" lon="7.26364">
        <ele>472.37915039062</ele>
        <time>2014-12-21T14:19:00Z</time>
      </trkpt>
      <trkpt lat="43.90252" lon="7.26354">
        <ele>469.91986083984</ele>
        <time>2014-12-21T14:19:07Z</time>
      </trkpt>
      <trkpt lat="43.90257" lon="7.26342">
        <ele>466.78189086914</ele>
        <time>2014-12-21T14:19:15Z</time>
      </trkpt>
      <trkpt lat="43.90259" lon="7.26338">
        <ele>465.79998779297</ele>
        <time>2014-12-21T14:19:18Z</time>
      </trkpt>
      <trkpt lat="43.90263" lon="7.26334">
        <ele>464.97601318359</ele>
        <time>2014-12-21T14:19:22Z</time>
      </trkpt>
      <trkpt lat="43.90265" lon="7.26329">
        <ele>463.10632324219</ele>
        <time>2014-12-21T14:19:26Z</time>
      </trkpt>
      <trkpt lat="43.90268" lon="7.26322">
        <ele>461.00540161133</ele>
        <time>2014-12-21T14:19:31Z</time>
      </trkpt>
      <trkpt lat="43.90277" lon="7.26307">
        <ele>457.06716918945</ele>
        <time>2014-12-21T14:19:41Z</time>
      </trkpt>
      <trkpt lat="43.90284" lon="7.26299">
        <ele>454.58096313477</ele>
        <time>2014-12-21T14:19:49Z</time>
      </trkpt>
      <trkpt lat="43.90292" lon="7.26293">
        <ele>452.88186645508</ele>
        <time>2014-12-21T14:19:56Z</time>
      </trkpt>
      <trkpt lat="43.90298" lon="7.26286">
        <ele>451.54891967773</ele>
        <time>2014-12-21T14:20:02Z</time>
      </trkpt>
      <trkpt lat="43.903" lon="7.26283">
        <ele>450.84661865234</ele>
        <time>2014-12-21T14:20:04Z</time>
      </trkpt>
      <trkpt lat="43.90302" lon="7.26278">
        <ele>449.04586791992</ele>
        <time>2014-12-21T14:20:10Z</time>
      </trkpt>
      <trkpt lat="43.90306" lon="7.26274">
        <ele>448.13687133789</ele>
        <time>2014-12-21T14:20:43Z</time>
      </trkpt>
      <trkpt lat="43.903" lon="7.26269">
        <ele>443.76998901367</ele>
        <time>2014-12-21T14:20:49Z</time>
      </trkpt>
      <trkpt lat="43.90296" lon="7.26266">
        <ele>440.73327636719</ele>
        <time>2014-12-21T14:20:53Z</time>
      </trkpt>
      <trkpt lat="43.90293" lon="7.26263">
        <ele>438.43817138672</ele>
        <time>2014-12-21T14:20:58Z</time>
      </trkpt>
      <trkpt lat="43.9029" lon="7.26261">
        <ele>436.21343994141</ele>
        <time>2014-12-21T14:21:03Z</time>
      </trkpt>
      <trkpt lat="43.90294" lon="7.26256">
        <ele>434.71826171875</ele>
        <time>2014-12-21T14:21:09Z</time>
      </trkpt>
      <trkpt lat="43.90297" lon="7.26253">
        <ele>434.07797241211</ele>
        <time>2014-12-21T14:21:15Z</time>
      </trkpt>
      <trkpt lat="43.90293" lon="7.2625">
        <ele>431.19836425781</ele>
        <time>2014-12-21T14:21:21Z</time>
      </trkpt>
      <trkpt lat="43.90295" lon="7.26249">
        <ele>431.60589599609</ele>
        <time>2014-12-21T14:21:24Z</time>
      </trkpt>
      <trkpt lat="43.90297" lon="7.26249">
        <ele>432.02743530273</ele>
        <time>2014-12-21T14:21:26Z</time>
      </trkpt>
      <trkpt lat="43.90293" lon="7.26245">
        <ele>429.57229614258</ele>
        <time>2014-12-21T14:21:32Z</time>
      </trkpt>
      <trkpt lat="43.9029" lon="7.26242">
        <ele>427.76733398438</ele>
        <time>2014-12-21T14:21:38Z</time>
      </trkpt>
      <trkpt lat="43.90292" lon="7.26242">
        <ele>428.31130981445</ele>
        <time>2014-12-21T14:21:40Z</time>
      </trkpt>
      <trkpt lat="43.90294" lon="7.26242">
        <ele>428.66375732422</ele>
        <time>2014-12-21T14:21:42Z</time>
      </trkpt>
      <trkpt lat="43.9029" lon="7.26236">
        <ele>425.69146728516</ele>
        <time>2014-12-21T14:21:48Z</time>
      </trkpt>
      <trkpt lat="43.90287" lon="7.26233">
        <ele>423.82028198242</ele>
        <time>2014-12-21T14:21:53Z</time>
      </trkpt>
      <trkpt lat="43.90281" lon="7.26229">
        <ele>421.08700561523</ele>
        <time>2014-12-21T14:21:58Z</time>
      </trkpt>
      <trkpt lat="43.90274" lon="7.26228">
        <ele>419.67364501953</ele>
        <time>2014-12-21T14:22:02Z</time>
      </trkpt>
      <trkpt lat="43.90268" lon="7.26226">
        <ele>419.25549316406</ele>
        <time>2014-12-21T14:22:08Z</time>
      </trkpt>
      <trkpt lat="43.90266" lon="7.26227">
        <ele>419.29534912109</ele>
        <time>2014-12-21T14:22:12Z</time>
      </trkpt>
      <trkpt lat="43.90269" lon="7.26224">
        <ele>418.71188354492</ele>
        <time>2014-12-21T14:22:15Z</time>
      </trkpt>
      <trkpt lat="43.9027" lon="7.26215">
        <ele>417.68963623047</ele>
        <time>2014-12-21T14:22:19Z</time>
      </trkpt>
      <trkpt lat="43.90282" lon="7.26213">
        <ele>417.40454101562</ele>
        <time>2014-12-21T14:22:26Z</time>
      </trkpt>
      <trkpt lat="43.9029" lon="7.26207">
        <ele>416.96981811523</ele>
        <time>2014-12-21T14:22:33Z</time>
      </trkpt>
      <trkpt lat="43.90295" lon="7.26201">
        <ele>415.20803833008</ele>
        <time>2014-12-21T14:22:37Z</time>
      </trkpt>
      <trkpt lat="43.90297" lon="7.26198">
        <ele>414.24615478516</ele>
        <time>2014-12-21T14:22:40Z</time>
      </trkpt>
      <trkpt lat="43.90302" lon="7.26193">
        <ele>411.7610168457</ele>
        <time>2014-12-21T14:22:45Z</time>
      </trkpt>
      <trkpt lat="43.90305" lon="7.26185">
        <ele>408.07861328125</ele>
        <time>2014-12-21T14:22:51Z</time>
      </trkpt>
      <trkpt lat="43.90306" lon="7.26181">
        <ele>406.58764648438</ele>
        <time>2014-12-21T14:22:54Z</time>
      </trkpt>
      <trkpt lat="43.90309" lon="7.26173">
        <ele>404.0537109375</ele>
        <time>2014-12-21T14:23:00Z</time>
      </trkpt>
      <trkpt lat="43.90309" lon="7.26163">
        <ele>401.21197509766</ele>
        <time>2014-12-21T14:23:06Z</time>
      </trkpt>
      <trkpt lat="43.90313" lon="7.26155">
        <ele>401.71691894531</ele>
        <time>2014-12-21T14:23:13Z</time>
      </trkpt>
      <trkpt lat="43.90317" lon="7.2615">
        <ele>402.0192565918</ele>
        <time>2014-12-21T14:23:18Z</time>
      </trkpt>
      <trkpt lat="43.90319" lon="7.26149">
        <ele>402.04159545898</ele>
        <time>2014-12-21T14:23:25Z</time>
      </trkpt>
      <trkpt lat="43.9032" lon="7.26143">
        <ele>400.93182373047</ele>
        <time>2014-12-21T14:23:38Z</time>
      </trkpt>
      <trkpt lat="43.90324" lon="7.26138">
        <ele>399.95947265625</ele>
        <time>2014-12-21T14:23:44Z</time>
      </trkpt>
      <trkpt lat="43.90319" lon="7.26136">
        <ele>399.89663696289</ele>
        <time>2014-12-21T14:23:50Z</time>
      </trkpt>
      <trkpt lat="43.90318" lon="7.26135">
        <ele>399.87066650391</ele>
        <time>2014-12-21T14:23:56Z</time>
      </trkpt>
      <trkpt lat="43.90317" lon="7.26142">
        <ele>400.6344909668</ele>
        <time>2014-12-21T14:24:04Z</time>
      </trkpt>
      <trkpt lat="43.90317" lon="7.26148">
        <ele>401.64080810547</ele>
        <time>2014-12-21T14:24:10Z</time>
      </trkpt>
      <trkpt lat="43.90321" lon="7.26148">
        <ele>402.18048095703</ele>
        <time>2014-12-21T14:24:19Z</time>
      </trkpt>
      <trkpt lat="43.90324" lon="7.26148">
        <ele>402.55825805664</ele>
        <time>2014-12-21T14:24:26Z</time>
      </trkpt>
      <trkpt lat="43.90328" lon="7.26141">
        <ele>400.63470458984</ele>
        <time>2014-12-21T14:24:33Z</time>
      </trkpt>
      <trkpt lat="43.90332" lon="7.26137">
        <ele>399.76715087891</ele>
        <time>2014-12-21T14:24:39Z</time>
      </trkpt>
      <trkpt lat="43.9034" lon="7.26132">
        <ele>402.52301025391</ele>
        <time>2014-12-21T14:24:47Z</time>
      </trkpt>
      <trkpt lat="43.90347" lon="7.26129">
        <ele>405.12112426758</ele>
        <time>2014-12-21T14:24:53Z</time>
      </trkpt>
      <trkpt lat="43.90356" lon="7.26126">
        <ele>408.80834960938</ele>
        <time>2014-12-21T14:25:01Z</time>
      </trkpt>
      <trkpt lat="43.90362" lon="7.26125">
        <ele>411.20581054688</ele>
        <time>2014-12-21T14:25:07Z</time>
      </trkpt>
      <trkpt lat="43.90369" lon="7.26123">
        <ele>413.72583007812</ele>
        <time>2014-12-21T14:25:13Z</time>
      </trkpt>
      <trkpt lat="43.90372" lon="7.26122">
        <ele>414.65621948242</ele>
        <time>2014-12-21T14:25:19Z</time>
      </trkpt>
      <trkpt lat="43.90379" lon="7.26123">
        <ele>417.86627197266</ele>
        <time>2014-12-21T14:25:26Z</time>
      </trkpt>
      <trkpt lat="43.90388" lon="7.26124">
        <ele>421.36474609375</ele>
        <time>2014-12-21T14:25:32Z</time>
      </trkpt>
      <trkpt lat="43.90394" lon="7.26124">
        <ele>423.9889831543</ele>
        <time>2014-12-21T14:25:37Z</time>
      </trkpt>
    </trkseg>
  </trk>
</gpx>